<?xml version="1.0" encoding="UTF-8" standalone="no" ?>
<gpx xmlns="http://www.topografix.com/GPX/1/1" xmlns:xsi="http://www.w3.org/2001/XMLSchema-instance" xsi:schemaLocation="http://www.topografix.com/GPX/1/1 http://www.topografix.com/GPX/1/1/gpx.xsd" version="1.1" creator="VisuGPX - https://www.visugpx.com">
  <metadata>
    <name>Circuit de Planguenoual</name>
    <desc><![CDATA[Circuit de Planguenoual, départ du viaduc des Ponts-Neufs]]></desc>
  </metadata>
  <trk>
    <name><![CDATA[2016-03-25-Planguenoual]]></name>
    <trkseg>
      <trkpt lat="48.50698" lon="-2.61467">
        <ele>40</ele>
        <time>2016-03-25T10:02:58Z</time>
      </trkpt>
      <trkpt lat="48.50698" lon="-2.61467">
        <ele>40</ele>
        <time>2016-03-25T10:02:59Z</time>
      </trkpt>
      <trkpt lat="48.50689" lon="-2.61466">
        <ele>40</ele>
        <time>2016-03-25T10:03:14Z</time>
      </trkpt>
      <trkpt lat="48.50684" lon="-2.61478">
        <ele>40</ele>
        <time>2016-03-25T10:03:18Z</time>
      </trkpt>
      <trkpt lat="48.50686" lon="-2.61493">
        <ele>40.1</ele>
        <time>2016-03-25T10:03:22Z</time>
      </trkpt>
      <trkpt lat="48.50695" lon="-2.61505">
        <ele>40.3</ele>
        <time>2016-03-25T10:03:26Z</time>
      </trkpt>
      <trkpt lat="48.50703" lon="-2.61512">
        <ele>40.4</ele>
        <time>2016-03-25T10:03:29Z</time>
      </trkpt>
      <trkpt lat="48.50711" lon="-2.61519">
        <ele>40.7</ele>
        <time>2016-03-25T10:03:32Z</time>
      </trkpt>
      <trkpt lat="48.50721" lon="-2.61529">
        <ele>40.9</ele>
        <time>2016-03-25T10:03:36Z</time>
      </trkpt>
      <trkpt lat="48.50731" lon="-2.61535">
        <ele>41.4</ele>
        <time>2016-03-25T10:03:40Z</time>
      </trkpt>
      <trkpt lat="48.50725" lon="-2.61523">
        <ele>42.4</ele>
        <time>2016-03-25T10:03:49Z</time>
      </trkpt>
      <trkpt lat="48.50719" lon="-2.61508">
        <ele>42.8</ele>
        <time>2016-03-25T10:03:53Z</time>
      </trkpt>
      <trkpt lat="48.50715" lon="-2.61494">
        <ele>43</ele>
        <time>2016-03-25T10:03:56Z</time>
      </trkpt>
      <trkpt lat="48.50711" lon="-2.61477">
        <ele>43.2</ele>
        <time>2016-03-25T10:03:59Z</time>
      </trkpt>
      <trkpt lat="48.50709" lon="-2.61459">
        <ele>43.4</ele>
        <time>2016-03-25T10:04:02Z</time>
      </trkpt>
      <trkpt lat="48.50708" lon="-2.61441">
        <ele>43.5</ele>
        <time>2016-03-25T10:04:05Z</time>
      </trkpt>
      <trkpt lat="48.50707" lon="-2.61424">
        <ele>43.7</ele>
        <time>2016-03-25T10:04:08Z</time>
      </trkpt>
      <trkpt lat="48.50709" lon="-2.61408">
        <ele>43.8</ele>
        <time>2016-03-25T10:04:11Z</time>
      </trkpt>
      <trkpt lat="48.50712" lon="-2.6139">
        <ele>43.9</ele>
        <time>2016-03-25T10:04:15Z</time>
      </trkpt>
      <trkpt lat="48.50717" lon="-2.61373">
        <ele>44</ele>
        <time>2016-03-25T10:04:18Z</time>
      </trkpt>
      <trkpt lat="48.50723" lon="-2.61355">
        <ele>44.1</ele>
        <time>2016-03-25T10:04:21Z</time>
      </trkpt>
      <trkpt lat="48.50728" lon="-2.61343">
        <ele>44.1</ele>
        <time>2016-03-25T10:04:23Z</time>
      </trkpt>
      <trkpt lat="48.50737" lon="-2.61328">
        <ele>44.2</ele>
        <time>2016-03-25T10:04:26Z</time>
      </trkpt>
      <trkpt lat="48.50747" lon="-2.61314">
        <ele>44.2</ele>
        <time>2016-03-25T10:04:29Z</time>
      </trkpt>
      <trkpt lat="48.50754" lon="-2.61305">
        <ele>44.2</ele>
        <time>2016-03-25T10:04:31Z</time>
      </trkpt>
      <trkpt lat="48.50761" lon="-2.61298">
        <ele>44.3</ele>
        <time>2016-03-25T10:04:33Z</time>
      </trkpt>
      <trkpt lat="48.5077" lon="-2.61291">
        <ele>44.3</ele>
        <time>2016-03-25T10:04:35Z</time>
      </trkpt>
      <trkpt lat="48.50779" lon="-2.61286">
        <ele>44.3</ele>
        <time>2016-03-25T10:04:37Z</time>
      </trkpt>
      <trkpt lat="48.50787" lon="-2.61282">
        <ele>44.3</ele>
        <time>2016-03-25T10:04:39Z</time>
      </trkpt>
      <trkpt lat="48.50798" lon="-2.61275">
        <ele>44.4</ele>
        <time>2016-03-25T10:04:42Z</time>
      </trkpt>
      <trkpt lat="48.50804" lon="-2.61262">
        <ele>44.4</ele>
        <time>2016-03-25T10:04:45Z</time>
      </trkpt>
      <trkpt lat="48.50811" lon="-2.6125">
        <ele>44.3</ele>
        <time>2016-03-25T10:04:48Z</time>
      </trkpt>
      <trkpt lat="48.50822" lon="-2.61248">
        <ele>44.1</ele>
        <time>2016-03-25T10:04:51Z</time>
      </trkpt>
      <trkpt lat="48.50834" lon="-2.61247">
        <ele>44</ele>
        <time>2016-03-25T10:04:54Z</time>
      </trkpt>
      <trkpt lat="48.50846" lon="-2.61246">
        <ele>43.9</ele>
        <time>2016-03-25T10:04:57Z</time>
      </trkpt>
      <trkpt lat="48.50858" lon="-2.61245">
        <ele>43.9</ele>
        <time>2016-03-25T10:05:00Z</time>
      </trkpt>
      <trkpt lat="48.5087" lon="-2.61245">
        <ele>43.4</ele>
        <time>2016-03-25T10:05:03Z</time>
      </trkpt>
      <trkpt lat="48.50883" lon="-2.61245">
        <ele>42.7</ele>
        <time>2016-03-25T10:05:06Z</time>
      </trkpt>
      <trkpt lat="48.50896" lon="-2.61245">
        <ele>43</ele>
        <time>2016-03-25T10:05:09Z</time>
      </trkpt>
      <trkpt lat="48.50908" lon="-2.61244">
        <ele>43.2</ele>
        <time>2016-03-25T10:05:12Z</time>
      </trkpt>
      <trkpt lat="48.50917" lon="-2.61241">
        <ele>43.3</ele>
        <time>2016-03-25T10:05:14Z</time>
      </trkpt>
      <trkpt lat="48.50926" lon="-2.61236">
        <ele>43.4</ele>
        <time>2016-03-25T10:05:16Z</time>
      </trkpt>
      <trkpt lat="48.50935" lon="-2.61228">
        <ele>43.6</ele>
        <time>2016-03-25T10:05:18Z</time>
      </trkpt>
      <trkpt lat="48.50946" lon="-2.61216">
        <ele>43.8</ele>
        <time>2016-03-25T10:05:21Z</time>
      </trkpt>
      <trkpt lat="48.50956" lon="-2.61203">
        <ele>44.1</ele>
        <time>2016-03-25T10:05:24Z</time>
      </trkpt>
      <trkpt lat="48.50965" lon="-2.6119">
        <ele>44.4</ele>
        <time>2016-03-25T10:05:27Z</time>
      </trkpt>
      <trkpt lat="48.50974" lon="-2.61177">
        <ele>44.7</ele>
        <time>2016-03-25T10:05:30Z</time>
      </trkpt>
      <trkpt lat="48.50983" lon="-2.61163">
        <ele>45.1</ele>
        <time>2016-03-25T10:05:33Z</time>
      </trkpt>
      <trkpt lat="48.50992" lon="-2.61151">
        <ele>45.5</ele>
        <time>2016-03-25T10:05:36Z</time>
      </trkpt>
      <trkpt lat="48.51001" lon="-2.61139">
        <ele>45.9</ele>
        <time>2016-03-25T10:05:39Z</time>
      </trkpt>
      <trkpt lat="48.51007" lon="-2.6113">
        <ele>46.3</ele>
        <time>2016-03-25T10:05:42Z</time>
      </trkpt>
      <trkpt lat="48.51014" lon="-2.61119">
        <ele>46.7</ele>
        <time>2016-03-25T10:05:45Z</time>
      </trkpt>
      <trkpt lat="48.5102" lon="-2.61107">
        <ele>47.2</ele>
        <time>2016-03-25T10:05:48Z</time>
      </trkpt>
      <trkpt lat="48.51025" lon="-2.61093">
        <ele>47.5</ele>
        <time>2016-03-25T10:05:51Z</time>
      </trkpt>
      <trkpt lat="48.5103" lon="-2.61079">
        <ele>47.9</ele>
        <time>2016-03-25T10:05:54Z</time>
      </trkpt>
      <trkpt lat="48.51034" lon="-2.61063">
        <ele>48.3</ele>
        <time>2016-03-25T10:05:57Z</time>
      </trkpt>
      <trkpt lat="48.51038" lon="-2.61048">
        <ele>48.6</ele>
        <time>2016-03-25T10:06:00Z</time>
      </trkpt>
      <trkpt lat="48.5104" lon="-2.61032">
        <ele>49</ele>
        <time>2016-03-25T10:06:03Z</time>
      </trkpt>
      <trkpt lat="48.51042" lon="-2.61017">
        <ele>49.3</ele>
        <time>2016-03-25T10:06:06Z</time>
      </trkpt>
      <trkpt lat="48.51043" lon="-2.61001">
        <ele>49.7</ele>
        <time>2016-03-25T10:06:09Z</time>
      </trkpt>
      <trkpt lat="48.51044" lon="-2.60985">
        <ele>50.1</ele>
        <time>2016-03-25T10:06:12Z</time>
      </trkpt>
      <trkpt lat="48.51044" lon="-2.60969">
        <ele>50.4</ele>
        <time>2016-03-25T10:06:15Z</time>
      </trkpt>
      <trkpt lat="48.51043" lon="-2.60953">
        <ele>50.7</ele>
        <time>2016-03-25T10:06:18Z</time>
      </trkpt>
      <trkpt lat="48.51042" lon="-2.60938">
        <ele>51.2</ele>
        <time>2016-03-25T10:06:21Z</time>
      </trkpt>
      <trkpt lat="48.51041" lon="-2.60922">
        <ele>51.6</ele>
        <time>2016-03-25T10:06:24Z</time>
      </trkpt>
      <trkpt lat="48.51039" lon="-2.60906">
        <ele>52</ele>
        <time>2016-03-25T10:06:27Z</time>
      </trkpt>
      <trkpt lat="48.51038" lon="-2.60889">
        <ele>52.4</ele>
        <time>2016-03-25T10:06:30Z</time>
      </trkpt>
      <trkpt lat="48.51035" lon="-2.60873">
        <ele>52.8</ele>
        <time>2016-03-25T10:06:33Z</time>
      </trkpt>
      <trkpt lat="48.51033" lon="-2.60856">
        <ele>53.2</ele>
        <time>2016-03-25T10:06:36Z</time>
      </trkpt>
      <trkpt lat="48.51031" lon="-2.6084">
        <ele>53.6</ele>
        <time>2016-03-25T10:06:39Z</time>
      </trkpt>
      <trkpt lat="48.51029" lon="-2.60824">
        <ele>54</ele>
        <time>2016-03-25T10:06:42Z</time>
      </trkpt>
      <trkpt lat="48.51027" lon="-2.60809">
        <ele>54.4</ele>
        <time>2016-03-25T10:06:45Z</time>
      </trkpt>
      <trkpt lat="48.51026" lon="-2.60793">
        <ele>54.7</ele>
        <time>2016-03-25T10:06:48Z</time>
      </trkpt>
      <trkpt lat="48.51026" lon="-2.60777">
        <ele>55</ele>
        <time>2016-03-25T10:06:51Z</time>
      </trkpt>
      <trkpt lat="48.51027" lon="-2.60761">
        <ele>55.4</ele>
        <time>2016-03-25T10:06:54Z</time>
      </trkpt>
      <trkpt lat="48.51029" lon="-2.60744">
        <ele>55.9</ele>
        <time>2016-03-25T10:06:57Z</time>
      </trkpt>
      <trkpt lat="48.51032" lon="-2.60728">
        <ele>56.2</ele>
        <time>2016-03-25T10:07:00Z</time>
      </trkpt>
      <trkpt lat="48.51035" lon="-2.60714">
        <ele>56.5</ele>
        <time>2016-03-25T10:07:03Z</time>
      </trkpt>
      <trkpt lat="48.51038" lon="-2.607">
        <ele>56.9</ele>
        <time>2016-03-25T10:07:06Z</time>
      </trkpt>
      <trkpt lat="48.5104" lon="-2.60683">
        <ele>57.3</ele>
        <time>2016-03-25T10:07:09Z</time>
      </trkpt>
      <trkpt lat="48.51047" lon="-2.60669">
        <ele>57.6</ele>
        <time>2016-03-25T10:07:12Z</time>
      </trkpt>
      <trkpt lat="48.51056" lon="-2.60656">
        <ele>58.1</ele>
        <time>2016-03-25T10:07:15Z</time>
      </trkpt>
      <trkpt lat="48.51065" lon="-2.60642">
        <ele>58.7</ele>
        <time>2016-03-25T10:07:18Z</time>
      </trkpt>
      <trkpt lat="48.51074" lon="-2.60629">
        <ele>59.2</ele>
        <time>2016-03-25T10:07:21Z</time>
      </trkpt>
      <trkpt lat="48.51083" lon="-2.60615">
        <ele>59.7</ele>
        <time>2016-03-25T10:07:24Z</time>
      </trkpt>
      <trkpt lat="48.5109" lon="-2.60605">
        <ele>60</ele>
        <time>2016-03-25T10:07:26Z</time>
      </trkpt>
      <trkpt lat="48.51096" lon="-2.60596">
        <ele>60.3</ele>
        <time>2016-03-25T10:07:28Z</time>
      </trkpt>
      <trkpt lat="48.51103" lon="-2.60586">
        <ele>60.7</ele>
        <time>2016-03-25T10:07:30Z</time>
      </trkpt>
      <trkpt lat="48.5111" lon="-2.60577">
        <ele>61</ele>
        <time>2016-03-25T10:07:32Z</time>
      </trkpt>
      <trkpt lat="48.51119" lon="-2.60563">
        <ele>61.5</ele>
        <time>2016-03-25T10:07:35Z</time>
      </trkpt>
      <trkpt lat="48.51129" lon="-2.60548">
        <ele>61.9</ele>
        <time>2016-03-25T10:07:38Z</time>
      </trkpt>
      <trkpt lat="48.51138" lon="-2.60534">
        <ele>62.4</ele>
        <time>2016-03-25T10:07:41Z</time>
      </trkpt>
      <trkpt lat="48.51145" lon="-2.60525">
        <ele>62.7</ele>
        <time>2016-03-25T10:07:43Z</time>
      </trkpt>
      <trkpt lat="48.51152" lon="-2.60515">
        <ele>63</ele>
        <time>2016-03-25T10:07:45Z</time>
      </trkpt>
      <trkpt lat="48.51158" lon="-2.60506">
        <ele>63.4</ele>
        <time>2016-03-25T10:07:47Z</time>
      </trkpt>
      <trkpt lat="48.51165" lon="-2.60496">
        <ele>63.7</ele>
        <time>2016-03-25T10:07:49Z</time>
      </trkpt>
      <trkpt lat="48.51174" lon="-2.60482">
        <ele>64.1</ele>
        <time>2016-03-25T10:07:52Z</time>
      </trkpt>
      <trkpt lat="48.51183" lon="-2.60468">
        <ele>64.7</ele>
        <time>2016-03-25T10:07:55Z</time>
      </trkpt>
      <trkpt lat="48.51192" lon="-2.60454">
        <ele>65.1</ele>
        <time>2016-03-25T10:07:58Z</time>
      </trkpt>
      <trkpt lat="48.51202" lon="-2.6044">
        <ele>65.5</ele>
        <time>2016-03-25T10:08:01Z</time>
      </trkpt>
      <trkpt lat="48.51211" lon="-2.60426">
        <ele>66</ele>
        <time>2016-03-25T10:08:04Z</time>
      </trkpt>
      <trkpt lat="48.51221" lon="-2.60412">
        <ele>66.5</ele>
        <time>2016-03-25T10:08:07Z</time>
      </trkpt>
      <trkpt lat="48.51231" lon="-2.60398">
        <ele>67</ele>
        <time>2016-03-25T10:08:10Z</time>
      </trkpt>
      <trkpt lat="48.5124" lon="-2.60384">
        <ele>67.4</ele>
        <time>2016-03-25T10:08:13Z</time>
      </trkpt>
      <trkpt lat="48.51247" lon="-2.60375">
        <ele>67.7</ele>
        <time>2016-03-25T10:08:15Z</time>
      </trkpt>
      <trkpt lat="48.51256" lon="-2.60361">
        <ele>68.2</ele>
        <time>2016-03-25T10:08:18Z</time>
      </trkpt>
      <trkpt lat="48.51265" lon="-2.60348">
        <ele>68.6</ele>
        <time>2016-03-25T10:08:21Z</time>
      </trkpt>
      <trkpt lat="48.51275" lon="-2.60334">
        <ele>69</ele>
        <time>2016-03-25T10:08:24Z</time>
      </trkpt>
      <trkpt lat="48.51284" lon="-2.60321">
        <ele>69.3</ele>
        <time>2016-03-25T10:08:27Z</time>
      </trkpt>
      <trkpt lat="48.51294" lon="-2.60314">
        <ele>69.6</ele>
        <time>2016-03-25T10:08:29Z</time>
      </trkpt>
      <trkpt lat="48.51304" lon="-2.60304">
        <ele>70.1</ele>
        <time>2016-03-25T10:08:32Z</time>
      </trkpt>
      <trkpt lat="48.51314" lon="-2.60311">
        <ele>70.5</ele>
        <time>2016-03-25T10:08:35Z</time>
      </trkpt>
      <trkpt lat="48.51318" lon="-2.60324">
        <ele>70.9</ele>
        <time>2016-03-25T10:08:38Z</time>
      </trkpt>
      <trkpt lat="48.51321" lon="-2.60337">
        <ele>71.2</ele>
        <time>2016-03-25T10:08:41Z</time>
      </trkpt>
      <trkpt lat="48.51326" lon="-2.60351">
        <ele>71.6</ele>
        <time>2016-03-25T10:08:44Z</time>
      </trkpt>
      <trkpt lat="48.51333" lon="-2.60364">
        <ele>72</ele>
        <time>2016-03-25T10:08:48Z</time>
      </trkpt>
      <trkpt lat="48.5134" lon="-2.60376">
        <ele>72.5</ele>
        <time>2016-03-25T10:08:52Z</time>
      </trkpt>
      <trkpt lat="48.51349" lon="-2.60387">
        <ele>72.9</ele>
        <time>2016-03-25T10:08:56Z</time>
      </trkpt>
      <trkpt lat="48.51357" lon="-2.60398">
        <ele>73.3</ele>
        <time>2016-03-25T10:09:00Z</time>
      </trkpt>
      <trkpt lat="48.51365" lon="-2.60405">
        <ele>73.7</ele>
        <time>2016-03-25T10:09:04Z</time>
      </trkpt>
      <trkpt lat="48.51373" lon="-2.60416">
        <ele>74.2</ele>
        <time>2016-03-25T10:09:08Z</time>
      </trkpt>
      <trkpt lat="48.51381" lon="-2.60426">
        <ele>74.8</ele>
        <time>2016-03-25T10:09:13Z</time>
      </trkpt>
      <trkpt lat="48.5139" lon="-2.60436">
        <ele>75.3</ele>
        <time>2016-03-25T10:09:17Z</time>
      </trkpt>
      <trkpt lat="48.51398" lon="-2.60448">
        <ele>75.7</ele>
        <time>2016-03-25T10:09:21Z</time>
      </trkpt>
      <trkpt lat="48.51406" lon="-2.60458">
        <ele>76.1</ele>
        <time>2016-03-25T10:09:25Z</time>
      </trkpt>
      <trkpt lat="48.51413" lon="-2.60467">
        <ele>76.4</ele>
        <time>2016-03-25T10:09:29Z</time>
      </trkpt>
      <trkpt lat="48.51425" lon="-2.60479">
        <ele>76.8</ele>
        <time>2016-03-25T10:09:34Z</time>
      </trkpt>
      <trkpt lat="48.51434" lon="-2.60487">
        <ele>77</ele>
        <time>2016-03-25T10:09:37Z</time>
      </trkpt>
      <trkpt lat="48.51441" lon="-2.60496">
        <ele>77.2</ele>
        <time>2016-03-25T10:09:40Z</time>
      </trkpt>
      <trkpt lat="48.51449" lon="-2.60506">
        <ele>77.4</ele>
        <time>2016-03-25T10:09:43Z</time>
      </trkpt>
      <trkpt lat="48.51457" lon="-2.60516">
        <ele>77.5</ele>
        <time>2016-03-25T10:09:46Z</time>
      </trkpt>
      <trkpt lat="48.51464" lon="-2.60527">
        <ele>77.6</ele>
        <time>2016-03-25T10:09:49Z</time>
      </trkpt>
      <trkpt lat="48.51471" lon="-2.60537">
        <ele>77.7</ele>
        <time>2016-03-25T10:09:52Z</time>
      </trkpt>
      <trkpt lat="48.51479" lon="-2.60546">
        <ele>77.8</ele>
        <time>2016-03-25T10:09:54Z</time>
      </trkpt>
      <trkpt lat="48.51489" lon="-2.60559">
        <ele>77.8</ele>
        <time>2016-03-25T10:09:57Z</time>
      </trkpt>
      <trkpt lat="48.51498" lon="-2.6057">
        <ele>77.9</ele>
        <time>2016-03-25T10:10:00Z</time>
      </trkpt>
      <trkpt lat="48.51506" lon="-2.60581">
        <ele>77.9</ele>
        <time>2016-03-25T10:10:03Z</time>
      </trkpt>
      <trkpt lat="48.51518" lon="-2.60593">
        <ele>77.9</ele>
        <time>2016-03-25T10:10:06Z</time>
      </trkpt>
      <trkpt lat="48.51528" lon="-2.60607">
        <ele>78</ele>
        <time>2016-03-25T10:10:09Z</time>
      </trkpt>
      <trkpt lat="48.51537" lon="-2.6062">
        <ele>78</ele>
        <time>2016-03-25T10:10:12Z</time>
      </trkpt>
      <trkpt lat="48.51545" lon="-2.60632">
        <ele>78</ele>
        <time>2016-03-25T10:10:15Z</time>
      </trkpt>
      <trkpt lat="48.51555" lon="-2.60644">
        <ele>78</ele>
        <time>2016-03-25T10:10:18Z</time>
      </trkpt>
      <trkpt lat="48.51564" lon="-2.60655">
        <ele>78</ele>
        <time>2016-03-25T10:10:21Z</time>
      </trkpt>
      <trkpt lat="48.51574" lon="-2.60665">
        <ele>78</ele>
        <time>2016-03-25T10:10:24Z</time>
      </trkpt>
      <trkpt lat="48.51583" lon="-2.60673">
        <ele>78</ele>
        <time>2016-03-25T10:10:27Z</time>
      </trkpt>
      <trkpt lat="48.51594" lon="-2.60678">
        <ele>78</ele>
        <time>2016-03-25T10:10:30Z</time>
      </trkpt>
      <trkpt lat="48.51605" lon="-2.60682">
        <ele>78</ele>
        <time>2016-03-25T10:10:33Z</time>
      </trkpt>
      <trkpt lat="48.51614" lon="-2.60685">
        <ele>78.1</ele>
        <time>2016-03-25T10:10:36Z</time>
      </trkpt>
      <trkpt lat="48.51625" lon="-2.60689">
        <ele>78.2</ele>
        <time>2016-03-25T10:10:39Z</time>
      </trkpt>
      <trkpt lat="48.51637" lon="-2.60691">
        <ele>78.3</ele>
        <time>2016-03-25T10:10:43Z</time>
      </trkpt>
      <trkpt lat="48.51647" lon="-2.60692">
        <ele>78.5</ele>
        <time>2016-03-25T10:10:46Z</time>
      </trkpt>
      <trkpt lat="48.51659" lon="-2.60693">
        <ele>78.6</ele>
        <time>2016-03-25T10:10:49Z</time>
      </trkpt>
      <trkpt lat="48.5167" lon="-2.60694">
        <ele>78.8</ele>
        <time>2016-03-25T10:10:52Z</time>
      </trkpt>
      <trkpt lat="48.5168" lon="-2.60693">
        <ele>79</ele>
        <time>2016-03-25T10:10:55Z</time>
      </trkpt>
      <trkpt lat="48.5169" lon="-2.60693">
        <ele>79.2</ele>
        <time>2016-03-25T10:10:58Z</time>
      </trkpt>
      <trkpt lat="48.51701" lon="-2.60691">
        <ele>79.7</ele>
        <time>2016-03-25T10:11:02Z</time>
      </trkpt>
      <trkpt lat="48.51711" lon="-2.60692">
        <ele>80.1</ele>
        <time>2016-03-25T10:11:05Z</time>
      </trkpt>
      <trkpt lat="48.51722" lon="-2.60694">
        <ele>80.5</ele>
        <time>2016-03-25T10:11:09Z</time>
      </trkpt>
      <trkpt lat="48.51734" lon="-2.60697">
        <ele>80.9</ele>
        <time>2016-03-25T10:11:13Z</time>
      </trkpt>
      <trkpt lat="48.51743" lon="-2.60701">
        <ele>81</ele>
        <time>2016-03-25T10:11:16Z</time>
      </trkpt>
      <trkpt lat="48.51752" lon="-2.60705">
        <ele>81.1</ele>
        <time>2016-03-25T10:11:19Z</time>
      </trkpt>
      <trkpt lat="48.51763" lon="-2.60712">
        <ele>81.2</ele>
        <time>2016-03-25T10:11:22Z</time>
      </trkpt>
      <trkpt lat="48.51771" lon="-2.60717">
        <ele>81.4</ele>
        <time>2016-03-25T10:11:25Z</time>
      </trkpt>
      <trkpt lat="48.5178" lon="-2.60723">
        <ele>81.5</ele>
        <time>2016-03-25T10:11:28Z</time>
      </trkpt>
      <trkpt lat="48.51791" lon="-2.60732">
        <ele>81.6</ele>
        <time>2016-03-25T10:11:31Z</time>
      </trkpt>
      <trkpt lat="48.51801" lon="-2.60742">
        <ele>81.7</ele>
        <time>2016-03-25T10:11:34Z</time>
      </trkpt>
      <trkpt lat="48.51812" lon="-2.60751">
        <ele>81.9</ele>
        <time>2016-03-25T10:11:37Z</time>
      </trkpt>
      <trkpt lat="48.5182" lon="-2.60758">
        <ele>81.9</ele>
        <time>2016-03-25T10:11:39Z</time>
      </trkpt>
      <trkpt lat="48.51831" lon="-2.60767">
        <ele>82</ele>
        <time>2016-03-25T10:11:42Z</time>
      </trkpt>
      <trkpt lat="48.51842" lon="-2.60777">
        <ele>81.9</ele>
        <time>2016-03-25T10:11:45Z</time>
      </trkpt>
      <trkpt lat="48.51853" lon="-2.60786">
        <ele>81.8</ele>
        <time>2016-03-25T10:11:48Z</time>
      </trkpt>
      <trkpt lat="48.51864" lon="-2.60794">
        <ele>81.8</ele>
        <time>2016-03-25T10:11:51Z</time>
      </trkpt>
      <trkpt lat="48.51876" lon="-2.60801">
        <ele>81.6</ele>
        <time>2016-03-25T10:11:54Z</time>
      </trkpt>
      <trkpt lat="48.51887" lon="-2.6081">
        <ele>81.5</ele>
        <time>2016-03-25T10:11:57Z</time>
      </trkpt>
      <trkpt lat="48.51898" lon="-2.60817">
        <ele>81.4</ele>
        <time>2016-03-25T10:12:00Z</time>
      </trkpt>
      <trkpt lat="48.5191" lon="-2.60822">
        <ele>81.3</ele>
        <time>2016-03-25T10:12:03Z</time>
      </trkpt>
      <trkpt lat="48.51922" lon="-2.60825">
        <ele>81.2</ele>
        <time>2016-03-25T10:12:06Z</time>
      </trkpt>
      <trkpt lat="48.51932" lon="-2.6083">
        <ele>81.1</ele>
        <time>2016-03-25T10:12:09Z</time>
      </trkpt>
      <trkpt lat="48.51941" lon="-2.60836">
        <ele>81.1</ele>
        <time>2016-03-25T10:12:12Z</time>
      </trkpt>
      <trkpt lat="48.51951" lon="-2.60841">
        <ele>81</ele>
        <time>2016-03-25T10:12:15Z</time>
      </trkpt>
      <trkpt lat="48.51963" lon="-2.60847">
        <ele>80.8</ele>
        <time>2016-03-25T10:12:18Z</time>
      </trkpt>
      <trkpt lat="48.51973" lon="-2.60848">
        <ele>80.6</ele>
        <time>2016-03-25T10:12:20Z</time>
      </trkpt>
      <trkpt lat="48.51981" lon="-2.60854">
        <ele>80.5</ele>
        <time>2016-03-25T10:12:22Z</time>
      </trkpt>
      <trkpt lat="48.5199" lon="-2.60861">
        <ele>80.3</ele>
        <time>2016-03-25T10:12:24Z</time>
      </trkpt>
      <trkpt lat="48.51999" lon="-2.60869">
        <ele>80.2</ele>
        <time>2016-03-25T10:12:26Z</time>
      </trkpt>
      <trkpt lat="48.52008" lon="-2.60873">
        <ele>80</ele>
        <time>2016-03-25T10:12:28Z</time>
      </trkpt>
      <trkpt lat="48.52019" lon="-2.60877">
        <ele>79.6</ele>
        <time>2016-03-25T10:12:31Z</time>
      </trkpt>
      <trkpt lat="48.52031" lon="-2.60883">
        <ele>79.2</ele>
        <time>2016-03-25T10:12:34Z</time>
      </trkpt>
      <trkpt lat="48.5204" lon="-2.60886">
        <ele>79</ele>
        <time>2016-03-25T10:12:36Z</time>
      </trkpt>
      <trkpt lat="48.52051" lon="-2.6089">
        <ele>78.8</ele>
        <time>2016-03-25T10:12:38Z</time>
      </trkpt>
      <trkpt lat="48.52061" lon="-2.60895">
        <ele>78.6</ele>
        <time>2016-03-25T10:12:40Z</time>
      </trkpt>
      <trkpt lat="48.52071" lon="-2.60899">
        <ele>78.3</ele>
        <time>2016-03-25T10:12:42Z</time>
      </trkpt>
      <trkpt lat="48.52082" lon="-2.60903">
        <ele>78</ele>
        <time>2016-03-25T10:12:44Z</time>
      </trkpt>
      <trkpt lat="48.52092" lon="-2.60907">
        <ele>77.8</ele>
        <time>2016-03-25T10:12:46Z</time>
      </trkpt>
      <trkpt lat="48.52102" lon="-2.60911">
        <ele>77.5</ele>
        <time>2016-03-25T10:12:48Z</time>
      </trkpt>
      <trkpt lat="48.52112" lon="-2.60915">
        <ele>77.2</ele>
        <time>2016-03-25T10:12:50Z</time>
      </trkpt>
      <trkpt lat="48.52121" lon="-2.60919">
        <ele>76.9</ele>
        <time>2016-03-25T10:12:52Z</time>
      </trkpt>
      <trkpt lat="48.52131" lon="-2.60923">
        <ele>76.6</ele>
        <time>2016-03-25T10:12:54Z</time>
      </trkpt>
      <trkpt lat="48.52142" lon="-2.60922">
        <ele>76.3</ele>
        <time>2016-03-25T10:12:56Z</time>
      </trkpt>
      <trkpt lat="48.52151" lon="-2.60918">
        <ele>76</ele>
        <time>2016-03-25T10:12:58Z</time>
      </trkpt>
      <trkpt lat="48.5216" lon="-2.60913">
        <ele>75.8</ele>
        <time>2016-03-25T10:13:00Z</time>
      </trkpt>
      <trkpt lat="48.52169" lon="-2.60912">
        <ele>75.5</ele>
        <time>2016-03-25T10:13:02Z</time>
      </trkpt>
      <trkpt lat="48.52182" lon="-2.60912">
        <ele>75.3</ele>
        <time>2016-03-25T10:13:05Z</time>
      </trkpt>
      <trkpt lat="48.52194" lon="-2.6091">
        <ele>75</ele>
        <time>2016-03-25T10:13:08Z</time>
      </trkpt>
      <trkpt lat="48.52206" lon="-2.60909">
        <ele>75</ele>
        <time>2016-03-25T10:13:11Z</time>
      </trkpt>
      <trkpt lat="48.52218" lon="-2.60908">
        <ele>75</ele>
        <time>2016-03-25T10:13:14Z</time>
      </trkpt>
      <trkpt lat="48.5223" lon="-2.60906">
        <ele>75.1</ele>
        <time>2016-03-25T10:13:17Z</time>
      </trkpt>
      <trkpt lat="48.52241" lon="-2.60902">
        <ele>75.2</ele>
        <time>2016-03-25T10:13:20Z</time>
      </trkpt>
      <trkpt lat="48.52251" lon="-2.60896">
        <ele>75.4</ele>
        <time>2016-03-25T10:13:23Z</time>
      </trkpt>
      <trkpt lat="48.52263" lon="-2.60895">
        <ele>75.6</ele>
        <time>2016-03-25T10:13:26Z</time>
      </trkpt>
      <trkpt lat="48.52272" lon="-2.60897">
        <ele>75.7</ele>
        <time>2016-03-25T10:13:29Z</time>
      </trkpt>
      <trkpt lat="48.5228" lon="-2.60888">
        <ele>75.8</ele>
        <time>2016-03-25T10:13:33Z</time>
      </trkpt>
      <trkpt lat="48.52282" lon="-2.60871">
        <ele>75.9</ele>
        <time>2016-03-25T10:13:36Z</time>
      </trkpt>
      <trkpt lat="48.52287" lon="-2.60854">
        <ele>75.9</ele>
        <time>2016-03-25T10:13:39Z</time>
      </trkpt>
      <trkpt lat="48.52294" lon="-2.60837">
        <ele>76</ele>
        <time>2016-03-25T10:13:42Z</time>
      </trkpt>
      <trkpt lat="48.52301" lon="-2.60821">
        <ele>76</ele>
        <time>2016-03-25T10:13:45Z</time>
      </trkpt>
      <trkpt lat="48.52297" lon="-2.60808">
        <ele>76</ele>
        <time>2016-03-25T10:13:48Z</time>
      </trkpt>
      <trkpt lat="48.52286" lon="-2.608">
        <ele>76.1</ele>
        <time>2016-03-25T10:13:51Z</time>
      </trkpt>
      <trkpt lat="48.52275" lon="-2.60791">
        <ele>76.1</ele>
        <time>2016-03-25T10:13:54Z</time>
      </trkpt>
      <trkpt lat="48.52267" lon="-2.60781">
        <ele>76.1</ele>
        <time>2016-03-25T10:13:57Z</time>
      </trkpt>
      <trkpt lat="48.52258" lon="-2.60771">
        <ele>76.1</ele>
        <time>2016-03-25T10:14:00Z</time>
      </trkpt>
      <trkpt lat="48.5225" lon="-2.6076">
        <ele>76.2</ele>
        <time>2016-03-25T10:14:03Z</time>
      </trkpt>
      <trkpt lat="48.52253" lon="-2.60743">
        <ele>76.4</ele>
        <time>2016-03-25T10:14:06Z</time>
      </trkpt>
      <trkpt lat="48.52261" lon="-2.60728">
        <ele>76.5</ele>
        <time>2016-03-25T10:14:09Z</time>
      </trkpt>
      <trkpt lat="48.52268" lon="-2.60713">
        <ele>76.7</ele>
        <time>2016-03-25T10:14:12Z</time>
      </trkpt>
      <trkpt lat="48.52274" lon="-2.60697">
        <ele>76.9</ele>
        <time>2016-03-25T10:14:15Z</time>
      </trkpt>
      <trkpt lat="48.52277" lon="-2.6068">
        <ele>77.2</ele>
        <time>2016-03-25T10:14:18Z</time>
      </trkpt>
      <trkpt lat="48.52283" lon="-2.60664">
        <ele>77.4</ele>
        <time>2016-03-25T10:14:21Z</time>
      </trkpt>
      <trkpt lat="48.5229" lon="-2.60652">
        <ele>77.7</ele>
        <time>2016-03-25T10:14:24Z</time>
      </trkpt>
      <trkpt lat="48.52293" lon="-2.60637">
        <ele>78</ele>
        <time>2016-03-25T10:14:27Z</time>
      </trkpt>
      <trkpt lat="48.52305" lon="-2.60633">
        <ele>78.4</ele>
        <time>2016-03-25T10:14:31Z</time>
      </trkpt>
      <trkpt lat="48.52318" lon="-2.60635">
        <ele>78.7</ele>
        <time>2016-03-25T10:14:34Z</time>
      </trkpt>
      <trkpt lat="48.52331" lon="-2.60638">
        <ele>79</ele>
        <time>2016-03-25T10:14:37Z</time>
      </trkpt>
      <trkpt lat="48.5234" lon="-2.6064">
        <ele>79.1</ele>
        <time>2016-03-25T10:14:39Z</time>
      </trkpt>
      <trkpt lat="48.52349" lon="-2.60641">
        <ele>79.2</ele>
        <time>2016-03-25T10:14:41Z</time>
      </trkpt>
      <trkpt lat="48.52362" lon="-2.60643">
        <ele>79.4</ele>
        <time>2016-03-25T10:14:44Z</time>
      </trkpt>
      <trkpt lat="48.52373" lon="-2.60646">
        <ele>79.6</ele>
        <time>2016-03-25T10:14:47Z</time>
      </trkpt>
      <trkpt lat="48.52383" lon="-2.60649">
        <ele>79.8</ele>
        <time>2016-03-25T10:14:50Z</time>
      </trkpt>
      <trkpt lat="48.5239" lon="-2.60658">
        <ele>80.2</ele>
        <time>2016-03-25T10:15:01Z</time>
      </trkpt>
      <trkpt lat="48.52386" lon="-2.60671">
        <ele>80.3</ele>
        <time>2016-03-25T10:15:06Z</time>
      </trkpt>
      <trkpt lat="48.5238" lon="-2.60682">
        <ele>80.2</ele>
        <time>2016-03-25T10:15:09Z</time>
      </trkpt>
      <trkpt lat="48.52372" lon="-2.60696">
        <ele>80.2</ele>
        <time>2016-03-25T10:15:12Z</time>
      </trkpt>
      <trkpt lat="48.52366" lon="-2.60709">
        <ele>80.1</ele>
        <time>2016-03-25T10:15:14Z</time>
      </trkpt>
      <trkpt lat="48.52359" lon="-2.60724">
        <ele>79.9</ele>
        <time>2016-03-25T10:15:16Z</time>
      </trkpt>
      <trkpt lat="48.52351" lon="-2.60737">
        <ele>79.7</ele>
        <time>2016-03-25T10:15:18Z</time>
      </trkpt>
      <trkpt lat="48.52343" lon="-2.60749">
        <ele>79.4</ele>
        <time>2016-03-25T10:15:20Z</time>
      </trkpt>
      <trkpt lat="48.52336" lon="-2.60762">
        <ele>79.2</ele>
        <time>2016-03-25T10:15:22Z</time>
      </trkpt>
      <trkpt lat="48.5233" lon="-2.60774">
        <ele>79</ele>
        <time>2016-03-25T10:15:24Z</time>
      </trkpt>
      <trkpt lat="48.52323" lon="-2.60785">
        <ele>78.7</ele>
        <time>2016-03-25T10:15:26Z</time>
      </trkpt>
      <trkpt lat="48.52317" lon="-2.60797">
        <ele>78.4</ele>
        <time>2016-03-25T10:15:28Z</time>
      </trkpt>
      <trkpt lat="48.52311" lon="-2.6081">
        <ele>78.2</ele>
        <time>2016-03-25T10:15:30Z</time>
      </trkpt>
      <trkpt lat="48.52305" lon="-2.60823">
        <ele>78</ele>
        <time>2016-03-25T10:15:32Z</time>
      </trkpt>
      <trkpt lat="48.52299" lon="-2.60836">
        <ele>77.8</ele>
        <time>2016-03-25T10:15:34Z</time>
      </trkpt>
      <trkpt lat="48.52294" lon="-2.6085">
        <ele>77.6</ele>
        <time>2016-03-25T10:15:36Z</time>
      </trkpt>
      <trkpt lat="48.52289" lon="-2.60864">
        <ele>77.5</ele>
        <time>2016-03-25T10:15:38Z</time>
      </trkpt>
      <trkpt lat="48.52286" lon="-2.60879">
        <ele>77.4</ele>
        <time>2016-03-25T10:15:40Z</time>
      </trkpt>
      <trkpt lat="48.52285" lon="-2.60894">
        <ele>77.3</ele>
        <time>2016-03-25T10:15:42Z</time>
      </trkpt>
      <trkpt lat="48.52286" lon="-2.60912">
        <ele>77.1</ele>
        <time>2016-03-25T10:15:45Z</time>
      </trkpt>
      <trkpt lat="48.52287" lon="-2.60929">
        <ele>77</ele>
        <time>2016-03-25T10:15:48Z</time>
      </trkpt>
      <trkpt lat="48.52288" lon="-2.60943">
        <ele>76.7</ele>
        <time>2016-03-25T10:15:50Z</time>
      </trkpt>
      <trkpt lat="48.5229" lon="-2.60958">
        <ele>76.5</ele>
        <time>2016-03-25T10:15:52Z</time>
      </trkpt>
      <trkpt lat="48.52293" lon="-2.60974">
        <ele>76.1</ele>
        <time>2016-03-25T10:15:54Z</time>
      </trkpt>
      <trkpt lat="48.52297" lon="-2.60992">
        <ele>75.7</ele>
        <time>2016-03-25T10:15:56Z</time>
      </trkpt>
      <trkpt lat="48.52301" lon="-2.61012">
        <ele>75.1</ele>
        <time>2016-03-25T10:15:58Z</time>
      </trkpt>
      <trkpt lat="48.52305" lon="-2.61035">
        <ele>74.4</ele>
        <time>2016-03-25T10:16:00Z</time>
      </trkpt>
      <trkpt lat="48.52308" lon="-2.61059">
        <ele>73.6</ele>
        <time>2016-03-25T10:16:02Z</time>
      </trkpt>
      <trkpt lat="48.52312" lon="-2.61084">
        <ele>72.8</ele>
        <time>2016-03-25T10:16:04Z</time>
      </trkpt>
      <trkpt lat="48.52315" lon="-2.61111">
        <ele>71.8</ele>
        <time>2016-03-25T10:16:06Z</time>
      </trkpt>
      <trkpt lat="48.52317" lon="-2.61125">
        <ele>71.3</ele>
        <time>2016-03-25T10:16:07Z</time>
      </trkpt>
      <trkpt lat="48.52319" lon="-2.61138">
        <ele>70.8</ele>
        <time>2016-03-25T10:16:08Z</time>
      </trkpt>
      <trkpt lat="48.52323" lon="-2.61162">
        <ele>70</ele>
        <time>2016-03-25T10:16:10Z</time>
      </trkpt>
      <trkpt lat="48.52326" lon="-2.61179">
        <ele>69.2</ele>
        <time>2016-03-25T10:16:12Z</time>
      </trkpt>
      <trkpt lat="48.52322" lon="-2.61196">
        <ele>68.3</ele>
        <time>2016-03-25T10:16:15Z</time>
      </trkpt>
      <trkpt lat="48.52314" lon="-2.61209">
        <ele>67.7</ele>
        <time>2016-03-25T10:16:18Z</time>
      </trkpt>
      <trkpt lat="48.52309" lon="-2.61221">
        <ele>67.3</ele>
        <time>2016-03-25T10:16:21Z</time>
      </trkpt>
      <trkpt lat="48.52312" lon="-2.61207">
        <ele>66.7</ele>
        <time>2016-03-25T10:16:32Z</time>
      </trkpt>
      <trkpt lat="48.5232" lon="-2.61197">
        <ele>66.6</ele>
        <time>2016-03-25T10:16:35Z</time>
      </trkpt>
      <trkpt lat="48.52333" lon="-2.61198">
        <ele>66.5</ele>
        <time>2016-03-25T10:16:38Z</time>
      </trkpt>
      <trkpt lat="48.52341" lon="-2.61204">
        <ele>66.4</ele>
        <time>2016-03-25T10:16:40Z</time>
      </trkpt>
      <trkpt lat="48.52352" lon="-2.61214">
        <ele>66.4</ele>
        <time>2016-03-25T10:16:43Z</time>
      </trkpt>
      <trkpt lat="48.52362" lon="-2.61223">
        <ele>66.6</ele>
        <time>2016-03-25T10:16:46Z</time>
      </trkpt>
      <trkpt lat="48.52371" lon="-2.6123">
        <ele>66.9</ele>
        <time>2016-03-25T10:16:49Z</time>
      </trkpt>
      <trkpt lat="48.5238" lon="-2.61239">
        <ele>67.3</ele>
        <time>2016-03-25T10:16:52Z</time>
      </trkpt>
      <trkpt lat="48.52389" lon="-2.61247">
        <ele>67.9</ele>
        <time>2016-03-25T10:16:55Z</time>
      </trkpt>
      <trkpt lat="48.52399" lon="-2.61255">
        <ele>68.5</ele>
        <time>2016-03-25T10:16:58Z</time>
      </trkpt>
      <trkpt lat="48.52408" lon="-2.61264">
        <ele>69.1</ele>
        <time>2016-03-25T10:17:01Z</time>
      </trkpt>
      <trkpt lat="48.52417" lon="-2.61272">
        <ele>69.7</ele>
        <time>2016-03-25T10:17:04Z</time>
      </trkpt>
      <trkpt lat="48.52425" lon="-2.6128">
        <ele>70.4</ele>
        <time>2016-03-25T10:17:07Z</time>
      </trkpt>
      <trkpt lat="48.52433" lon="-2.61289">
        <ele>71.2</ele>
        <time>2016-03-25T10:17:10Z</time>
      </trkpt>
      <trkpt lat="48.52442" lon="-2.61298">
        <ele>72</ele>
        <time>2016-03-25T10:17:13Z</time>
      </trkpt>
      <trkpt lat="48.52451" lon="-2.61308">
        <ele>72.8</ele>
        <time>2016-03-25T10:17:16Z</time>
      </trkpt>
      <trkpt lat="48.52459" lon="-2.61317">
        <ele>73.6</ele>
        <time>2016-03-25T10:17:19Z</time>
      </trkpt>
      <trkpt lat="48.52468" lon="-2.61325">
        <ele>74.4</ele>
        <time>2016-03-25T10:17:22Z</time>
      </trkpt>
      <trkpt lat="48.52477" lon="-2.61333">
        <ele>75.3</ele>
        <time>2016-03-25T10:17:25Z</time>
      </trkpt>
      <trkpt lat="48.52487" lon="-2.61339">
        <ele>76.1</ele>
        <time>2016-03-25T10:17:28Z</time>
      </trkpt>
      <trkpt lat="48.52496" lon="-2.61345">
        <ele>77</ele>
        <time>2016-03-25T10:17:31Z</time>
      </trkpt>
      <trkpt lat="48.52506" lon="-2.61351">
        <ele>77.8</ele>
        <time>2016-03-25T10:17:34Z</time>
      </trkpt>
      <trkpt lat="48.52515" lon="-2.61357">
        <ele>78.5</ele>
        <time>2016-03-25T10:17:37Z</time>
      </trkpt>
      <trkpt lat="48.52525" lon="-2.61365">
        <ele>79.2</ele>
        <time>2016-03-25T10:17:40Z</time>
      </trkpt>
      <trkpt lat="48.52533" lon="-2.61373">
        <ele>79.9</ele>
        <time>2016-03-25T10:17:43Z</time>
      </trkpt>
      <trkpt lat="48.52541" lon="-2.61381">
        <ele>80.6</ele>
        <time>2016-03-25T10:17:46Z</time>
      </trkpt>
      <trkpt lat="48.52549" lon="-2.6139">
        <ele>81.2</ele>
        <time>2016-03-25T10:17:49Z</time>
      </trkpt>
      <trkpt lat="48.52557" lon="-2.61399">
        <ele>81.9</ele>
        <time>2016-03-25T10:17:52Z</time>
      </trkpt>
      <trkpt lat="48.52564" lon="-2.61409">
        <ele>82.5</ele>
        <time>2016-03-25T10:17:55Z</time>
      </trkpt>
      <trkpt lat="48.52573" lon="-2.6142">
        <ele>83.2</ele>
        <time>2016-03-25T10:17:58Z</time>
      </trkpt>
      <trkpt lat="48.52582" lon="-2.6143">
        <ele>83.9</ele>
        <time>2016-03-25T10:18:01Z</time>
      </trkpt>
      <trkpt lat="48.52591" lon="-2.6144">
        <ele>84.7</ele>
        <time>2016-03-25T10:18:04Z</time>
      </trkpt>
      <trkpt lat="48.52601" lon="-2.61449">
        <ele>85.3</ele>
        <time>2016-03-25T10:18:07Z</time>
      </trkpt>
      <trkpt lat="48.52611" lon="-2.61457">
        <ele>85.9</ele>
        <time>2016-03-25T10:18:10Z</time>
      </trkpt>
      <trkpt lat="48.5262" lon="-2.61463">
        <ele>86.5</ele>
        <time>2016-03-25T10:18:13Z</time>
      </trkpt>
      <trkpt lat="48.52628" lon="-2.6147">
        <ele>87</ele>
        <time>2016-03-25T10:18:16Z</time>
      </trkpt>
      <trkpt lat="48.52618" lon="-2.61462">
        <ele>89</ele>
        <time>2016-03-25T10:18:29Z</time>
      </trkpt>
      <trkpt lat="48.52607" lon="-2.61459">
        <ele>89.3</ele>
        <time>2016-03-25T10:18:32Z</time>
      </trkpt>
      <trkpt lat="48.52597" lon="-2.61468">
        <ele>89.5</ele>
        <time>2016-03-25T10:18:35Z</time>
      </trkpt>
      <trkpt lat="48.5259" lon="-2.61482">
        <ele>89.7</ele>
        <time>2016-03-25T10:18:38Z</time>
      </trkpt>
      <trkpt lat="48.52582" lon="-2.61491">
        <ele>89.8</ele>
        <time>2016-03-25T10:18:41Z</time>
      </trkpt>
      <trkpt lat="48.5257" lon="-2.61495">
        <ele>90</ele>
        <time>2016-03-25T10:18:44Z</time>
      </trkpt>
      <trkpt lat="48.52557" lon="-2.61499">
        <ele>90.2</ele>
        <time>2016-03-25T10:18:47Z</time>
      </trkpt>
      <trkpt lat="48.52545" lon="-2.61506">
        <ele>90.2</ele>
        <time>2016-03-25T10:18:50Z</time>
      </trkpt>
      <trkpt lat="48.52533" lon="-2.61514">
        <ele>90.4</ele>
        <time>2016-03-25T10:18:53Z</time>
      </trkpt>
      <trkpt lat="48.52522" lon="-2.61521">
        <ele>90.5</ele>
        <time>2016-03-25T10:18:56Z</time>
      </trkpt>
      <trkpt lat="48.52509" lon="-2.61527">
        <ele>90.7</ele>
        <time>2016-03-25T10:18:59Z</time>
      </trkpt>
      <trkpt lat="48.52498" lon="-2.61533">
        <ele>90.9</ele>
        <time>2016-03-25T10:19:02Z</time>
      </trkpt>
      <trkpt lat="48.52486" lon="-2.61538">
        <ele>91.1</ele>
        <time>2016-03-25T10:19:05Z</time>
      </trkpt>
      <trkpt lat="48.52474" lon="-2.61545">
        <ele>91.3</ele>
        <time>2016-03-25T10:19:08Z</time>
      </trkpt>
      <trkpt lat="48.52465" lon="-2.6155">
        <ele>91.4</ele>
        <time>2016-03-25T10:19:10Z</time>
      </trkpt>
      <trkpt lat="48.52457" lon="-2.61555">
        <ele>91.6</ele>
        <time>2016-03-25T10:19:12Z</time>
      </trkpt>
      <trkpt lat="48.52448" lon="-2.61561">
        <ele>91.8</ele>
        <time>2016-03-25T10:19:14Z</time>
      </trkpt>
      <trkpt lat="48.52439" lon="-2.61566">
        <ele>91.8</ele>
        <time>2016-03-25T10:19:16Z</time>
      </trkpt>
      <trkpt lat="48.5243" lon="-2.61572">
        <ele>91.7</ele>
        <time>2016-03-25T10:19:18Z</time>
      </trkpt>
      <trkpt lat="48.52421" lon="-2.61578">
        <ele>91.6</ele>
        <time>2016-03-25T10:19:20Z</time>
      </trkpt>
      <trkpt lat="48.52412" lon="-2.61585">
        <ele>91.5</ele>
        <time>2016-03-25T10:19:22Z</time>
      </trkpt>
      <trkpt lat="48.52403" lon="-2.61592">
        <ele>91.4</ele>
        <time>2016-03-25T10:19:24Z</time>
      </trkpt>
      <trkpt lat="48.52394" lon="-2.616">
        <ele>91.3</ele>
        <time>2016-03-25T10:19:26Z</time>
      </trkpt>
      <trkpt lat="48.52386" lon="-2.6161">
        <ele>91.1</ele>
        <time>2016-03-25T10:19:28Z</time>
      </trkpt>
      <trkpt lat="48.52381" lon="-2.61624">
        <ele>91</ele>
        <time>2016-03-25T10:19:30Z</time>
      </trkpt>
      <trkpt lat="48.52379" lon="-2.61639">
        <ele>90.9</ele>
        <time>2016-03-25T10:19:32Z</time>
      </trkpt>
      <trkpt lat="48.52372" lon="-2.61651">
        <ele>90.8</ele>
        <time>2016-03-25T10:19:34Z</time>
      </trkpt>
      <trkpt lat="48.52363" lon="-2.61658">
        <ele>90.7</ele>
        <time>2016-03-25T10:19:36Z</time>
      </trkpt>
      <trkpt lat="48.52354" lon="-2.61665">
        <ele>90.5</ele>
        <time>2016-03-25T10:19:38Z</time>
      </trkpt>
      <trkpt lat="48.52344" lon="-2.61672">
        <ele>90.2</ele>
        <time>2016-03-25T10:19:40Z</time>
      </trkpt>
      <trkpt lat="48.52335" lon="-2.6168">
        <ele>89.9</ele>
        <time>2016-03-25T10:19:42Z</time>
      </trkpt>
      <trkpt lat="48.52326" lon="-2.61688">
        <ele>89.6</ele>
        <time>2016-03-25T10:19:44Z</time>
      </trkpt>
      <trkpt lat="48.52317" lon="-2.61696">
        <ele>89.3</ele>
        <time>2016-03-25T10:19:46Z</time>
      </trkpt>
      <trkpt lat="48.52307" lon="-2.61703">
        <ele>89</ele>
        <time>2016-03-25T10:19:48Z</time>
      </trkpt>
      <trkpt lat="48.52297" lon="-2.6171">
        <ele>88.6</ele>
        <time>2016-03-25T10:19:50Z</time>
      </trkpt>
      <trkpt lat="48.52285" lon="-2.61715">
        <ele>88</ele>
        <time>2016-03-25T10:19:52Z</time>
      </trkpt>
      <trkpt lat="48.52275" lon="-2.6172">
        <ele>87.4</ele>
        <time>2016-03-25T10:19:54Z</time>
      </trkpt>
      <trkpt lat="48.52271" lon="-2.61732">
        <ele>86.8</ele>
        <time>2016-03-25T10:19:56Z</time>
      </trkpt>
      <trkpt lat="48.52273" lon="-2.61746">
        <ele>86.1</ele>
        <time>2016-03-25T10:19:58Z</time>
      </trkpt>
      <trkpt lat="48.52276" lon="-2.61761">
        <ele>85.4</ele>
        <time>2016-03-25T10:20:00Z</time>
      </trkpt>
      <trkpt lat="48.52279" lon="-2.61778">
        <ele>84.6</ele>
        <time>2016-03-25T10:20:02Z</time>
      </trkpt>
      <trkpt lat="48.52283" lon="-2.61798">
        <ele>83.8</ele>
        <time>2016-03-25T10:20:04Z</time>
      </trkpt>
      <trkpt lat="48.52286" lon="-2.6182">
        <ele>82.9</ele>
        <time>2016-03-25T10:20:06Z</time>
      </trkpt>
      <trkpt lat="48.52287" lon="-2.61837">
        <ele>81.9</ele>
        <time>2016-03-25T10:20:08Z</time>
      </trkpt>
      <trkpt lat="48.52279" lon="-2.61848">
        <ele>80.9</ele>
        <time>2016-03-25T10:20:10Z</time>
      </trkpt>
      <trkpt lat="48.52266" lon="-2.61851">
        <ele>79.6</ele>
        <time>2016-03-25T10:20:12Z</time>
      </trkpt>
      <trkpt lat="48.5225" lon="-2.61851">
        <ele>78.4</ele>
        <time>2016-03-25T10:20:14Z</time>
      </trkpt>
      <trkpt lat="48.52233" lon="-2.61853">
        <ele>77.1</ele>
        <time>2016-03-25T10:20:16Z</time>
      </trkpt>
      <trkpt lat="48.52223" lon="-2.61856">
        <ele>76.4</ele>
        <time>2016-03-25T10:20:17Z</time>
      </trkpt>
      <trkpt lat="48.52214" lon="-2.6186">
        <ele>75.6</ele>
        <time>2016-03-25T10:20:18Z</time>
      </trkpt>
      <trkpt lat="48.52204" lon="-2.61865">
        <ele>74.8</ele>
        <time>2016-03-25T10:20:19Z</time>
      </trkpt>
      <trkpt lat="48.52195" lon="-2.61869">
        <ele>74</ele>
        <time>2016-03-25T10:20:20Z</time>
      </trkpt>
      <trkpt lat="48.52179" lon="-2.61878">
        <ele>72.2</ele>
        <time>2016-03-25T10:20:22Z</time>
      </trkpt>
      <trkpt lat="48.52168" lon="-2.61889">
        <ele>70.3</ele>
        <time>2016-03-25T10:20:24Z</time>
      </trkpt>
      <trkpt lat="48.52165" lon="-2.61906">
        <ele>68.5</ele>
        <time>2016-03-25T10:20:26Z</time>
      </trkpt>
      <trkpt lat="48.52165" lon="-2.61925">
        <ele>66.9</ele>
        <time>2016-03-25T10:20:28Z</time>
      </trkpt>
      <trkpt lat="48.52159" lon="-2.6194">
        <ele>65.2</ele>
        <time>2016-03-25T10:20:30Z</time>
      </trkpt>
      <trkpt lat="48.52154" lon="-2.61956">
        <ele>63.8</ele>
        <time>2016-03-25T10:20:32Z</time>
      </trkpt>
      <trkpt lat="48.52155" lon="-2.61971">
        <ele>62.5</ele>
        <time>2016-03-25T10:20:34Z</time>
      </trkpt>
      <trkpt lat="48.52157" lon="-2.61987">
        <ele>60.7</ele>
        <time>2016-03-25T10:20:37Z</time>
      </trkpt>
      <trkpt lat="48.52152" lon="-2.61999">
        <ele>59.2</ele>
        <time>2016-03-25T10:20:40Z</time>
      </trkpt>
      <trkpt lat="48.52141" lon="-2.62007">
        <ele>58</ele>
        <time>2016-03-25T10:20:43Z</time>
      </trkpt>
      <trkpt lat="48.52132" lon="-2.62013">
        <ele>57.3</ele>
        <time>2016-03-25T10:20:45Z</time>
      </trkpt>
      <trkpt lat="48.52123" lon="-2.62019">
        <ele>56.6</ele>
        <time>2016-03-25T10:20:47Z</time>
      </trkpt>
      <trkpt lat="48.52113" lon="-2.62027">
        <ele>55.9</ele>
        <time>2016-03-25T10:20:49Z</time>
      </trkpt>
      <trkpt lat="48.52104" lon="-2.62035">
        <ele>55.2</ele>
        <time>2016-03-25T10:20:51Z</time>
      </trkpt>
      <trkpt lat="48.52092" lon="-2.62045">
        <ele>54.4</ele>
        <time>2016-03-25T10:20:53Z</time>
      </trkpt>
      <trkpt lat="48.52078" lon="-2.62054">
        <ele>53.5</ele>
        <time>2016-03-25T10:20:55Z</time>
      </trkpt>
      <trkpt lat="48.52066" lon="-2.62064">
        <ele>52.3</ele>
        <time>2016-03-25T10:20:57Z</time>
      </trkpt>
      <trkpt lat="48.52056" lon="-2.62071">
        <ele>51</ele>
        <time>2016-03-25T10:20:59Z</time>
      </trkpt>
      <trkpt lat="48.52051" lon="-2.62083">
        <ele>49.4</ele>
        <time>2016-03-25T10:21:02Z</time>
      </trkpt>
      <trkpt lat="48.52054" lon="-2.62098">
        <ele>47.5</ele>
        <time>2016-03-25T10:21:06Z</time>
      </trkpt>
      <trkpt lat="48.52059" lon="-2.6211">
        <ele>45.3</ele>
        <time>2016-03-25T10:21:11Z</time>
      </trkpt>
      <trkpt lat="48.52067" lon="-2.62114">
        <ele>44.2</ele>
        <time>2016-03-25T10:21:14Z</time>
      </trkpt>
      <trkpt lat="48.52077" lon="-2.62116">
        <ele>42.7</ele>
        <time>2016-03-25T10:21:19Z</time>
      </trkpt>
      <trkpt lat="48.52086" lon="-2.62123">
        <ele>41.8</ele>
        <time>2016-03-25T10:21:24Z</time>
      </trkpt>
      <trkpt lat="48.52098" lon="-2.62124">
        <ele>41.1</ele>
        <time>2016-03-25T10:21:29Z</time>
      </trkpt>
      <trkpt lat="48.52107" lon="-2.62126">
        <ele>40.6</ele>
        <time>2016-03-25T10:21:32Z</time>
      </trkpt>
      <trkpt lat="48.52116" lon="-2.62126">
        <ele>39.6</ele>
        <time>2016-03-25T10:21:38Z</time>
      </trkpt>
      <trkpt lat="48.52128" lon="-2.62129">
        <ele>38.7</ele>
        <time>2016-03-25T10:21:43Z</time>
      </trkpt>
      <trkpt lat="48.52139" lon="-2.62133">
        <ele>37.6</ele>
        <time>2016-03-25T10:21:47Z</time>
      </trkpt>
      <trkpt lat="48.52147" lon="-2.62139">
        <ele>36.4</ele>
        <time>2016-03-25T10:21:50Z</time>
      </trkpt>
      <trkpt lat="48.52157" lon="-2.62139">
        <ele>34.6</ele>
        <time>2016-03-25T10:21:56Z</time>
      </trkpt>
      <trkpt lat="48.52165" lon="-2.62146">
        <ele>33.6</ele>
        <time>2016-03-25T10:22:02Z</time>
      </trkpt>
      <trkpt lat="48.52171" lon="-2.62158">
        <ele>32.9</ele>
        <time>2016-03-25T10:22:10Z</time>
      </trkpt>
      <trkpt lat="48.52181" lon="-2.62156">
        <ele>32.6</ele>
        <time>2016-03-25T10:22:16Z</time>
      </trkpt>
      <trkpt lat="48.52191" lon="-2.62156">
        <ele>32.8</ele>
        <time>2016-03-25T10:22:29Z</time>
      </trkpt>
      <trkpt lat="48.52182" lon="-2.62161">
        <ele>33.8</ele>
        <time>2016-03-25T10:22:53Z</time>
      </trkpt>
      <trkpt lat="48.52173" lon="-2.62153">
        <ele>33.2</ele>
        <time>2016-03-25T10:23:10Z</time>
      </trkpt>
      <trkpt lat="48.52177" lon="-2.62141">
        <ele>33.1</ele>
        <time>2016-03-25T10:23:20Z</time>
      </trkpt>
      <trkpt lat="48.52188" lon="-2.6214">
        <ele>33.4</ele>
        <time>2016-03-25T10:23:26Z</time>
      </trkpt>
      <trkpt lat="48.52198" lon="-2.62139">
        <ele>34.1</ele>
        <time>2016-03-25T10:23:32Z</time>
      </trkpt>
      <trkpt lat="48.52207" lon="-2.62137">
        <ele>35.1</ele>
        <time>2016-03-25T10:23:38Z</time>
      </trkpt>
      <trkpt lat="48.52217" lon="-2.62134">
        <ele>36</ele>
        <time>2016-03-25T10:23:44Z</time>
      </trkpt>
      <trkpt lat="48.52228" lon="-2.62132">
        <ele>37.2</ele>
        <time>2016-03-25T10:23:50Z</time>
      </trkpt>
      <trkpt lat="48.52237" lon="-2.6213">
        <ele>38.1</ele>
        <time>2016-03-25T10:23:55Z</time>
      </trkpt>
      <trkpt lat="48.52247" lon="-2.6213">
        <ele>39</ele>
        <time>2016-03-25T10:24:00Z</time>
      </trkpt>
      <trkpt lat="48.52257" lon="-2.62129">
        <ele>40.1</ele>
        <time>2016-03-25T10:24:06Z</time>
      </trkpt>
      <trkpt lat="48.52267" lon="-2.6213">
        <ele>41.3</ele>
        <time>2016-03-25T10:24:12Z</time>
      </trkpt>
      <trkpt lat="48.52277" lon="-2.6213">
        <ele>42.7</ele>
        <time>2016-03-25T10:24:18Z</time>
      </trkpt>
      <trkpt lat="48.52287" lon="-2.62129">
        <ele>43.5</ele>
        <time>2016-03-25T10:24:23Z</time>
      </trkpt>
      <trkpt lat="48.52297" lon="-2.62126">
        <ele>44.2</ele>
        <time>2016-03-25T10:24:28Z</time>
      </trkpt>
      <trkpt lat="48.52307" lon="-2.62125">
        <ele>44.8</ele>
        <time>2016-03-25T10:24:32Z</time>
      </trkpt>
      <trkpt lat="48.52317" lon="-2.62124">
        <ele>45.6</ele>
        <time>2016-03-25T10:24:37Z</time>
      </trkpt>
      <trkpt lat="48.52327" lon="-2.62124">
        <ele>46.3</ele>
        <time>2016-03-25T10:24:42Z</time>
      </trkpt>
      <trkpt lat="48.52338" lon="-2.62124">
        <ele>47</ele>
        <time>2016-03-25T10:24:47Z</time>
      </trkpt>
      <trkpt lat="48.52349" lon="-2.62124">
        <ele>47.8</ele>
        <time>2016-03-25T10:24:52Z</time>
      </trkpt>
      <trkpt lat="48.52358" lon="-2.62125">
        <ele>48.3</ele>
        <time>2016-03-25T10:24:56Z</time>
      </trkpt>
      <trkpt lat="48.52369" lon="-2.62127">
        <ele>49.1</ele>
        <time>2016-03-25T10:25:01Z</time>
      </trkpt>
      <trkpt lat="48.52378" lon="-2.62129">
        <ele>49.7</ele>
        <time>2016-03-25T10:25:06Z</time>
      </trkpt>
      <trkpt lat="48.52389" lon="-2.62129">
        <ele>50.4</ele>
        <time>2016-03-25T10:25:11Z</time>
      </trkpt>
      <trkpt lat="48.52398" lon="-2.62129">
        <ele>51.1</ele>
        <time>2016-03-25T10:25:15Z</time>
      </trkpt>
      <trkpt lat="48.52409" lon="-2.62129">
        <ele>51.9</ele>
        <time>2016-03-25T10:25:20Z</time>
      </trkpt>
      <trkpt lat="48.52419" lon="-2.62129">
        <ele>52.4</ele>
        <time>2016-03-25T10:25:24Z</time>
      </trkpt>
      <trkpt lat="48.52428" lon="-2.62128">
        <ele>53.1</ele>
        <time>2016-03-25T10:25:28Z</time>
      </trkpt>
      <trkpt lat="48.52438" lon="-2.62126">
        <ele>53.6</ele>
        <time>2016-03-25T10:25:32Z</time>
      </trkpt>
      <trkpt lat="48.52448" lon="-2.62124">
        <ele>54.2</ele>
        <time>2016-03-25T10:25:36Z</time>
      </trkpt>
      <trkpt lat="48.52457" lon="-2.62121">
        <ele>54.9</ele>
        <time>2016-03-25T10:25:40Z</time>
      </trkpt>
      <trkpt lat="48.52466" lon="-2.62118">
        <ele>55.5</ele>
        <time>2016-03-25T10:25:44Z</time>
      </trkpt>
      <trkpt lat="48.52476" lon="-2.62115">
        <ele>56.2</ele>
        <time>2016-03-25T10:25:48Z</time>
      </trkpt>
      <trkpt lat="48.52486" lon="-2.62112">
        <ele>56.8</ele>
        <time>2016-03-25T10:25:52Z</time>
      </trkpt>
      <trkpt lat="48.52496" lon="-2.62109">
        <ele>57.4</ele>
        <time>2016-03-25T10:25:56Z</time>
      </trkpt>
      <trkpt lat="48.52506" lon="-2.62105">
        <ele>58</ele>
        <time>2016-03-25T10:26:00Z</time>
      </trkpt>
      <trkpt lat="48.52516" lon="-2.62103">
        <ele>58.6</ele>
        <time>2016-03-25T10:26:04Z</time>
      </trkpt>
      <trkpt lat="48.52525" lon="-2.621">
        <ele>59.1</ele>
        <time>2016-03-25T10:26:08Z</time>
      </trkpt>
      <trkpt lat="48.52534" lon="-2.62098">
        <ele>59.7</ele>
        <time>2016-03-25T10:26:12Z</time>
      </trkpt>
      <trkpt lat="48.52544" lon="-2.62095">
        <ele>60.2</ele>
        <time>2016-03-25T10:26:16Z</time>
      </trkpt>
      <trkpt lat="48.52554" lon="-2.62087">
        <ele>61.1</ele>
        <time>2016-03-25T10:26:21Z</time>
      </trkpt>
      <trkpt lat="48.52562" lon="-2.62079">
        <ele>61.7</ele>
        <time>2016-03-25T10:26:25Z</time>
      </trkpt>
      <trkpt lat="48.52571" lon="-2.6207">
        <ele>62.7</ele>
        <time>2016-03-25T10:26:30Z</time>
      </trkpt>
      <trkpt lat="48.52579" lon="-2.62064">
        <ele>63.3</ele>
        <time>2016-03-25T10:26:34Z</time>
      </trkpt>
      <trkpt lat="48.52589" lon="-2.62059">
        <ele>63.9</ele>
        <time>2016-03-25T10:26:38Z</time>
      </trkpt>
      <trkpt lat="48.52599" lon="-2.62055">
        <ele>64.4</ele>
        <time>2016-03-25T10:26:42Z</time>
      </trkpt>
      <trkpt lat="48.52609" lon="-2.6205">
        <ele>64.8</ele>
        <time>2016-03-25T10:26:46Z</time>
      </trkpt>
      <trkpt lat="48.52619" lon="-2.62044">
        <ele>65.3</ele>
        <time>2016-03-25T10:26:50Z</time>
      </trkpt>
      <trkpt lat="48.52628" lon="-2.62036">
        <ele>65.9</ele>
        <time>2016-03-25T10:26:54Z</time>
      </trkpt>
      <trkpt lat="48.52636" lon="-2.62028">
        <ele>66.5</ele>
        <time>2016-03-25T10:26:58Z</time>
      </trkpt>
      <trkpt lat="48.52643" lon="-2.62019">
        <ele>66.9</ele>
        <time>2016-03-25T10:27:02Z</time>
      </trkpt>
      <trkpt lat="48.5265" lon="-2.6201">
        <ele>67.4</ele>
        <time>2016-03-25T10:27:06Z</time>
      </trkpt>
      <trkpt lat="48.52657" lon="-2.61999">
        <ele>68</ele>
        <time>2016-03-25T10:27:10Z</time>
      </trkpt>
      <trkpt lat="48.52665" lon="-2.61991">
        <ele>68.5</ele>
        <time>2016-03-25T10:27:14Z</time>
      </trkpt>
      <trkpt lat="48.52674" lon="-2.61986">
        <ele>69</ele>
        <time>2016-03-25T10:27:18Z</time>
      </trkpt>
      <trkpt lat="48.52684" lon="-2.6198">
        <ele>69.5</ele>
        <time>2016-03-25T10:27:22Z</time>
      </trkpt>
      <trkpt lat="48.52692" lon="-2.61972">
        <ele>70.1</ele>
        <time>2016-03-25T10:27:26Z</time>
      </trkpt>
      <trkpt lat="48.52701" lon="-2.61965">
        <ele>70.8</ele>
        <time>2016-03-25T10:27:30Z</time>
      </trkpt>
      <trkpt lat="48.52709" lon="-2.61959">
        <ele>71.3</ele>
        <time>2016-03-25T10:27:34Z</time>
      </trkpt>
      <trkpt lat="48.52719" lon="-2.61953">
        <ele>71.7</ele>
        <time>2016-03-25T10:27:38Z</time>
      </trkpt>
      <trkpt lat="48.52728" lon="-2.61949">
        <ele>72</ele>
        <time>2016-03-25T10:27:41Z</time>
      </trkpt>
      <trkpt lat="48.52739" lon="-2.61946">
        <ele>72.6</ele>
        <time>2016-03-25T10:27:45Z</time>
      </trkpt>
      <trkpt lat="48.52751" lon="-2.61943">
        <ele>73.1</ele>
        <time>2016-03-25T10:27:49Z</time>
      </trkpt>
      <trkpt lat="48.52759" lon="-2.6194">
        <ele>73.8</ele>
        <time>2016-03-25T10:27:54Z</time>
      </trkpt>
      <trkpt lat="48.52768" lon="-2.61933">
        <ele>74.8</ele>
        <time>2016-03-25T10:28:05Z</time>
      </trkpt>
      <trkpt lat="48.52775" lon="-2.61926">
        <ele>75.5</ele>
        <time>2016-03-25T10:28:14Z</time>
      </trkpt>
      <trkpt lat="48.52783" lon="-2.61937">
        <ele>77.3</ele>
        <time>2016-03-25T10:29:34Z</time>
      </trkpt>
      <trkpt lat="48.52786" lon="-2.61953">
        <ele>77.3</ele>
        <time>2016-03-25T10:29:39Z</time>
      </trkpt>
      <trkpt lat="48.52789" lon="-2.61969">
        <ele>77.6</ele>
        <time>2016-03-25T10:29:43Z</time>
      </trkpt>
      <trkpt lat="48.52792" lon="-2.61986">
        <ele>78.1</ele>
        <time>2016-03-25T10:29:47Z</time>
      </trkpt>
      <trkpt lat="48.52796" lon="-2.62002">
        <ele>78.7</ele>
        <time>2016-03-25T10:29:51Z</time>
      </trkpt>
      <trkpt lat="48.52798" lon="-2.62016">
        <ele>79.9</ele>
        <time>2016-03-25T10:29:58Z</time>
      </trkpt>
      <trkpt lat="48.52792" lon="-2.62002">
        <ele>80.8</ele>
        <time>2016-03-25T10:30:06Z</time>
      </trkpt>
      <trkpt lat="48.52789" lon="-2.61983">
        <ele>81</ele>
        <time>2016-03-25T10:30:09Z</time>
      </trkpt>
      <trkpt lat="48.52786" lon="-2.61968">
        <ele>81.1</ele>
        <time>2016-03-25T10:30:11Z</time>
      </trkpt>
      <trkpt lat="48.52783" lon="-2.6195">
        <ele>81</ele>
        <time>2016-03-25T10:30:13Z</time>
      </trkpt>
      <trkpt lat="48.5278" lon="-2.61934">
        <ele>80.7</ele>
        <time>2016-03-25T10:30:15Z</time>
      </trkpt>
      <trkpt lat="48.52778" lon="-2.61921">
        <ele>79.6</ele>
        <time>2016-03-25T10:30:26Z</time>
      </trkpt>
      <trkpt lat="48.52772" lon="-2.61932">
        <ele>77.3</ele>
        <time>2016-03-25T10:31:42Z</time>
      </trkpt>
      <trkpt lat="48.52776" lon="-2.61947">
        <ele>77.3</ele>
        <time>2016-03-25T10:31:45Z</time>
      </trkpt>
      <trkpt lat="48.52782" lon="-2.61958">
        <ele>77.4</ele>
        <time>2016-03-25T10:31:48Z</time>
      </trkpt>
      <trkpt lat="48.52787" lon="-2.61973">
        <ele>77.7</ele>
        <time>2016-03-25T10:31:52Z</time>
      </trkpt>
      <trkpt lat="48.52791" lon="-2.61989">
        <ele>78.1</ele>
        <time>2016-03-25T10:31:56Z</time>
      </trkpt>
      <trkpt lat="48.52795" lon="-2.62006">
        <ele>78.7</ele>
        <time>2016-03-25T10:32:00Z</time>
      </trkpt>
      <trkpt lat="48.52797" lon="-2.62023">
        <ele>79.4</ele>
        <time>2016-03-25T10:32:04Z</time>
      </trkpt>
      <trkpt lat="48.528" lon="-2.6204">
        <ele>80.1</ele>
        <time>2016-03-25T10:32:08Z</time>
      </trkpt>
      <trkpt lat="48.52802" lon="-2.62053">
        <ele>80.7</ele>
        <time>2016-03-25T10:32:11Z</time>
      </trkpt>
      <trkpt lat="48.52804" lon="-2.62067">
        <ele>81.3</ele>
        <time>2016-03-25T10:32:14Z</time>
      </trkpt>
      <trkpt lat="48.52805" lon="-2.62083">
        <ele>81.9</ele>
        <time>2016-03-25T10:32:17Z</time>
      </trkpt>
      <trkpt lat="48.52807" lon="-2.62098">
        <ele>82.5</ele>
        <time>2016-03-25T10:32:20Z</time>
      </trkpt>
      <trkpt lat="48.52809" lon="-2.62114">
        <ele>83</ele>
        <time>2016-03-25T10:32:23Z</time>
      </trkpt>
      <trkpt lat="48.5281" lon="-2.62131">
        <ele>83.5</ele>
        <time>2016-03-25T10:32:26Z</time>
      </trkpt>
      <trkpt lat="48.52813" lon="-2.62149">
        <ele>83.8</ele>
        <time>2016-03-25T10:32:29Z</time>
      </trkpt>
      <trkpt lat="48.52814" lon="-2.62163">
        <ele>84</ele>
        <time>2016-03-25T10:32:31Z</time>
      </trkpt>
      <trkpt lat="48.52816" lon="-2.62176">
        <ele>84.2</ele>
        <time>2016-03-25T10:32:33Z</time>
      </trkpt>
      <trkpt lat="48.52817" lon="-2.6219">
        <ele>84.4</ele>
        <time>2016-03-25T10:32:35Z</time>
      </trkpt>
      <trkpt lat="48.52819" lon="-2.62204">
        <ele>84.5</ele>
        <time>2016-03-25T10:32:37Z</time>
      </trkpt>
      <trkpt lat="48.52821" lon="-2.62219">
        <ele>84.6</ele>
        <time>2016-03-25T10:32:39Z</time>
      </trkpt>
      <trkpt lat="48.52823" lon="-2.62233">
        <ele>84.7</ele>
        <time>2016-03-25T10:32:41Z</time>
      </trkpt>
      <trkpt lat="48.52826" lon="-2.62247">
        <ele>84.8</ele>
        <time>2016-03-25T10:32:43Z</time>
      </trkpt>
      <trkpt lat="48.52829" lon="-2.62261">
        <ele>84.9</ele>
        <time>2016-03-25T10:32:45Z</time>
      </trkpt>
      <trkpt lat="48.52833" lon="-2.62276">
        <ele>85</ele>
        <time>2016-03-25T10:32:47Z</time>
      </trkpt>
      <trkpt lat="48.52837" lon="-2.6229">
        <ele>85.1</ele>
        <time>2016-03-25T10:32:49Z</time>
      </trkpt>
      <trkpt lat="48.52841" lon="-2.62304">
        <ele>85.1</ele>
        <time>2016-03-25T10:32:51Z</time>
      </trkpt>
      <trkpt lat="48.52846" lon="-2.62318">
        <ele>85.2</ele>
        <time>2016-03-25T10:32:53Z</time>
      </trkpt>
      <trkpt lat="48.52852" lon="-2.62332">
        <ele>85</ele>
        <time>2016-03-25T10:32:55Z</time>
      </trkpt>
      <trkpt lat="48.52859" lon="-2.62347">
        <ele>84.8</ele>
        <time>2016-03-25T10:32:57Z</time>
      </trkpt>
      <trkpt lat="48.52866" lon="-2.62364">
        <ele>84.4</ele>
        <time>2016-03-25T10:32:59Z</time>
      </trkpt>
      <trkpt lat="48.52875" lon="-2.62383">
        <ele>83.9</ele>
        <time>2016-03-25T10:33:01Z</time>
      </trkpt>
      <trkpt lat="48.52882" lon="-2.62407">
        <ele>83.2</ele>
        <time>2016-03-25T10:33:03Z</time>
      </trkpt>
      <trkpt lat="48.52886" lon="-2.6242">
        <ele>82.7</ele>
        <time>2016-03-25T10:33:04Z</time>
      </trkpt>
      <trkpt lat="48.52889" lon="-2.62434">
        <ele>82.2</ele>
        <time>2016-03-25T10:33:05Z</time>
      </trkpt>
      <trkpt lat="48.52892" lon="-2.62449">
        <ele>81.7</ele>
        <time>2016-03-25T10:33:06Z</time>
      </trkpt>
      <trkpt lat="48.52896" lon="-2.62464">
        <ele>81.1</ele>
        <time>2016-03-25T10:33:07Z</time>
      </trkpt>
      <trkpt lat="48.52899" lon="-2.6248">
        <ele>80.4</ele>
        <time>2016-03-25T10:33:08Z</time>
      </trkpt>
      <trkpt lat="48.52902" lon="-2.62496">
        <ele>79.7</ele>
        <time>2016-03-25T10:33:09Z</time>
      </trkpt>
      <trkpt lat="48.52905" lon="-2.62513">
        <ele>79</ele>
        <time>2016-03-25T10:33:10Z</time>
      </trkpt>
      <trkpt lat="48.52908" lon="-2.6253">
        <ele>78.2</ele>
        <time>2016-03-25T10:33:11Z</time>
      </trkpt>
      <trkpt lat="48.52911" lon="-2.62546">
        <ele>77.4</ele>
        <time>2016-03-25T10:33:12Z</time>
      </trkpt>
      <trkpt lat="48.52913" lon="-2.62563">
        <ele>76.6</ele>
        <time>2016-03-25T10:33:13Z</time>
      </trkpt>
      <trkpt lat="48.52916" lon="-2.6258">
        <ele>75.8</ele>
        <time>2016-03-25T10:33:14Z</time>
      </trkpt>
      <trkpt lat="48.52918" lon="-2.62597">
        <ele>75.1</ele>
        <time>2016-03-25T10:33:15Z</time>
      </trkpt>
      <trkpt lat="48.52919" lon="-2.62613">
        <ele>74.3</ele>
        <time>2016-03-25T10:33:16Z</time>
      </trkpt>
      <trkpt lat="48.5292" lon="-2.62629">
        <ele>73.5</ele>
        <time>2016-03-25T10:33:17Z</time>
      </trkpt>
      <trkpt lat="48.52921" lon="-2.62645">
        <ele>72.7</ele>
        <time>2016-03-25T10:33:18Z</time>
      </trkpt>
      <trkpt lat="48.52922" lon="-2.62661">
        <ele>71.9</ele>
        <time>2016-03-25T10:33:19Z</time>
      </trkpt>
      <trkpt lat="48.52923" lon="-2.62676">
        <ele>71.1</ele>
        <time>2016-03-25T10:33:20Z</time>
      </trkpt>
      <trkpt lat="48.52924" lon="-2.62691">
        <ele>70.4</ele>
        <time>2016-03-25T10:33:21Z</time>
      </trkpt>
      <trkpt lat="48.52926" lon="-2.62706">
        <ele>69.7</ele>
        <time>2016-03-25T10:33:22Z</time>
      </trkpt>
      <trkpt lat="48.52928" lon="-2.62721">
        <ele>69.1</ele>
        <time>2016-03-25T10:33:23Z</time>
      </trkpt>
      <trkpt lat="48.5293" lon="-2.62735">
        <ele>68.3</ele>
        <time>2016-03-25T10:33:24Z</time>
      </trkpt>
      <trkpt lat="48.52933" lon="-2.6275">
        <ele>67.6</ele>
        <time>2016-03-25T10:33:25Z</time>
      </trkpt>
      <trkpt lat="48.52937" lon="-2.62764">
        <ele>66.9</ele>
        <time>2016-03-25T10:33:26Z</time>
      </trkpt>
      <trkpt lat="48.5294" lon="-2.62778">
        <ele>66.2</ele>
        <time>2016-03-25T10:33:27Z</time>
      </trkpt>
      <trkpt lat="48.52944" lon="-2.62792">
        <ele>65.5</ele>
        <time>2016-03-25T10:33:28Z</time>
      </trkpt>
      <trkpt lat="48.52948" lon="-2.62805">
        <ele>64.7</ele>
        <time>2016-03-25T10:33:29Z</time>
      </trkpt>
      <trkpt lat="48.52953" lon="-2.62817">
        <ele>64</ele>
        <time>2016-03-25T10:33:30Z</time>
      </trkpt>
      <trkpt lat="48.52958" lon="-2.62829">
        <ele>63.3</ele>
        <time>2016-03-25T10:33:31Z</time>
      </trkpt>
      <trkpt lat="48.52968" lon="-2.62851">
        <ele>62</ele>
        <time>2016-03-25T10:33:33Z</time>
      </trkpt>
      <trkpt lat="48.52978" lon="-2.62873">
        <ele>60.7</ele>
        <time>2016-03-25T10:33:35Z</time>
      </trkpt>
      <trkpt lat="48.52983" lon="-2.62885">
        <ele>60</ele>
        <time>2016-03-25T10:33:36Z</time>
      </trkpt>
      <trkpt lat="48.52988" lon="-2.62897">
        <ele>59.3</ele>
        <time>2016-03-25T10:33:37Z</time>
      </trkpt>
      <trkpt lat="48.52992" lon="-2.6291">
        <ele>58.6</ele>
        <time>2016-03-25T10:33:38Z</time>
      </trkpt>
      <trkpt lat="48.52996" lon="-2.62923">
        <ele>57.9</ele>
        <time>2016-03-25T10:33:39Z</time>
      </trkpt>
      <trkpt lat="48.52999" lon="-2.62937">
        <ele>57.2</ele>
        <time>2016-03-25T10:33:40Z</time>
      </trkpt>
      <trkpt lat="48.53001" lon="-2.62952">
        <ele>56.4</ele>
        <time>2016-03-25T10:33:41Z</time>
      </trkpt>
      <trkpt lat="48.53002" lon="-2.62968">
        <ele>55.5</ele>
        <time>2016-03-25T10:33:42Z</time>
      </trkpt>
      <trkpt lat="48.53003" lon="-2.62984">
        <ele>54.5</ele>
        <time>2016-03-25T10:33:43Z</time>
      </trkpt>
      <trkpt lat="48.53002" lon="-2.63002">
        <ele>53.6</ele>
        <time>2016-03-25T10:33:44Z</time>
      </trkpt>
      <trkpt lat="48.53001" lon="-2.63019">
        <ele>52.6</ele>
        <time>2016-03-25T10:33:45Z</time>
      </trkpt>
      <trkpt lat="48.53" lon="-2.63038">
        <ele>51.6</ele>
        <time>2016-03-25T10:33:46Z</time>
      </trkpt>
      <trkpt lat="48.52998" lon="-2.63058">
        <ele>50.4</ele>
        <time>2016-03-25T10:33:47Z</time>
      </trkpt>
      <trkpt lat="48.52995" lon="-2.63078">
        <ele>49</ele>
        <time>2016-03-25T10:33:48Z</time>
      </trkpt>
      <trkpt lat="48.52992" lon="-2.63099">
        <ele>47.6</ele>
        <time>2016-03-25T10:33:49Z</time>
      </trkpt>
      <trkpt lat="48.52989" lon="-2.63121">
        <ele>46.1</ele>
        <time>2016-03-25T10:33:50Z</time>
      </trkpt>
      <trkpt lat="48.52985" lon="-2.63143">
        <ele>44.4</ele>
        <time>2016-03-25T10:33:51Z</time>
      </trkpt>
      <trkpt lat="48.52982" lon="-2.63165">
        <ele>42.7</ele>
        <time>2016-03-25T10:33:52Z</time>
      </trkpt>
      <trkpt lat="48.52979" lon="-2.63185">
        <ele>41</ele>
        <time>2016-03-25T10:33:53Z</time>
      </trkpt>
      <trkpt lat="48.52976" lon="-2.63202">
        <ele>39.3</ele>
        <time>2016-03-25T10:33:54Z</time>
      </trkpt>
      <trkpt lat="48.52973" lon="-2.63216">
        <ele>37.6</ele>
        <time>2016-03-25T10:33:55Z</time>
      </trkpt>
      <trkpt lat="48.52971" lon="-2.63235">
        <ele>34.2</ele>
        <time>2016-03-25T10:33:57Z</time>
      </trkpt>
      <trkpt lat="48.52978" lon="-2.63245">
        <ele>31.1</ele>
        <time>2016-03-25T10:33:59Z</time>
      </trkpt>
      <trkpt lat="48.52988" lon="-2.63241">
        <ele>27.1</ele>
        <time>2016-03-25T10:34:02Z</time>
      </trkpt>
      <trkpt lat="48.52998" lon="-2.63232">
        <ele>23</ele>
        <time>2016-03-25T10:34:06Z</time>
      </trkpt>
      <trkpt lat="48.53006" lon="-2.63225">
        <ele>20.7</ele>
        <time>2016-03-25T10:34:09Z</time>
      </trkpt>
      <trkpt lat="48.53015" lon="-2.63219">
        <ele>19</ele>
        <time>2016-03-25T10:34:12Z</time>
      </trkpt>
      <trkpt lat="48.53024" lon="-2.63212">
        <ele>17.8</ele>
        <time>2016-03-25T10:34:15Z</time>
      </trkpt>
      <trkpt lat="48.53033" lon="-2.63206">
        <ele>17.1</ele>
        <time>2016-03-25T10:34:18Z</time>
      </trkpt>
      <trkpt lat="48.53042" lon="-2.63201">
        <ele>16.7</ele>
        <time>2016-03-25T10:34:21Z</time>
      </trkpt>
      <trkpt lat="48.53052" lon="-2.63197">
        <ele>16.7</ele>
        <time>2016-03-25T10:34:24Z</time>
      </trkpt>
      <trkpt lat="48.53061" lon="-2.63192">
        <ele>16.8</ele>
        <time>2016-03-25T10:34:27Z</time>
      </trkpt>
      <trkpt lat="48.53071" lon="-2.63185">
        <ele>17</ele>
        <time>2016-03-25T10:34:30Z</time>
      </trkpt>
      <trkpt lat="48.5308" lon="-2.6318">
        <ele>17.4</ele>
        <time>2016-03-25T10:34:33Z</time>
      </trkpt>
      <trkpt lat="48.53089" lon="-2.63174">
        <ele>17.9</ele>
        <time>2016-03-25T10:34:36Z</time>
      </trkpt>
      <trkpt lat="48.53097" lon="-2.63167">
        <ele>18.5</ele>
        <time>2016-03-25T10:34:39Z</time>
      </trkpt>
      <trkpt lat="48.53106" lon="-2.6316">
        <ele>19.4</ele>
        <time>2016-03-25T10:34:43Z</time>
      </trkpt>
      <trkpt lat="48.53115" lon="-2.6315">
        <ele>20.6</ele>
        <time>2016-03-25T10:34:48Z</time>
      </trkpt>
      <trkpt lat="48.53123" lon="-2.6314">
        <ele>21.4</ele>
        <time>2016-03-25T10:34:52Z</time>
      </trkpt>
      <trkpt lat="48.53129" lon="-2.6313">
        <ele>22.2</ele>
        <time>2016-03-25T10:34:56Z</time>
      </trkpt>
      <trkpt lat="48.53135" lon="-2.6312">
        <ele>23</ele>
        <time>2016-03-25T10:35:00Z</time>
      </trkpt>
      <trkpt lat="48.53141" lon="-2.63109">
        <ele>23.9</ele>
        <time>2016-03-25T10:35:04Z</time>
      </trkpt>
      <trkpt lat="48.53148" lon="-2.63098">
        <ele>24.9</ele>
        <time>2016-03-25T10:35:08Z</time>
      </trkpt>
      <trkpt lat="48.53155" lon="-2.63088">
        <ele>25.9</ele>
        <time>2016-03-25T10:35:12Z</time>
      </trkpt>
      <trkpt lat="48.53162" lon="-2.63077">
        <ele>26.9</ele>
        <time>2016-03-25T10:35:16Z</time>
      </trkpt>
      <trkpt lat="48.53168" lon="-2.63065">
        <ele>27.9</ele>
        <time>2016-03-25T10:35:20Z</time>
      </trkpt>
      <trkpt lat="48.53172" lon="-2.63052">
        <ele>28.9</ele>
        <time>2016-03-25T10:35:24Z</time>
      </trkpt>
      <trkpt lat="48.53175" lon="-2.63038">
        <ele>29.9</ele>
        <time>2016-03-25T10:35:28Z</time>
      </trkpt>
      <trkpt lat="48.53175" lon="-2.63023">
        <ele>31</ele>
        <time>2016-03-25T10:35:32Z</time>
      </trkpt>
      <trkpt lat="48.53173" lon="-2.63008">
        <ele>32.2</ele>
        <time>2016-03-25T10:35:36Z</time>
      </trkpt>
      <trkpt lat="48.53169" lon="-2.62993">
        <ele>33.3</ele>
        <time>2016-03-25T10:35:40Z</time>
      </trkpt>
      <trkpt lat="48.53164" lon="-2.6298">
        <ele>34.5</ele>
        <time>2016-03-25T10:35:44Z</time>
      </trkpt>
      <trkpt lat="48.53159" lon="-2.62966">
        <ele>35.6</ele>
        <time>2016-03-25T10:35:48Z</time>
      </trkpt>
      <trkpt lat="48.53154" lon="-2.62952">
        <ele>36.7</ele>
        <time>2016-03-25T10:35:52Z</time>
      </trkpt>
      <trkpt lat="48.53149" lon="-2.62939">
        <ele>38</ele>
        <time>2016-03-25T10:35:56Z</time>
      </trkpt>
      <trkpt lat="48.53145" lon="-2.62924">
        <ele>39.1</ele>
        <time>2016-03-25T10:36:00Z</time>
      </trkpt>
      <trkpt lat="48.5314" lon="-2.62911">
        <ele>40.4</ele>
        <time>2016-03-25T10:36:04Z</time>
      </trkpt>
      <trkpt lat="48.53135" lon="-2.62896">
        <ele>41.7</ele>
        <time>2016-03-25T10:36:09Z</time>
      </trkpt>
      <trkpt lat="48.5313" lon="-2.62881">
        <ele>42.9</ele>
        <time>2016-03-25T10:36:14Z</time>
      </trkpt>
      <trkpt lat="48.53127" lon="-2.62868">
        <ele>43.7</ele>
        <time>2016-03-25T10:36:18Z</time>
      </trkpt>
      <trkpt lat="48.53123" lon="-2.62854">
        <ele>44.6</ele>
        <time>2016-03-25T10:36:23Z</time>
      </trkpt>
      <trkpt lat="48.53121" lon="-2.6284">
        <ele>45.6</ele>
        <time>2016-03-25T10:36:30Z</time>
      </trkpt>
      <trkpt lat="48.5312" lon="-2.62826">
        <ele>46.8</ele>
        <time>2016-03-25T10:36:40Z</time>
      </trkpt>
      <trkpt lat="48.53117" lon="-2.62812">
        <ele>49</ele>
        <time>2016-03-25T10:37:20Z</time>
      </trkpt>
      <trkpt lat="48.53115" lon="-2.62797">
        <ele>49.2</ele>
        <time>2016-03-25T10:37:28Z</time>
      </trkpt>
      <trkpt lat="48.53113" lon="-2.62783">
        <ele>49.6</ele>
        <time>2016-03-25T10:37:35Z</time>
      </trkpt>
      <trkpt lat="48.53112" lon="-2.62768">
        <ele>49.9</ele>
        <time>2016-03-25T10:37:42Z</time>
      </trkpt>
      <trkpt lat="48.53117" lon="-2.62756">
        <ele>50.1</ele>
        <time>2016-03-25T10:37:50Z</time>
      </trkpt>
      <trkpt lat="48.53122" lon="-2.62742">
        <ele>49.9</ele>
        <time>2016-03-25T10:38:00Z</time>
      </trkpt>
      <trkpt lat="48.53123" lon="-2.62725">
        <ele>50.1</ele>
        <time>2016-03-25T10:38:05Z</time>
      </trkpt>
      <trkpt lat="48.53124" lon="-2.6271">
        <ele>50.3</ele>
        <time>2016-03-25T10:38:08Z</time>
      </trkpt>
      <trkpt lat="48.53126" lon="-2.62694">
        <ele>50.5</ele>
        <time>2016-03-25T10:38:11Z</time>
      </trkpt>
      <trkpt lat="48.53127" lon="-2.62679">
        <ele>50.6</ele>
        <time>2016-03-25T10:38:14Z</time>
      </trkpt>
      <trkpt lat="48.5313" lon="-2.62662">
        <ele>50.8</ele>
        <time>2016-03-25T10:38:17Z</time>
      </trkpt>
      <trkpt lat="48.53133" lon="-2.62645">
        <ele>50.9</ele>
        <time>2016-03-25T10:38:20Z</time>
      </trkpt>
      <trkpt lat="48.53136" lon="-2.62628">
        <ele>51</ele>
        <time>2016-03-25T10:38:23Z</time>
      </trkpt>
      <trkpt lat="48.53139" lon="-2.6261">
        <ele>51.1</ele>
        <time>2016-03-25T10:38:26Z</time>
      </trkpt>
      <trkpt lat="48.53143" lon="-2.62592">
        <ele>51.2</ele>
        <time>2016-03-25T10:38:29Z</time>
      </trkpt>
      <trkpt lat="48.53147" lon="-2.62575">
        <ele>51.4</ele>
        <time>2016-03-25T10:38:32Z</time>
      </trkpt>
      <trkpt lat="48.53151" lon="-2.62555">
        <ele>51.6</ele>
        <time>2016-03-25T10:38:35Z</time>
      </trkpt>
      <trkpt lat="48.53154" lon="-2.62537">
        <ele>51.9</ele>
        <time>2016-03-25T10:38:38Z</time>
      </trkpt>
      <trkpt lat="48.53159" lon="-2.62518">
        <ele>52.1</ele>
        <time>2016-03-25T10:38:41Z</time>
      </trkpt>
      <trkpt lat="48.53163" lon="-2.625">
        <ele>52.4</ele>
        <time>2016-03-25T10:38:44Z</time>
      </trkpt>
      <trkpt lat="48.53168" lon="-2.62482">
        <ele>52.7</ele>
        <time>2016-03-25T10:38:47Z</time>
      </trkpt>
      <trkpt lat="48.53173" lon="-2.62465">
        <ele>53</ele>
        <time>2016-03-25T10:38:50Z</time>
      </trkpt>
      <trkpt lat="48.53178" lon="-2.62449">
        <ele>53.3</ele>
        <time>2016-03-25T10:38:53Z</time>
      </trkpt>
      <trkpt lat="48.53183" lon="-2.62433">
        <ele>53.7</ele>
        <time>2016-03-25T10:38:56Z</time>
      </trkpt>
      <trkpt lat="48.53187" lon="-2.62416">
        <ele>54.2</ele>
        <time>2016-03-25T10:38:59Z</time>
      </trkpt>
      <trkpt lat="48.5319" lon="-2.62398">
        <ele>54.6</ele>
        <time>2016-03-25T10:39:02Z</time>
      </trkpt>
      <trkpt lat="48.53194" lon="-2.62381">
        <ele>55.1</ele>
        <time>2016-03-25T10:39:05Z</time>
      </trkpt>
      <trkpt lat="48.53197" lon="-2.62363">
        <ele>55.6</ele>
        <time>2016-03-25T10:39:08Z</time>
      </trkpt>
      <trkpt lat="48.53201" lon="-2.62346">
        <ele>56.1</ele>
        <time>2016-03-25T10:39:11Z</time>
      </trkpt>
      <trkpt lat="48.53205" lon="-2.62329">
        <ele>56.6</ele>
        <time>2016-03-25T10:39:14Z</time>
      </trkpt>
      <trkpt lat="48.53209" lon="-2.62312">
        <ele>57.1</ele>
        <time>2016-03-25T10:39:17Z</time>
      </trkpt>
      <trkpt lat="48.53215" lon="-2.62296">
        <ele>57.7</ele>
        <time>2016-03-25T10:39:20Z</time>
      </trkpt>
      <trkpt lat="48.53221" lon="-2.62281">
        <ele>58.3</ele>
        <time>2016-03-25T10:39:23Z</time>
      </trkpt>
      <trkpt lat="48.53228" lon="-2.62268">
        <ele>58.9</ele>
        <time>2016-03-25T10:39:26Z</time>
      </trkpt>
      <trkpt lat="48.53235" lon="-2.62255">
        <ele>59.5</ele>
        <time>2016-03-25T10:39:29Z</time>
      </trkpt>
      <trkpt lat="48.53244" lon="-2.62247">
        <ele>60.4</ele>
        <time>2016-03-25T10:39:33Z</time>
      </trkpt>
      <trkpt lat="48.53253" lon="-2.62254">
        <ele>60.9</ele>
        <time>2016-03-25T10:39:36Z</time>
      </trkpt>
      <trkpt lat="48.53264" lon="-2.62263">
        <ele>61.4</ele>
        <time>2016-03-25T10:39:39Z</time>
      </trkpt>
      <trkpt lat="48.53271" lon="-2.6227">
        <ele>61.5</ele>
        <time>2016-03-25T10:39:41Z</time>
      </trkpt>
      <trkpt lat="48.5328" lon="-2.62278">
        <ele>61.7</ele>
        <time>2016-03-25T10:39:43Z</time>
      </trkpt>
      <trkpt lat="48.5329" lon="-2.62287">
        <ele>61.8</ele>
        <time>2016-03-25T10:39:45Z</time>
      </trkpt>
      <trkpt lat="48.533" lon="-2.62295">
        <ele>61.7</ele>
        <time>2016-03-25T10:39:47Z</time>
      </trkpt>
      <trkpt lat="48.5331" lon="-2.62305">
        <ele>61.7</ele>
        <time>2016-03-25T10:39:49Z</time>
      </trkpt>
      <trkpt lat="48.53321" lon="-2.62315">
        <ele>61.5</ele>
        <time>2016-03-25T10:39:51Z</time>
      </trkpt>
      <trkpt lat="48.53332" lon="-2.62325">
        <ele>61.2</ele>
        <time>2016-03-25T10:39:53Z</time>
      </trkpt>
      <trkpt lat="48.53344" lon="-2.62336">
        <ele>60.7</ele>
        <time>2016-03-25T10:39:55Z</time>
      </trkpt>
      <trkpt lat="48.53357" lon="-2.62348">
        <ele>60.2</ele>
        <time>2016-03-25T10:39:57Z</time>
      </trkpt>
      <trkpt lat="48.53371" lon="-2.62361">
        <ele>59.6</ele>
        <time>2016-03-25T10:39:59Z</time>
      </trkpt>
      <trkpt lat="48.53385" lon="-2.62375">
        <ele>59</ele>
        <time>2016-03-25T10:40:01Z</time>
      </trkpt>
      <trkpt lat="48.534" lon="-2.62387">
        <ele>58.3</ele>
        <time>2016-03-25T10:40:03Z</time>
      </trkpt>
      <trkpt lat="48.53414" lon="-2.62397">
        <ele>57.7</ele>
        <time>2016-03-25T10:40:05Z</time>
      </trkpt>
      <trkpt lat="48.53428" lon="-2.62406">
        <ele>57.1</ele>
        <time>2016-03-25T10:40:07Z</time>
      </trkpt>
      <trkpt lat="48.53442" lon="-2.62416">
        <ele>56.5</ele>
        <time>2016-03-25T10:40:09Z</time>
      </trkpt>
      <trkpt lat="48.53454" lon="-2.62427">
        <ele>55.9</ele>
        <time>2016-03-25T10:40:11Z</time>
      </trkpt>
      <trkpt lat="48.53466" lon="-2.62442">
        <ele>55.4</ele>
        <time>2016-03-25T10:40:13Z</time>
      </trkpt>
      <trkpt lat="48.53476" lon="-2.62459">
        <ele>54.9</ele>
        <time>2016-03-25T10:40:15Z</time>
      </trkpt>
      <trkpt lat="48.53484" lon="-2.62477">
        <ele>54.4</ele>
        <time>2016-03-25T10:40:17Z</time>
      </trkpt>
      <trkpt lat="48.5349" lon="-2.62496">
        <ele>53.9</ele>
        <time>2016-03-25T10:40:19Z</time>
      </trkpt>
      <trkpt lat="48.53501" lon="-2.62506">
        <ele>53.4</ele>
        <time>2016-03-25T10:40:21Z</time>
      </trkpt>
      <trkpt lat="48.53513" lon="-2.62505">
        <ele>52.5</ele>
        <time>2016-03-25T10:40:24Z</time>
      </trkpt>
      <trkpt lat="48.53521" lon="-2.62497">
        <ele>51.2</ele>
        <time>2016-03-25T10:40:30Z</time>
      </trkpt>
      <trkpt lat="48.53529" lon="-2.62488">
        <ele>50.5</ele>
        <time>2016-03-25T10:40:35Z</time>
      </trkpt>
      <trkpt lat="48.53538" lon="-2.62479">
        <ele>50</ele>
        <time>2016-03-25T10:40:39Z</time>
      </trkpt>
      <trkpt lat="48.53549" lon="-2.62475">
        <ele>49.7</ele>
        <time>2016-03-25T10:40:45Z</time>
      </trkpt>
      <trkpt lat="48.53559" lon="-2.62474">
        <ele>49.7</ele>
        <time>2016-03-25T10:40:48Z</time>
      </trkpt>
      <trkpt lat="48.5357" lon="-2.62472">
        <ele>49.7</ele>
        <time>2016-03-25T10:40:51Z</time>
      </trkpt>
      <trkpt lat="48.5358" lon="-2.62472">
        <ele>49.8</ele>
        <time>2016-03-25T10:40:54Z</time>
      </trkpt>
      <trkpt lat="48.53591" lon="-2.62472">
        <ele>50.1</ele>
        <time>2016-03-25T10:40:57Z</time>
      </trkpt>
      <trkpt lat="48.53603" lon="-2.62472">
        <ele>50.3</ele>
        <time>2016-03-25T10:41:00Z</time>
      </trkpt>
      <trkpt lat="48.53614" lon="-2.62473">
        <ele>50.5</ele>
        <time>2016-03-25T10:41:03Z</time>
      </trkpt>
      <trkpt lat="48.53626" lon="-2.62474">
        <ele>50.7</ele>
        <time>2016-03-25T10:41:06Z</time>
      </trkpt>
      <trkpt lat="48.53638" lon="-2.62475">
        <ele>50.9</ele>
        <time>2016-03-25T10:41:09Z</time>
      </trkpt>
      <trkpt lat="48.5365" lon="-2.62474">
        <ele>51.2</ele>
        <time>2016-03-25T10:41:12Z</time>
      </trkpt>
      <trkpt lat="48.53662" lon="-2.62473">
        <ele>51.4</ele>
        <time>2016-03-25T10:41:15Z</time>
      </trkpt>
      <trkpt lat="48.53675" lon="-2.62473">
        <ele>51.6</ele>
        <time>2016-03-25T10:41:18Z</time>
      </trkpt>
      <trkpt lat="48.53684" lon="-2.62473">
        <ele>51.8</ele>
        <time>2016-03-25T10:41:20Z</time>
      </trkpt>
      <trkpt lat="48.53695" lon="-2.62472">
        <ele>51.9</ele>
        <time>2016-03-25T10:41:22Z</time>
      </trkpt>
      <trkpt lat="48.53705" lon="-2.62472">
        <ele>51.8</ele>
        <time>2016-03-25T10:41:24Z</time>
      </trkpt>
      <trkpt lat="48.53717" lon="-2.62471">
        <ele>51.7</ele>
        <time>2016-03-25T10:41:26Z</time>
      </trkpt>
      <trkpt lat="48.53729" lon="-2.62469">
        <ele>51.5</ele>
        <time>2016-03-25T10:41:28Z</time>
      </trkpt>
      <trkpt lat="48.53741" lon="-2.62467">
        <ele>51.2</ele>
        <time>2016-03-25T10:41:30Z</time>
      </trkpt>
      <trkpt lat="48.53753" lon="-2.62464">
        <ele>50.8</ele>
        <time>2016-03-25T10:41:32Z</time>
      </trkpt>
      <trkpt lat="48.53766" lon="-2.6246">
        <ele>50.4</ele>
        <time>2016-03-25T10:41:34Z</time>
      </trkpt>
      <trkpt lat="48.53778" lon="-2.62456">
        <ele>50.1</ele>
        <time>2016-03-25T10:41:36Z</time>
      </trkpt>
      <trkpt lat="48.53789" lon="-2.62453">
        <ele>49.7</ele>
        <time>2016-03-25T10:41:38Z</time>
      </trkpt>
      <trkpt lat="48.538" lon="-2.62449">
        <ele>49.3</ele>
        <time>2016-03-25T10:41:40Z</time>
      </trkpt>
      <trkpt lat="48.53811" lon="-2.62444">
        <ele>48.9</ele>
        <time>2016-03-25T10:41:42Z</time>
      </trkpt>
      <trkpt lat="48.53821" lon="-2.62439">
        <ele>48.5</ele>
        <time>2016-03-25T10:41:44Z</time>
      </trkpt>
      <trkpt lat="48.53831" lon="-2.62434">
        <ele>47.9</ele>
        <time>2016-03-25T10:41:47Z</time>
      </trkpt>
      <trkpt lat="48.53832" lon="-2.62419">
        <ele>47.1</ele>
        <time>2016-03-25T10:41:52Z</time>
      </trkpt>
      <trkpt lat="48.53829" lon="-2.62403">
        <ele>46.5</ele>
        <time>2016-03-25T10:41:57Z</time>
      </trkpt>
      <trkpt lat="48.53826" lon="-2.6239">
        <ele>46.4</ele>
        <time>2016-03-25T10:42:00Z</time>
      </trkpt>
      <trkpt lat="48.53823" lon="-2.62376">
        <ele>46.4</ele>
        <time>2016-03-25T10:42:03Z</time>
      </trkpt>
      <trkpt lat="48.53821" lon="-2.62362">
        <ele>46.4</ele>
        <time>2016-03-25T10:42:06Z</time>
      </trkpt>
      <trkpt lat="48.53818" lon="-2.62348">
        <ele>46.5</ele>
        <time>2016-03-25T10:42:09Z</time>
      </trkpt>
      <trkpt lat="48.53816" lon="-2.62335">
        <ele>46.6</ele>
        <time>2016-03-25T10:42:12Z</time>
      </trkpt>
      <trkpt lat="48.53814" lon="-2.62321">
        <ele>46.6</ele>
        <time>2016-03-25T10:42:15Z</time>
      </trkpt>
      <trkpt lat="48.53811" lon="-2.62308">
        <ele>46.7</ele>
        <time>2016-03-25T10:42:18Z</time>
      </trkpt>
      <trkpt lat="48.53809" lon="-2.62295">
        <ele>46.8</ele>
        <time>2016-03-25T10:42:21Z</time>
      </trkpt>
      <trkpt lat="48.53805" lon="-2.62278">
        <ele>46.9</ele>
        <time>2016-03-25T10:42:25Z</time>
      </trkpt>
      <trkpt lat="48.538" lon="-2.62262">
        <ele>47.1</ele>
        <time>2016-03-25T10:42:29Z</time>
      </trkpt>
      <trkpt lat="48.53794" lon="-2.62249">
        <ele>47.4</ele>
        <time>2016-03-25T10:42:34Z</time>
      </trkpt>
      <trkpt lat="48.53785" lon="-2.62245">
        <ele>47.8</ele>
        <time>2016-03-25T10:42:39Z</time>
      </trkpt>
      <trkpt lat="48.53775" lon="-2.62249">
        <ele>48.2</ele>
        <time>2016-03-25T10:42:43Z</time>
      </trkpt>
      <trkpt lat="48.53766" lon="-2.62253">
        <ele>48.7</ele>
        <time>2016-03-25T10:42:47Z</time>
      </trkpt>
      <trkpt lat="48.53756" lon="-2.62256">
        <ele>49.1</ele>
        <time>2016-03-25T10:42:51Z</time>
      </trkpt>
      <trkpt lat="48.53745" lon="-2.62261">
        <ele>49.6</ele>
        <time>2016-03-25T10:42:55Z</time>
      </trkpt>
      <trkpt lat="48.53735" lon="-2.62265">
        <ele>50.1</ele>
        <time>2016-03-25T10:42:59Z</time>
      </trkpt>
      <trkpt lat="48.53725" lon="-2.62268">
        <ele>50.6</ele>
        <time>2016-03-25T10:43:03Z</time>
      </trkpt>
      <trkpt lat="48.53716" lon="-2.62264">
        <ele>51.1</ele>
        <time>2016-03-25T10:43:06Z</time>
      </trkpt>
      <trkpt lat="48.53708" lon="-2.62253">
        <ele>51.7</ele>
        <time>2016-03-25T10:43:10Z</time>
      </trkpt>
      <trkpt lat="48.53703" lon="-2.62243">
        <ele>52.1</ele>
        <time>2016-03-25T10:43:13Z</time>
      </trkpt>
      <trkpt lat="48.53695" lon="-2.6223">
        <ele>52.7</ele>
        <time>2016-03-25T10:43:17Z</time>
      </trkpt>
      <trkpt lat="48.53687" lon="-2.62216">
        <ele>53.4</ele>
        <time>2016-03-25T10:43:21Z</time>
      </trkpt>
      <trkpt lat="48.5368" lon="-2.62206">
        <ele>54.1</ele>
        <time>2016-03-25T10:43:25Z</time>
      </trkpt>
      <trkpt lat="48.53672" lon="-2.62192">
        <ele>54.8</ele>
        <time>2016-03-25T10:43:29Z</time>
      </trkpt>
      <trkpt lat="48.53665" lon="-2.62182">
        <ele>55.2</ele>
        <time>2016-03-25T10:43:32Z</time>
      </trkpt>
      <trkpt lat="48.5366" lon="-2.6217">
        <ele>55.7</ele>
        <time>2016-03-25T10:43:35Z</time>
      </trkpt>
      <trkpt lat="48.53653" lon="-2.62159">
        <ele>56.3</ele>
        <time>2016-03-25T10:43:39Z</time>
      </trkpt>
      <trkpt lat="48.53646" lon="-2.62148">
        <ele>57</ele>
        <time>2016-03-25T10:43:43Z</time>
      </trkpt>
      <trkpt lat="48.53641" lon="-2.62135">
        <ele>57.5</ele>
        <time>2016-03-25T10:43:46Z</time>
      </trkpt>
      <trkpt lat="48.53635" lon="-2.6212">
        <ele>58.3</ele>
        <time>2016-03-25T10:43:50Z</time>
      </trkpt>
      <trkpt lat="48.5363" lon="-2.62107">
        <ele>59.1</ele>
        <time>2016-03-25T10:43:54Z</time>
      </trkpt>
      <trkpt lat="48.53624" lon="-2.62095">
        <ele>60</ele>
        <time>2016-03-25T10:43:58Z</time>
      </trkpt>
      <trkpt lat="48.53619" lon="-2.62084">
        <ele>60.9</ele>
        <time>2016-03-25T10:44:02Z</time>
      </trkpt>
      <trkpt lat="48.53614" lon="-2.62072">
        <ele>61.9</ele>
        <time>2016-03-25T10:44:06Z</time>
      </trkpt>
      <trkpt lat="48.5361" lon="-2.62057">
        <ele>63</ele>
        <time>2016-03-25T10:44:10Z</time>
      </trkpt>
      <trkpt lat="48.53608" lon="-2.62043">
        <ele>63.8</ele>
        <time>2016-03-25T10:44:13Z</time>
      </trkpt>
      <trkpt lat="48.53606" lon="-2.62028">
        <ele>64.7</ele>
        <time>2016-03-25T10:44:17Z</time>
      </trkpt>
      <trkpt lat="48.53605" lon="-2.62014">
        <ele>65.5</ele>
        <time>2016-03-25T10:44:21Z</time>
      </trkpt>
      <trkpt lat="48.53602" lon="-2.61998">
        <ele>66.1</ele>
        <time>2016-03-25T10:44:25Z</time>
      </trkpt>
      <trkpt lat="48.53598" lon="-2.61983">
        <ele>66.9</ele>
        <time>2016-03-25T10:44:30Z</time>
      </trkpt>
      <trkpt lat="48.53592" lon="-2.61971">
        <ele>67.7</ele>
        <time>2016-03-25T10:44:36Z</time>
      </trkpt>
      <trkpt lat="48.53583" lon="-2.61964">
        <ele>68.3</ele>
        <time>2016-03-25T10:44:43Z</time>
      </trkpt>
      <trkpt lat="48.53574" lon="-2.6196">
        <ele>68.7</ele>
        <time>2016-03-25T10:44:47Z</time>
      </trkpt>
      <trkpt lat="48.53565" lon="-2.61954">
        <ele>69.1</ele>
        <time>2016-03-25T10:44:51Z</time>
      </trkpt>
      <trkpt lat="48.53556" lon="-2.61947">
        <ele>69.4</ele>
        <time>2016-03-25T10:44:55Z</time>
      </trkpt>
      <trkpt lat="48.53546" lon="-2.61939">
        <ele>69.8</ele>
        <time>2016-03-25T10:44:59Z</time>
      </trkpt>
      <trkpt lat="48.53539" lon="-2.61931">
        <ele>70</ele>
        <time>2016-03-25T10:45:02Z</time>
      </trkpt>
      <trkpt lat="48.53531" lon="-2.61921">
        <ele>70.2</ele>
        <time>2016-03-25T10:45:05Z</time>
      </trkpt>
      <trkpt lat="48.53523" lon="-2.61909">
        <ele>70.4</ele>
        <time>2016-03-25T10:45:08Z</time>
      </trkpt>
      <trkpt lat="48.53514" lon="-2.61899">
        <ele>70.6</ele>
        <time>2016-03-25T10:45:11Z</time>
      </trkpt>
      <trkpt lat="48.53504" lon="-2.6189">
        <ele>70.7</ele>
        <time>2016-03-25T10:45:14Z</time>
      </trkpt>
      <trkpt lat="48.53493" lon="-2.61881">
        <ele>70.9</ele>
        <time>2016-03-25T10:45:17Z</time>
      </trkpt>
      <trkpt lat="48.53482" lon="-2.6187">
        <ele>71.1</ele>
        <time>2016-03-25T10:45:20Z</time>
      </trkpt>
      <trkpt lat="48.53471" lon="-2.61858">
        <ele>71.3</ele>
        <time>2016-03-25T10:45:23Z</time>
      </trkpt>
      <trkpt lat="48.5346" lon="-2.61851">
        <ele>71.5</ele>
        <time>2016-03-25T10:45:26Z</time>
      </trkpt>
      <trkpt lat="48.53448" lon="-2.61841">
        <ele>71.6</ele>
        <time>2016-03-25T10:45:29Z</time>
      </trkpt>
      <trkpt lat="48.53437" lon="-2.61834">
        <ele>71.8</ele>
        <time>2016-03-25T10:45:32Z</time>
      </trkpt>
      <trkpt lat="48.53426" lon="-2.61826">
        <ele>72.2</ele>
        <time>2016-03-25T10:45:35Z</time>
      </trkpt>
      <trkpt lat="48.53415" lon="-2.61818">
        <ele>72.5</ele>
        <time>2016-03-25T10:45:38Z</time>
      </trkpt>
      <trkpt lat="48.53404" lon="-2.6181">
        <ele>72.9</ele>
        <time>2016-03-25T10:45:41Z</time>
      </trkpt>
      <trkpt lat="48.53394" lon="-2.61801">
        <ele>73.3</ele>
        <time>2016-03-25T10:45:44Z</time>
      </trkpt>
      <trkpt lat="48.53383" lon="-2.61792">
        <ele>73.7</ele>
        <time>2016-03-25T10:45:47Z</time>
      </trkpt>
      <trkpt lat="48.53373" lon="-2.61783">
        <ele>74.1</ele>
        <time>2016-03-25T10:45:50Z</time>
      </trkpt>
      <trkpt lat="48.53362" lon="-2.61774">
        <ele>74.5</ele>
        <time>2016-03-25T10:45:53Z</time>
      </trkpt>
      <trkpt lat="48.53352" lon="-2.61765">
        <ele>74.9</ele>
        <time>2016-03-25T10:45:56Z</time>
      </trkpt>
      <trkpt lat="48.53342" lon="-2.61755">
        <ele>75.3</ele>
        <time>2016-03-25T10:45:59Z</time>
      </trkpt>
      <trkpt lat="48.53332" lon="-2.61746">
        <ele>75.7</ele>
        <time>2016-03-25T10:46:02Z</time>
      </trkpt>
      <trkpt lat="48.53322" lon="-2.61737">
        <ele>76.2</ele>
        <time>2016-03-25T10:46:05Z</time>
      </trkpt>
      <trkpt lat="48.53311" lon="-2.61729">
        <ele>76.7</ele>
        <time>2016-03-25T10:46:08Z</time>
      </trkpt>
      <trkpt lat="48.53301" lon="-2.61721">
        <ele>77.2</ele>
        <time>2016-03-25T10:46:11Z</time>
      </trkpt>
      <trkpt lat="48.53295" lon="-2.61708">
        <ele>77.6</ele>
        <time>2016-03-25T10:46:14Z</time>
      </trkpt>
      <trkpt lat="48.53298" lon="-2.61691">
        <ele>77.9</ele>
        <time>2016-03-25T10:46:17Z</time>
      </trkpt>
      <trkpt lat="48.53302" lon="-2.61672">
        <ele>78.2</ele>
        <time>2016-03-25T10:46:20Z</time>
      </trkpt>
      <trkpt lat="48.53307" lon="-2.61654">
        <ele>78.5</ele>
        <time>2016-03-25T10:46:23Z</time>
      </trkpt>
      <trkpt lat="48.53311" lon="-2.61641">
        <ele>78.7</ele>
        <time>2016-03-25T10:46:25Z</time>
      </trkpt>
      <trkpt lat="48.53315" lon="-2.61629">
        <ele>78.9</ele>
        <time>2016-03-25T10:46:27Z</time>
      </trkpt>
      <trkpt lat="48.53318" lon="-2.61615">
        <ele>79</ele>
        <time>2016-03-25T10:46:29Z</time>
      </trkpt>
      <trkpt lat="48.53322" lon="-2.61602">
        <ele>79.2</ele>
        <time>2016-03-25T10:46:31Z</time>
      </trkpt>
      <trkpt lat="48.53325" lon="-2.61589">
        <ele>79.3</ele>
        <time>2016-03-25T10:46:33Z</time>
      </trkpt>
      <trkpt lat="48.53327" lon="-2.61569">
        <ele>79.5</ele>
        <time>2016-03-25T10:46:36Z</time>
      </trkpt>
      <trkpt lat="48.53328" lon="-2.61555">
        <ele>79.6</ele>
        <time>2016-03-25T10:46:38Z</time>
      </trkpt>
      <trkpt lat="48.53327" lon="-2.6154">
        <ele>79.7</ele>
        <time>2016-03-25T10:46:40Z</time>
      </trkpt>
      <trkpt lat="48.53327" lon="-2.61526">
        <ele>79.9</ele>
        <time>2016-03-25T10:46:42Z</time>
      </trkpt>
      <trkpt lat="48.53327" lon="-2.61506">
        <ele>80</ele>
        <time>2016-03-25T10:46:45Z</time>
      </trkpt>
      <trkpt lat="48.53323" lon="-2.61494">
        <ele>80.1</ele>
        <time>2016-03-25T10:46:47Z</time>
      </trkpt>
      <trkpt lat="48.53311" lon="-2.61491">
        <ele>80.2</ele>
        <time>2016-03-25T10:46:50Z</time>
      </trkpt>
      <trkpt lat="48.53298" lon="-2.61496">
        <ele>80.3</ele>
        <time>2016-03-25T10:46:53Z</time>
      </trkpt>
      <trkpt lat="48.53285" lon="-2.615">
        <ele>80.4</ele>
        <time>2016-03-25T10:46:56Z</time>
      </trkpt>
      <trkpt lat="48.53274" lon="-2.61502">
        <ele>80.4</ele>
        <time>2016-03-25T10:46:59Z</time>
      </trkpt>
      <trkpt lat="48.53261" lon="-2.61496">
        <ele>80.5</ele>
        <time>2016-03-25T10:47:02Z</time>
      </trkpt>
      <trkpt lat="48.53257" lon="-2.61478">
        <ele>80.5</ele>
        <time>2016-03-25T10:47:05Z</time>
      </trkpt>
      <trkpt lat="48.53256" lon="-2.6146">
        <ele>80.6</ele>
        <time>2016-03-25T10:47:08Z</time>
      </trkpt>
      <trkpt lat="48.53255" lon="-2.61441">
        <ele>80.7</ele>
        <time>2016-03-25T10:47:11Z</time>
      </trkpt>
      <trkpt lat="48.53254" lon="-2.61425">
        <ele>80.9</ele>
        <time>2016-03-25T10:47:14Z</time>
      </trkpt>
      <trkpt lat="48.53253" lon="-2.6141">
        <ele>81.2</ele>
        <time>2016-03-25T10:47:17Z</time>
      </trkpt>
      <trkpt lat="48.53253" lon="-2.61395">
        <ele>81.4</ele>
        <time>2016-03-25T10:47:20Z</time>
      </trkpt>
      <trkpt lat="48.53253" lon="-2.61379">
        <ele>81.6</ele>
        <time>2016-03-25T10:47:23Z</time>
      </trkpt>
      <trkpt lat="48.53252" lon="-2.61364">
        <ele>81.9</ele>
        <time>2016-03-25T10:47:26Z</time>
      </trkpt>
      <trkpt lat="48.53251" lon="-2.61351">
        <ele>82.1</ele>
        <time>2016-03-25T10:47:29Z</time>
      </trkpt>
      <trkpt lat="48.53251" lon="-2.61336">
        <ele>82.4</ele>
        <time>2016-03-25T10:47:32Z</time>
      </trkpt>
      <trkpt lat="48.53251" lon="-2.61321">
        <ele>82.7</ele>
        <time>2016-03-25T10:47:35Z</time>
      </trkpt>
      <trkpt lat="48.53251" lon="-2.61307">
        <ele>83</ele>
        <time>2016-03-25T10:47:38Z</time>
      </trkpt>
      <trkpt lat="48.53248" lon="-2.61293">
        <ele>83.3</ele>
        <time>2016-03-25T10:47:41Z</time>
      </trkpt>
      <trkpt lat="48.53248" lon="-2.61278">
        <ele>83.7</ele>
        <time>2016-03-25T10:47:44Z</time>
      </trkpt>
      <trkpt lat="48.53248" lon="-2.61261">
        <ele>84.1</ele>
        <time>2016-03-25T10:47:47Z</time>
      </trkpt>
      <trkpt lat="48.53246" lon="-2.61247">
        <ele>84.6</ele>
        <time>2016-03-25T10:47:50Z</time>
      </trkpt>
      <trkpt lat="48.53246" lon="-2.61233">
        <ele>85</ele>
        <time>2016-03-25T10:47:53Z</time>
      </trkpt>
      <trkpt lat="48.53247" lon="-2.61217">
        <ele>85.3</ele>
        <time>2016-03-25T10:47:56Z</time>
      </trkpt>
      <trkpt lat="48.53246" lon="-2.61203">
        <ele>85.8</ele>
        <time>2016-03-25T10:47:59Z</time>
      </trkpt>
      <trkpt lat="48.53243" lon="-2.61186">
        <ele>86.3</ele>
        <time>2016-03-25T10:48:03Z</time>
      </trkpt>
      <trkpt lat="48.53241" lon="-2.61171">
        <ele>87</ele>
        <time>2016-03-25T10:48:10Z</time>
      </trkpt>
      <trkpt lat="48.5324" lon="-2.61155">
        <ele>87.3</ele>
        <time>2016-03-25T10:48:16Z</time>
      </trkpt>
      <trkpt lat="48.53237" lon="-2.61142">
        <ele>87.5</ele>
        <time>2016-03-25T10:48:21Z</time>
      </trkpt>
      <trkpt lat="48.5324" lon="-2.61128">
        <ele>87.7</ele>
        <time>2016-03-25T10:48:25Z</time>
      </trkpt>
      <trkpt lat="48.53248" lon="-2.61118">
        <ele>87.8</ele>
        <time>2016-03-25T10:48:29Z</time>
      </trkpt>
      <trkpt lat="48.53255" lon="-2.61109">
        <ele>87.9</ele>
        <time>2016-03-25T10:48:32Z</time>
      </trkpt>
      <trkpt lat="48.53263" lon="-2.61101">
        <ele>88</ele>
        <time>2016-03-25T10:48:35Z</time>
      </trkpt>
      <trkpt lat="48.53272" lon="-2.61094">
        <ele>88.1</ele>
        <time>2016-03-25T10:48:38Z</time>
      </trkpt>
      <trkpt lat="48.5328" lon="-2.61087">
        <ele>88.1</ele>
        <time>2016-03-25T10:48:41Z</time>
      </trkpt>
      <trkpt lat="48.53289" lon="-2.6108">
        <ele>88.1</ele>
        <time>2016-03-25T10:48:44Z</time>
      </trkpt>
      <trkpt lat="48.53299" lon="-2.61071">
        <ele>88.2</ele>
        <time>2016-03-25T10:48:47Z</time>
      </trkpt>
      <trkpt lat="48.53306" lon="-2.6106">
        <ele>88.2</ele>
        <time>2016-03-25T10:48:50Z</time>
      </trkpt>
      <trkpt lat="48.53314" lon="-2.61047">
        <ele>88.2</ele>
        <time>2016-03-25T10:48:53Z</time>
      </trkpt>
      <trkpt lat="48.53321" lon="-2.61033">
        <ele>88.2</ele>
        <time>2016-03-25T10:48:56Z</time>
      </trkpt>
      <trkpt lat="48.53329" lon="-2.61023">
        <ele>88.2</ele>
        <time>2016-03-25T10:48:58Z</time>
      </trkpt>
      <trkpt lat="48.53337" lon="-2.61013">
        <ele>88.3</ele>
        <time>2016-03-25T10:49:00Z</time>
      </trkpt>
      <trkpt lat="48.53343" lon="-2.61003">
        <ele>88.2</ele>
        <time>2016-03-25T10:49:02Z</time>
      </trkpt>
      <trkpt lat="48.53352" lon="-2.6099">
        <ele>88.1</ele>
        <time>2016-03-25T10:49:05Z</time>
      </trkpt>
      <trkpt lat="48.53363" lon="-2.60978">
        <ele>88</ele>
        <time>2016-03-25T10:49:08Z</time>
      </trkpt>
      <trkpt lat="48.53373" lon="-2.60967">
        <ele>88</ele>
        <time>2016-03-25T10:49:11Z</time>
      </trkpt>
      <trkpt lat="48.53381" lon="-2.60961">
        <ele>87.9</ele>
        <time>2016-03-25T10:49:13Z</time>
      </trkpt>
      <trkpt lat="48.53394" lon="-2.60956">
        <ele>87.9</ele>
        <time>2016-03-25T10:49:16Z</time>
      </trkpt>
      <trkpt lat="48.53403" lon="-2.60954">
        <ele>87.9</ele>
        <time>2016-03-25T10:49:18Z</time>
      </trkpt>
      <trkpt lat="48.53413" lon="-2.60952">
        <ele>87.9</ele>
        <time>2016-03-25T10:49:20Z</time>
      </trkpt>
      <trkpt lat="48.53425" lon="-2.60951">
        <ele>87.9</ele>
        <time>2016-03-25T10:49:23Z</time>
      </trkpt>
      <trkpt lat="48.53438" lon="-2.60949">
        <ele>87.9</ele>
        <time>2016-03-25T10:49:26Z</time>
      </trkpt>
      <trkpt lat="48.5345" lon="-2.60945">
        <ele>87.9</ele>
        <time>2016-03-25T10:49:29Z</time>
      </trkpt>
      <trkpt lat="48.53451" lon="-2.60931">
        <ele>87.7</ele>
        <time>2016-03-25T10:49:32Z</time>
      </trkpt>
      <trkpt lat="48.53448" lon="-2.60915">
        <ele>87.5</ele>
        <time>2016-03-25T10:49:35Z</time>
      </trkpt>
      <trkpt lat="48.53443" lon="-2.60899">
        <ele>87.4</ele>
        <time>2016-03-25T10:49:38Z</time>
      </trkpt>
      <trkpt lat="48.53435" lon="-2.60885">
        <ele>87.3</ele>
        <time>2016-03-25T10:49:41Z</time>
      </trkpt>
      <trkpt lat="48.53424" lon="-2.60876">
        <ele>87.2</ele>
        <time>2016-03-25T10:49:44Z</time>
      </trkpt>
      <trkpt lat="48.53412" lon="-2.6087">
        <ele>87.2</ele>
        <time>2016-03-25T10:49:47Z</time>
      </trkpt>
      <trkpt lat="48.53401" lon="-2.60861">
        <ele>87.1</ele>
        <time>2016-03-25T10:49:50Z</time>
      </trkpt>
      <trkpt lat="48.5339" lon="-2.60851">
        <ele>87.2</ele>
        <time>2016-03-25T10:49:53Z</time>
      </trkpt>
      <trkpt lat="48.53378" lon="-2.60843">
        <ele>87.2</ele>
        <time>2016-03-25T10:49:56Z</time>
      </trkpt>
      <trkpt lat="48.5337" lon="-2.60833">
        <ele>87.2</ele>
        <time>2016-03-25T10:49:58Z</time>
      </trkpt>
      <trkpt lat="48.53359" lon="-2.60819">
        <ele>87.3</ele>
        <time>2016-03-25T10:50:01Z</time>
      </trkpt>
      <trkpt lat="48.53352" lon="-2.60809">
        <ele>87.3</ele>
        <time>2016-03-25T10:50:03Z</time>
      </trkpt>
      <trkpt lat="48.53346" lon="-2.60798">
        <ele>87.4</ele>
        <time>2016-03-25T10:50:05Z</time>
      </trkpt>
      <trkpt lat="48.53337" lon="-2.6078">
        <ele>87.4</ele>
        <time>2016-03-25T10:50:08Z</time>
      </trkpt>
      <trkpt lat="48.53331" lon="-2.60767">
        <ele>87.5</ele>
        <time>2016-03-25T10:50:10Z</time>
      </trkpt>
      <trkpt lat="48.53326" lon="-2.60751">
        <ele>87.5</ele>
        <time>2016-03-25T10:50:12Z</time>
      </trkpt>
      <trkpt lat="48.53317" lon="-2.60728">
        <ele>87.5</ele>
        <time>2016-03-25T10:50:15Z</time>
      </trkpt>
      <trkpt lat="48.53313" lon="-2.60712">
        <ele>87.4</ele>
        <time>2016-03-25T10:50:17Z</time>
      </trkpt>
      <trkpt lat="48.53307" lon="-2.60699">
        <ele>87.4</ele>
        <time>2016-03-25T10:50:19Z</time>
      </trkpt>
      <trkpt lat="48.53303" lon="-2.60681">
        <ele>87.4</ele>
        <time>2016-03-25T10:50:21Z</time>
      </trkpt>
      <trkpt lat="48.53296" lon="-2.60666">
        <ele>87.4</ele>
        <time>2016-03-25T10:50:23Z</time>
      </trkpt>
      <trkpt lat="48.53291" lon="-2.60654">
        <ele>87.5</ele>
        <time>2016-03-25T10:50:25Z</time>
      </trkpt>
      <trkpt lat="48.53285" lon="-2.60641">
        <ele>87.5</ele>
        <time>2016-03-25T10:50:27Z</time>
      </trkpt>
      <trkpt lat="48.53279" lon="-2.60629">
        <ele>87.5</ele>
        <time>2016-03-25T10:50:29Z</time>
      </trkpt>
      <trkpt lat="48.53272" lon="-2.60619">
        <ele>87.5</ele>
        <time>2016-03-25T10:50:31Z</time>
      </trkpt>
      <trkpt lat="48.53265" lon="-2.60607">
        <ele>87.6</ele>
        <time>2016-03-25T10:50:33Z</time>
      </trkpt>
      <trkpt lat="48.53257" lon="-2.60597">
        <ele>87.6</ele>
        <time>2016-03-25T10:50:35Z</time>
      </trkpt>
      <trkpt lat="48.53248" lon="-2.60588">
        <ele>87.6</ele>
        <time>2016-03-25T10:50:37Z</time>
      </trkpt>
      <trkpt lat="48.53239" lon="-2.60576">
        <ele>87.5</ele>
        <time>2016-03-25T10:50:39Z</time>
      </trkpt>
      <trkpt lat="48.53229" lon="-2.60566">
        <ele>87.5</ele>
        <time>2016-03-25T10:50:41Z</time>
      </trkpt>
      <trkpt lat="48.53221" lon="-2.60555">
        <ele>87.5</ele>
        <time>2016-03-25T10:50:43Z</time>
      </trkpt>
      <trkpt lat="48.53213" lon="-2.60542">
        <ele>87.5</ele>
        <time>2016-03-25T10:50:45Z</time>
      </trkpt>
      <trkpt lat="48.53208" lon="-2.60525">
        <ele>87.5</ele>
        <time>2016-03-25T10:50:47Z</time>
      </trkpt>
      <trkpt lat="48.53204" lon="-2.60508">
        <ele>87.5</ele>
        <time>2016-03-25T10:50:49Z</time>
      </trkpt>
      <trkpt lat="48.532" lon="-2.60492">
        <ele>87.5</ele>
        <time>2016-03-25T10:50:51Z</time>
      </trkpt>
      <trkpt lat="48.53195" lon="-2.60476">
        <ele>87.5</ele>
        <time>2016-03-25T10:50:53Z</time>
      </trkpt>
      <trkpt lat="48.5319" lon="-2.60461">
        <ele>87.4</ele>
        <time>2016-03-25T10:50:55Z</time>
      </trkpt>
      <trkpt lat="48.53186" lon="-2.60444">
        <ele>87.4</ele>
        <time>2016-03-25T10:50:57Z</time>
      </trkpt>
      <trkpt lat="48.53181" lon="-2.60428">
        <ele>87.3</ele>
        <time>2016-03-25T10:50:59Z</time>
      </trkpt>
      <trkpt lat="48.53175" lon="-2.60413">
        <ele>87.2</ele>
        <time>2016-03-25T10:51:01Z</time>
      </trkpt>
      <trkpt lat="48.53168" lon="-2.60398">
        <ele>87.2</ele>
        <time>2016-03-25T10:51:03Z</time>
      </trkpt>
      <trkpt lat="48.53161" lon="-2.60384">
        <ele>87.1</ele>
        <time>2016-03-25T10:51:05Z</time>
      </trkpt>
      <trkpt lat="48.53155" lon="-2.60368">
        <ele>87.1</ele>
        <time>2016-03-25T10:51:07Z</time>
      </trkpt>
      <trkpt lat="48.53152" lon="-2.6035">
        <ele>87</ele>
        <time>2016-03-25T10:51:09Z</time>
      </trkpt>
      <trkpt lat="48.53151" lon="-2.60332">
        <ele>86.9</ele>
        <time>2016-03-25T10:51:11Z</time>
      </trkpt>
      <trkpt lat="48.5315" lon="-2.60314">
        <ele>86.8</ele>
        <time>2016-03-25T10:51:13Z</time>
      </trkpt>
      <trkpt lat="48.53151" lon="-2.60294">
        <ele>86.7</ele>
        <time>2016-03-25T10:51:15Z</time>
      </trkpt>
      <trkpt lat="48.53152" lon="-2.60276">
        <ele>86.6</ele>
        <time>2016-03-25T10:51:17Z</time>
      </trkpt>
      <trkpt lat="48.53152" lon="-2.60258">
        <ele>86.5</ele>
        <time>2016-03-25T10:51:19Z</time>
      </trkpt>
      <trkpt lat="48.53153" lon="-2.60241">
        <ele>86.3</ele>
        <time>2016-03-25T10:51:21Z</time>
      </trkpt>
      <trkpt lat="48.53154" lon="-2.60223">
        <ele>86.2</ele>
        <time>2016-03-25T10:51:23Z</time>
      </trkpt>
      <trkpt lat="48.53154" lon="-2.60205">
        <ele>86</ele>
        <time>2016-03-25T10:51:25Z</time>
      </trkpt>
      <trkpt lat="48.53154" lon="-2.60187">
        <ele>85.9</ele>
        <time>2016-03-25T10:51:27Z</time>
      </trkpt>
      <trkpt lat="48.53153" lon="-2.60169">
        <ele>85.7</ele>
        <time>2016-03-25T10:51:29Z</time>
      </trkpt>
      <trkpt lat="48.53151" lon="-2.60152">
        <ele>85.6</ele>
        <time>2016-03-25T10:51:31Z</time>
      </trkpt>
      <trkpt lat="48.53149" lon="-2.60136">
        <ele>85.4</ele>
        <time>2016-03-25T10:51:33Z</time>
      </trkpt>
      <trkpt lat="48.53144" lon="-2.6012">
        <ele>85.3</ele>
        <time>2016-03-25T10:51:35Z</time>
      </trkpt>
      <trkpt lat="48.53138" lon="-2.60105">
        <ele>85.2</ele>
        <time>2016-03-25T10:51:37Z</time>
      </trkpt>
      <trkpt lat="48.53131" lon="-2.60092">
        <ele>85.1</ele>
        <time>2016-03-25T10:51:39Z</time>
      </trkpt>
      <trkpt lat="48.53126" lon="-2.6008">
        <ele>85</ele>
        <time>2016-03-25T10:51:41Z</time>
      </trkpt>
      <trkpt lat="48.53115" lon="-2.60072">
        <ele>84.8</ele>
        <time>2016-03-25T10:51:49Z</time>
      </trkpt>
      <trkpt lat="48.53107" lon="-2.60065">
        <ele>84.7</ele>
        <time>2016-03-25T10:51:52Z</time>
      </trkpt>
      <trkpt lat="48.53096" lon="-2.60057">
        <ele>84.7</ele>
        <time>2016-03-25T10:51:55Z</time>
      </trkpt>
      <trkpt lat="48.53085" lon="-2.60049">
        <ele>84.8</ele>
        <time>2016-03-25T10:51:58Z</time>
      </trkpt>
      <trkpt lat="48.53076" lon="-2.60041">
        <ele>84.8</ele>
        <time>2016-03-25T10:52:00Z</time>
      </trkpt>
      <trkpt lat="48.53067" lon="-2.60034">
        <ele>84.8</ele>
        <time>2016-03-25T10:52:02Z</time>
      </trkpt>
      <trkpt lat="48.53058" lon="-2.60027">
        <ele>84.9</ele>
        <time>2016-03-25T10:52:04Z</time>
      </trkpt>
      <trkpt lat="48.53048" lon="-2.6002">
        <ele>84.9</ele>
        <time>2016-03-25T10:52:06Z</time>
      </trkpt>
      <trkpt lat="48.53039" lon="-2.60013">
        <ele>84.9</ele>
        <time>2016-03-25T10:52:08Z</time>
      </trkpt>
      <trkpt lat="48.5303" lon="-2.60006">
        <ele>84.9</ele>
        <time>2016-03-25T10:52:10Z</time>
      </trkpt>
      <trkpt lat="48.53021" lon="-2.59999">
        <ele>85</ele>
        <time>2016-03-25T10:52:12Z</time>
      </trkpt>
      <trkpt lat="48.53012" lon="-2.59993">
        <ele>85.1</ele>
        <time>2016-03-25T10:52:14Z</time>
      </trkpt>
      <trkpt lat="48.53003" lon="-2.59985">
        <ele>85.3</ele>
        <time>2016-03-25T10:52:16Z</time>
      </trkpt>
      <trkpt lat="48.52994" lon="-2.59978">
        <ele>85.5</ele>
        <time>2016-03-25T10:52:18Z</time>
      </trkpt>
      <trkpt lat="48.52986" lon="-2.5997">
        <ele>85.6</ele>
        <time>2016-03-25T10:52:20Z</time>
      </trkpt>
      <trkpt lat="48.52978" lon="-2.59961">
        <ele>85.8</ele>
        <time>2016-03-25T10:52:22Z</time>
      </trkpt>
      <trkpt lat="48.52971" lon="-2.5995">
        <ele>85.9</ele>
        <time>2016-03-25T10:52:24Z</time>
      </trkpt>
      <trkpt lat="48.52963" lon="-2.59939">
        <ele>86.1</ele>
        <time>2016-03-25T10:52:26Z</time>
      </trkpt>
      <trkpt lat="48.52956" lon="-2.59929">
        <ele>86.3</ele>
        <time>2016-03-25T10:52:28Z</time>
      </trkpt>
      <trkpt lat="48.52948" lon="-2.59918">
        <ele>86.4</ele>
        <time>2016-03-25T10:52:30Z</time>
      </trkpt>
      <trkpt lat="48.52939" lon="-2.59909">
        <ele>86.6</ele>
        <time>2016-03-25T10:52:32Z</time>
      </trkpt>
      <trkpt lat="48.5293" lon="-2.59901">
        <ele>86.8</ele>
        <time>2016-03-25T10:52:34Z</time>
      </trkpt>
      <trkpt lat="48.52921" lon="-2.59895">
        <ele>87</ele>
        <time>2016-03-25T10:52:36Z</time>
      </trkpt>
      <trkpt lat="48.52912" lon="-2.59889">
        <ele>87.2</ele>
        <time>2016-03-25T10:52:38Z</time>
      </trkpt>
      <trkpt lat="48.52902" lon="-2.59884">
        <ele>87.4</ele>
        <time>2016-03-25T10:52:40Z</time>
      </trkpt>
      <trkpt lat="48.52892" lon="-2.5988">
        <ele>87.5</ele>
        <time>2016-03-25T10:52:42Z</time>
      </trkpt>
      <trkpt lat="48.5288" lon="-2.59876">
        <ele>87.7</ele>
        <time>2016-03-25T10:52:44Z</time>
      </trkpt>
      <trkpt lat="48.52869" lon="-2.59873">
        <ele>88</ele>
        <time>2016-03-25T10:52:46Z</time>
      </trkpt>
      <trkpt lat="48.52859" lon="-2.59872">
        <ele>88.1</ele>
        <time>2016-03-25T10:52:48Z</time>
      </trkpt>
      <trkpt lat="48.52847" lon="-2.5987">
        <ele>88.3</ele>
        <time>2016-03-25T10:52:50Z</time>
      </trkpt>
      <trkpt lat="48.52836" lon="-2.59871">
        <ele>88.5</ele>
        <time>2016-03-25T10:52:52Z</time>
      </trkpt>
      <trkpt lat="48.52824" lon="-2.59875">
        <ele>88.6</ele>
        <time>2016-03-25T10:52:54Z</time>
      </trkpt>
      <trkpt lat="48.52814" lon="-2.5988">
        <ele>88.8</ele>
        <time>2016-03-25T10:52:56Z</time>
      </trkpt>
      <trkpt lat="48.52803" lon="-2.59887">
        <ele>88.9</ele>
        <time>2016-03-25T10:52:58Z</time>
      </trkpt>
      <trkpt lat="48.52793" lon="-2.59896">
        <ele>89</ele>
        <time>2016-03-25T10:53:00Z</time>
      </trkpt>
      <trkpt lat="48.52783" lon="-2.59905">
        <ele>89.1</ele>
        <time>2016-03-25T10:53:02Z</time>
      </trkpt>
      <trkpt lat="48.52773" lon="-2.59914">
        <ele>89.2</ele>
        <time>2016-03-25T10:53:04Z</time>
      </trkpt>
      <trkpt lat="48.52763" lon="-2.59922">
        <ele>89.2</ele>
        <time>2016-03-25T10:53:06Z</time>
      </trkpt>
      <trkpt lat="48.52752" lon="-2.5993">
        <ele>89.3</ele>
        <time>2016-03-25T10:53:08Z</time>
      </trkpt>
      <trkpt lat="48.52741" lon="-2.59936">
        <ele>89.3</ele>
        <time>2016-03-25T10:53:10Z</time>
      </trkpt>
      <trkpt lat="48.52729" lon="-2.59936">
        <ele>89.3</ele>
        <time>2016-03-25T10:53:12Z</time>
      </trkpt>
      <trkpt lat="48.52718" lon="-2.59931">
        <ele>89.3</ele>
        <time>2016-03-25T10:53:14Z</time>
      </trkpt>
      <trkpt lat="48.52708" lon="-2.59926">
        <ele>89.3</ele>
        <time>2016-03-25T10:53:16Z</time>
      </trkpt>
      <trkpt lat="48.52697" lon="-2.5992">
        <ele>89.1</ele>
        <time>2016-03-25T10:53:18Z</time>
      </trkpt>
      <trkpt lat="48.52687" lon="-2.59913">
        <ele>89</ele>
        <time>2016-03-25T10:53:20Z</time>
      </trkpt>
      <trkpt lat="48.52676" lon="-2.59907">
        <ele>88.8</ele>
        <time>2016-03-25T10:53:22Z</time>
      </trkpt>
      <trkpt lat="48.52666" lon="-2.59902">
        <ele>88.7</ele>
        <time>2016-03-25T10:53:24Z</time>
      </trkpt>
      <trkpt lat="48.52657" lon="-2.5989">
        <ele>88.6</ele>
        <time>2016-03-25T10:53:26Z</time>
      </trkpt>
      <trkpt lat="48.52653" lon="-2.59874">
        <ele>88.5</ele>
        <time>2016-03-25T10:53:28Z</time>
      </trkpt>
      <trkpt lat="48.52653" lon="-2.59857">
        <ele>88.4</ele>
        <time>2016-03-25T10:53:30Z</time>
      </trkpt>
      <trkpt lat="48.52655" lon="-2.5984">
        <ele>88.3</ele>
        <time>2016-03-25T10:53:32Z</time>
      </trkpt>
      <trkpt lat="48.52657" lon="-2.59822">
        <ele>88.2</ele>
        <time>2016-03-25T10:53:34Z</time>
      </trkpt>
      <trkpt lat="48.52659" lon="-2.59806">
        <ele>88.2</ele>
        <time>2016-03-25T10:53:36Z</time>
      </trkpt>
      <trkpt lat="48.52661" lon="-2.59789">
        <ele>88.1</ele>
        <time>2016-03-25T10:53:38Z</time>
      </trkpt>
      <trkpt lat="48.52664" lon="-2.59773">
        <ele>88.1</ele>
        <time>2016-03-25T10:53:40Z</time>
      </trkpt>
      <trkpt lat="48.52668" lon="-2.59758">
        <ele>88</ele>
        <time>2016-03-25T10:53:42Z</time>
      </trkpt>
      <trkpt lat="48.52672" lon="-2.59743">
        <ele>88</ele>
        <time>2016-03-25T10:53:44Z</time>
      </trkpt>
      <trkpt lat="48.52676" lon="-2.59729">
        <ele>88</ele>
        <time>2016-03-25T10:53:46Z</time>
      </trkpt>
      <trkpt lat="48.5268" lon="-2.59714">
        <ele>88</ele>
        <time>2016-03-25T10:53:48Z</time>
      </trkpt>
      <trkpt lat="48.52685" lon="-2.59699">
        <ele>88</ele>
        <time>2016-03-25T10:53:50Z</time>
      </trkpt>
      <trkpt lat="48.5269" lon="-2.59684">
        <ele>88</ele>
        <time>2016-03-25T10:53:52Z</time>
      </trkpt>
      <trkpt lat="48.52695" lon="-2.59669">
        <ele>88</ele>
        <time>2016-03-25T10:53:54Z</time>
      </trkpt>
      <trkpt lat="48.52701" lon="-2.59653">
        <ele>88</ele>
        <time>2016-03-25T10:53:56Z</time>
      </trkpt>
      <trkpt lat="48.52707" lon="-2.59638">
        <ele>88</ele>
        <time>2016-03-25T10:53:58Z</time>
      </trkpt>
      <trkpt lat="48.52713" lon="-2.59623">
        <ele>88</ele>
        <time>2016-03-25T10:54:00Z</time>
      </trkpt>
      <trkpt lat="48.52719" lon="-2.5961">
        <ele>88</ele>
        <time>2016-03-25T10:54:02Z</time>
      </trkpt>
      <trkpt lat="48.52725" lon="-2.59596">
        <ele>88</ele>
        <time>2016-03-25T10:54:04Z</time>
      </trkpt>
      <trkpt lat="48.52732" lon="-2.59582">
        <ele>88</ele>
        <time>2016-03-25T10:54:06Z</time>
      </trkpt>
      <trkpt lat="48.52738" lon="-2.59568">
        <ele>88</ele>
        <time>2016-03-25T10:54:08Z</time>
      </trkpt>
      <trkpt lat="48.52744" lon="-2.59553">
        <ele>88</ele>
        <time>2016-03-25T10:54:10Z</time>
      </trkpt>
      <trkpt lat="48.5275" lon="-2.59539">
        <ele>88</ele>
        <time>2016-03-25T10:54:12Z</time>
      </trkpt>
      <trkpt lat="48.52756" lon="-2.59525">
        <ele>88</ele>
        <time>2016-03-25T10:54:14Z</time>
      </trkpt>
      <trkpt lat="48.52763" lon="-2.59511">
        <ele>88</ele>
        <time>2016-03-25T10:54:16Z</time>
      </trkpt>
      <trkpt lat="48.52769" lon="-2.59497">
        <ele>88</ele>
        <time>2016-03-25T10:54:18Z</time>
      </trkpt>
      <trkpt lat="48.52776" lon="-2.59483">
        <ele>88</ele>
        <time>2016-03-25T10:54:20Z</time>
      </trkpt>
      <trkpt lat="48.52785" lon="-2.5947">
        <ele>88</ele>
        <time>2016-03-25T10:54:22Z</time>
      </trkpt>
      <trkpt lat="48.52794" lon="-2.59459">
        <ele>88</ele>
        <time>2016-03-25T10:54:24Z</time>
      </trkpt>
      <trkpt lat="48.52804" lon="-2.5945">
        <ele>88</ele>
        <time>2016-03-25T10:54:26Z</time>
      </trkpt>
      <trkpt lat="48.52814" lon="-2.59443">
        <ele>88</ele>
        <time>2016-03-25T10:54:28Z</time>
      </trkpt>
      <trkpt lat="48.52824" lon="-2.59437">
        <ele>88</ele>
        <time>2016-03-25T10:54:30Z</time>
      </trkpt>
      <trkpt lat="48.52835" lon="-2.59433">
        <ele>88</ele>
        <time>2016-03-25T10:54:32Z</time>
      </trkpt>
      <trkpt lat="48.52845" lon="-2.59428">
        <ele>88</ele>
        <time>2016-03-25T10:54:34Z</time>
      </trkpt>
      <trkpt lat="48.52856" lon="-2.59422">
        <ele>88</ele>
        <time>2016-03-25T10:54:36Z</time>
      </trkpt>
      <trkpt lat="48.52865" lon="-2.59413">
        <ele>88</ele>
        <time>2016-03-25T10:54:38Z</time>
      </trkpt>
      <trkpt lat="48.52874" lon="-2.59402">
        <ele>88</ele>
        <time>2016-03-25T10:54:40Z</time>
      </trkpt>
      <trkpt lat="48.5288" lon="-2.59388">
        <ele>88</ele>
        <time>2016-03-25T10:54:42Z</time>
      </trkpt>
      <trkpt lat="48.52886" lon="-2.59372">
        <ele>88</ele>
        <time>2016-03-25T10:54:44Z</time>
      </trkpt>
      <trkpt lat="48.52891" lon="-2.59355">
        <ele>87.9</ele>
        <time>2016-03-25T10:54:46Z</time>
      </trkpt>
      <trkpt lat="48.52895" lon="-2.59338">
        <ele>87.8</ele>
        <time>2016-03-25T10:54:48Z</time>
      </trkpt>
      <trkpt lat="48.52899" lon="-2.59318">
        <ele>87.7</ele>
        <time>2016-03-25T10:54:50Z</time>
      </trkpt>
      <trkpt lat="48.52901" lon="-2.59295">
        <ele>87.5</ele>
        <time>2016-03-25T10:54:52Z</time>
      </trkpt>
      <trkpt lat="48.52903" lon="-2.59274">
        <ele>87.2</ele>
        <time>2016-03-25T10:54:54Z</time>
      </trkpt>
      <trkpt lat="48.52904" lon="-2.59253">
        <ele>87</ele>
        <time>2016-03-25T10:54:56Z</time>
      </trkpt>
      <trkpt lat="48.52907" lon="-2.59233">
        <ele>86.8</ele>
        <time>2016-03-25T10:54:58Z</time>
      </trkpt>
      <trkpt lat="48.5291" lon="-2.59213">
        <ele>86.6</ele>
        <time>2016-03-25T10:55:00Z</time>
      </trkpt>
      <trkpt lat="48.52914" lon="-2.59194">
        <ele>86.4</ele>
        <time>2016-03-25T10:55:02Z</time>
      </trkpt>
      <trkpt lat="48.52917" lon="-2.59177">
        <ele>86.3</ele>
        <time>2016-03-25T10:55:04Z</time>
      </trkpt>
      <trkpt lat="48.52921" lon="-2.5916">
        <ele>86.1</ele>
        <time>2016-03-25T10:55:06Z</time>
      </trkpt>
      <trkpt lat="48.52924" lon="-2.59144">
        <ele>86</ele>
        <time>2016-03-25T10:55:08Z</time>
      </trkpt>
      <trkpt lat="48.52928" lon="-2.5913">
        <ele>85.8</ele>
        <time>2016-03-25T10:55:10Z</time>
      </trkpt>
      <trkpt lat="48.52931" lon="-2.59115">
        <ele>85.7</ele>
        <time>2016-03-25T10:55:12Z</time>
      </trkpt>
      <trkpt lat="48.52935" lon="-2.59099">
        <ele>85.5</ele>
        <time>2016-03-25T10:55:14Z</time>
      </trkpt>
      <trkpt lat="48.52937" lon="-2.59082">
        <ele>85.4</ele>
        <time>2016-03-25T10:55:16Z</time>
      </trkpt>
      <trkpt lat="48.52938" lon="-2.59063">
        <ele>85.2</ele>
        <time>2016-03-25T10:55:18Z</time>
      </trkpt>
      <trkpt lat="48.52938" lon="-2.59044">
        <ele>85.1</ele>
        <time>2016-03-25T10:55:20Z</time>
      </trkpt>
      <trkpt lat="48.52936" lon="-2.59026">
        <ele>84.9</ele>
        <time>2016-03-25T10:55:22Z</time>
      </trkpt>
      <trkpt lat="48.52933" lon="-2.59007">
        <ele>84.8</ele>
        <time>2016-03-25T10:55:24Z</time>
      </trkpt>
      <trkpt lat="48.52931" lon="-2.58989">
        <ele>84.7</ele>
        <time>2016-03-25T10:55:26Z</time>
      </trkpt>
      <trkpt lat="48.52929" lon="-2.58971">
        <ele>84.6</ele>
        <time>2016-03-25T10:55:28Z</time>
      </trkpt>
      <trkpt lat="48.52929" lon="-2.58953">
        <ele>84.4</ele>
        <time>2016-03-25T10:55:30Z</time>
      </trkpt>
      <trkpt lat="48.52932" lon="-2.58936">
        <ele>84.3</ele>
        <time>2016-03-25T10:55:32Z</time>
      </trkpt>
      <trkpt lat="48.52937" lon="-2.5892">
        <ele>84.1</ele>
        <time>2016-03-25T10:55:34Z</time>
      </trkpt>
      <trkpt lat="48.52943" lon="-2.58906">
        <ele>84</ele>
        <time>2016-03-25T10:55:36Z</time>
      </trkpt>
      <trkpt lat="48.5295" lon="-2.58892">
        <ele>83.8</ele>
        <time>2016-03-25T10:55:38Z</time>
      </trkpt>
      <trkpt lat="48.52957" lon="-2.58878">
        <ele>83.7</ele>
        <time>2016-03-25T10:55:40Z</time>
      </trkpt>
      <trkpt lat="48.52965" lon="-2.58864">
        <ele>83.6</ele>
        <time>2016-03-25T10:55:42Z</time>
      </trkpt>
      <trkpt lat="48.52972" lon="-2.58848">
        <ele>83.5</ele>
        <time>2016-03-25T10:55:44Z</time>
      </trkpt>
      <trkpt lat="48.52976" lon="-2.5883">
        <ele>83.2</ele>
        <time>2016-03-25T10:55:46Z</time>
      </trkpt>
      <trkpt lat="48.52977" lon="-2.58812">
        <ele>83</ele>
        <time>2016-03-25T10:55:48Z</time>
      </trkpt>
      <trkpt lat="48.52976" lon="-2.58794">
        <ele>82.8</ele>
        <time>2016-03-25T10:55:50Z</time>
      </trkpt>
      <trkpt lat="48.52975" lon="-2.58776">
        <ele>82.5</ele>
        <time>2016-03-25T10:55:52Z</time>
      </trkpt>
      <trkpt lat="48.52975" lon="-2.58756">
        <ele>82.2</ele>
        <time>2016-03-25T10:55:54Z</time>
      </trkpt>
      <trkpt lat="48.52977" lon="-2.58737">
        <ele>81.9</ele>
        <time>2016-03-25T10:55:56Z</time>
      </trkpt>
      <trkpt lat="48.52984" lon="-2.5872">
        <ele>81.6</ele>
        <time>2016-03-25T10:55:58Z</time>
      </trkpt>
      <trkpt lat="48.52994" lon="-2.58707">
        <ele>81.3</ele>
        <time>2016-03-25T10:56:00Z</time>
      </trkpt>
      <trkpt lat="48.53004" lon="-2.58696">
        <ele>81</ele>
        <time>2016-03-25T10:56:02Z</time>
      </trkpt>
      <trkpt lat="48.53015" lon="-2.58684">
        <ele>80.7</ele>
        <time>2016-03-25T10:56:04Z</time>
      </trkpt>
      <trkpt lat="48.53026" lon="-2.58673">
        <ele>80.3</ele>
        <time>2016-03-25T10:56:06Z</time>
      </trkpt>
      <trkpt lat="48.53037" lon="-2.58662">
        <ele>79.9</ele>
        <time>2016-03-25T10:56:08Z</time>
      </trkpt>
      <trkpt lat="48.53047" lon="-2.58651">
        <ele>79.5</ele>
        <time>2016-03-25T10:56:10Z</time>
      </trkpt>
      <trkpt lat="48.53058" lon="-2.5864">
        <ele>79.1</ele>
        <time>2016-03-25T10:56:12Z</time>
      </trkpt>
      <trkpt lat="48.53068" lon="-2.58628">
        <ele>78.6</ele>
        <time>2016-03-25T10:56:14Z</time>
      </trkpt>
      <trkpt lat="48.53077" lon="-2.58615">
        <ele>78.2</ele>
        <time>2016-03-25T10:56:16Z</time>
      </trkpt>
      <trkpt lat="48.53087" lon="-2.58601">
        <ele>77.8</ele>
        <time>2016-03-25T10:56:18Z</time>
      </trkpt>
      <trkpt lat="48.53095" lon="-2.58586">
        <ele>77.4</ele>
        <time>2016-03-25T10:56:20Z</time>
      </trkpt>
      <trkpt lat="48.53103" lon="-2.58569">
        <ele>77</ele>
        <time>2016-03-25T10:56:22Z</time>
      </trkpt>
      <trkpt lat="48.53111" lon="-2.58552">
        <ele>76.6</ele>
        <time>2016-03-25T10:56:24Z</time>
      </trkpt>
      <trkpt lat="48.53118" lon="-2.58535">
        <ele>76.2</ele>
        <time>2016-03-25T10:56:26Z</time>
      </trkpt>
      <trkpt lat="48.53125" lon="-2.58518">
        <ele>75.8</ele>
        <time>2016-03-25T10:56:28Z</time>
      </trkpt>
      <trkpt lat="48.53133" lon="-2.585">
        <ele>75.4</ele>
        <time>2016-03-25T10:56:30Z</time>
      </trkpt>
      <trkpt lat="48.5314" lon="-2.58483">
        <ele>75</ele>
        <time>2016-03-25T10:56:32Z</time>
      </trkpt>
      <trkpt lat="48.53147" lon="-2.58465">
        <ele>74.6</ele>
        <time>2016-03-25T10:56:34Z</time>
      </trkpt>
      <trkpt lat="48.53154" lon="-2.58447">
        <ele>74.2</ele>
        <time>2016-03-25T10:56:36Z</time>
      </trkpt>
      <trkpt lat="48.53161" lon="-2.5843">
        <ele>73.9</ele>
        <time>2016-03-25T10:56:38Z</time>
      </trkpt>
      <trkpt lat="48.53169" lon="-2.58412">
        <ele>73.5</ele>
        <time>2016-03-25T10:56:40Z</time>
      </trkpt>
      <trkpt lat="48.53176" lon="-2.58393">
        <ele>73.1</ele>
        <time>2016-03-25T10:56:42Z</time>
      </trkpt>
      <trkpt lat="48.53184" lon="-2.58373">
        <ele>72.7</ele>
        <time>2016-03-25T10:56:44Z</time>
      </trkpt>
      <trkpt lat="48.53192" lon="-2.58355">
        <ele>72.4</ele>
        <time>2016-03-25T10:56:46Z</time>
      </trkpt>
      <trkpt lat="48.532" lon="-2.58339">
        <ele>72</ele>
        <time>2016-03-25T10:56:48Z</time>
      </trkpt>
      <trkpt lat="48.53209" lon="-2.58324">
        <ele>71.6</ele>
        <time>2016-03-25T10:56:50Z</time>
      </trkpt>
      <trkpt lat="48.53217" lon="-2.58309">
        <ele>71.3</ele>
        <time>2016-03-25T10:56:52Z</time>
      </trkpt>
      <trkpt lat="48.53225" lon="-2.58295">
        <ele>71</ele>
        <time>2016-03-25T10:56:54Z</time>
      </trkpt>
      <trkpt lat="48.53233" lon="-2.58281">
        <ele>70.7</ele>
        <time>2016-03-25T10:56:56Z</time>
      </trkpt>
      <trkpt lat="48.53239" lon="-2.58268">
        <ele>70.4</ele>
        <time>2016-03-25T10:56:58Z</time>
      </trkpt>
      <trkpt lat="48.53245" lon="-2.58253">
        <ele>70.1</ele>
        <time>2016-03-25T10:57:00Z</time>
      </trkpt>
      <trkpt lat="48.53251" lon="-2.58238">
        <ele>69.9</ele>
        <time>2016-03-25T10:57:02Z</time>
      </trkpt>
      <trkpt lat="48.53256" lon="-2.58223">
        <ele>69.7</ele>
        <time>2016-03-25T10:57:04Z</time>
      </trkpt>
      <trkpt lat="48.53261" lon="-2.58206">
        <ele>69.6</ele>
        <time>2016-03-25T10:57:06Z</time>
      </trkpt>
      <trkpt lat="48.53265" lon="-2.58189">
        <ele>69.4</ele>
        <time>2016-03-25T10:57:08Z</time>
      </trkpt>
      <trkpt lat="48.53269" lon="-2.58172">
        <ele>69.3</ele>
        <time>2016-03-25T10:57:10Z</time>
      </trkpt>
      <trkpt lat="48.53274" lon="-2.58155">
        <ele>69.2</ele>
        <time>2016-03-25T10:57:12Z</time>
      </trkpt>
      <trkpt lat="48.53278" lon="-2.58139">
        <ele>69.1</ele>
        <time>2016-03-25T10:57:14Z</time>
      </trkpt>
      <trkpt lat="48.53283" lon="-2.58123">
        <ele>69</ele>
        <time>2016-03-25T10:57:16Z</time>
      </trkpt>
      <trkpt lat="48.53288" lon="-2.58108">
        <ele>68.8</ele>
        <time>2016-03-25T10:57:18Z</time>
      </trkpt>
      <trkpt lat="48.53293" lon="-2.58092">
        <ele>68.6</ele>
        <time>2016-03-25T10:57:20Z</time>
      </trkpt>
      <trkpt lat="48.53297" lon="-2.58077">
        <ele>68.4</ele>
        <time>2016-03-25T10:57:22Z</time>
      </trkpt>
      <trkpt lat="48.53302" lon="-2.58063">
        <ele>68.2</ele>
        <time>2016-03-25T10:57:24Z</time>
      </trkpt>
      <trkpt lat="48.53307" lon="-2.58049">
        <ele>68.1</ele>
        <time>2016-03-25T10:57:26Z</time>
      </trkpt>
      <trkpt lat="48.53312" lon="-2.58034">
        <ele>67.9</ele>
        <time>2016-03-25T10:57:28Z</time>
      </trkpt>
      <trkpt lat="48.53317" lon="-2.5802">
        <ele>67.8</ele>
        <time>2016-03-25T10:57:30Z</time>
      </trkpt>
      <trkpt lat="48.53321" lon="-2.58005">
        <ele>67.6</ele>
        <time>2016-03-25T10:57:32Z</time>
      </trkpt>
      <trkpt lat="48.53323" lon="-2.57988">
        <ele>67.5</ele>
        <time>2016-03-25T10:57:34Z</time>
      </trkpt>
      <trkpt lat="48.53322" lon="-2.57971">
        <ele>67.4</ele>
        <time>2016-03-25T10:57:36Z</time>
      </trkpt>
      <trkpt lat="48.53322" lon="-2.57954">
        <ele>67.3</ele>
        <time>2016-03-25T10:57:38Z</time>
      </trkpt>
      <trkpt lat="48.53322" lon="-2.57937">
        <ele>67.3</ele>
        <time>2016-03-25T10:57:40Z</time>
      </trkpt>
      <trkpt lat="48.53322" lon="-2.5792">
        <ele>67.3</ele>
        <time>2016-03-25T10:57:42Z</time>
      </trkpt>
      <trkpt lat="48.53321" lon="-2.57904">
        <ele>67.3</ele>
        <time>2016-03-25T10:57:44Z</time>
      </trkpt>
      <trkpt lat="48.53321" lon="-2.57889">
        <ele>67.3</ele>
        <time>2016-03-25T10:57:46Z</time>
      </trkpt>
      <trkpt lat="48.53322" lon="-2.57873">
        <ele>67.4</ele>
        <time>2016-03-25T10:57:48Z</time>
      </trkpt>
      <trkpt lat="48.53322" lon="-2.57858">
        <ele>66.8</ele>
        <time>2016-03-25T10:57:50Z</time>
      </trkpt>
      <trkpt lat="48.53322" lon="-2.57844">
        <ele>66.8</ele>
        <time>2016-03-25T10:57:52Z</time>
      </trkpt>
      <trkpt lat="48.53324" lon="-2.57825">
        <ele>66.9</ele>
        <time>2016-03-25T10:57:55Z</time>
      </trkpt>
      <trkpt lat="48.53322" lon="-2.57809">
        <ele>67</ele>
        <time>2016-03-25T10:57:58Z</time>
      </trkpt>
      <trkpt lat="48.53317" lon="-2.57797">
        <ele>67.3</ele>
        <time>2016-03-25T10:58:01Z</time>
      </trkpt>
      <trkpt lat="48.53314" lon="-2.57781">
        <ele>67.6</ele>
        <time>2016-03-25T10:58:04Z</time>
      </trkpt>
      <trkpt lat="48.53311" lon="-2.57767">
        <ele>68</ele>
        <time>2016-03-25T10:58:07Z</time>
      </trkpt>
      <trkpt lat="48.5331" lon="-2.57752">
        <ele>68.3</ele>
        <time>2016-03-25T10:58:10Z</time>
      </trkpt>
      <trkpt lat="48.53308" lon="-2.57736">
        <ele>68.7</ele>
        <time>2016-03-25T10:58:14Z</time>
      </trkpt>
      <trkpt lat="48.53315" lon="-2.57725">
        <ele>69</ele>
        <time>2016-03-25T10:58:18Z</time>
      </trkpt>
      <trkpt lat="48.53324" lon="-2.57722">
        <ele>69.3</ele>
        <time>2016-03-25T10:58:21Z</time>
      </trkpt>
      <trkpt lat="48.53336" lon="-2.57723">
        <ele>69.7</ele>
        <time>2016-03-25T10:58:25Z</time>
      </trkpt>
      <trkpt lat="48.53344" lon="-2.57731">
        <ele>69.9</ele>
        <time>2016-03-25T10:58:28Z</time>
      </trkpt>
      <trkpt lat="48.5335" lon="-2.57743">
        <ele>70.2</ele>
        <time>2016-03-25T10:58:33Z</time>
      </trkpt>
      <trkpt lat="48.53352" lon="-2.57757">
        <ele>70.3</ele>
        <time>2016-03-25T10:58:36Z</time>
      </trkpt>
      <trkpt lat="48.5335" lon="-2.57773">
        <ele>70.4</ele>
        <time>2016-03-25T10:58:39Z</time>
      </trkpt>
      <trkpt lat="48.53348" lon="-2.5779">
        <ele>70.5</ele>
        <time>2016-03-25T10:58:42Z</time>
      </trkpt>
      <trkpt lat="48.53353" lon="-2.57804">
        <ele>70.5</ele>
        <time>2016-03-25T10:58:49Z</time>
      </trkpt>
      <trkpt lat="48.53363" lon="-2.57806">
        <ele>70.4</ele>
        <time>2016-03-25T10:58:52Z</time>
      </trkpt>
      <trkpt lat="48.53371" lon="-2.57818">
        <ele>70.4</ele>
        <time>2016-03-25T10:58:55Z</time>
      </trkpt>
      <trkpt lat="48.53376" lon="-2.57835">
        <ele>70.3</ele>
        <time>2016-03-25T10:58:58Z</time>
      </trkpt>
      <trkpt lat="48.53383" lon="-2.57851">
        <ele>70.3</ele>
        <time>2016-03-25T10:59:01Z</time>
      </trkpt>
      <trkpt lat="48.53391" lon="-2.57867">
        <ele>70.2</ele>
        <time>2016-03-25T10:59:04Z</time>
      </trkpt>
      <trkpt lat="48.53396" lon="-2.57878">
        <ele>70.2</ele>
        <time>2016-03-25T10:59:06Z</time>
      </trkpt>
      <trkpt lat="48.53401" lon="-2.57889">
        <ele>70.2</ele>
        <time>2016-03-25T10:59:08Z</time>
      </trkpt>
      <trkpt lat="48.53409" lon="-2.57906">
        <ele>70.2</ele>
        <time>2016-03-25T10:59:11Z</time>
      </trkpt>
      <trkpt lat="48.53417" lon="-2.57923">
        <ele>70.2</ele>
        <time>2016-03-25T10:59:14Z</time>
      </trkpt>
      <trkpt lat="48.53422" lon="-2.57934">
        <ele>70.2</ele>
        <time>2016-03-25T10:59:16Z</time>
      </trkpt>
      <trkpt lat="48.53428" lon="-2.57949">
        <ele>70.1</ele>
        <time>2016-03-25T10:59:19Z</time>
      </trkpt>
      <trkpt lat="48.53428" lon="-2.57963">
        <ele>70.1</ele>
        <time>2016-03-25T10:59:25Z</time>
      </trkpt>
      <trkpt lat="48.53415" lon="-2.57968">
        <ele>70.1</ele>
        <time>2016-03-25T10:59:29Z</time>
      </trkpt>
      <trkpt lat="48.53406" lon="-2.57971">
        <ele>70.1</ele>
        <time>2016-03-25T10:59:31Z</time>
      </trkpt>
      <trkpt lat="48.53395" lon="-2.57973">
        <ele>70</ele>
        <time>2016-03-25T10:59:33Z</time>
      </trkpt>
      <trkpt lat="48.53383" lon="-2.57976">
        <ele>69.8</ele>
        <time>2016-03-25T10:59:35Z</time>
      </trkpt>
      <trkpt lat="48.53371" lon="-2.57979">
        <ele>69.6</ele>
        <time>2016-03-25T10:59:37Z</time>
      </trkpt>
      <trkpt lat="48.53359" lon="-2.57982">
        <ele>69.5</ele>
        <time>2016-03-25T10:59:39Z</time>
      </trkpt>
      <trkpt lat="48.53347" lon="-2.57984">
        <ele>69.2</ele>
        <time>2016-03-25T10:59:41Z</time>
      </trkpt>
      <trkpt lat="48.53338" lon="-2.5799">
        <ele>68.9</ele>
        <time>2016-03-25T10:59:44Z</time>
      </trkpt>
      <trkpt lat="48.53328" lon="-2.57996">
        <ele>68.6</ele>
        <time>2016-03-25T10:59:47Z</time>
      </trkpt>
      <trkpt lat="48.53325" lon="-2.58014">
        <ele>68.3</ele>
        <time>2016-03-25T10:59:50Z</time>
      </trkpt>
      <trkpt lat="48.53324" lon="-2.5803">
        <ele>68.1</ele>
        <time>2016-03-25T10:59:53Z</time>
      </trkpt>
      <trkpt lat="48.53324" lon="-2.58044">
        <ele>67.9</ele>
        <time>2016-03-25T10:59:56Z</time>
      </trkpt>
      <trkpt lat="48.53323" lon="-2.5806">
        <ele>67.8</ele>
        <time>2016-03-25T10:59:59Z</time>
      </trkpt>
      <trkpt lat="48.53324" lon="-2.58078">
        <ele>67</ele>
        <time>2016-03-25T11:00:02Z</time>
      </trkpt>
      <trkpt lat="48.53325" lon="-2.58098">
        <ele>66.7</ele>
        <time>2016-03-25T11:00:05Z</time>
      </trkpt>
      <trkpt lat="48.53326" lon="-2.58112">
        <ele>67</ele>
        <time>2016-03-25T11:00:07Z</time>
      </trkpt>
      <trkpt lat="48.53327" lon="-2.58126">
        <ele>67</ele>
        <time>2016-03-25T11:00:09Z</time>
      </trkpt>
      <trkpt lat="48.53328" lon="-2.58142">
        <ele>66.9</ele>
        <time>2016-03-25T11:00:11Z</time>
      </trkpt>
      <trkpt lat="48.53329" lon="-2.58157">
        <ele>66.9</ele>
        <time>2016-03-25T11:00:13Z</time>
      </trkpt>
      <trkpt lat="48.53331" lon="-2.58173">
        <ele>66.8</ele>
        <time>2016-03-25T11:00:15Z</time>
      </trkpt>
      <trkpt lat="48.53332" lon="-2.5819">
        <ele>66.8</ele>
        <time>2016-03-25T11:00:17Z</time>
      </trkpt>
      <trkpt lat="48.53334" lon="-2.58207">
        <ele>66.7</ele>
        <time>2016-03-25T11:00:19Z</time>
      </trkpt>
      <trkpt lat="48.53336" lon="-2.58223">
        <ele>66.7</ele>
        <time>2016-03-25T11:00:21Z</time>
      </trkpt>
      <trkpt lat="48.53339" lon="-2.5824">
        <ele>66.6</ele>
        <time>2016-03-25T11:00:23Z</time>
      </trkpt>
      <trkpt lat="48.53342" lon="-2.58256">
        <ele>66.4</ele>
        <time>2016-03-25T11:00:25Z</time>
      </trkpt>
      <trkpt lat="48.53345" lon="-2.58271">
        <ele>66.3</ele>
        <time>2016-03-25T11:00:27Z</time>
      </trkpt>
      <trkpt lat="48.53348" lon="-2.58287">
        <ele>66.2</ele>
        <time>2016-03-25T11:00:29Z</time>
      </trkpt>
      <trkpt lat="48.53351" lon="-2.58303">
        <ele>66</ele>
        <time>2016-03-25T11:00:31Z</time>
      </trkpt>
      <trkpt lat="48.53354" lon="-2.58319">
        <ele>65.9</ele>
        <time>2016-03-25T11:00:33Z</time>
      </trkpt>
      <trkpt lat="48.53356" lon="-2.58334">
        <ele>65.8</ele>
        <time>2016-03-25T11:00:35Z</time>
      </trkpt>
      <trkpt lat="48.53358" lon="-2.58349">
        <ele>65.7</ele>
        <time>2016-03-25T11:00:37Z</time>
      </trkpt>
      <trkpt lat="48.5336" lon="-2.58364">
        <ele>65.6</ele>
        <time>2016-03-25T11:00:39Z</time>
      </trkpt>
      <trkpt lat="48.53361" lon="-2.58379">
        <ele>65.6</ele>
        <time>2016-03-25T11:00:41Z</time>
      </trkpt>
      <trkpt lat="48.53363" lon="-2.58394">
        <ele>65.5</ele>
        <time>2016-03-25T11:00:43Z</time>
      </trkpt>
      <trkpt lat="48.53364" lon="-2.58409">
        <ele>65.4</ele>
        <time>2016-03-25T11:00:45Z</time>
      </trkpt>
      <trkpt lat="48.53366" lon="-2.58424">
        <ele>65.4</ele>
        <time>2016-03-25T11:00:47Z</time>
      </trkpt>
      <trkpt lat="48.53367" lon="-2.58439">
        <ele>65.3</ele>
        <time>2016-03-25T11:00:49Z</time>
      </trkpt>
      <trkpt lat="48.53368" lon="-2.58454">
        <ele>65.3</ele>
        <time>2016-03-25T11:00:51Z</time>
      </trkpt>
      <trkpt lat="48.53369" lon="-2.5847">
        <ele>65.2</ele>
        <time>2016-03-25T11:00:53Z</time>
      </trkpt>
      <trkpt lat="48.5337" lon="-2.58487">
        <ele>65.2</ele>
        <time>2016-03-25T11:00:55Z</time>
      </trkpt>
      <trkpt lat="48.5337" lon="-2.58502">
        <ele>65.1</ele>
        <time>2016-03-25T11:00:57Z</time>
      </trkpt>
      <trkpt lat="48.53371" lon="-2.58517">
        <ele>65.1</ele>
        <time>2016-03-25T11:00:59Z</time>
      </trkpt>
      <trkpt lat="48.53371" lon="-2.58533">
        <ele>65</ele>
        <time>2016-03-25T11:01:01Z</time>
      </trkpt>
      <trkpt lat="48.53371" lon="-2.58549">
        <ele>65</ele>
        <time>2016-03-25T11:01:03Z</time>
      </trkpt>
      <trkpt lat="48.5337" lon="-2.58565">
        <ele>64.9</ele>
        <time>2016-03-25T11:01:05Z</time>
      </trkpt>
      <trkpt lat="48.5337" lon="-2.5858">
        <ele>64.8</ele>
        <time>2016-03-25T11:01:07Z</time>
      </trkpt>
      <trkpt lat="48.53369" lon="-2.58596">
        <ele>64.7</ele>
        <time>2016-03-25T11:01:09Z</time>
      </trkpt>
      <trkpt lat="48.53369" lon="-2.58611">
        <ele>64.6</ele>
        <time>2016-03-25T11:01:11Z</time>
      </trkpt>
      <trkpt lat="48.53369" lon="-2.58626">
        <ele>64.6</ele>
        <time>2016-03-25T11:01:13Z</time>
      </trkpt>
      <trkpt lat="48.53368" lon="-2.58641">
        <ele>64.5</ele>
        <time>2016-03-25T11:01:15Z</time>
      </trkpt>
      <trkpt lat="48.53367" lon="-2.58655">
        <ele>64.4</ele>
        <time>2016-03-25T11:01:17Z</time>
      </trkpt>
      <trkpt lat="48.53365" lon="-2.58675">
        <ele>64.4</ele>
        <time>2016-03-25T11:01:20Z</time>
      </trkpt>
      <trkpt lat="48.53365" lon="-2.58694">
        <ele>64.4</ele>
        <time>2016-03-25T11:01:23Z</time>
      </trkpt>
      <trkpt lat="48.53364" lon="-2.58714">
        <ele>64.4</ele>
        <time>2016-03-25T11:01:26Z</time>
      </trkpt>
      <trkpt lat="48.53364" lon="-2.58728">
        <ele>64.4</ele>
        <time>2016-03-25T11:01:28Z</time>
      </trkpt>
      <trkpt lat="48.53363" lon="-2.58742">
        <ele>64.4</ele>
        <time>2016-03-25T11:01:30Z</time>
      </trkpt>
      <trkpt lat="48.53362" lon="-2.58756">
        <ele>64.4</ele>
        <time>2016-03-25T11:01:32Z</time>
      </trkpt>
      <trkpt lat="48.53362" lon="-2.58771">
        <ele>64.4</ele>
        <time>2016-03-25T11:01:34Z</time>
      </trkpt>
      <trkpt lat="48.53361" lon="-2.58786">
        <ele>64.4</ele>
        <time>2016-03-25T11:01:36Z</time>
      </trkpt>
      <trkpt lat="48.5336" lon="-2.588">
        <ele>64.3</ele>
        <time>2016-03-25T11:01:38Z</time>
      </trkpt>
      <trkpt lat="48.53359" lon="-2.58815">
        <ele>64.3</ele>
        <time>2016-03-25T11:01:40Z</time>
      </trkpt>
      <trkpt lat="48.53358" lon="-2.58829">
        <ele>64.3</ele>
        <time>2016-03-25T11:01:42Z</time>
      </trkpt>
      <trkpt lat="48.53358" lon="-2.58845">
        <ele>64.3</ele>
        <time>2016-03-25T11:01:44Z</time>
      </trkpt>
      <trkpt lat="48.53358" lon="-2.58862">
        <ele>64.3</ele>
        <time>2016-03-25T11:01:46Z</time>
      </trkpt>
      <trkpt lat="48.53358" lon="-2.58879">
        <ele>64.3</ele>
        <time>2016-03-25T11:01:48Z</time>
      </trkpt>
      <trkpt lat="48.53358" lon="-2.58895">
        <ele>64.3</ele>
        <time>2016-03-25T11:01:50Z</time>
      </trkpt>
      <trkpt lat="48.53359" lon="-2.5891">
        <ele>64.3</ele>
        <time>2016-03-25T11:01:52Z</time>
      </trkpt>
      <trkpt lat="48.53359" lon="-2.58924">
        <ele>64.3</ele>
        <time>2016-03-25T11:01:54Z</time>
      </trkpt>
      <trkpt lat="48.5336" lon="-2.58939">
        <ele>64.3</ele>
        <time>2016-03-25T11:01:56Z</time>
      </trkpt>
      <trkpt lat="48.53361" lon="-2.58953">
        <ele>64.3</ele>
        <time>2016-03-25T11:01:58Z</time>
      </trkpt>
      <trkpt lat="48.53362" lon="-2.58969">
        <ele>64.3</ele>
        <time>2016-03-25T11:02:00Z</time>
      </trkpt>
      <trkpt lat="48.53363" lon="-2.58984">
        <ele>64.3</ele>
        <time>2016-03-25T11:02:02Z</time>
      </trkpt>
      <trkpt lat="48.53365" lon="-2.59">
        <ele>64.3</ele>
        <time>2016-03-25T11:02:04Z</time>
      </trkpt>
      <trkpt lat="48.53366" lon="-2.59015">
        <ele>64.3</ele>
        <time>2016-03-25T11:02:06Z</time>
      </trkpt>
      <trkpt lat="48.53367" lon="-2.59031">
        <ele>64.3</ele>
        <time>2016-03-25T11:02:08Z</time>
      </trkpt>
      <trkpt lat="48.53369" lon="-2.59046">
        <ele>64.3</ele>
        <time>2016-03-25T11:02:10Z</time>
      </trkpt>
      <trkpt lat="48.5337" lon="-2.59062">
        <ele>64.3</ele>
        <time>2016-03-25T11:02:12Z</time>
      </trkpt>
      <trkpt lat="48.53371" lon="-2.59078">
        <ele>64.4</ele>
        <time>2016-03-25T11:02:14Z</time>
      </trkpt>
      <trkpt lat="48.53373" lon="-2.59093">
        <ele>64.4</ele>
        <time>2016-03-25T11:02:16Z</time>
      </trkpt>
      <trkpt lat="48.53376" lon="-2.59108">
        <ele>64.4</ele>
        <time>2016-03-25T11:02:18Z</time>
      </trkpt>
      <trkpt lat="48.53378" lon="-2.59124">
        <ele>64.5</ele>
        <time>2016-03-25T11:02:20Z</time>
      </trkpt>
      <trkpt lat="48.53381" lon="-2.59139">
        <ele>64.5</ele>
        <time>2016-03-25T11:02:22Z</time>
      </trkpt>
      <trkpt lat="48.53383" lon="-2.59155">
        <ele>64.6</ele>
        <time>2016-03-25T11:02:24Z</time>
      </trkpt>
      <trkpt lat="48.53386" lon="-2.5917">
        <ele>64.6</ele>
        <time>2016-03-25T11:02:26Z</time>
      </trkpt>
      <trkpt lat="48.53389" lon="-2.59185">
        <ele>64.6</ele>
        <time>2016-03-25T11:02:28Z</time>
      </trkpt>
      <trkpt lat="48.53391" lon="-2.592">
        <ele>64.7</ele>
        <time>2016-03-25T11:02:30Z</time>
      </trkpt>
      <trkpt lat="48.53394" lon="-2.59215">
        <ele>64.7</ele>
        <time>2016-03-25T11:02:32Z</time>
      </trkpt>
      <trkpt lat="48.53397" lon="-2.59229">
        <ele>64.7</ele>
        <time>2016-03-25T11:02:34Z</time>
      </trkpt>
      <trkpt lat="48.53399" lon="-2.59244">
        <ele>64.8</ele>
        <time>2016-03-25T11:02:36Z</time>
      </trkpt>
      <trkpt lat="48.53402" lon="-2.59259">
        <ele>64.9</ele>
        <time>2016-03-25T11:02:38Z</time>
      </trkpt>
      <trkpt lat="48.53405" lon="-2.59274">
        <ele>65</ele>
        <time>2016-03-25T11:02:40Z</time>
      </trkpt>
      <trkpt lat="48.53408" lon="-2.59289">
        <ele>65.1</ele>
        <time>2016-03-25T11:02:42Z</time>
      </trkpt>
      <trkpt lat="48.5341" lon="-2.59303">
        <ele>65.3</ele>
        <time>2016-03-25T11:02:44Z</time>
      </trkpt>
      <trkpt lat="48.53413" lon="-2.59317">
        <ele>65.4</ele>
        <time>2016-03-25T11:02:46Z</time>
      </trkpt>
      <trkpt lat="48.53415" lon="-2.59332">
        <ele>65.4</ele>
        <time>2016-03-25T11:02:48Z</time>
      </trkpt>
      <trkpt lat="48.53417" lon="-2.59346">
        <ele>65.5</ele>
        <time>2016-03-25T11:02:50Z</time>
      </trkpt>
      <trkpt lat="48.5342" lon="-2.59361">
        <ele>65.6</ele>
        <time>2016-03-25T11:02:52Z</time>
      </trkpt>
      <trkpt lat="48.53424" lon="-2.59375">
        <ele>65.6</ele>
        <time>2016-03-25T11:02:54Z</time>
      </trkpt>
      <trkpt lat="48.53428" lon="-2.59387">
        <ele>65.7</ele>
        <time>2016-03-25T11:02:56Z</time>
      </trkpt>
      <trkpt lat="48.53433" lon="-2.594">
        <ele>65.8</ele>
        <time>2016-03-25T11:02:58Z</time>
      </trkpt>
      <trkpt lat="48.53437" lon="-2.59413">
        <ele>65.9</ele>
        <time>2016-03-25T11:03:00Z</time>
      </trkpt>
      <trkpt lat="48.53442" lon="-2.59425">
        <ele>66</ele>
        <time>2016-03-25T11:03:02Z</time>
      </trkpt>
      <trkpt lat="48.53447" lon="-2.59438">
        <ele>66.2</ele>
        <time>2016-03-25T11:03:04Z</time>
      </trkpt>
      <trkpt lat="48.53452" lon="-2.5945">
        <ele>66.3</ele>
        <time>2016-03-25T11:03:06Z</time>
      </trkpt>
      <trkpt lat="48.53457" lon="-2.59462">
        <ele>66.5</ele>
        <time>2016-03-25T11:03:08Z</time>
      </trkpt>
      <trkpt lat="48.53462" lon="-2.59475">
        <ele>66.6</ele>
        <time>2016-03-25T11:03:10Z</time>
      </trkpt>
      <trkpt lat="48.53466" lon="-2.59487">
        <ele>66.8</ele>
        <time>2016-03-25T11:03:12Z</time>
      </trkpt>
      <trkpt lat="48.53471" lon="-2.595">
        <ele>66.9</ele>
        <time>2016-03-25T11:03:14Z</time>
      </trkpt>
      <trkpt lat="48.53476" lon="-2.59512">
        <ele>67.1</ele>
        <time>2016-03-25T11:03:16Z</time>
      </trkpt>
      <trkpt lat="48.53481" lon="-2.59525">
        <ele>67.3</ele>
        <time>2016-03-25T11:03:18Z</time>
      </trkpt>
      <trkpt lat="48.53486" lon="-2.59537">
        <ele>67.5</ele>
        <time>2016-03-25T11:03:20Z</time>
      </trkpt>
      <trkpt lat="48.53491" lon="-2.59549">
        <ele>67.6</ele>
        <time>2016-03-25T11:03:22Z</time>
      </trkpt>
      <trkpt lat="48.53497" lon="-2.5956">
        <ele>67.7</ele>
        <time>2016-03-25T11:03:24Z</time>
      </trkpt>
      <trkpt lat="48.53503" lon="-2.59571">
        <ele>67.7</ele>
        <time>2016-03-25T11:03:26Z</time>
      </trkpt>
      <trkpt lat="48.53509" lon="-2.59582">
        <ele>67.7</ele>
        <time>2016-03-25T11:03:28Z</time>
      </trkpt>
      <trkpt lat="48.53515" lon="-2.59592">
        <ele>67.7</ele>
        <time>2016-03-25T11:03:30Z</time>
      </trkpt>
      <trkpt lat="48.53522" lon="-2.59603">
        <ele>67.7</ele>
        <time>2016-03-25T11:03:32Z</time>
      </trkpt>
      <trkpt lat="48.53528" lon="-2.59614">
        <ele>67.8</ele>
        <time>2016-03-25T11:03:34Z</time>
      </trkpt>
      <trkpt lat="48.53535" lon="-2.59625">
        <ele>67.8</ele>
        <time>2016-03-25T11:03:36Z</time>
      </trkpt>
      <trkpt lat="48.53541" lon="-2.59637">
        <ele>67.8</ele>
        <time>2016-03-25T11:03:38Z</time>
      </trkpt>
      <trkpt lat="48.53547" lon="-2.59647">
        <ele>67.8</ele>
        <time>2016-03-25T11:03:40Z</time>
      </trkpt>
      <trkpt lat="48.53553" lon="-2.59658">
        <ele>67.9</ele>
        <time>2016-03-25T11:03:42Z</time>
      </trkpt>
      <trkpt lat="48.5356" lon="-2.59669">
        <ele>67.9</ele>
        <time>2016-03-25T11:03:44Z</time>
      </trkpt>
      <trkpt lat="48.53566" lon="-2.5968">
        <ele>67.9</ele>
        <time>2016-03-25T11:03:46Z</time>
      </trkpt>
      <trkpt lat="48.53572" lon="-2.59691">
        <ele>67.9</ele>
        <time>2016-03-25T11:03:48Z</time>
      </trkpt>
      <trkpt lat="48.53579" lon="-2.59702">
        <ele>67.8</ele>
        <time>2016-03-25T11:03:50Z</time>
      </trkpt>
      <trkpt lat="48.53585" lon="-2.59714">
        <ele>67.7</ele>
        <time>2016-03-25T11:03:52Z</time>
      </trkpt>
      <trkpt lat="48.53592" lon="-2.59726">
        <ele>67.6</ele>
        <time>2016-03-25T11:03:54Z</time>
      </trkpt>
      <trkpt lat="48.53599" lon="-2.59738">
        <ele>67.5</ele>
        <time>2016-03-25T11:03:56Z</time>
      </trkpt>
      <trkpt lat="48.53606" lon="-2.5975">
        <ele>67.3</ele>
        <time>2016-03-25T11:03:58Z</time>
      </trkpt>
      <trkpt lat="48.53613" lon="-2.59761">
        <ele>67.1</ele>
        <time>2016-03-25T11:04:00Z</time>
      </trkpt>
      <trkpt lat="48.5362" lon="-2.59773">
        <ele>66.8</ele>
        <time>2016-03-25T11:04:02Z</time>
      </trkpt>
      <trkpt lat="48.53627" lon="-2.59785">
        <ele>66.5</ele>
        <time>2016-03-25T11:04:04Z</time>
      </trkpt>
      <trkpt lat="48.53634" lon="-2.59797">
        <ele>66.2</ele>
        <time>2016-03-25T11:04:06Z</time>
      </trkpt>
      <trkpt lat="48.53642" lon="-2.59808">
        <ele>65.9</ele>
        <time>2016-03-25T11:04:08Z</time>
      </trkpt>
      <trkpt lat="48.53649" lon="-2.5982">
        <ele>65.6</ele>
        <time>2016-03-25T11:04:10Z</time>
      </trkpt>
      <trkpt lat="48.53656" lon="-2.59831">
        <ele>65.3</ele>
        <time>2016-03-25T11:04:12Z</time>
      </trkpt>
      <trkpt lat="48.53663" lon="-2.59842">
        <ele>65</ele>
        <time>2016-03-25T11:04:14Z</time>
      </trkpt>
      <trkpt lat="48.5367" lon="-2.59853">
        <ele>64.8</ele>
        <time>2016-03-25T11:04:16Z</time>
      </trkpt>
      <trkpt lat="48.53676" lon="-2.59864">
        <ele>64.6</ele>
        <time>2016-03-25T11:04:18Z</time>
      </trkpt>
      <trkpt lat="48.53683" lon="-2.59874">
        <ele>64.4</ele>
        <time>2016-03-25T11:04:20Z</time>
      </trkpt>
      <trkpt lat="48.53689" lon="-2.59884">
        <ele>64.3</ele>
        <time>2016-03-25T11:04:22Z</time>
      </trkpt>
      <trkpt lat="48.53695" lon="-2.59894">
        <ele>64.2</ele>
        <time>2016-03-25T11:04:24Z</time>
      </trkpt>
      <trkpt lat="48.53702" lon="-2.59903">
        <ele>64.1</ele>
        <time>2016-03-25T11:04:26Z</time>
      </trkpt>
      <trkpt lat="48.53708" lon="-2.59913">
        <ele>64.1</ele>
        <time>2016-03-25T11:04:28Z</time>
      </trkpt>
      <trkpt lat="48.53715" lon="-2.59924">
        <ele>64.1</ele>
        <time>2016-03-25T11:04:30Z</time>
      </trkpt>
      <trkpt lat="48.53722" lon="-2.59934">
        <ele>64.2</ele>
        <time>2016-03-25T11:04:32Z</time>
      </trkpt>
      <trkpt lat="48.53729" lon="-2.59944">
        <ele>64.3</ele>
        <time>2016-03-25T11:04:34Z</time>
      </trkpt>
      <trkpt lat="48.53736" lon="-2.59955">
        <ele>64.3</ele>
        <time>2016-03-25T11:04:36Z</time>
      </trkpt>
      <trkpt lat="48.53743" lon="-2.59965">
        <ele>64.4</ele>
        <time>2016-03-25T11:04:38Z</time>
      </trkpt>
      <trkpt lat="48.5375" lon="-2.59976">
        <ele>64.4</ele>
        <time>2016-03-25T11:04:40Z</time>
      </trkpt>
      <trkpt lat="48.53757" lon="-2.59987">
        <ele>64.4</ele>
        <time>2016-03-25T11:04:42Z</time>
      </trkpt>
      <trkpt lat="48.53764" lon="-2.59998">
        <ele>64.4</ele>
        <time>2016-03-25T11:04:44Z</time>
      </trkpt>
      <trkpt lat="48.53771" lon="-2.60009">
        <ele>64.4</ele>
        <time>2016-03-25T11:04:46Z</time>
      </trkpt>
      <trkpt lat="48.53778" lon="-2.6002">
        <ele>64.3</ele>
        <time>2016-03-25T11:04:48Z</time>
      </trkpt>
      <trkpt lat="48.53786" lon="-2.60031">
        <ele>64.3</ele>
        <time>2016-03-25T11:04:50Z</time>
      </trkpt>
      <trkpt lat="48.53793" lon="-2.60042">
        <ele>64.3</ele>
        <time>2016-03-25T11:04:52Z</time>
      </trkpt>
      <trkpt lat="48.53799" lon="-2.60052">
        <ele>64.3</ele>
        <time>2016-03-25T11:04:54Z</time>
      </trkpt>
      <trkpt lat="48.53809" lon="-2.60066">
        <ele>64.3</ele>
        <time>2016-03-25T11:04:57Z</time>
      </trkpt>
      <trkpt lat="48.53818" lon="-2.6008">
        <ele>64.3</ele>
        <time>2016-03-25T11:05:00Z</time>
      </trkpt>
      <trkpt lat="48.53825" lon="-2.60091">
        <ele>64.3</ele>
        <time>2016-03-25T11:05:03Z</time>
      </trkpt>
      <trkpt lat="48.53833" lon="-2.60102">
        <ele>64.4</ele>
        <time>2016-03-25T11:05:07Z</time>
      </trkpt>
      <trkpt lat="48.53841" lon="-2.6011">
        <ele>64.6</ele>
        <time>2016-03-25T11:05:11Z</time>
      </trkpt>
      <trkpt lat="48.53849" lon="-2.6012">
        <ele>64.8</ele>
        <time>2016-03-25T11:05:15Z</time>
      </trkpt>
      <trkpt lat="48.53856" lon="-2.60133">
        <ele>65</ele>
        <time>2016-03-25T11:05:19Z</time>
      </trkpt>
      <trkpt lat="48.53862" lon="-2.60146">
        <ele>65.4</ele>
        <time>2016-03-25T11:05:23Z</time>
      </trkpt>
      <trkpt lat="48.53868" lon="-2.60159">
        <ele>65.7</ele>
        <time>2016-03-25T11:05:27Z</time>
      </trkpt>
      <trkpt lat="48.53875" lon="-2.60173">
        <ele>66.2</ele>
        <time>2016-03-25T11:05:31Z</time>
      </trkpt>
      <trkpt lat="48.53881" lon="-2.60187">
        <ele>66.7</ele>
        <time>2016-03-25T11:05:35Z</time>
      </trkpt>
      <trkpt lat="48.53888" lon="-2.60201">
        <ele>67.2</ele>
        <time>2016-03-25T11:05:39Z</time>
      </trkpt>
      <trkpt lat="48.53893" lon="-2.60215">
        <ele>67.9</ele>
        <time>2016-03-25T11:05:43Z</time>
      </trkpt>
      <trkpt lat="48.53899" lon="-2.60229">
        <ele>68.5</ele>
        <time>2016-03-25T11:05:47Z</time>
      </trkpt>
      <trkpt lat="48.53904" lon="-2.60245">
        <ele>69.2</ele>
        <time>2016-03-25T11:05:51Z</time>
      </trkpt>
      <trkpt lat="48.53908" lon="-2.60261">
        <ele>69.9</ele>
        <time>2016-03-25T11:05:55Z</time>
      </trkpt>
      <trkpt lat="48.53912" lon="-2.60277">
        <ele>70.6</ele>
        <time>2016-03-25T11:05:59Z</time>
      </trkpt>
      <trkpt lat="48.53915" lon="-2.60293">
        <ele>71.3</ele>
        <time>2016-03-25T11:06:03Z</time>
      </trkpt>
      <trkpt lat="48.53918" lon="-2.60309">
        <ele>72</ele>
        <time>2016-03-25T11:06:07Z</time>
      </trkpt>
      <trkpt lat="48.53921" lon="-2.60323">
        <ele>72.8</ele>
        <time>2016-03-25T11:06:11Z</time>
      </trkpt>
      <trkpt lat="48.53923" lon="-2.60337">
        <ele>73.6</ele>
        <time>2016-03-25T11:06:15Z</time>
      </trkpt>
      <trkpt lat="48.53931" lon="-2.60345">
        <ele>74.6</ele>
        <time>2016-03-25T11:06:20Z</time>
      </trkpt>
      <trkpt lat="48.53941" lon="-2.60341">
        <ele>75.2</ele>
        <time>2016-03-25T11:06:24Z</time>
      </trkpt>
      <trkpt lat="48.53951" lon="-2.60339">
        <ele>75.6</ele>
        <time>2016-03-25T11:06:28Z</time>
      </trkpt>
      <trkpt lat="48.53961" lon="-2.60335">
        <ele>75.9</ele>
        <time>2016-03-25T11:06:32Z</time>
      </trkpt>
      <trkpt lat="48.53971" lon="-2.60331">
        <ele>76.2</ele>
        <time>2016-03-25T11:06:36Z</time>
      </trkpt>
      <trkpt lat="48.5398" lon="-2.60331">
        <ele>76.4</ele>
        <time>2016-03-25T11:06:41Z</time>
      </trkpt>
      <trkpt lat="48.53985" lon="-2.60343">
        <ele>76.6</ele>
        <time>2016-03-25T11:06:48Z</time>
      </trkpt>
      <trkpt lat="48.53987" lon="-2.6036">
        <ele>76.7</ele>
        <time>2016-03-25T11:06:54Z</time>
      </trkpt>
      <trkpt lat="48.5399" lon="-2.60375">
        <ele>76.7</ele>
        <time>2016-03-25T11:06:58Z</time>
      </trkpt>
      <trkpt lat="48.53994" lon="-2.6039">
        <ele>76.8</ele>
        <time>2016-03-25T11:07:02Z</time>
      </trkpt>
      <trkpt lat="48.53999" lon="-2.60406">
        <ele>76.8</ele>
        <time>2016-03-25T11:07:06Z</time>
      </trkpt>
      <trkpt lat="48.54006" lon="-2.60421">
        <ele>76.8</ele>
        <time>2016-03-25T11:07:10Z</time>
      </trkpt>
      <trkpt lat="48.54011" lon="-2.60436">
        <ele>76.7</ele>
        <time>2016-03-25T11:07:14Z</time>
      </trkpt>
      <trkpt lat="48.54014" lon="-2.60449">
        <ele>76.6</ele>
        <time>2016-03-25T11:07:17Z</time>
      </trkpt>
      <trkpt lat="48.54016" lon="-2.60467">
        <ele>76.5</ele>
        <time>2016-03-25T11:07:21Z</time>
      </trkpt>
      <trkpt lat="48.54016" lon="-2.60481">
        <ele>76.5</ele>
        <time>2016-03-25T11:07:24Z</time>
      </trkpt>
      <trkpt lat="48.54017" lon="-2.60495">
        <ele>76.4</ele>
        <time>2016-03-25T11:07:27Z</time>
      </trkpt>
      <trkpt lat="48.54018" lon="-2.6051">
        <ele>76.4</ele>
        <time>2016-03-25T11:07:30Z</time>
      </trkpt>
      <trkpt lat="48.54019" lon="-2.60525">
        <ele>76.3</ele>
        <time>2016-03-25T11:07:33Z</time>
      </trkpt>
      <trkpt lat="48.5402" lon="-2.60543">
        <ele>76.3</ele>
        <time>2016-03-25T11:07:36Z</time>
      </trkpt>
      <trkpt lat="48.54021" lon="-2.60562">
        <ele>76.3</ele>
        <time>2016-03-25T11:07:39Z</time>
      </trkpt>
      <trkpt lat="48.54022" lon="-2.60583">
        <ele>76.2</ele>
        <time>2016-03-25T11:07:42Z</time>
      </trkpt>
      <trkpt lat="48.54023" lon="-2.60597">
        <ele>76.2</ele>
        <time>2016-03-25T11:07:44Z</time>
      </trkpt>
      <trkpt lat="48.54024" lon="-2.60611">
        <ele>76.2</ele>
        <time>2016-03-25T11:07:46Z</time>
      </trkpt>
      <trkpt lat="48.54026" lon="-2.60626">
        <ele>76.1</ele>
        <time>2016-03-25T11:07:48Z</time>
      </trkpt>
      <trkpt lat="48.5403" lon="-2.60642">
        <ele>76</ele>
        <time>2016-03-25T11:07:50Z</time>
      </trkpt>
      <trkpt lat="48.54034" lon="-2.60658">
        <ele>75.7</ele>
        <time>2016-03-25T11:07:52Z</time>
      </trkpt>
      <trkpt lat="48.5404" lon="-2.60674">
        <ele>75.3</ele>
        <time>2016-03-25T11:07:54Z</time>
      </trkpt>
      <trkpt lat="48.54045" lon="-2.60692">
        <ele>74.6</ele>
        <time>2016-03-25T11:07:56Z</time>
      </trkpt>
      <trkpt lat="48.54049" lon="-2.60709">
        <ele>74</ele>
        <time>2016-03-25T11:07:58Z</time>
      </trkpt>
      <trkpt lat="48.54055" lon="-2.60723">
        <ele>73.3</ele>
        <time>2016-03-25T11:08:00Z</time>
      </trkpt>
      <trkpt lat="48.54067" lon="-2.60731">
        <ele>72.6</ele>
        <time>2016-03-25T11:08:02Z</time>
      </trkpt>
      <trkpt lat="48.54078" lon="-2.60728">
        <ele>71.7</ele>
        <time>2016-03-25T11:08:04Z</time>
      </trkpt>
      <trkpt lat="48.54089" lon="-2.60723">
        <ele>70.8</ele>
        <time>2016-03-25T11:08:06Z</time>
      </trkpt>
      <trkpt lat="48.54098" lon="-2.60719">
        <ele>70.1</ele>
        <time>2016-03-25T11:08:08Z</time>
      </trkpt>
      <trkpt lat="48.54107" lon="-2.60715">
        <ele>69.5</ele>
        <time>2016-03-25T11:08:10Z</time>
      </trkpt>
      <trkpt lat="48.54116" lon="-2.60711">
        <ele>69</ele>
        <time>2016-03-25T11:08:12Z</time>
      </trkpt>
      <trkpt lat="48.54125" lon="-2.60708">
        <ele>68.5</ele>
        <time>2016-03-25T11:08:14Z</time>
      </trkpt>
      <trkpt lat="48.54134" lon="-2.60705">
        <ele>68.1</ele>
        <time>2016-03-25T11:08:16Z</time>
      </trkpt>
      <trkpt lat="48.54143" lon="-2.60703">
        <ele>67.7</ele>
        <time>2016-03-25T11:08:18Z</time>
      </trkpt>
      <trkpt lat="48.54153" lon="-2.60701">
        <ele>67.4</ele>
        <time>2016-03-25T11:08:20Z</time>
      </trkpt>
      <trkpt lat="48.54162" lon="-2.607">
        <ele>67.1</ele>
        <time>2016-03-25T11:08:22Z</time>
      </trkpt>
      <trkpt lat="48.54171" lon="-2.60699">
        <ele>66.9</ele>
        <time>2016-03-25T11:08:24Z</time>
      </trkpt>
      <trkpt lat="48.54181" lon="-2.60698">
        <ele>66.6</ele>
        <time>2016-03-25T11:08:26Z</time>
      </trkpt>
      <trkpt lat="48.54191" lon="-2.60697">
        <ele>66.4</ele>
        <time>2016-03-25T11:08:28Z</time>
      </trkpt>
      <trkpt lat="48.54201" lon="-2.60695">
        <ele>66.1</ele>
        <time>2016-03-25T11:08:30Z</time>
      </trkpt>
      <trkpt lat="48.54211" lon="-2.60693">
        <ele>65.9</ele>
        <time>2016-03-25T11:08:32Z</time>
      </trkpt>
      <trkpt lat="48.54222" lon="-2.60691">
        <ele>65.5</ele>
        <time>2016-03-25T11:08:34Z</time>
      </trkpt>
      <trkpt lat="48.54232" lon="-2.60688">
        <ele>65.2</ele>
        <time>2016-03-25T11:08:36Z</time>
      </trkpt>
      <trkpt lat="48.54243" lon="-2.60684">
        <ele>64.8</ele>
        <time>2016-03-25T11:08:38Z</time>
      </trkpt>
      <trkpt lat="48.54255" lon="-2.6068">
        <ele>64.3</ele>
        <time>2016-03-25T11:08:40Z</time>
      </trkpt>
      <trkpt lat="48.54267" lon="-2.60676">
        <ele>63.6</ele>
        <time>2016-03-25T11:08:42Z</time>
      </trkpt>
      <trkpt lat="48.54279" lon="-2.60671">
        <ele>63</ele>
        <time>2016-03-25T11:08:44Z</time>
      </trkpt>
      <trkpt lat="48.54293" lon="-2.60665">
        <ele>62.3</ele>
        <time>2016-03-25T11:08:46Z</time>
      </trkpt>
      <trkpt lat="48.54306" lon="-2.60659">
        <ele>61.5</ele>
        <time>2016-03-25T11:08:48Z</time>
      </trkpt>
      <trkpt lat="48.5432" lon="-2.60652">
        <ele>60.6</ele>
        <time>2016-03-25T11:08:50Z</time>
      </trkpt>
      <trkpt lat="48.54332" lon="-2.60642">
        <ele>59.9</ele>
        <time>2016-03-25T11:08:52Z</time>
      </trkpt>
      <trkpt lat="48.54343" lon="-2.60631">
        <ele>59.2</ele>
        <time>2016-03-25T11:08:54Z</time>
      </trkpt>
      <trkpt lat="48.54353" lon="-2.60619">
        <ele>58.6</ele>
        <time>2016-03-25T11:08:56Z</time>
      </trkpt>
      <trkpt lat="48.54363" lon="-2.60607">
        <ele>57.9</ele>
        <time>2016-03-25T11:08:58Z</time>
      </trkpt>
      <trkpt lat="48.54374" lon="-2.60595">
        <ele>57.3</ele>
        <time>2016-03-25T11:09:00Z</time>
      </trkpt>
      <trkpt lat="48.54384" lon="-2.60582">
        <ele>56.7</ele>
        <time>2016-03-25T11:09:02Z</time>
      </trkpt>
      <trkpt lat="48.54394" lon="-2.6057">
        <ele>56.2</ele>
        <time>2016-03-25T11:09:04Z</time>
      </trkpt>
      <trkpt lat="48.54402" lon="-2.60553">
        <ele>55.7</ele>
        <time>2016-03-25T11:09:06Z</time>
      </trkpt>
      <trkpt lat="48.54403" lon="-2.60534">
        <ele>55.3</ele>
        <time>2016-03-25T11:09:08Z</time>
      </trkpt>
      <trkpt lat="48.544" lon="-2.60517">
        <ele>54.8</ele>
        <time>2016-03-25T11:09:10Z</time>
      </trkpt>
      <trkpt lat="48.54397" lon="-2.60502">
        <ele>54.4</ele>
        <time>2016-03-25T11:09:12Z</time>
      </trkpt>
      <trkpt lat="48.54395" lon="-2.60488">
        <ele>54</ele>
        <time>2016-03-25T11:09:14Z</time>
      </trkpt>
      <trkpt lat="48.54393" lon="-2.60473">
        <ele>53.7</ele>
        <time>2016-03-25T11:09:16Z</time>
      </trkpt>
      <trkpt lat="48.54391" lon="-2.6046">
        <ele>53.4</ele>
        <time>2016-03-25T11:09:18Z</time>
      </trkpt>
      <trkpt lat="48.54389" lon="-2.60445">
        <ele>53.1</ele>
        <time>2016-03-25T11:09:20Z</time>
      </trkpt>
      <trkpt lat="48.54387" lon="-2.60431">
        <ele>52.9</ele>
        <time>2016-03-25T11:09:22Z</time>
      </trkpt>
      <trkpt lat="48.54386" lon="-2.60416">
        <ele>52.7</ele>
        <time>2016-03-25T11:09:24Z</time>
      </trkpt>
      <trkpt lat="48.54384" lon="-2.60402">
        <ele>52.6</ele>
        <time>2016-03-25T11:09:26Z</time>
      </trkpt>
      <trkpt lat="48.54384" lon="-2.60387">
        <ele>52.4</ele>
        <time>2016-03-25T11:09:28Z</time>
      </trkpt>
      <trkpt lat="48.54382" lon="-2.60372">
        <ele>52.3</ele>
        <time>2016-03-25T11:09:30Z</time>
      </trkpt>
      <trkpt lat="48.5438" lon="-2.60358">
        <ele>52.2</ele>
        <time>2016-03-25T11:09:32Z</time>
      </trkpt>
      <trkpt lat="48.54378" lon="-2.60345">
        <ele>52.2</ele>
        <time>2016-03-25T11:09:34Z</time>
      </trkpt>
      <trkpt lat="48.54375" lon="-2.60326">
        <ele>52.2</ele>
        <time>2016-03-25T11:09:37Z</time>
      </trkpt>
      <trkpt lat="48.5437" lon="-2.60307">
        <ele>52.2</ele>
        <time>2016-03-25T11:09:40Z</time>
      </trkpt>
      <trkpt lat="48.54366" lon="-2.60295">
        <ele>52.2</ele>
        <time>2016-03-25T11:09:42Z</time>
      </trkpt>
      <trkpt lat="48.54362" lon="-2.60282">
        <ele>52.2</ele>
        <time>2016-03-25T11:09:44Z</time>
      </trkpt>
      <trkpt lat="48.54357" lon="-2.60269">
        <ele>52.2</ele>
        <time>2016-03-25T11:09:46Z</time>
      </trkpt>
      <trkpt lat="48.54353" lon="-2.60257">
        <ele>52.3</ele>
        <time>2016-03-25T11:09:48Z</time>
      </trkpt>
      <trkpt lat="48.54348" lon="-2.60245">
        <ele>52.3</ele>
        <time>2016-03-25T11:09:50Z</time>
      </trkpt>
      <trkpt lat="48.54341" lon="-2.60228">
        <ele>52.4</ele>
        <time>2016-03-25T11:09:53Z</time>
      </trkpt>
      <trkpt lat="48.54336" lon="-2.60217">
        <ele>52.4</ele>
        <time>2016-03-25T11:09:55Z</time>
      </trkpt>
      <trkpt lat="48.54332" lon="-2.60204">
        <ele>52.4</ele>
        <time>2016-03-25T11:09:57Z</time>
      </trkpt>
      <trkpt lat="48.54328" lon="-2.6019">
        <ele>52.4</ele>
        <time>2016-03-25T11:09:59Z</time>
      </trkpt>
      <trkpt lat="48.54325" lon="-2.60174">
        <ele>52.4</ele>
        <time>2016-03-25T11:10:01Z</time>
      </trkpt>
      <trkpt lat="48.54324" lon="-2.60156">
        <ele>52.4</ele>
        <time>2016-03-25T11:10:03Z</time>
      </trkpt>
      <trkpt lat="48.54328" lon="-2.60138">
        <ele>52.2</ele>
        <time>2016-03-25T11:10:05Z</time>
      </trkpt>
      <trkpt lat="48.54334" lon="-2.60123">
        <ele>51.9</ele>
        <time>2016-03-25T11:10:07Z</time>
      </trkpt>
      <trkpt lat="48.54339" lon="-2.60109">
        <ele>51.7</ele>
        <time>2016-03-25T11:10:09Z</time>
      </trkpt>
      <trkpt lat="48.54345" lon="-2.60097">
        <ele>51.5</ele>
        <time>2016-03-25T11:10:11Z</time>
      </trkpt>
      <trkpt lat="48.5435" lon="-2.60084">
        <ele>51.2</ele>
        <time>2016-03-25T11:10:13Z</time>
      </trkpt>
      <trkpt lat="48.54357" lon="-2.60072">
        <ele>51</ele>
        <time>2016-03-25T11:10:15Z</time>
      </trkpt>
      <trkpt lat="48.54363" lon="-2.60059">
        <ele>50.7</ele>
        <time>2016-03-25T11:10:17Z</time>
      </trkpt>
      <trkpt lat="48.5437" lon="-2.60046">
        <ele>50.4</ele>
        <time>2016-03-25T11:10:19Z</time>
      </trkpt>
      <trkpt lat="48.54376" lon="-2.60033">
        <ele>50.2</ele>
        <time>2016-03-25T11:10:21Z</time>
      </trkpt>
      <trkpt lat="48.54383" lon="-2.6002">
        <ele>49.9</ele>
        <time>2016-03-25T11:10:23Z</time>
      </trkpt>
      <trkpt lat="48.54389" lon="-2.60008">
        <ele>49.7</ele>
        <time>2016-03-25T11:10:25Z</time>
      </trkpt>
      <trkpt lat="48.54396" lon="-2.59996">
        <ele>49.4</ele>
        <time>2016-03-25T11:10:27Z</time>
      </trkpt>
      <trkpt lat="48.54403" lon="-2.59983">
        <ele>49.2</ele>
        <time>2016-03-25T11:10:29Z</time>
      </trkpt>
      <trkpt lat="48.54408" lon="-2.59971">
        <ele>49</ele>
        <time>2016-03-25T11:10:31Z</time>
      </trkpt>
      <trkpt lat="48.54415" lon="-2.59959">
        <ele>48.7</ele>
        <time>2016-03-25T11:10:33Z</time>
      </trkpt>
      <trkpt lat="48.54422" lon="-2.59948">
        <ele>48.5</ele>
        <time>2016-03-25T11:10:35Z</time>
      </trkpt>
      <trkpt lat="48.54429" lon="-2.59937">
        <ele>48.3</ele>
        <time>2016-03-25T11:10:37Z</time>
      </trkpt>
      <trkpt lat="48.54436" lon="-2.59927">
        <ele>48.1</ele>
        <time>2016-03-25T11:10:39Z</time>
      </trkpt>
      <trkpt lat="48.54442" lon="-2.59916">
        <ele>47.9</ele>
        <time>2016-03-25T11:10:41Z</time>
      </trkpt>
      <trkpt lat="48.54448" lon="-2.59898">
        <ele>47.7</ele>
        <time>2016-03-25T11:10:44Z</time>
      </trkpt>
      <trkpt lat="48.54443" lon="-2.59881">
        <ele>47.5</ele>
        <time>2016-03-25T11:10:47Z</time>
      </trkpt>
      <trkpt lat="48.54434" lon="-2.59866">
        <ele>47.4</ele>
        <time>2016-03-25T11:10:50Z</time>
      </trkpt>
      <trkpt lat="48.54428" lon="-2.59857">
        <ele>47.3</ele>
        <time>2016-03-25T11:10:52Z</time>
      </trkpt>
      <trkpt lat="48.54421" lon="-2.59847">
        <ele>47.2</ele>
        <time>2016-03-25T11:10:54Z</time>
      </trkpt>
      <trkpt lat="48.54413" lon="-2.59835">
        <ele>47.1</ele>
        <time>2016-03-25T11:10:57Z</time>
      </trkpt>
      <trkpt lat="48.54409" lon="-2.59822">
        <ele>47.1</ele>
        <time>2016-03-25T11:10:59Z</time>
      </trkpt>
      <trkpt lat="48.54407" lon="-2.59807">
        <ele>47</ele>
        <time>2016-03-25T11:11:01Z</time>
      </trkpt>
      <trkpt lat="48.54406" lon="-2.59792">
        <ele>47</ele>
        <time>2016-03-25T11:11:03Z</time>
      </trkpt>
      <trkpt lat="48.54408" lon="-2.59778">
        <ele>47</ele>
        <time>2016-03-25T11:11:05Z</time>
      </trkpt>
      <trkpt lat="48.54411" lon="-2.59759">
        <ele>46.5</ele>
        <time>2016-03-25T11:11:08Z</time>
      </trkpt>
      <trkpt lat="48.54411" lon="-2.59745">
        <ele>46.4</ele>
        <time>2016-03-25T11:11:10Z</time>
      </trkpt>
      <trkpt lat="48.54414" lon="-2.59727">
        <ele>46.3</ele>
        <time>2016-03-25T11:11:13Z</time>
      </trkpt>
      <trkpt lat="48.54421" lon="-2.59714">
        <ele>46.2</ele>
        <time>2016-03-25T11:11:16Z</time>
      </trkpt>
      <trkpt lat="48.54431" lon="-2.59712">
        <ele>46.1</ele>
        <time>2016-03-25T11:11:20Z</time>
      </trkpt>
      <trkpt lat="48.54444" lon="-2.59709">
        <ele>45.9</ele>
        <time>2016-03-25T11:11:24Z</time>
      </trkpt>
      <trkpt lat="48.54454" lon="-2.59707">
        <ele>45.8</ele>
        <time>2016-03-25T11:11:26Z</time>
      </trkpt>
      <trkpt lat="48.54467" lon="-2.59704">
        <ele>45.7</ele>
        <time>2016-03-25T11:11:28Z</time>
      </trkpt>
      <trkpt lat="48.54481" lon="-2.59696">
        <ele>45.5</ele>
        <time>2016-03-25T11:11:31Z</time>
      </trkpt>
      <trkpt lat="48.54495" lon="-2.59691">
        <ele>45.3</ele>
        <time>2016-03-25T11:11:33Z</time>
      </trkpt>
      <trkpt lat="48.54506" lon="-2.59686">
        <ele>45.1</ele>
        <time>2016-03-25T11:11:35Z</time>
      </trkpt>
      <trkpt lat="48.54516" lon="-2.59683">
        <ele>44.6</ele>
        <time>2016-03-25T11:11:38Z</time>
      </trkpt>
      <trkpt lat="48.54527" lon="-2.59684">
        <ele>43.5</ele>
        <time>2016-03-25T11:11:43Z</time>
      </trkpt>
      <trkpt lat="48.54536" lon="-2.59686">
        <ele>42.3</ele>
        <time>2016-03-25T11:11:49Z</time>
      </trkpt>
      <trkpt lat="48.54546" lon="-2.59684">
        <ele>42</ele>
        <time>2016-03-25T11:11:51Z</time>
      </trkpt>
      <trkpt lat="48.54555" lon="-2.59682">
        <ele>41.5</ele>
        <time>2016-03-25T11:11:55Z</time>
      </trkpt>
      <trkpt lat="48.54565" lon="-2.59681">
        <ele>39.9</ele>
        <time>2016-03-25T11:12:44Z</time>
      </trkpt>
      <trkpt lat="48.54575" lon="-2.59677">
        <ele>39.9</ele>
        <time>2016-03-25T11:12:49Z</time>
      </trkpt>
      <trkpt lat="48.54586" lon="-2.59677">
        <ele>40.2</ele>
        <time>2016-03-25T11:12:54Z</time>
      </trkpt>
      <trkpt lat="48.54596" lon="-2.59675">
        <ele>40.5</ele>
        <time>2016-03-25T11:12:58Z</time>
      </trkpt>
      <trkpt lat="48.54607" lon="-2.59673">
        <ele>41.2</ele>
        <time>2016-03-25T11:13:02Z</time>
      </trkpt>
      <trkpt lat="48.54619" lon="-2.59671">
        <ele>41.8</ele>
        <time>2016-03-25T11:13:06Z</time>
      </trkpt>
      <trkpt lat="48.54628" lon="-2.5967">
        <ele>42.3</ele>
        <time>2016-03-25T11:13:09Z</time>
      </trkpt>
      <trkpt lat="48.54638" lon="-2.59667">
        <ele>42.9</ele>
        <time>2016-03-25T11:13:12Z</time>
      </trkpt>
      <trkpt lat="48.54649" lon="-2.59665">
        <ele>43.6</ele>
        <time>2016-03-25T11:13:15Z</time>
      </trkpt>
      <trkpt lat="48.54658" lon="-2.59662">
        <ele>44.7</ele>
        <time>2016-03-25T11:13:19Z</time>
      </trkpt>
      <trkpt lat="48.54668" lon="-2.59664">
        <ele>45.9</ele>
        <time>2016-03-25T11:13:24Z</time>
      </trkpt>
      <trkpt lat="48.54679" lon="-2.59668">
        <ele>46.5</ele>
        <time>2016-03-25T11:13:27Z</time>
      </trkpt>
      <trkpt lat="48.5469" lon="-2.59672">
        <ele>47.2</ele>
        <time>2016-03-25T11:13:31Z</time>
      </trkpt>
      <trkpt lat="48.54699" lon="-2.59674">
        <ele>47.8</ele>
        <time>2016-03-25T11:13:34Z</time>
      </trkpt>
      <trkpt lat="48.54709" lon="-2.59678">
        <ele>48.4</ele>
        <time>2016-03-25T11:13:37Z</time>
      </trkpt>
      <trkpt lat="48.5472" lon="-2.5968">
        <ele>49</ele>
        <time>2016-03-25T11:13:40Z</time>
      </trkpt>
      <trkpt lat="48.5473" lon="-2.59681">
        <ele>49.6</ele>
        <time>2016-03-25T11:13:43Z</time>
      </trkpt>
      <trkpt lat="48.5474" lon="-2.59683">
        <ele>50.2</ele>
        <time>2016-03-25T11:13:46Z</time>
      </trkpt>
      <trkpt lat="48.5475" lon="-2.59684">
        <ele>50.9</ele>
        <time>2016-03-25T11:13:49Z</time>
      </trkpt>
      <trkpt lat="48.54759" lon="-2.59685">
        <ele>51.5</ele>
        <time>2016-03-25T11:13:52Z</time>
      </trkpt>
      <trkpt lat="48.54771" lon="-2.5969">
        <ele>52.3</ele>
        <time>2016-03-25T11:13:56Z</time>
      </trkpt>
      <trkpt lat="48.54774" lon="-2.59703">
        <ele>52.8</ele>
        <time>2016-03-25T11:13:59Z</time>
      </trkpt>
      <trkpt lat="48.54771" lon="-2.59716">
        <ele>53.4</ele>
        <time>2016-03-25T11:14:02Z</time>
      </trkpt>
      <trkpt lat="48.54767" lon="-2.5973">
        <ele>53.9</ele>
        <time>2016-03-25T11:14:05Z</time>
      </trkpt>
      <trkpt lat="48.54764" lon="-2.59746">
        <ele>54.4</ele>
        <time>2016-03-25T11:14:08Z</time>
      </trkpt>
      <trkpt lat="48.54759" lon="-2.59761">
        <ele>54.7</ele>
        <time>2016-03-25T11:14:11Z</time>
      </trkpt>
      <trkpt lat="48.54753" lon="-2.59778">
        <ele>55</ele>
        <time>2016-03-25T11:14:14Z</time>
      </trkpt>
      <trkpt lat="48.54747" lon="-2.59794">
        <ele>55.3</ele>
        <time>2016-03-25T11:14:17Z</time>
      </trkpt>
      <trkpt lat="48.54742" lon="-2.59805">
        <ele>55.4</ele>
        <time>2016-03-25T11:14:19Z</time>
      </trkpt>
      <trkpt lat="48.54735" lon="-2.59818">
        <ele>55.5</ele>
        <time>2016-03-25T11:14:21Z</time>
      </trkpt>
      <trkpt lat="48.54728" lon="-2.59832">
        <ele>55.5</ele>
        <time>2016-03-25T11:14:23Z</time>
      </trkpt>
      <trkpt lat="48.5472" lon="-2.59848">
        <ele>55.4</ele>
        <time>2016-03-25T11:14:25Z</time>
      </trkpt>
      <trkpt lat="48.54712" lon="-2.59863">
        <ele>55.1</ele>
        <time>2016-03-25T11:14:27Z</time>
      </trkpt>
      <trkpt lat="48.54705" lon="-2.59874">
        <ele>54.8</ele>
        <time>2016-03-25T11:14:29Z</time>
      </trkpt>
      <trkpt lat="48.54707" lon="-2.59888">
        <ele>54.1</ele>
        <time>2016-03-25T11:14:32Z</time>
      </trkpt>
      <trkpt lat="48.54714" lon="-2.59904">
        <ele>53.5</ele>
        <time>2016-03-25T11:14:35Z</time>
      </trkpt>
      <trkpt lat="48.54719" lon="-2.59919">
        <ele>52.9</ele>
        <time>2016-03-25T11:14:38Z</time>
      </trkpt>
      <trkpt lat="48.54724" lon="-2.59939">
        <ele>51.9</ele>
        <time>2016-03-25T11:14:41Z</time>
      </trkpt>
      <trkpt lat="48.54731" lon="-2.59956">
        <ele>51.1</ele>
        <time>2016-03-25T11:14:43Z</time>
      </trkpt>
      <trkpt lat="48.54738" lon="-2.59975">
        <ele>50.4</ele>
        <time>2016-03-25T11:14:45Z</time>
      </trkpt>
      <trkpt lat="48.54746" lon="-2.59992">
        <ele>49.7</ele>
        <time>2016-03-25T11:14:47Z</time>
      </trkpt>
      <trkpt lat="48.54753" lon="-2.6001">
        <ele>48.8</ele>
        <time>2016-03-25T11:14:49Z</time>
      </trkpt>
      <trkpt lat="48.5476" lon="-2.60025">
        <ele>48.1</ele>
        <time>2016-03-25T11:14:51Z</time>
      </trkpt>
      <trkpt lat="48.54773" lon="-2.60031">
        <ele>47.1</ele>
        <time>2016-03-25T11:14:54Z</time>
      </trkpt>
      <trkpt lat="48.54784" lon="-2.60032">
        <ele>46.4</ele>
        <time>2016-03-25T11:14:56Z</time>
      </trkpt>
      <trkpt lat="48.54796" lon="-2.60033">
        <ele>45.8</ele>
        <time>2016-03-25T11:14:58Z</time>
      </trkpt>
      <trkpt lat="48.54804" lon="-2.60046">
        <ele>45.1</ele>
        <time>2016-03-25T11:15:01Z</time>
      </trkpt>
      <trkpt lat="48.54805" lon="-2.60063">
        <ele>44.4</ele>
        <time>2016-03-25T11:15:04Z</time>
      </trkpt>
      <trkpt lat="48.54812" lon="-2.60081">
        <ele>43.5</ele>
        <time>2016-03-25T11:15:07Z</time>
      </trkpt>
      <trkpt lat="48.5482" lon="-2.60092">
        <ele>42.5</ele>
        <time>2016-03-25T11:15:09Z</time>
      </trkpt>
      <trkpt lat="48.54825" lon="-2.60109">
        <ele>40.7</ele>
        <time>2016-03-25T11:15:12Z</time>
      </trkpt>
      <trkpt lat="48.5482" lon="-2.60124">
        <ele>37.8</ele>
        <time>2016-03-25T11:15:16Z</time>
      </trkpt>
      <trkpt lat="48.54821" lon="-2.60139">
        <ele>33.7</ele>
        <time>2016-03-25T11:15:21Z</time>
      </trkpt>
      <trkpt lat="48.54823" lon="-2.60155">
        <ele>31.5</ele>
        <time>2016-03-25T11:15:24Z</time>
      </trkpt>
      <trkpt lat="48.54824" lon="-2.6017">
        <ele>30.1</ele>
        <time>2016-03-25T11:15:26Z</time>
      </trkpt>
      <trkpt lat="48.54826" lon="-2.60188">
        <ele>28.7</ele>
        <time>2016-03-25T11:15:28Z</time>
      </trkpt>
      <trkpt lat="48.54831" lon="-2.60201">
        <ele>27.3</ele>
        <time>2016-03-25T11:15:30Z</time>
      </trkpt>
      <trkpt lat="48.54839" lon="-2.60214">
        <ele>25.2</ele>
        <time>2016-03-25T11:15:33Z</time>
      </trkpt>
      <trkpt lat="48.5485" lon="-2.60224">
        <ele>22.3</ele>
        <time>2016-03-25T11:15:38Z</time>
      </trkpt>
      <trkpt lat="48.54862" lon="-2.60226">
        <ele>21.3</ele>
        <time>2016-03-25T11:15:40Z</time>
      </trkpt>
      <trkpt lat="48.54872" lon="-2.60229">
        <ele>20.4</ele>
        <time>2016-03-25T11:15:42Z</time>
      </trkpt>
      <trkpt lat="48.54922" lon="-2.60237">
        <ele>18</ele>
        <time>2016-03-25T11:15:48Z</time>
      </trkpt>
      <trkpt lat="48.54953" lon="-2.60249">
        <ele>16.8</ele>
        <time>2016-03-25T11:15:53Z</time>
      </trkpt>
      <trkpt lat="48.54966" lon="-2.60257">
        <ele>16.2</ele>
        <time>2016-03-25T11:15:55Z</time>
      </trkpt>
      <trkpt lat="48.54978" lon="-2.60266">
        <ele>15.6</ele>
        <time>2016-03-25T11:15:57Z</time>
      </trkpt>
      <trkpt lat="48.54991" lon="-2.60275">
        <ele>14.9</ele>
        <time>2016-03-25T11:15:59Z</time>
      </trkpt>
      <trkpt lat="48.55003" lon="-2.60284">
        <ele>14.2</ele>
        <time>2016-03-25T11:16:01Z</time>
      </trkpt>
      <trkpt lat="48.55014" lon="-2.60296">
        <ele>13.5</ele>
        <time>2016-03-25T11:16:03Z</time>
      </trkpt>
      <trkpt lat="48.55023" lon="-2.60307">
        <ele>12.8</ele>
        <time>2016-03-25T11:16:05Z</time>
      </trkpt>
      <trkpt lat="48.55032" lon="-2.60317">
        <ele>12.1</ele>
        <time>2016-03-25T11:16:07Z</time>
      </trkpt>
      <trkpt lat="48.5504" lon="-2.60327">
        <ele>11.5</ele>
        <time>2016-03-25T11:16:09Z</time>
      </trkpt>
      <trkpt lat="48.55048" lon="-2.60338">
        <ele>11</ele>
        <time>2016-03-25T11:16:11Z</time>
      </trkpt>
      <trkpt lat="48.55056" lon="-2.60347">
        <ele>10.6</ele>
        <time>2016-03-25T11:16:13Z</time>
      </trkpt>
      <trkpt lat="48.55062" lon="-2.60361">
        <ele>10.2</ele>
        <time>2016-03-25T11:16:15Z</time>
      </trkpt>
      <trkpt lat="48.55072" lon="-2.60355">
        <ele>9.4</ele>
        <time>2016-03-25T11:17:16Z</time>
      </trkpt>
      <trkpt lat="48.55077" lon="-2.60342">
        <ele>9.7</ele>
        <time>2016-03-25T11:17:22Z</time>
      </trkpt>
      <trkpt lat="48.55082" lon="-2.60331">
        <ele>10.5</ele>
        <time>2016-03-25T11:17:26Z</time>
      </trkpt>
      <trkpt lat="48.55088" lon="-2.6032">
        <ele>11.4</ele>
        <time>2016-03-25T11:17:30Z</time>
      </trkpt>
      <trkpt lat="48.55093" lon="-2.60305">
        <ele>13</ele>
        <time>2016-03-25T11:17:35Z</time>
      </trkpt>
      <trkpt lat="48.55098" lon="-2.6029">
        <ele>14.7</ele>
        <time>2016-03-25T11:17:40Z</time>
      </trkpt>
      <trkpt lat="48.551" lon="-2.60274">
        <ele>16.5</ele>
        <time>2016-03-25T11:17:45Z</time>
      </trkpt>
      <trkpt lat="48.55103" lon="-2.60259">
        <ele>17.5</ele>
        <time>2016-03-25T11:17:50Z</time>
      </trkpt>
      <trkpt lat="48.55104" lon="-2.60273">
        <ele>19</ele>
        <time>2016-03-25T11:17:57Z</time>
      </trkpt>
      <trkpt lat="48.55102" lon="-2.60288">
        <ele>19.9</ele>
        <time>2016-03-25T11:18:01Z</time>
      </trkpt>
      <trkpt lat="48.55111" lon="-2.60292">
        <ele>21.3</ele>
        <time>2016-03-25T11:18:11Z</time>
      </trkpt>
      <trkpt lat="48.55121" lon="-2.60288">
        <ele>21.8</ele>
        <time>2016-03-25T11:18:17Z</time>
      </trkpt>
      <trkpt lat="48.55131" lon="-2.60283">
        <ele>22.6</ele>
        <time>2016-03-25T11:18:23Z</time>
      </trkpt>
      <trkpt lat="48.55139" lon="-2.60278">
        <ele>23.4</ele>
        <time>2016-03-25T11:18:29Z</time>
      </trkpt>
      <trkpt lat="48.55142" lon="-2.60264">
        <ele>24.4</ele>
        <time>2016-03-25T11:18:35Z</time>
      </trkpt>
      <trkpt lat="48.55146" lon="-2.60249">
        <ele>25.2</ele>
        <time>2016-03-25T11:18:42Z</time>
      </trkpt>
      <trkpt lat="48.55149" lon="-2.60235">
        <ele>26</ele>
        <time>2016-03-25T11:18:51Z</time>
      </trkpt>
      <trkpt lat="48.55151" lon="-2.60221">
        <ele>26.4</ele>
        <time>2016-03-25T11:18:57Z</time>
      </trkpt>
      <trkpt lat="48.55156" lon="-2.60208">
        <ele>26.7</ele>
        <time>2016-03-25T11:19:04Z</time>
      </trkpt>
      <trkpt lat="48.55163" lon="-2.60198">
        <ele>27.1</ele>
        <time>2016-03-25T11:19:18Z</time>
      </trkpt>
      <trkpt lat="48.55168" lon="-2.60187">
        <ele>27.4</ele>
        <time>2016-03-25T11:19:31Z</time>
      </trkpt>
      <trkpt lat="48.55169" lon="-2.60172">
        <ele>27.4</ele>
        <time>2016-03-25T11:19:37Z</time>
      </trkpt>
      <trkpt lat="48.55171" lon="-2.60158">
        <ele>27.3</ele>
        <time>2016-03-25T11:19:42Z</time>
      </trkpt>
      <trkpt lat="48.55172" lon="-2.60144">
        <ele>27.3</ele>
        <time>2016-03-25T11:19:49Z</time>
      </trkpt>
      <trkpt lat="48.55164" lon="-2.60136">
        <ele>27.2</ele>
        <time>2016-03-25T11:19:55Z</time>
      </trkpt>
      <trkpt lat="48.55167" lon="-2.60123">
        <ele>27.1</ele>
        <time>2016-03-25T11:19:59Z</time>
      </trkpt>
      <trkpt lat="48.55171" lon="-2.60108">
        <ele>26.9</ele>
        <time>2016-03-25T11:20:03Z</time>
      </trkpt>
      <trkpt lat="48.55173" lon="-2.60094">
        <ele>26.9</ele>
        <time>2016-03-25T11:20:07Z</time>
      </trkpt>
      <trkpt lat="48.55175" lon="-2.60079">
        <ele>27</ele>
        <time>2016-03-25T11:20:11Z</time>
      </trkpt>
      <trkpt lat="48.55177" lon="-2.60065">
        <ele>27.4</ele>
        <time>2016-03-25T11:20:15Z</time>
      </trkpt>
      <trkpt lat="48.5518" lon="-2.6005">
        <ele>28</ele>
        <time>2016-03-25T11:20:20Z</time>
      </trkpt>
      <trkpt lat="48.55182" lon="-2.60033">
        <ele>28.9</ele>
        <time>2016-03-25T11:20:25Z</time>
      </trkpt>
      <trkpt lat="48.55184" lon="-2.60019">
        <ele>29.6</ele>
        <time>2016-03-25T11:20:29Z</time>
      </trkpt>
      <trkpt lat="48.55187" lon="-2.60006">
        <ele>30.3</ele>
        <time>2016-03-25T11:20:33Z</time>
      </trkpt>
      <trkpt lat="48.55189" lon="-2.59992">
        <ele>31.1</ele>
        <time>2016-03-25T11:20:37Z</time>
      </trkpt>
      <trkpt lat="48.55191" lon="-2.59978">
        <ele>32</ele>
        <time>2016-03-25T11:20:41Z</time>
      </trkpt>
      <trkpt lat="48.55197" lon="-2.59967">
        <ele>32.8</ele>
        <time>2016-03-25T11:20:45Z</time>
      </trkpt>
      <trkpt lat="48.55205" lon="-2.59962">
        <ele>33.7</ele>
        <time>2016-03-25T11:20:49Z</time>
      </trkpt>
      <trkpt lat="48.55215" lon="-2.59962">
        <ele>34.5</ele>
        <time>2016-03-25T11:20:54Z</time>
      </trkpt>
      <trkpt lat="48.55225" lon="-2.59964">
        <ele>35.4</ele>
        <time>2016-03-25T11:21:02Z</time>
      </trkpt>
      <trkpt lat="48.55234" lon="-2.59965">
        <ele>35.9</ele>
        <time>2016-03-25T11:21:09Z</time>
      </trkpt>
      <trkpt lat="48.55243" lon="-2.59966">
        <ele>36.2</ele>
        <time>2016-03-25T11:21:13Z</time>
      </trkpt>
      <trkpt lat="48.55254" lon="-2.59966">
        <ele>36.4</ele>
        <time>2016-03-25T11:21:17Z</time>
      </trkpt>
      <trkpt lat="48.55263" lon="-2.59964">
        <ele>36.5</ele>
        <time>2016-03-25T11:21:20Z</time>
      </trkpt>
      <trkpt lat="48.55272" lon="-2.59956">
        <ele>36.6</ele>
        <time>2016-03-25T11:21:23Z</time>
      </trkpt>
      <trkpt lat="48.55279" lon="-2.59945">
        <ele>36.7</ele>
        <time>2016-03-25T11:21:26Z</time>
      </trkpt>
      <trkpt lat="48.55287" lon="-2.59932">
        <ele>36.7</ele>
        <time>2016-03-25T11:21:29Z</time>
      </trkpt>
      <trkpt lat="48.55295" lon="-2.59919">
        <ele>36.8</ele>
        <time>2016-03-25T11:21:32Z</time>
      </trkpt>
      <trkpt lat="48.55303" lon="-2.59905">
        <ele>36.9</ele>
        <time>2016-03-25T11:21:35Z</time>
      </trkpt>
      <trkpt lat="48.55311" lon="-2.5989">
        <ele>37.1</ele>
        <time>2016-03-25T11:21:38Z</time>
      </trkpt>
      <trkpt lat="48.55321" lon="-2.59878">
        <ele>37.2</ele>
        <time>2016-03-25T11:21:41Z</time>
      </trkpt>
      <trkpt lat="48.55331" lon="-2.59865">
        <ele>37.4</ele>
        <time>2016-03-25T11:21:44Z</time>
      </trkpt>
      <trkpt lat="48.55342" lon="-2.59854">
        <ele>37.5</ele>
        <time>2016-03-25T11:21:47Z</time>
      </trkpt>
      <trkpt lat="48.55353" lon="-2.59844">
        <ele>37.6</ele>
        <time>2016-03-25T11:21:50Z</time>
      </trkpt>
      <trkpt lat="48.55363" lon="-2.59834">
        <ele>37.7</ele>
        <time>2016-03-25T11:21:53Z</time>
      </trkpt>
      <trkpt lat="48.55374" lon="-2.59823">
        <ele>37.8</ele>
        <time>2016-03-25T11:21:56Z</time>
      </trkpt>
      <trkpt lat="48.55382" lon="-2.59815">
        <ele>37.9</ele>
        <time>2016-03-25T11:21:58Z</time>
      </trkpt>
      <trkpt lat="48.5539" lon="-2.59806">
        <ele>37.9</ele>
        <time>2016-03-25T11:22:00Z</time>
      </trkpt>
      <trkpt lat="48.55398" lon="-2.59797">
        <ele>38</ele>
        <time>2016-03-25T11:22:02Z</time>
      </trkpt>
      <trkpt lat="48.55406" lon="-2.59788">
        <ele>38.1</ele>
        <time>2016-03-25T11:22:04Z</time>
      </trkpt>
      <trkpt lat="48.55413" lon="-2.59778">
        <ele>38.1</ele>
        <time>2016-03-25T11:22:06Z</time>
      </trkpt>
      <trkpt lat="48.55421" lon="-2.59768">
        <ele>38.2</ele>
        <time>2016-03-25T11:22:08Z</time>
      </trkpt>
      <trkpt lat="48.5543" lon="-2.59759">
        <ele>38.2</ele>
        <time>2016-03-25T11:22:10Z</time>
      </trkpt>
      <trkpt lat="48.55438" lon="-2.59747">
        <ele>38.2</ele>
        <time>2016-03-25T11:22:12Z</time>
      </trkpt>
      <trkpt lat="48.55446" lon="-2.59735">
        <ele>38.2</ele>
        <time>2016-03-25T11:22:14Z</time>
      </trkpt>
      <trkpt lat="48.55454" lon="-2.59723">
        <ele>38.2</ele>
        <time>2016-03-25T11:22:16Z</time>
      </trkpt>
      <trkpt lat="48.55459" lon="-2.59712">
        <ele>38.2</ele>
        <time>2016-03-25T11:22:18Z</time>
      </trkpt>
      <trkpt lat="48.55458" lon="-2.59695">
        <ele>38</ele>
        <time>2016-03-25T11:22:21Z</time>
      </trkpt>
      <trkpt lat="48.55456" lon="-2.59679">
        <ele>37.8</ele>
        <time>2016-03-25T11:22:24Z</time>
      </trkpt>
      <trkpt lat="48.55461" lon="-2.59662">
        <ele>37.7</ele>
        <time>2016-03-25T11:22:27Z</time>
      </trkpt>
      <trkpt lat="48.55467" lon="-2.59651">
        <ele>37.6</ele>
        <time>2016-03-25T11:22:29Z</time>
      </trkpt>
      <trkpt lat="48.55473" lon="-2.5964">
        <ele>37.5</ele>
        <time>2016-03-25T11:22:31Z</time>
      </trkpt>
      <trkpt lat="48.5548" lon="-2.59628">
        <ele>37.4</ele>
        <time>2016-03-25T11:22:33Z</time>
      </trkpt>
      <trkpt lat="48.55487" lon="-2.59616">
        <ele>37.3</ele>
        <time>2016-03-25T11:22:35Z</time>
      </trkpt>
      <trkpt lat="48.55493" lon="-2.59604">
        <ele>37.2</ele>
        <time>2016-03-25T11:22:37Z</time>
      </trkpt>
      <trkpt lat="48.55499" lon="-2.59592">
        <ele>37.1</ele>
        <time>2016-03-25T11:22:39Z</time>
      </trkpt>
      <trkpt lat="48.55502" lon="-2.59578">
        <ele>37</ele>
        <time>2016-03-25T11:22:41Z</time>
      </trkpt>
      <trkpt lat="48.55506" lon="-2.59561">
        <ele>36.9</ele>
        <time>2016-03-25T11:22:44Z</time>
      </trkpt>
      <trkpt lat="48.55512" lon="-2.59546">
        <ele>37</ele>
        <time>2016-03-25T11:22:47Z</time>
      </trkpt>
      <trkpt lat="48.55521" lon="-2.59532">
        <ele>37.1</ele>
        <time>2016-03-25T11:22:50Z</time>
      </trkpt>
      <trkpt lat="48.55527" lon="-2.59521">
        <ele>37.2</ele>
        <time>2016-03-25T11:22:52Z</time>
      </trkpt>
      <trkpt lat="48.55533" lon="-2.59509">
        <ele>37.2</ele>
        <time>2016-03-25T11:22:54Z</time>
      </trkpt>
      <trkpt lat="48.55538" lon="-2.59496">
        <ele>37.3</ele>
        <time>2016-03-25T11:22:56Z</time>
      </trkpt>
      <trkpt lat="48.55544" lon="-2.59483">
        <ele>37.4</ele>
        <time>2016-03-25T11:22:58Z</time>
      </trkpt>
      <trkpt lat="48.55549" lon="-2.5947">
        <ele>37.6</ele>
        <time>2016-03-25T11:23:00Z</time>
      </trkpt>
      <trkpt lat="48.55555" lon="-2.59458">
        <ele>37.9</ele>
        <time>2016-03-25T11:23:02Z</time>
      </trkpt>
      <trkpt lat="48.55561" lon="-2.59447">
        <ele>38.2</ele>
        <time>2016-03-25T11:23:04Z</time>
      </trkpt>
      <trkpt lat="48.55566" lon="-2.59436">
        <ele>38.6</ele>
        <time>2016-03-25T11:23:06Z</time>
      </trkpt>
      <trkpt lat="48.55572" lon="-2.59418">
        <ele>39.1</ele>
        <time>2016-03-25T11:23:09Z</time>
      </trkpt>
      <trkpt lat="48.55575" lon="-2.59401">
        <ele>39.6</ele>
        <time>2016-03-25T11:23:12Z</time>
      </trkpt>
      <trkpt lat="48.55576" lon="-2.59385">
        <ele>40.1</ele>
        <time>2016-03-25T11:23:15Z</time>
      </trkpt>
      <trkpt lat="48.55577" lon="-2.59369">
        <ele>40.5</ele>
        <time>2016-03-25T11:23:18Z</time>
      </trkpt>
      <trkpt lat="48.55577" lon="-2.59351">
        <ele>40.8</ele>
        <time>2016-03-25T11:23:21Z</time>
      </trkpt>
      <trkpt lat="48.55577" lon="-2.59331">
        <ele>41</ele>
        <time>2016-03-25T11:23:24Z</time>
      </trkpt>
      <trkpt lat="48.55576" lon="-2.59313">
        <ele>41.1</ele>
        <time>2016-03-25T11:23:27Z</time>
      </trkpt>
      <trkpt lat="48.55574" lon="-2.59298">
        <ele>41.2</ele>
        <time>2016-03-25T11:23:30Z</time>
      </trkpt>
      <trkpt lat="48.55571" lon="-2.59284">
        <ele>41.4</ele>
        <time>2016-03-25T11:23:34Z</time>
      </trkpt>
      <trkpt lat="48.55573" lon="-2.5927">
        <ele>44.8</ele>
        <time>2016-03-25T11:30:24Z</time>
      </trkpt>
      <trkpt lat="48.55566" lon="-2.59257">
        <ele>44.9</ele>
        <time>2016-03-25T11:30:30Z</time>
      </trkpt>
      <trkpt lat="48.5556" lon="-2.59246">
        <ele>44.9</ele>
        <time>2016-03-25T11:30:34Z</time>
      </trkpt>
      <trkpt lat="48.55553" lon="-2.59234">
        <ele>45</ele>
        <time>2016-03-25T11:30:38Z</time>
      </trkpt>
      <trkpt lat="48.55547" lon="-2.5922">
        <ele>45.2</ele>
        <time>2016-03-25T11:30:42Z</time>
      </trkpt>
      <trkpt lat="48.5554" lon="-2.59206">
        <ele>45.7</ele>
        <time>2016-03-25T11:30:46Z</time>
      </trkpt>
      <trkpt lat="48.55535" lon="-2.5919">
        <ele>46.1</ele>
        <time>2016-03-25T11:30:50Z</time>
      </trkpt>
      <trkpt lat="48.55531" lon="-2.59175">
        <ele>46.5</ele>
        <time>2016-03-25T11:30:54Z</time>
      </trkpt>
      <trkpt lat="48.55525" lon="-2.59159">
        <ele>47</ele>
        <time>2016-03-25T11:30:58Z</time>
      </trkpt>
      <trkpt lat="48.5552" lon="-2.59143">
        <ele>47.6</ele>
        <time>2016-03-25T11:31:02Z</time>
      </trkpt>
      <trkpt lat="48.55516" lon="-2.59131">
        <ele>48.1</ele>
        <time>2016-03-25T11:31:05Z</time>
      </trkpt>
      <trkpt lat="48.55511" lon="-2.59115">
        <ele>48.8</ele>
        <time>2016-03-25T11:31:09Z</time>
      </trkpt>
      <trkpt lat="48.55505" lon="-2.591">
        <ele>49.5</ele>
        <time>2016-03-25T11:31:13Z</time>
      </trkpt>
      <trkpt lat="48.55498" lon="-2.59087">
        <ele>50.2</ele>
        <time>2016-03-25T11:31:17Z</time>
      </trkpt>
      <trkpt lat="48.55488" lon="-2.59088">
        <ele>51</ele>
        <time>2016-03-25T11:31:21Z</time>
      </trkpt>
      <trkpt lat="48.5548" lon="-2.59095">
        <ele>51.4</ele>
        <time>2016-03-25T11:31:24Z</time>
      </trkpt>
      <trkpt lat="48.55472" lon="-2.59104">
        <ele>51.8</ele>
        <time>2016-03-25T11:31:27Z</time>
      </trkpt>
      <trkpt lat="48.55462" lon="-2.59114">
        <ele>52.1</ele>
        <time>2016-03-25T11:31:30Z</time>
      </trkpt>
      <trkpt lat="48.55454" lon="-2.59128">
        <ele>52.3</ele>
        <time>2016-03-25T11:31:33Z</time>
      </trkpt>
      <trkpt lat="48.55446" lon="-2.59141">
        <ele>52.6</ele>
        <time>2016-03-25T11:31:36Z</time>
      </trkpt>
      <trkpt lat="48.55439" lon="-2.59155">
        <ele>52.8</ele>
        <time>2016-03-25T11:31:39Z</time>
      </trkpt>
      <trkpt lat="48.55431" lon="-2.59168">
        <ele>52.9</ele>
        <time>2016-03-25T11:31:42Z</time>
      </trkpt>
      <trkpt lat="48.55422" lon="-2.59177">
        <ele>53.1</ele>
        <time>2016-03-25T11:31:45Z</time>
      </trkpt>
      <trkpt lat="48.55412" lon="-2.59171">
        <ele>53.2</ele>
        <time>2016-03-25T11:31:48Z</time>
      </trkpt>
      <trkpt lat="48.55406" lon="-2.59155">
        <ele>53.5</ele>
        <time>2016-03-25T11:31:51Z</time>
      </trkpt>
      <trkpt lat="48.55402" lon="-2.59141">
        <ele>53.8</ele>
        <time>2016-03-25T11:31:54Z</time>
      </trkpt>
      <trkpt lat="48.55398" lon="-2.59127">
        <ele>54.2</ele>
        <time>2016-03-25T11:31:57Z</time>
      </trkpt>
      <trkpt lat="48.55394" lon="-2.59114">
        <ele>54.7</ele>
        <time>2016-03-25T11:32:00Z</time>
      </trkpt>
      <trkpt lat="48.55391" lon="-2.591">
        <ele>55.1</ele>
        <time>2016-03-25T11:32:03Z</time>
      </trkpt>
      <trkpt lat="48.55388" lon="-2.59086">
        <ele>55.6</ele>
        <time>2016-03-25T11:32:06Z</time>
      </trkpt>
      <trkpt lat="48.55385" lon="-2.59072">
        <ele>56.1</ele>
        <time>2016-03-25T11:32:09Z</time>
      </trkpt>
      <trkpt lat="48.55382" lon="-2.59058">
        <ele>56.7</ele>
        <time>2016-03-25T11:32:12Z</time>
      </trkpt>
      <trkpt lat="48.5538" lon="-2.59044">
        <ele>57.2</ele>
        <time>2016-03-25T11:32:15Z</time>
      </trkpt>
      <trkpt lat="48.55379" lon="-2.59029">
        <ele>57.8</ele>
        <time>2016-03-25T11:32:18Z</time>
      </trkpt>
      <trkpt lat="48.55378" lon="-2.59014">
        <ele>58.3</ele>
        <time>2016-03-25T11:32:21Z</time>
      </trkpt>
      <trkpt lat="48.55378" lon="-2.59">
        <ele>58.9</ele>
        <time>2016-03-25T11:32:24Z</time>
      </trkpt>
      <trkpt lat="48.55378" lon="-2.58987">
        <ele>59.6</ele>
        <time>2016-03-25T11:32:27Z</time>
      </trkpt>
      <trkpt lat="48.55377" lon="-2.5897">
        <ele>60.5</ele>
        <time>2016-03-25T11:32:31Z</time>
      </trkpt>
      <trkpt lat="48.55375" lon="-2.58953">
        <ele>61.5</ele>
        <time>2016-03-25T11:32:35Z</time>
      </trkpt>
      <trkpt lat="48.55371" lon="-2.58937">
        <ele>62.4</ele>
        <time>2016-03-25T11:32:39Z</time>
      </trkpt>
      <trkpt lat="48.55367" lon="-2.58922">
        <ele>63.2</ele>
        <time>2016-03-25T11:32:43Z</time>
      </trkpt>
      <trkpt lat="48.55363" lon="-2.58907">
        <ele>64</ele>
        <time>2016-03-25T11:32:47Z</time>
      </trkpt>
      <trkpt lat="48.55363" lon="-2.58893">
        <ele>65.2</ele>
        <time>2016-03-25T11:32:54Z</time>
      </trkpt>
      <trkpt lat="48.55363" lon="-2.58893">
        <ele>66.2</ele>
        <time>2016-03-25T11:33:01Z</time>
      </trkpt>
      <trkpt lat="48.55365" lon="-2.58875">
        <ele>72.5</ele>
        <time>2016-03-25T11:43:33Z</time>
      </trkpt>
      <trkpt lat="48.55364" lon="-2.58858">
        <ele>72.6</ele>
        <time>2016-03-25T11:43:37Z</time>
      </trkpt>
      <trkpt lat="48.55364" lon="-2.58843">
        <ele>72.6</ele>
        <time>2016-03-25T11:43:40Z</time>
      </trkpt>
      <trkpt lat="48.55363" lon="-2.58827">
        <ele>72.6</ele>
        <time>2016-03-25T11:43:43Z</time>
      </trkpt>
      <trkpt lat="48.55362" lon="-2.58811">
        <ele>72.7</ele>
        <time>2016-03-25T11:43:46Z</time>
      </trkpt>
      <trkpt lat="48.55362" lon="-2.58794">
        <ele>72.7</ele>
        <time>2016-03-25T11:43:49Z</time>
      </trkpt>
      <trkpt lat="48.55359" lon="-2.58775">
        <ele>72.9</ele>
        <time>2016-03-25T11:43:52Z</time>
      </trkpt>
      <trkpt lat="48.55357" lon="-2.58758">
        <ele>73</ele>
        <time>2016-03-25T11:43:55Z</time>
      </trkpt>
      <trkpt lat="48.55354" lon="-2.58744">
        <ele>73.3</ele>
        <time>2016-03-25T11:43:58Z</time>
      </trkpt>
      <trkpt lat="48.55353" lon="-2.5873">
        <ele>73.7</ele>
        <time>2016-03-25T11:44:01Z</time>
      </trkpt>
      <trkpt lat="48.55352" lon="-2.58715">
        <ele>74</ele>
        <time>2016-03-25T11:44:04Z</time>
      </trkpt>
      <trkpt lat="48.55352" lon="-2.58699">
        <ele>74.2</ele>
        <time>2016-03-25T11:44:07Z</time>
      </trkpt>
      <trkpt lat="48.55351" lon="-2.58683">
        <ele>74.5</ele>
        <time>2016-03-25T11:44:10Z</time>
      </trkpt>
      <trkpt lat="48.55348" lon="-2.58668">
        <ele>74.7</ele>
        <time>2016-03-25T11:44:13Z</time>
      </trkpt>
      <trkpt lat="48.55346" lon="-2.58653">
        <ele>75</ele>
        <time>2016-03-25T11:44:16Z</time>
      </trkpt>
      <trkpt lat="48.55343" lon="-2.58638">
        <ele>75.3</ele>
        <time>2016-03-25T11:44:19Z</time>
      </trkpt>
      <trkpt lat="48.5534" lon="-2.58624">
        <ele>75.5</ele>
        <time>2016-03-25T11:44:22Z</time>
      </trkpt>
      <trkpt lat="48.55337" lon="-2.58607">
        <ele>75.9</ele>
        <time>2016-03-25T11:44:26Z</time>
      </trkpt>
      <trkpt lat="48.55335" lon="-2.58593">
        <ele>76.3</ele>
        <time>2016-03-25T11:44:29Z</time>
      </trkpt>
      <trkpt lat="48.5533" lon="-2.58579">
        <ele>76.6</ele>
        <time>2016-03-25T11:44:31Z</time>
      </trkpt>
      <trkpt lat="48.55328" lon="-2.58564">
        <ele>77.1</ele>
        <time>2016-03-25T11:44:34Z</time>
      </trkpt>
      <trkpt lat="48.55328" lon="-2.58548">
        <ele>77.8</ele>
        <time>2016-03-25T11:44:38Z</time>
      </trkpt>
      <trkpt lat="48.5533" lon="-2.58533">
        <ele>78.4</ele>
        <time>2016-03-25T11:44:41Z</time>
      </trkpt>
      <trkpt lat="48.55338" lon="-2.58522">
        <ele>78.9</ele>
        <time>2016-03-25T11:44:44Z</time>
      </trkpt>
      <trkpt lat="48.55344" lon="-2.58512">
        <ele>79.4</ele>
        <time>2016-03-25T11:44:47Z</time>
      </trkpt>
      <trkpt lat="48.55351" lon="-2.58501">
        <ele>79.9</ele>
        <time>2016-03-25T11:44:51Z</time>
      </trkpt>
      <trkpt lat="48.55354" lon="-2.58487">
        <ele>80.3</ele>
        <time>2016-03-25T11:44:55Z</time>
      </trkpt>
      <trkpt lat="48.55352" lon="-2.58473">
        <ele>80.7</ele>
        <time>2016-03-25T11:45:00Z</time>
      </trkpt>
      <trkpt lat="48.55349" lon="-2.58456">
        <ele>81</ele>
        <time>2016-03-25T11:45:06Z</time>
      </trkpt>
      <trkpt lat="48.55346" lon="-2.58442">
        <ele>81.2</ele>
        <time>2016-03-25T11:45:09Z</time>
      </trkpt>
      <trkpt lat="48.55342" lon="-2.58425">
        <ele>81.5</ele>
        <time>2016-03-25T11:45:13Z</time>
      </trkpt>
      <trkpt lat="48.55339" lon="-2.5841">
        <ele>81.9</ele>
        <time>2016-03-25T11:45:17Z</time>
      </trkpt>
      <trkpt lat="48.55336" lon="-2.58395">
        <ele>82.1</ele>
        <time>2016-03-25T11:45:21Z</time>
      </trkpt>
      <trkpt lat="48.55335" lon="-2.58381">
        <ele>82.5</ele>
        <time>2016-03-25T11:45:26Z</time>
      </trkpt>
      <trkpt lat="48.55333" lon="-2.58367">
        <ele>82.9</ele>
        <time>2016-03-25T11:45:31Z</time>
      </trkpt>
      <trkpt lat="48.55331" lon="-2.58353">
        <ele>83.6</ele>
        <time>2016-03-25T11:45:38Z</time>
      </trkpt>
      <trkpt lat="48.55328" lon="-2.58338">
        <ele>84.4</ele>
        <time>2016-03-25T11:45:47Z</time>
      </trkpt>
      <trkpt lat="48.55327" lon="-2.58324">
        <ele>84.8</ele>
        <time>2016-03-25T11:45:55Z</time>
      </trkpt>
      <trkpt lat="48.55325" lon="-2.58309">
        <ele>85.4</ele>
        <time>2016-03-25T11:46:02Z</time>
      </trkpt>
      <trkpt lat="48.55322" lon="-2.58293">
        <ele>85.9</ele>
        <time>2016-03-25T11:46:08Z</time>
      </trkpt>
      <trkpt lat="48.55318" lon="-2.58279">
        <ele>86.4</ele>
        <time>2016-03-25T11:46:13Z</time>
      </trkpt>
      <trkpt lat="48.55314" lon="-2.58264">
        <ele>87.1</ele>
        <time>2016-03-25T11:46:18Z</time>
      </trkpt>
      <trkpt lat="48.55311" lon="-2.58251">
        <ele>87.8</ele>
        <time>2016-03-25T11:46:23Z</time>
      </trkpt>
      <trkpt lat="48.55309" lon="-2.58237">
        <ele>88.7</ele>
        <time>2016-03-25T11:46:32Z</time>
      </trkpt>
      <trkpt lat="48.55307" lon="-2.58223">
        <ele>90</ele>
        <time>2016-03-25T11:46:59Z</time>
      </trkpt>
      <trkpt lat="48.55305" lon="-2.58208">
        <ele>90.1</ele>
        <time>2016-03-25T11:47:04Z</time>
      </trkpt>
      <trkpt lat="48.55302" lon="-2.58194">
        <ele>90.3</ele>
        <time>2016-03-25T11:47:08Z</time>
      </trkpt>
      <trkpt lat="48.55301" lon="-2.5818">
        <ele>90.5</ele>
        <time>2016-03-25T11:47:13Z</time>
      </trkpt>
      <trkpt lat="48.55302" lon="-2.58166">
        <ele>90.7</ele>
        <time>2016-03-25T11:47:18Z</time>
      </trkpt>
      <trkpt lat="48.55304" lon="-2.58151">
        <ele>90.9</ele>
        <time>2016-03-25T11:47:22Z</time>
      </trkpt>
      <trkpt lat="48.55304" lon="-2.58134">
        <ele>91.2</ele>
        <time>2016-03-25T11:47:25Z</time>
      </trkpt>
      <trkpt lat="48.55304" lon="-2.58118">
        <ele>91.4</ele>
        <time>2016-03-25T11:47:28Z</time>
      </trkpt>
      <trkpt lat="48.55307" lon="-2.58101">
        <ele>91.6</ele>
        <time>2016-03-25T11:47:31Z</time>
      </trkpt>
      <trkpt lat="48.55311" lon="-2.58084">
        <ele>91.8</ele>
        <time>2016-03-25T11:47:35Z</time>
      </trkpt>
      <trkpt lat="48.55314" lon="-2.58068">
        <ele>91.9</ele>
        <time>2016-03-25T11:47:38Z</time>
      </trkpt>
      <trkpt lat="48.55317" lon="-2.58052">
        <ele>92.1</ele>
        <time>2016-03-25T11:47:41Z</time>
      </trkpt>
      <trkpt lat="48.55317" lon="-2.58034">
        <ele>92.2</ele>
        <time>2016-03-25T11:47:44Z</time>
      </trkpt>
      <trkpt lat="48.55317" lon="-2.58017">
        <ele>92.4</ele>
        <time>2016-03-25T11:47:47Z</time>
      </trkpt>
      <trkpt lat="48.55316" lon="-2.57999">
        <ele>92.5</ele>
        <time>2016-03-25T11:47:50Z</time>
      </trkpt>
      <trkpt lat="48.55314" lon="-2.57983">
        <ele>92.6</ele>
        <time>2016-03-25T11:47:53Z</time>
      </trkpt>
      <trkpt lat="48.55313" lon="-2.57968">
        <ele>92.8</ele>
        <time>2016-03-25T11:47:56Z</time>
      </trkpt>
      <trkpt lat="48.55308" lon="-2.57955">
        <ele>93</ele>
        <time>2016-03-25T11:48:00Z</time>
      </trkpt>
      <trkpt lat="48.55298" lon="-2.57954">
        <ele>93.2</ele>
        <time>2016-03-25T11:48:03Z</time>
      </trkpt>
      <trkpt lat="48.55288" lon="-2.5795">
        <ele>93.5</ele>
        <time>2016-03-25T11:48:07Z</time>
      </trkpt>
      <trkpt lat="48.55286" lon="-2.57933">
        <ele>93.8</ele>
        <time>2016-03-25T11:48:13Z</time>
      </trkpt>
      <trkpt lat="48.55285" lon="-2.57919">
        <ele>94.1</ele>
        <time>2016-03-25T11:48:16Z</time>
      </trkpt>
      <trkpt lat="48.55282" lon="-2.57902">
        <ele>94.2</ele>
        <time>2016-03-25T11:48:19Z</time>
      </trkpt>
      <trkpt lat="48.55279" lon="-2.57885">
        <ele>94.4</ele>
        <time>2016-03-25T11:48:22Z</time>
      </trkpt>
      <trkpt lat="48.55277" lon="-2.57871">
        <ele>94.5</ele>
        <time>2016-03-25T11:48:24Z</time>
      </trkpt>
      <trkpt lat="48.55274" lon="-2.57857">
        <ele>94.6</ele>
        <time>2016-03-25T11:48:26Z</time>
      </trkpt>
      <trkpt lat="48.55271" lon="-2.57843">
        <ele>94.6</ele>
        <time>2016-03-25T11:48:28Z</time>
      </trkpt>
      <trkpt lat="48.55269" lon="-2.57829">
        <ele>94.7</ele>
        <time>2016-03-25T11:48:30Z</time>
      </trkpt>
      <trkpt lat="48.55266" lon="-2.5781">
        <ele>94.9</ele>
        <time>2016-03-25T11:48:33Z</time>
      </trkpt>
      <trkpt lat="48.55263" lon="-2.57793">
        <ele>95.1</ele>
        <time>2016-03-25T11:48:36Z</time>
      </trkpt>
      <trkpt lat="48.55261" lon="-2.57776">
        <ele>95.3</ele>
        <time>2016-03-25T11:48:39Z</time>
      </trkpt>
      <trkpt lat="48.55258" lon="-2.57757">
        <ele>95.4</ele>
        <time>2016-03-25T11:48:42Z</time>
      </trkpt>
      <trkpt lat="48.55256" lon="-2.5774">
        <ele>95.5</ele>
        <time>2016-03-25T11:48:45Z</time>
      </trkpt>
      <trkpt lat="48.55254" lon="-2.57725">
        <ele>95.6</ele>
        <time>2016-03-25T11:48:48Z</time>
      </trkpt>
      <trkpt lat="48.55252" lon="-2.57711">
        <ele>95.7</ele>
        <time>2016-03-25T11:48:51Z</time>
      </trkpt>
      <trkpt lat="48.5525" lon="-2.57696">
        <ele>95.8</ele>
        <time>2016-03-25T11:48:55Z</time>
      </trkpt>
      <trkpt lat="48.55253" lon="-2.57709">
        <ele>96.1</ele>
        <time>2016-03-25T11:49:14Z</time>
      </trkpt>
      <trkpt lat="48.55255" lon="-2.57723">
        <ele>96.2</ele>
        <time>2016-03-25T11:49:19Z</time>
      </trkpt>
      <trkpt lat="48.55257" lon="-2.57737">
        <ele>96.2</ele>
        <time>2016-03-25T11:49:24Z</time>
      </trkpt>
      <trkpt lat="48.55259" lon="-2.57752">
        <ele>96.3</ele>
        <time>2016-03-25T11:49:28Z</time>
      </trkpt>
      <trkpt lat="48.55261" lon="-2.57769">
        <ele>96.3</ele>
        <time>2016-03-25T11:49:32Z</time>
      </trkpt>
      <trkpt lat="48.55263" lon="-2.57783">
        <ele>96.4</ele>
        <time>2016-03-25T11:49:35Z</time>
      </trkpt>
      <trkpt lat="48.55265" lon="-2.57797">
        <ele>96.4</ele>
        <time>2016-03-25T11:49:38Z</time>
      </trkpt>
      <trkpt lat="48.55268" lon="-2.57814">
        <ele>96.4</ele>
        <time>2016-03-25T11:49:41Z</time>
      </trkpt>
      <trkpt lat="48.5527" lon="-2.57831">
        <ele>96.4</ele>
        <time>2016-03-25T11:49:44Z</time>
      </trkpt>
      <trkpt lat="48.55273" lon="-2.57851">
        <ele>96.5</ele>
        <time>2016-03-25T11:49:47Z</time>
      </trkpt>
      <trkpt lat="48.55275" lon="-2.57864">
        <ele>96.5</ele>
        <time>2016-03-25T11:49:49Z</time>
      </trkpt>
      <trkpt lat="48.55278" lon="-2.57883">
        <ele>96.5</ele>
        <time>2016-03-25T11:49:52Z</time>
      </trkpt>
      <trkpt lat="48.55281" lon="-2.57901">
        <ele>96.5</ele>
        <time>2016-03-25T11:49:55Z</time>
      </trkpt>
      <trkpt lat="48.55284" lon="-2.57919">
        <ele>96.5</ele>
        <time>2016-03-25T11:49:58Z</time>
      </trkpt>
      <trkpt lat="48.55286" lon="-2.57936">
        <ele>96.4</ele>
        <time>2016-03-25T11:50:01Z</time>
      </trkpt>
      <trkpt lat="48.55285" lon="-2.57952">
        <ele>96.4</ele>
        <time>2016-03-25T11:50:04Z</time>
      </trkpt>
      <trkpt lat="48.55294" lon="-2.57955">
        <ele>96.3</ele>
        <time>2016-03-25T11:50:10Z</time>
      </trkpt>
      <trkpt lat="48.55307" lon="-2.57953">
        <ele>96.3</ele>
        <time>2016-03-25T11:50:13Z</time>
      </trkpt>
      <trkpt lat="48.55318" lon="-2.57951">
        <ele>96.3</ele>
        <time>2016-03-25T11:50:16Z</time>
      </trkpt>
      <trkpt lat="48.55329" lon="-2.57948">
        <ele>96.3</ele>
        <time>2016-03-25T11:50:19Z</time>
      </trkpt>
      <trkpt lat="48.55338" lon="-2.57946">
        <ele>96.2</ele>
        <time>2016-03-25T11:50:21Z</time>
      </trkpt>
      <trkpt lat="48.55347" lon="-2.57941">
        <ele>96.2</ele>
        <time>2016-03-25T11:50:23Z</time>
      </trkpt>
      <trkpt lat="48.55357" lon="-2.57936">
        <ele>96.2</ele>
        <time>2016-03-25T11:50:25Z</time>
      </trkpt>
      <trkpt lat="48.55366" lon="-2.5793">
        <ele>96.2</ele>
        <time>2016-03-25T11:50:27Z</time>
      </trkpt>
      <trkpt lat="48.55374" lon="-2.57923">
        <ele>96.2</ele>
        <time>2016-03-25T11:50:29Z</time>
      </trkpt>
      <trkpt lat="48.55384" lon="-2.57912">
        <ele>96.2</ele>
        <time>2016-03-25T11:50:32Z</time>
      </trkpt>
      <trkpt lat="48.55381" lon="-2.57898">
        <ele>96.2</ele>
        <time>2016-03-25T11:50:35Z</time>
      </trkpt>
      <trkpt lat="48.55373" lon="-2.5789">
        <ele>96.2</ele>
        <time>2016-03-25T11:50:37Z</time>
      </trkpt>
      <trkpt lat="48.55365" lon="-2.57882">
        <ele>96.2</ele>
        <time>2016-03-25T11:50:39Z</time>
      </trkpt>
      <trkpt lat="48.55354" lon="-2.57869">
        <ele>96.2</ele>
        <time>2016-03-25T11:50:42Z</time>
      </trkpt>
      <trkpt lat="48.55345" lon="-2.57858">
        <ele>96.3</ele>
        <time>2016-03-25T11:50:45Z</time>
      </trkpt>
      <trkpt lat="48.55337" lon="-2.57844">
        <ele>96.3</ele>
        <time>2016-03-25T11:50:48Z</time>
      </trkpt>
      <trkpt lat="48.55334" lon="-2.57829">
        <ele>96.3</ele>
        <time>2016-03-25T11:50:50Z</time>
      </trkpt>
      <trkpt lat="48.5533" lon="-2.57813">
        <ele>96.3</ele>
        <time>2016-03-25T11:50:52Z</time>
      </trkpt>
      <trkpt lat="48.55329" lon="-2.57798">
        <ele>96.3</ele>
        <time>2016-03-25T11:50:54Z</time>
      </trkpt>
      <trkpt lat="48.55327" lon="-2.57785">
        <ele>96.3</ele>
        <time>2016-03-25T11:50:56Z</time>
      </trkpt>
      <trkpt lat="48.55324" lon="-2.5777">
        <ele>96.3</ele>
        <time>2016-03-25T11:50:58Z</time>
      </trkpt>
      <trkpt lat="48.55321" lon="-2.57755">
        <ele>96.2</ele>
        <time>2016-03-25T11:51:00Z</time>
      </trkpt>
      <trkpt lat="48.55316" lon="-2.5774">
        <ele>96.2</ele>
        <time>2016-03-25T11:51:02Z</time>
      </trkpt>
      <trkpt lat="48.55312" lon="-2.57725">
        <ele>96.2</ele>
        <time>2016-03-25T11:51:04Z</time>
      </trkpt>
      <trkpt lat="48.55307" lon="-2.57709">
        <ele>96.2</ele>
        <time>2016-03-25T11:51:06Z</time>
      </trkpt>
      <trkpt lat="48.55304" lon="-2.57696">
        <ele>96.1</ele>
        <time>2016-03-25T11:51:08Z</time>
      </trkpt>
      <trkpt lat="48.55301" lon="-2.57682">
        <ele>96.1</ele>
        <time>2016-03-25T11:51:10Z</time>
      </trkpt>
      <trkpt lat="48.55299" lon="-2.57668">
        <ele>96.1</ele>
        <time>2016-03-25T11:51:12Z</time>
      </trkpt>
      <trkpt lat="48.55297" lon="-2.57654">
        <ele>96.1</ele>
        <time>2016-03-25T11:51:14Z</time>
      </trkpt>
      <trkpt lat="48.55295" lon="-2.57641">
        <ele>96.1</ele>
        <time>2016-03-25T11:51:16Z</time>
      </trkpt>
      <trkpt lat="48.55294" lon="-2.57625">
        <ele>96.1</ele>
        <time>2016-03-25T11:51:18Z</time>
      </trkpt>
      <trkpt lat="48.55293" lon="-2.57609">
        <ele>96.1</ele>
        <time>2016-03-25T11:51:20Z</time>
      </trkpt>
      <trkpt lat="48.55292" lon="-2.57592">
        <ele>96</ele>
        <time>2016-03-25T11:51:22Z</time>
      </trkpt>
      <trkpt lat="48.55293" lon="-2.57576">
        <ele>96</ele>
        <time>2016-03-25T11:51:24Z</time>
      </trkpt>
      <trkpt lat="48.55292" lon="-2.57561">
        <ele>95.9</ele>
        <time>2016-03-25T11:51:26Z</time>
      </trkpt>
      <trkpt lat="48.55292" lon="-2.57545">
        <ele>95.8</ele>
        <time>2016-03-25T11:51:28Z</time>
      </trkpt>
      <trkpt lat="48.55292" lon="-2.57529">
        <ele>95.8</ele>
        <time>2016-03-25T11:51:30Z</time>
      </trkpt>
      <trkpt lat="48.55292" lon="-2.57515">
        <ele>95.7</ele>
        <time>2016-03-25T11:51:32Z</time>
      </trkpt>
      <trkpt lat="48.55292" lon="-2.575">
        <ele>95.7</ele>
        <time>2016-03-25T11:51:34Z</time>
      </trkpt>
      <trkpt lat="48.55292" lon="-2.57484">
        <ele>95.7</ele>
        <time>2016-03-25T11:51:36Z</time>
      </trkpt>
      <trkpt lat="48.55292" lon="-2.57468">
        <ele>95.6</ele>
        <time>2016-03-25T11:51:38Z</time>
      </trkpt>
      <trkpt lat="48.55291" lon="-2.57452">
        <ele>95.6</ele>
        <time>2016-03-25T11:51:40Z</time>
      </trkpt>
      <trkpt lat="48.5529" lon="-2.57435">
        <ele>95.6</ele>
        <time>2016-03-25T11:51:42Z</time>
      </trkpt>
      <trkpt lat="48.55289" lon="-2.57417">
        <ele>95.5</ele>
        <time>2016-03-25T11:51:44Z</time>
      </trkpt>
      <trkpt lat="48.55287" lon="-2.57401">
        <ele>95.5</ele>
        <time>2016-03-25T11:51:46Z</time>
      </trkpt>
      <trkpt lat="48.55284" lon="-2.57384">
        <ele>95.3</ele>
        <time>2016-03-25T11:51:48Z</time>
      </trkpt>
      <trkpt lat="48.55282" lon="-2.57368">
        <ele>95.1</ele>
        <time>2016-03-25T11:51:50Z</time>
      </trkpt>
      <trkpt lat="48.5528" lon="-2.57353">
        <ele>94.9</ele>
        <time>2016-03-25T11:51:52Z</time>
      </trkpt>
      <trkpt lat="48.55275" lon="-2.5734">
        <ele>94.7</ele>
        <time>2016-03-25T11:51:54Z</time>
      </trkpt>
      <trkpt lat="48.55265" lon="-2.57335">
        <ele>94.6</ele>
        <time>2016-03-25T11:51:56Z</time>
      </trkpt>
      <trkpt lat="48.55255" lon="-2.57333">
        <ele>94.5</ele>
        <time>2016-03-25T11:51:58Z</time>
      </trkpt>
      <trkpt lat="48.55244" lon="-2.57331">
        <ele>94.4</ele>
        <time>2016-03-25T11:52:00Z</time>
      </trkpt>
      <trkpt lat="48.55234" lon="-2.57328">
        <ele>94.3</ele>
        <time>2016-03-25T11:52:02Z</time>
      </trkpt>
      <trkpt lat="48.55224" lon="-2.57325">
        <ele>94.2</ele>
        <time>2016-03-25T11:52:04Z</time>
      </trkpt>
      <trkpt lat="48.55214" lon="-2.57322">
        <ele>94.1</ele>
        <time>2016-03-25T11:52:06Z</time>
      </trkpt>
      <trkpt lat="48.55203" lon="-2.57319">
        <ele>94.1</ele>
        <time>2016-03-25T11:52:08Z</time>
      </trkpt>
      <trkpt lat="48.55193" lon="-2.57316">
        <ele>94</ele>
        <time>2016-03-25T11:52:10Z</time>
      </trkpt>
      <trkpt lat="48.55182" lon="-2.57313">
        <ele>94</ele>
        <time>2016-03-25T11:52:12Z</time>
      </trkpt>
      <trkpt lat="48.55172" lon="-2.5731">
        <ele>94</ele>
        <time>2016-03-25T11:52:14Z</time>
      </trkpt>
      <trkpt lat="48.5516" lon="-2.57307">
        <ele>93.9</ele>
        <time>2016-03-25T11:52:16Z</time>
      </trkpt>
      <trkpt lat="48.55149" lon="-2.57305">
        <ele>93.9</ele>
        <time>2016-03-25T11:52:18Z</time>
      </trkpt>
      <trkpt lat="48.55138" lon="-2.57303">
        <ele>93.9</ele>
        <time>2016-03-25T11:52:20Z</time>
      </trkpt>
      <trkpt lat="48.55126" lon="-2.57302">
        <ele>93.9</ele>
        <time>2016-03-25T11:52:22Z</time>
      </trkpt>
      <trkpt lat="48.55115" lon="-2.57303">
        <ele>93.8</ele>
        <time>2016-03-25T11:52:24Z</time>
      </trkpt>
      <trkpt lat="48.55103" lon="-2.57303">
        <ele>93.8</ele>
        <time>2016-03-25T11:52:26Z</time>
      </trkpt>
      <trkpt lat="48.5509" lon="-2.57304">
        <ele>93.7</ele>
        <time>2016-03-25T11:52:28Z</time>
      </trkpt>
      <trkpt lat="48.55078" lon="-2.57306">
        <ele>93.7</ele>
        <time>2016-03-25T11:52:30Z</time>
      </trkpt>
      <trkpt lat="48.55065" lon="-2.57307">
        <ele>93.6</ele>
        <time>2016-03-25T11:52:32Z</time>
      </trkpt>
      <trkpt lat="48.55052" lon="-2.57309">
        <ele>93.5</ele>
        <time>2016-03-25T11:52:34Z</time>
      </trkpt>
      <trkpt lat="48.5504" lon="-2.5731">
        <ele>93.5</ele>
        <time>2016-03-25T11:52:36Z</time>
      </trkpt>
      <trkpt lat="48.55028" lon="-2.57309">
        <ele>93.4</ele>
        <time>2016-03-25T11:52:38Z</time>
      </trkpt>
      <trkpt lat="48.55016" lon="-2.57304">
        <ele>93.4</ele>
        <time>2016-03-25T11:52:40Z</time>
      </trkpt>
      <trkpt lat="48.55006" lon="-2.57297">
        <ele>93.3</ele>
        <time>2016-03-25T11:52:42Z</time>
      </trkpt>
      <trkpt lat="48.54996" lon="-2.57287">
        <ele>93.3</ele>
        <time>2016-03-25T11:52:44Z</time>
      </trkpt>
      <trkpt lat="48.54987" lon="-2.57277">
        <ele>93.3</ele>
        <time>2016-03-25T11:52:46Z</time>
      </trkpt>
      <trkpt lat="48.54978" lon="-2.57268">
        <ele>93.3</ele>
        <time>2016-03-25T11:52:48Z</time>
      </trkpt>
      <trkpt lat="48.5497" lon="-2.57259">
        <ele>93.3</ele>
        <time>2016-03-25T11:52:50Z</time>
      </trkpt>
      <trkpt lat="48.54961" lon="-2.57249">
        <ele>93.4</ele>
        <time>2016-03-25T11:52:52Z</time>
      </trkpt>
      <trkpt lat="48.54952" lon="-2.57239">
        <ele>93.5</ele>
        <time>2016-03-25T11:52:54Z</time>
      </trkpt>
      <trkpt lat="48.54944" lon="-2.5723">
        <ele>93.7</ele>
        <time>2016-03-25T11:52:56Z</time>
      </trkpt>
      <trkpt lat="48.54936" lon="-2.57221">
        <ele>93.8</ele>
        <time>2016-03-25T11:52:58Z</time>
      </trkpt>
      <trkpt lat="48.54928" lon="-2.57211">
        <ele>93.9</ele>
        <time>2016-03-25T11:53:00Z</time>
      </trkpt>
      <trkpt lat="48.54919" lon="-2.57201">
        <ele>94</ele>
        <time>2016-03-25T11:53:02Z</time>
      </trkpt>
      <trkpt lat="48.54912" lon="-2.57191">
        <ele>94.1</ele>
        <time>2016-03-25T11:53:04Z</time>
      </trkpt>
      <trkpt lat="48.54904" lon="-2.57182">
        <ele>94.3</ele>
        <time>2016-03-25T11:53:06Z</time>
      </trkpt>
      <trkpt lat="48.54898" lon="-2.57171">
        <ele>94.4</ele>
        <time>2016-03-25T11:53:08Z</time>
      </trkpt>
      <trkpt lat="48.54901" lon="-2.57152">
        <ele>94.6</ele>
        <time>2016-03-25T11:53:11Z</time>
      </trkpt>
      <trkpt lat="48.54907" lon="-2.57135">
        <ele>94.3</ele>
        <time>2016-03-25T11:53:14Z</time>
      </trkpt>
      <trkpt lat="48.54912" lon="-2.57123">
        <ele>94.1</ele>
        <time>2016-03-25T11:53:16Z</time>
      </trkpt>
      <trkpt lat="48.54918" lon="-2.5711">
        <ele>94.3</ele>
        <time>2016-03-25T11:53:18Z</time>
      </trkpt>
      <trkpt lat="48.54924" lon="-2.57098">
        <ele>94.5</ele>
        <time>2016-03-25T11:53:20Z</time>
      </trkpt>
      <trkpt lat="48.54931" lon="-2.57086">
        <ele>94.7</ele>
        <time>2016-03-25T11:53:22Z</time>
      </trkpt>
      <trkpt lat="48.54938" lon="-2.57074">
        <ele>94.8</ele>
        <time>2016-03-25T11:53:24Z</time>
      </trkpt>
      <trkpt lat="48.54946" lon="-2.57062">
        <ele>94.9</ele>
        <time>2016-03-25T11:53:26Z</time>
      </trkpt>
      <trkpt lat="48.54954" lon="-2.5705">
        <ele>95.1</ele>
        <time>2016-03-25T11:53:28Z</time>
      </trkpt>
      <trkpt lat="48.54961" lon="-2.57036">
        <ele>95.1</ele>
        <time>2016-03-25T11:53:30Z</time>
      </trkpt>
      <trkpt lat="48.54969" lon="-2.57023">
        <ele>95.2</ele>
        <time>2016-03-25T11:53:32Z</time>
      </trkpt>
      <trkpt lat="48.54976" lon="-2.57009">
        <ele>95.2</ele>
        <time>2016-03-25T11:53:34Z</time>
      </trkpt>
      <trkpt lat="48.54983" lon="-2.56994">
        <ele>95.2</ele>
        <time>2016-03-25T11:53:36Z</time>
      </trkpt>
      <trkpt lat="48.54989" lon="-2.5698">
        <ele>95.2</ele>
        <time>2016-03-25T11:53:38Z</time>
      </trkpt>
      <trkpt lat="48.54996" lon="-2.56966">
        <ele>95.2</ele>
        <time>2016-03-25T11:53:40Z</time>
      </trkpt>
      <trkpt lat="48.55002" lon="-2.56951">
        <ele>95.2</ele>
        <time>2016-03-25T11:53:42Z</time>
      </trkpt>
      <trkpt lat="48.55008" lon="-2.56937">
        <ele>95.1</ele>
        <time>2016-03-25T11:53:44Z</time>
      </trkpt>
      <trkpt lat="48.55015" lon="-2.56922">
        <ele>94.9</ele>
        <time>2016-03-25T11:53:46Z</time>
      </trkpt>
      <trkpt lat="48.55021" lon="-2.56908">
        <ele>94.8</ele>
        <time>2016-03-25T11:53:48Z</time>
      </trkpt>
      <trkpt lat="48.55027" lon="-2.56893">
        <ele>94.7</ele>
        <time>2016-03-25T11:53:50Z</time>
      </trkpt>
      <trkpt lat="48.55033" lon="-2.56879">
        <ele>94.6</ele>
        <time>2016-03-25T11:53:52Z</time>
      </trkpt>
      <trkpt lat="48.55039" lon="-2.56864">
        <ele>94.6</ele>
        <time>2016-03-25T11:53:54Z</time>
      </trkpt>
      <trkpt lat="48.55045" lon="-2.56849">
        <ele>94.5</ele>
        <time>2016-03-25T11:53:56Z</time>
      </trkpt>
      <trkpt lat="48.55051" lon="-2.56834">
        <ele>94.4</ele>
        <time>2016-03-25T11:53:58Z</time>
      </trkpt>
      <trkpt lat="48.55058" lon="-2.5682">
        <ele>94.3</ele>
        <time>2016-03-25T11:54:00Z</time>
      </trkpt>
      <trkpt lat="48.55065" lon="-2.56806">
        <ele>94.2</ele>
        <time>2016-03-25T11:54:02Z</time>
      </trkpt>
      <trkpt lat="48.55074" lon="-2.56795">
        <ele>94.1</ele>
        <time>2016-03-25T11:54:04Z</time>
      </trkpt>
      <trkpt lat="48.55084" lon="-2.56786">
        <ele>94</ele>
        <time>2016-03-25T11:54:06Z</time>
      </trkpt>
      <trkpt lat="48.55094" lon="-2.56778">
        <ele>93.9</ele>
        <time>2016-03-25T11:54:08Z</time>
      </trkpt>
      <trkpt lat="48.55104" lon="-2.56771">
        <ele>93.8</ele>
        <time>2016-03-25T11:54:10Z</time>
      </trkpt>
      <trkpt lat="48.55113" lon="-2.56764">
        <ele>93.5</ele>
        <time>2016-03-25T11:54:12Z</time>
      </trkpt>
      <trkpt lat="48.55123" lon="-2.56757">
        <ele>93.3</ele>
        <time>2016-03-25T11:54:14Z</time>
      </trkpt>
      <trkpt lat="48.55133" lon="-2.5675">
        <ele>93.1</ele>
        <time>2016-03-25T11:54:16Z</time>
      </trkpt>
      <trkpt lat="48.55143" lon="-2.56743">
        <ele>92.9</ele>
        <time>2016-03-25T11:54:18Z</time>
      </trkpt>
      <trkpt lat="48.55152" lon="-2.56735">
        <ele>92.8</ele>
        <time>2016-03-25T11:54:20Z</time>
      </trkpt>
      <trkpt lat="48.55159" lon="-2.56724">
        <ele>92.5</ele>
        <time>2016-03-25T11:54:22Z</time>
      </trkpt>
      <trkpt lat="48.55165" lon="-2.5671">
        <ele>92.4</ele>
        <time>2016-03-25T11:54:24Z</time>
      </trkpt>
      <trkpt lat="48.55171" lon="-2.56698">
        <ele>92.2</ele>
        <time>2016-03-25T11:54:26Z</time>
      </trkpt>
      <trkpt lat="48.55179" lon="-2.56688">
        <ele>92.1</ele>
        <time>2016-03-25T11:54:28Z</time>
      </trkpt>
      <trkpt lat="48.55188" lon="-2.56683">
        <ele>92</ele>
        <time>2016-03-25T11:54:30Z</time>
      </trkpt>
      <trkpt lat="48.55198" lon="-2.56682">
        <ele>92</ele>
        <time>2016-03-25T11:54:32Z</time>
      </trkpt>
      <trkpt lat="48.55208" lon="-2.56683">
        <ele>92</ele>
        <time>2016-03-25T11:54:34Z</time>
      </trkpt>
      <trkpt lat="48.55218" lon="-2.56684">
        <ele>92</ele>
        <time>2016-03-25T11:54:36Z</time>
      </trkpt>
      <trkpt lat="48.55229" lon="-2.56686">
        <ele>91.8</ele>
        <time>2016-03-25T11:54:38Z</time>
      </trkpt>
      <trkpt lat="48.55241" lon="-2.56687">
        <ele>91.6</ele>
        <time>2016-03-25T11:54:40Z</time>
      </trkpt>
      <trkpt lat="48.55248" lon="-2.56678">
        <ele>91.3</ele>
        <time>2016-03-25T11:54:42Z</time>
      </trkpt>
      <trkpt lat="48.55252" lon="-2.56663">
        <ele>91.1</ele>
        <time>2016-03-25T11:54:44Z</time>
      </trkpt>
      <trkpt lat="48.55254" lon="-2.56647">
        <ele>90.8</ele>
        <time>2016-03-25T11:54:46Z</time>
      </trkpt>
      <trkpt lat="48.55255" lon="-2.56632">
        <ele>90.6</ele>
        <time>2016-03-25T11:54:48Z</time>
      </trkpt>
      <trkpt lat="48.55253" lon="-2.56619">
        <ele>90.5</ele>
        <time>2016-03-25T11:54:50Z</time>
      </trkpt>
      <trkpt lat="48.55247" lon="-2.566">
        <ele>90.5</ele>
        <time>2016-03-25T11:54:53Z</time>
      </trkpt>
      <trkpt lat="48.55243" lon="-2.56587">
        <ele>90.5</ele>
        <time>2016-03-25T11:54:55Z</time>
      </trkpt>
      <trkpt lat="48.5524" lon="-2.56572">
        <ele>90.6</ele>
        <time>2016-03-25T11:54:57Z</time>
      </trkpt>
      <trkpt lat="48.55237" lon="-2.56558">
        <ele>90.6</ele>
        <time>2016-03-25T11:54:59Z</time>
      </trkpt>
      <trkpt lat="48.55234" lon="-2.56545">
        <ele>90.8</ele>
        <time>2016-03-25T11:55:01Z</time>
      </trkpt>
      <trkpt lat="48.55231" lon="-2.56531">
        <ele>90.9</ele>
        <time>2016-03-25T11:55:03Z</time>
      </trkpt>
      <trkpt lat="48.55229" lon="-2.56517">
        <ele>91.1</ele>
        <time>2016-03-25T11:55:05Z</time>
      </trkpt>
      <trkpt lat="48.55227" lon="-2.56502">
        <ele>91.3</ele>
        <time>2016-03-25T11:55:07Z</time>
      </trkpt>
      <trkpt lat="48.55226" lon="-2.56487">
        <ele>91.6</ele>
        <time>2016-03-25T11:55:09Z</time>
      </trkpt>
      <trkpt lat="48.55225" lon="-2.56472">
        <ele>91.8</ele>
        <time>2016-03-25T11:55:11Z</time>
      </trkpt>
      <trkpt lat="48.55224" lon="-2.56457">
        <ele>91.9</ele>
        <time>2016-03-25T11:55:13Z</time>
      </trkpt>
      <trkpt lat="48.55225" lon="-2.56442">
        <ele>92.1</ele>
        <time>2016-03-25T11:55:15Z</time>
      </trkpt>
      <trkpt lat="48.55225" lon="-2.56427">
        <ele>92.3</ele>
        <time>2016-03-25T11:55:17Z</time>
      </trkpt>
      <trkpt lat="48.55227" lon="-2.56412">
        <ele>92.5</ele>
        <time>2016-03-25T11:55:19Z</time>
      </trkpt>
      <trkpt lat="48.55229" lon="-2.56396">
        <ele>92.6</ele>
        <time>2016-03-25T11:55:21Z</time>
      </trkpt>
      <trkpt lat="48.5523" lon="-2.5638">
        <ele>92.7</ele>
        <time>2016-03-25T11:55:23Z</time>
      </trkpt>
      <trkpt lat="48.5523" lon="-2.56364">
        <ele>92.8</ele>
        <time>2016-03-25T11:55:25Z</time>
      </trkpt>
      <trkpt lat="48.55229" lon="-2.56347">
        <ele>92.9</ele>
        <time>2016-03-25T11:55:27Z</time>
      </trkpt>
      <trkpt lat="48.55229" lon="-2.56331">
        <ele>93</ele>
        <time>2016-03-25T11:55:29Z</time>
      </trkpt>
      <trkpt lat="48.55227" lon="-2.56314">
        <ele>93.1</ele>
        <time>2016-03-25T11:55:31Z</time>
      </trkpt>
      <trkpt lat="48.55224" lon="-2.56298">
        <ele>93.1</ele>
        <time>2016-03-25T11:55:33Z</time>
      </trkpt>
      <trkpt lat="48.55222" lon="-2.56283">
        <ele>93.2</ele>
        <time>2016-03-25T11:55:35Z</time>
      </trkpt>
      <trkpt lat="48.55218" lon="-2.56268">
        <ele>93.2</ele>
        <time>2016-03-25T11:55:37Z</time>
      </trkpt>
      <trkpt lat="48.55214" lon="-2.56253">
        <ele>93.3</ele>
        <time>2016-03-25T11:55:39Z</time>
      </trkpt>
      <trkpt lat="48.55209" lon="-2.56238">
        <ele>93.2</ele>
        <time>2016-03-25T11:55:41Z</time>
      </trkpt>
      <trkpt lat="48.55204" lon="-2.56223">
        <ele>93.2</ele>
        <time>2016-03-25T11:55:43Z</time>
      </trkpt>
      <trkpt lat="48.55201" lon="-2.56208">
        <ele>93.2</ele>
        <time>2016-03-25T11:55:45Z</time>
      </trkpt>
      <trkpt lat="48.55196" lon="-2.56192">
        <ele>93.1</ele>
        <time>2016-03-25T11:55:47Z</time>
      </trkpt>
      <trkpt lat="48.55191" lon="-2.56177">
        <ele>93</ele>
        <time>2016-03-25T11:55:49Z</time>
      </trkpt>
      <trkpt lat="48.55185" lon="-2.56162">
        <ele>93</ele>
        <time>2016-03-25T11:55:51Z</time>
      </trkpt>
      <trkpt lat="48.55179" lon="-2.56148">
        <ele>92.8</ele>
        <time>2016-03-25T11:55:53Z</time>
      </trkpt>
      <trkpt lat="48.55173" lon="-2.56134">
        <ele>92.7</ele>
        <time>2016-03-25T11:55:55Z</time>
      </trkpt>
      <trkpt lat="48.55167" lon="-2.56121">
        <ele>92.6</ele>
        <time>2016-03-25T11:55:57Z</time>
      </trkpt>
      <trkpt lat="48.55161" lon="-2.56107">
        <ele>92.5</ele>
        <time>2016-03-25T11:55:59Z</time>
      </trkpt>
      <trkpt lat="48.55156" lon="-2.56094">
        <ele>92.4</ele>
        <time>2016-03-25T11:56:01Z</time>
      </trkpt>
      <trkpt lat="48.55152" lon="-2.56081">
        <ele>92.4</ele>
        <time>2016-03-25T11:56:03Z</time>
      </trkpt>
      <trkpt lat="48.55149" lon="-2.56067">
        <ele>92.4</ele>
        <time>2016-03-25T11:56:05Z</time>
      </trkpt>
      <trkpt lat="48.55151" lon="-2.56047">
        <ele>92.5</ele>
        <time>2016-03-25T11:56:08Z</time>
      </trkpt>
      <trkpt lat="48.55156" lon="-2.56036">
        <ele>92.6</ele>
        <time>2016-03-25T11:56:10Z</time>
      </trkpt>
      <trkpt lat="48.55161" lon="-2.56025">
        <ele>92.8</ele>
        <time>2016-03-25T11:56:12Z</time>
      </trkpt>
      <trkpt lat="48.55167" lon="-2.56013">
        <ele>92.9</ele>
        <time>2016-03-25T11:56:14Z</time>
      </trkpt>
      <trkpt lat="48.55172" lon="-2.56001">
        <ele>93</ele>
        <time>2016-03-25T11:56:16Z</time>
      </trkpt>
      <trkpt lat="48.55177" lon="-2.55988">
        <ele>93.2</ele>
        <time>2016-03-25T11:56:18Z</time>
      </trkpt>
      <trkpt lat="48.55182" lon="-2.55975">
        <ele>93.4</ele>
        <time>2016-03-25T11:56:20Z</time>
      </trkpt>
      <trkpt lat="48.55188" lon="-2.55959">
        <ele>93.7</ele>
        <time>2016-03-25T11:56:23Z</time>
      </trkpt>
      <trkpt lat="48.55193" lon="-2.55945">
        <ele>93.9</ele>
        <time>2016-03-25T11:56:26Z</time>
      </trkpt>
      <trkpt lat="48.55186" lon="-2.55958">
        <ele>94.6</ele>
        <time>2016-03-25T11:56:37Z</time>
      </trkpt>
      <trkpt lat="48.55181" lon="-2.55974">
        <ele>94.7</ele>
        <time>2016-03-25T11:56:41Z</time>
      </trkpt>
      <trkpt lat="48.55176" lon="-2.55989">
        <ele>94.8</ele>
        <time>2016-03-25T11:56:44Z</time>
      </trkpt>
      <trkpt lat="48.55168" lon="-2.56004">
        <ele>94.9</ele>
        <time>2016-03-25T11:56:47Z</time>
      </trkpt>
      <trkpt lat="48.55163" lon="-2.56015">
        <ele>94.9</ele>
        <time>2016-03-25T11:56:49Z</time>
      </trkpt>
      <trkpt lat="48.55157" lon="-2.56027">
        <ele>95</ele>
        <time>2016-03-25T11:56:51Z</time>
      </trkpt>
      <trkpt lat="48.5515" lon="-2.5604">
        <ele>95</ele>
        <time>2016-03-25T11:56:53Z</time>
      </trkpt>
      <trkpt lat="48.55143" lon="-2.56054">
        <ele>95</ele>
        <time>2016-03-25T11:56:55Z</time>
      </trkpt>
      <trkpt lat="48.55136" lon="-2.56067">
        <ele>95.1</ele>
        <time>2016-03-25T11:56:57Z</time>
      </trkpt>
      <trkpt lat="48.55129" lon="-2.5608">
        <ele>95.1</ele>
        <time>2016-03-25T11:56:59Z</time>
      </trkpt>
      <trkpt lat="48.55122" lon="-2.56092">
        <ele>95.1</ele>
        <time>2016-03-25T11:57:01Z</time>
      </trkpt>
      <trkpt lat="48.55115" lon="-2.56105">
        <ele>95.1</ele>
        <time>2016-03-25T11:57:03Z</time>
      </trkpt>
      <trkpt lat="48.55109" lon="-2.56118">
        <ele>95.1</ele>
        <time>2016-03-25T11:57:05Z</time>
      </trkpt>
      <trkpt lat="48.55102" lon="-2.5613">
        <ele>95</ele>
        <time>2016-03-25T11:57:07Z</time>
      </trkpt>
      <trkpt lat="48.55095" lon="-2.56143">
        <ele>95</ele>
        <time>2016-03-25T11:57:09Z</time>
      </trkpt>
      <trkpt lat="48.55088" lon="-2.56157">
        <ele>95</ele>
        <time>2016-03-25T11:57:11Z</time>
      </trkpt>
      <trkpt lat="48.55081" lon="-2.56169">
        <ele>94.9</ele>
        <time>2016-03-25T11:57:13Z</time>
      </trkpt>
      <trkpt lat="48.55075" lon="-2.56182">
        <ele>94.9</ele>
        <time>2016-03-25T11:57:15Z</time>
      </trkpt>
      <trkpt lat="48.55067" lon="-2.56193">
        <ele>94.9</ele>
        <time>2016-03-25T11:57:17Z</time>
      </trkpt>
      <trkpt lat="48.5506" lon="-2.56206">
        <ele>94.9</ele>
        <time>2016-03-25T11:57:19Z</time>
      </trkpt>
      <trkpt lat="48.55053" lon="-2.56218">
        <ele>94.9</ele>
        <time>2016-03-25T11:57:21Z</time>
      </trkpt>
      <trkpt lat="48.55046" lon="-2.56231">
        <ele>94.9</ele>
        <time>2016-03-25T11:57:23Z</time>
      </trkpt>
      <trkpt lat="48.55039" lon="-2.56244">
        <ele>95</ele>
        <time>2016-03-25T11:57:25Z</time>
      </trkpt>
      <trkpt lat="48.55033" lon="-2.56256">
        <ele>95.1</ele>
        <time>2016-03-25T11:57:27Z</time>
      </trkpt>
      <trkpt lat="48.55026" lon="-2.56269">
        <ele>95.2</ele>
        <time>2016-03-25T11:57:29Z</time>
      </trkpt>
      <trkpt lat="48.55019" lon="-2.56282">
        <ele>95.4</ele>
        <time>2016-03-25T11:57:31Z</time>
      </trkpt>
      <trkpt lat="48.55012" lon="-2.56294">
        <ele>95.6</ele>
        <time>2016-03-25T11:57:33Z</time>
      </trkpt>
      <trkpt lat="48.55005" lon="-2.56307">
        <ele>95.7</ele>
        <time>2016-03-25T11:57:35Z</time>
      </trkpt>
      <trkpt lat="48.54998" lon="-2.5632">
        <ele>95.8</ele>
        <time>2016-03-25T11:57:37Z</time>
      </trkpt>
      <trkpt lat="48.54991" lon="-2.56332">
        <ele>95.9</ele>
        <time>2016-03-25T11:57:39Z</time>
      </trkpt>
      <trkpt lat="48.54984" lon="-2.56344">
        <ele>96</ele>
        <time>2016-03-25T11:57:41Z</time>
      </trkpt>
      <trkpt lat="48.54977" lon="-2.56356">
        <ele>96.1</ele>
        <time>2016-03-25T11:57:43Z</time>
      </trkpt>
      <trkpt lat="48.5497" lon="-2.56368">
        <ele>96.2</ele>
        <time>2016-03-25T11:57:45Z</time>
      </trkpt>
      <trkpt lat="48.54963" lon="-2.5638">
        <ele>96.3</ele>
        <time>2016-03-25T11:57:47Z</time>
      </trkpt>
      <trkpt lat="48.54956" lon="-2.56392">
        <ele>96.4</ele>
        <time>2016-03-25T11:57:49Z</time>
      </trkpt>
      <trkpt lat="48.54949" lon="-2.56404">
        <ele>96.5</ele>
        <time>2016-03-25T11:57:51Z</time>
      </trkpt>
      <trkpt lat="48.54943" lon="-2.56417">
        <ele>96.6</ele>
        <time>2016-03-25T11:57:53Z</time>
      </trkpt>
      <trkpt lat="48.54936" lon="-2.56431">
        <ele>96.7</ele>
        <time>2016-03-25T11:57:55Z</time>
      </trkpt>
      <trkpt lat="48.54929" lon="-2.56445">
        <ele>96.9</ele>
        <time>2016-03-25T11:57:57Z</time>
      </trkpt>
      <trkpt lat="48.54923" lon="-2.56458">
        <ele>97.1</ele>
        <time>2016-03-25T11:57:59Z</time>
      </trkpt>
      <trkpt lat="48.54917" lon="-2.56472">
        <ele>97.2</ele>
        <time>2016-03-25T11:58:01Z</time>
      </trkpt>
      <trkpt lat="48.54911" lon="-2.56486">
        <ele>97.4</ele>
        <time>2016-03-25T11:58:03Z</time>
      </trkpt>
      <trkpt lat="48.54905" lon="-2.56498">
        <ele>97.5</ele>
        <time>2016-03-25T11:58:05Z</time>
      </trkpt>
      <trkpt lat="48.54899" lon="-2.56511">
        <ele>97.6</ele>
        <time>2016-03-25T11:58:07Z</time>
      </trkpt>
      <trkpt lat="48.54892" lon="-2.56523">
        <ele>97.7</ele>
        <time>2016-03-25T11:58:09Z</time>
      </trkpt>
      <trkpt lat="48.54884" lon="-2.56532">
        <ele>97.8</ele>
        <time>2016-03-25T11:58:11Z</time>
      </trkpt>
      <trkpt lat="48.54874" lon="-2.56539">
        <ele>97.8</ele>
        <time>2016-03-25T11:58:13Z</time>
      </trkpt>
      <trkpt lat="48.54865" lon="-2.56545">
        <ele>97.9</ele>
        <time>2016-03-25T11:58:15Z</time>
      </trkpt>
      <trkpt lat="48.54855" lon="-2.56551">
        <ele>98</ele>
        <time>2016-03-25T11:58:17Z</time>
      </trkpt>
      <trkpt lat="48.54846" lon="-2.56557">
        <ele>98</ele>
        <time>2016-03-25T11:58:19Z</time>
      </trkpt>
      <trkpt lat="48.54836" lon="-2.56562">
        <ele>98.1</ele>
        <time>2016-03-25T11:58:21Z</time>
      </trkpt>
      <trkpt lat="48.54827" lon="-2.56568">
        <ele>98.1</ele>
        <time>2016-03-25T11:58:23Z</time>
      </trkpt>
      <trkpt lat="48.54818" lon="-2.56573">
        <ele>98.3</ele>
        <time>2016-03-25T11:58:25Z</time>
      </trkpt>
      <trkpt lat="48.54809" lon="-2.56578">
        <ele>98.3</ele>
        <time>2016-03-25T11:58:27Z</time>
      </trkpt>
      <trkpt lat="48.548" lon="-2.56582">
        <ele>98.5</ele>
        <time>2016-03-25T11:58:29Z</time>
      </trkpt>
      <trkpt lat="48.54787" lon="-2.56587">
        <ele>98.7</ele>
        <time>2016-03-25T11:58:32Z</time>
      </trkpt>
      <trkpt lat="48.54777" lon="-2.56591">
        <ele>98.8</ele>
        <time>2016-03-25T11:58:35Z</time>
      </trkpt>
      <trkpt lat="48.54767" lon="-2.56596">
        <ele>99</ele>
        <time>2016-03-25T11:58:38Z</time>
      </trkpt>
      <trkpt lat="48.54756" lon="-2.566">
        <ele>99.1</ele>
        <time>2016-03-25T11:58:41Z</time>
      </trkpt>
      <trkpt lat="48.54744" lon="-2.56605">
        <ele>99.3</ele>
        <time>2016-03-25T11:58:44Z</time>
      </trkpt>
      <trkpt lat="48.54734" lon="-2.56609">
        <ele>99.4</ele>
        <time>2016-03-25T11:58:46Z</time>
      </trkpt>
      <trkpt lat="48.54725" lon="-2.56612">
        <ele>99.4</ele>
        <time>2016-03-25T11:58:48Z</time>
      </trkpt>
      <trkpt lat="48.54715" lon="-2.56615">
        <ele>99.6</ele>
        <time>2016-03-25T11:58:50Z</time>
      </trkpt>
      <trkpt lat="48.54705" lon="-2.56619">
        <ele>99.8</ele>
        <time>2016-03-25T11:58:52Z</time>
      </trkpt>
      <trkpt lat="48.54696" lon="-2.56622">
        <ele>99.9</ele>
        <time>2016-03-25T11:58:54Z</time>
      </trkpt>
      <trkpt lat="48.54686" lon="-2.56626">
        <ele>100</ele>
        <time>2016-03-25T11:58:56Z</time>
      </trkpt>
      <trkpt lat="48.54677" lon="-2.56631">
        <ele>100.1</ele>
        <time>2016-03-25T11:58:58Z</time>
      </trkpt>
      <trkpt lat="48.54667" lon="-2.56635">
        <ele>100.2</ele>
        <time>2016-03-25T11:59:00Z</time>
      </trkpt>
      <trkpt lat="48.54658" lon="-2.56639">
        <ele>100.4</ele>
        <time>2016-03-25T11:59:02Z</time>
      </trkpt>
      <trkpt lat="48.54649" lon="-2.56643">
        <ele>100.6</ele>
        <time>2016-03-25T11:59:04Z</time>
      </trkpt>
      <trkpt lat="48.54639" lon="-2.56647">
        <ele>100.8</ele>
        <time>2016-03-25T11:59:06Z</time>
      </trkpt>
      <trkpt lat="48.5463" lon="-2.56651">
        <ele>101</ele>
        <time>2016-03-25T11:59:08Z</time>
      </trkpt>
      <trkpt lat="48.54621" lon="-2.56655">
        <ele>101.2</ele>
        <time>2016-03-25T11:59:10Z</time>
      </trkpt>
      <trkpt lat="48.54612" lon="-2.5666">
        <ele>101.4</ele>
        <time>2016-03-25T11:59:12Z</time>
      </trkpt>
      <trkpt lat="48.54602" lon="-2.56665">
        <ele>101.5</ele>
        <time>2016-03-25T11:59:14Z</time>
      </trkpt>
      <trkpt lat="48.54592" lon="-2.5667">
        <ele>101.7</ele>
        <time>2016-03-25T11:59:16Z</time>
      </trkpt>
      <trkpt lat="48.54583" lon="-2.56677">
        <ele>101.8</ele>
        <time>2016-03-25T11:59:18Z</time>
      </trkpt>
      <trkpt lat="48.54575" lon="-2.56687">
        <ele>101.9</ele>
        <time>2016-03-25T11:59:20Z</time>
      </trkpt>
      <trkpt lat="48.54568" lon="-2.56699">
        <ele>102</ele>
        <time>2016-03-25T11:59:22Z</time>
      </trkpt>
      <trkpt lat="48.5456" lon="-2.56711">
        <ele>102.1</ele>
        <time>2016-03-25T11:59:24Z</time>
      </trkpt>
      <trkpt lat="48.54554" lon="-2.56724">
        <ele>102.1</ele>
        <time>2016-03-25T11:59:26Z</time>
      </trkpt>
      <trkpt lat="48.54547" lon="-2.56737">
        <ele>102.3</ele>
        <time>2016-03-25T11:59:28Z</time>
      </trkpt>
      <trkpt lat="48.54541" lon="-2.5675">
        <ele>102.4</ele>
        <time>2016-03-25T11:59:30Z</time>
      </trkpt>
      <trkpt lat="48.54534" lon="-2.56763">
        <ele>102.6</ele>
        <time>2016-03-25T11:59:32Z</time>
      </trkpt>
      <trkpt lat="48.54528" lon="-2.56776">
        <ele>102.8</ele>
        <time>2016-03-25T11:59:34Z</time>
      </trkpt>
      <trkpt lat="48.54522" lon="-2.56789">
        <ele>103</ele>
        <time>2016-03-25T11:59:36Z</time>
      </trkpt>
      <trkpt lat="48.54516" lon="-2.56803">
        <ele>103.2</ele>
        <time>2016-03-25T11:59:38Z</time>
      </trkpt>
      <trkpt lat="48.5451" lon="-2.56816">
        <ele>103.4</ele>
        <time>2016-03-25T11:59:40Z</time>
      </trkpt>
      <trkpt lat="48.54504" lon="-2.56829">
        <ele>103.5</ele>
        <time>2016-03-25T11:59:42Z</time>
      </trkpt>
      <trkpt lat="48.54498" lon="-2.56842">
        <ele>103.7</ele>
        <time>2016-03-25T11:59:44Z</time>
      </trkpt>
      <trkpt lat="48.54491" lon="-2.56854">
        <ele>103.8</ele>
        <time>2016-03-25T11:59:46Z</time>
      </trkpt>
      <trkpt lat="48.54483" lon="-2.56865">
        <ele>103.9</ele>
        <time>2016-03-25T11:59:48Z</time>
      </trkpt>
      <trkpt lat="48.54475" lon="-2.56877">
        <ele>104.1</ele>
        <time>2016-03-25T11:59:50Z</time>
      </trkpt>
      <trkpt lat="48.54468" lon="-2.56889">
        <ele>104.2</ele>
        <time>2016-03-25T11:59:52Z</time>
      </trkpt>
      <trkpt lat="48.54461" lon="-2.56902">
        <ele>104.4</ele>
        <time>2016-03-25T11:59:54Z</time>
      </trkpt>
      <trkpt lat="48.54454" lon="-2.56914">
        <ele>104.5</ele>
        <time>2016-03-25T11:59:56Z</time>
      </trkpt>
      <trkpt lat="48.54447" lon="-2.56926">
        <ele>104.7</ele>
        <time>2016-03-25T11:59:58Z</time>
      </trkpt>
      <trkpt lat="48.54439" lon="-2.56938">
        <ele>104.8</ele>
        <time>2016-03-25T12:00:00Z</time>
      </trkpt>
      <trkpt lat="48.54432" lon="-2.5695">
        <ele>105</ele>
        <time>2016-03-25T12:00:02Z</time>
      </trkpt>
      <trkpt lat="48.54425" lon="-2.56962">
        <ele>105.2</ele>
        <time>2016-03-25T12:00:04Z</time>
      </trkpt>
      <trkpt lat="48.54418" lon="-2.56974">
        <ele>105.3</ele>
        <time>2016-03-25T12:00:06Z</time>
      </trkpt>
      <trkpt lat="48.54411" lon="-2.56987">
        <ele>105.5</ele>
        <time>2016-03-25T12:00:08Z</time>
      </trkpt>
      <trkpt lat="48.54405" lon="-2.57001">
        <ele>105.7</ele>
        <time>2016-03-25T12:00:10Z</time>
      </trkpt>
      <trkpt lat="48.54399" lon="-2.57015">
        <ele>105.9</ele>
        <time>2016-03-25T12:00:12Z</time>
      </trkpt>
      <trkpt lat="48.54393" lon="-2.5703">
        <ele>106</ele>
        <time>2016-03-25T12:00:14Z</time>
      </trkpt>
      <trkpt lat="48.54388" lon="-2.57044">
        <ele>106.2</ele>
        <time>2016-03-25T12:00:16Z</time>
      </trkpt>
      <trkpt lat="48.54383" lon="-2.57059">
        <ele>106.3</ele>
        <time>2016-03-25T12:00:18Z</time>
      </trkpt>
      <trkpt lat="48.54378" lon="-2.57074">
        <ele>106.4</ele>
        <time>2016-03-25T12:00:20Z</time>
      </trkpt>
      <trkpt lat="48.54372" lon="-2.5709">
        <ele>106.4</ele>
        <time>2016-03-25T12:00:22Z</time>
      </trkpt>
      <trkpt lat="48.54365" lon="-2.57104">
        <ele>106.4</ele>
        <time>2016-03-25T12:00:24Z</time>
      </trkpt>
      <trkpt lat="48.54357" lon="-2.57118">
        <ele>106.2</ele>
        <time>2016-03-25T12:00:26Z</time>
      </trkpt>
      <trkpt lat="48.54348" lon="-2.57133">
        <ele>106.1</ele>
        <time>2016-03-25T12:00:28Z</time>
      </trkpt>
      <trkpt lat="48.54339" lon="-2.57147">
        <ele>105.9</ele>
        <time>2016-03-25T12:00:30Z</time>
      </trkpt>
      <trkpt lat="48.5433" lon="-2.57162">
        <ele>105.7</ele>
        <time>2016-03-25T12:00:32Z</time>
      </trkpt>
      <trkpt lat="48.54321" lon="-2.57176">
        <ele>105.4</ele>
        <time>2016-03-25T12:00:34Z</time>
      </trkpt>
      <trkpt lat="48.54313" lon="-2.57189">
        <ele>105.2</ele>
        <time>2016-03-25T12:00:36Z</time>
      </trkpt>
      <trkpt lat="48.54304" lon="-2.57202">
        <ele>105</ele>
        <time>2016-03-25T12:00:38Z</time>
      </trkpt>
      <trkpt lat="48.54296" lon="-2.57214">
        <ele>104.8</ele>
        <time>2016-03-25T12:00:40Z</time>
      </trkpt>
      <trkpt lat="48.54289" lon="-2.57224">
        <ele>104.7</ele>
        <time>2016-03-25T12:00:42Z</time>
      </trkpt>
      <trkpt lat="48.54277" lon="-2.57225">
        <ele>104.4</ele>
        <time>2016-03-25T12:00:45Z</time>
      </trkpt>
      <trkpt lat="48.54271" lon="-2.57214">
        <ele>104.3</ele>
        <time>2016-03-25T12:00:47Z</time>
      </trkpt>
      <trkpt lat="48.54264" lon="-2.57203">
        <ele>104.1</ele>
        <time>2016-03-25T12:00:49Z</time>
      </trkpt>
      <trkpt lat="48.54257" lon="-2.57193">
        <ele>104</ele>
        <time>2016-03-25T12:00:51Z</time>
      </trkpt>
      <trkpt lat="48.5425" lon="-2.57182">
        <ele>103.8</ele>
        <time>2016-03-25T12:00:54Z</time>
      </trkpt>
      <trkpt lat="48.54257" lon="-2.57196">
        <ele>103.5</ele>
        <time>2016-03-25T12:01:02Z</time>
      </trkpt>
      <trkpt lat="48.54267" lon="-2.5721">
        <ele>103.4</ele>
        <time>2016-03-25T12:01:05Z</time>
      </trkpt>
      <trkpt lat="48.54274" lon="-2.5722">
        <ele>103.3</ele>
        <time>2016-03-25T12:01:07Z</time>
      </trkpt>
      <trkpt lat="48.54281" lon="-2.5723">
        <ele>103.3</ele>
        <time>2016-03-25T12:01:09Z</time>
      </trkpt>
      <trkpt lat="48.54287" lon="-2.57241">
        <ele>103.2</ele>
        <time>2016-03-25T12:01:11Z</time>
      </trkpt>
      <trkpt lat="48.54293" lon="-2.57252">
        <ele>103.2</ele>
        <time>2016-03-25T12:01:13Z</time>
      </trkpt>
      <trkpt lat="48.543" lon="-2.57264">
        <ele>103.2</ele>
        <time>2016-03-25T12:01:15Z</time>
      </trkpt>
      <trkpt lat="48.54305" lon="-2.57278">
        <ele>103.1</ele>
        <time>2016-03-25T12:01:17Z</time>
      </trkpt>
      <trkpt lat="48.54311" lon="-2.57293">
        <ele>103.1</ele>
        <time>2016-03-25T12:01:19Z</time>
      </trkpt>
      <trkpt lat="48.54316" lon="-2.57308">
        <ele>103</ele>
        <time>2016-03-25T12:01:21Z</time>
      </trkpt>
      <trkpt lat="48.5432" lon="-2.57324">
        <ele>103</ele>
        <time>2016-03-25T12:01:23Z</time>
      </trkpt>
      <trkpt lat="48.54323" lon="-2.57339">
        <ele>103</ele>
        <time>2016-03-25T12:01:25Z</time>
      </trkpt>
      <trkpt lat="48.54327" lon="-2.57353">
        <ele>102.9</ele>
        <time>2016-03-25T12:01:27Z</time>
      </trkpt>
      <trkpt lat="48.5433" lon="-2.57367">
        <ele>102.8</ele>
        <time>2016-03-25T12:01:29Z</time>
      </trkpt>
      <trkpt lat="48.54335" lon="-2.57381">
        <ele>102.7</ele>
        <time>2016-03-25T12:01:31Z</time>
      </trkpt>
      <trkpt lat="48.5434" lon="-2.57394">
        <ele>102.6</ele>
        <time>2016-03-25T12:01:33Z</time>
      </trkpt>
      <trkpt lat="48.54345" lon="-2.57407">
        <ele>102.5</ele>
        <time>2016-03-25T12:01:35Z</time>
      </trkpt>
      <trkpt lat="48.54349" lon="-2.57419">
        <ele>102.3</ele>
        <time>2016-03-25T12:01:37Z</time>
      </trkpt>
      <trkpt lat="48.54354" lon="-2.57437">
        <ele>102</ele>
        <time>2016-03-25T12:01:40Z</time>
      </trkpt>
      <trkpt lat="48.54359" lon="-2.57455">
        <ele>101.8</ele>
        <time>2016-03-25T12:01:43Z</time>
      </trkpt>
      <trkpt lat="48.54363" lon="-2.57473">
        <ele>101.6</ele>
        <time>2016-03-25T12:01:46Z</time>
      </trkpt>
      <trkpt lat="48.54365" lon="-2.5749">
        <ele>101.5</ele>
        <time>2016-03-25T12:01:49Z</time>
      </trkpt>
      <trkpt lat="48.54364" lon="-2.57475">
        <ele>101.2</ele>
        <time>2016-03-25T12:01:57Z</time>
      </trkpt>
      <trkpt lat="48.54359" lon="-2.57459">
        <ele>101.1</ele>
        <time>2016-03-25T12:02:00Z</time>
      </trkpt>
      <trkpt lat="48.54356" lon="-2.57447">
        <ele>101.1</ele>
        <time>2016-03-25T12:02:02Z</time>
      </trkpt>
      <trkpt lat="48.54352" lon="-2.57434">
        <ele>101</ele>
        <time>2016-03-25T12:02:04Z</time>
      </trkpt>
      <trkpt lat="48.54347" lon="-2.5742">
        <ele>101</ele>
        <time>2016-03-25T12:02:06Z</time>
      </trkpt>
      <trkpt lat="48.54342" lon="-2.57407">
        <ele>100.9</ele>
        <time>2016-03-25T12:02:08Z</time>
      </trkpt>
      <trkpt lat="48.54337" lon="-2.57393">
        <ele>100.8</ele>
        <time>2016-03-25T12:02:10Z</time>
      </trkpt>
      <trkpt lat="48.54333" lon="-2.57378">
        <ele>100.8</ele>
        <time>2016-03-25T12:02:12Z</time>
      </trkpt>
      <trkpt lat="48.54329" lon="-2.57363">
        <ele>100.7</ele>
        <time>2016-03-25T12:02:14Z</time>
      </trkpt>
      <trkpt lat="48.54326" lon="-2.57348">
        <ele>100.7</ele>
        <time>2016-03-25T12:02:16Z</time>
      </trkpt>
      <trkpt lat="48.54322" lon="-2.57332">
        <ele>100.6</ele>
        <time>2016-03-25T12:02:18Z</time>
      </trkpt>
      <trkpt lat="48.54317" lon="-2.57317">
        <ele>100.7</ele>
        <time>2016-03-25T12:02:20Z</time>
      </trkpt>
      <trkpt lat="48.54313" lon="-2.57303">
        <ele>100.7</ele>
        <time>2016-03-25T12:02:22Z</time>
      </trkpt>
      <trkpt lat="48.54308" lon="-2.57288">
        <ele>100.7</ele>
        <time>2016-03-25T12:02:24Z</time>
      </trkpt>
      <trkpt lat="48.54302" lon="-2.57273">
        <ele>100.7</ele>
        <time>2016-03-25T12:02:26Z</time>
      </trkpt>
      <trkpt lat="48.54296" lon="-2.5726">
        <ele>100.8</ele>
        <time>2016-03-25T12:02:28Z</time>
      </trkpt>
      <trkpt lat="48.54289" lon="-2.57248">
        <ele>100.9</ele>
        <time>2016-03-25T12:02:30Z</time>
      </trkpt>
      <trkpt lat="48.54282" lon="-2.57236">
        <ele>100.9</ele>
        <time>2016-03-25T12:02:32Z</time>
      </trkpt>
      <trkpt lat="48.54274" lon="-2.57224">
        <ele>101</ele>
        <time>2016-03-25T12:02:34Z</time>
      </trkpt>
      <trkpt lat="48.54266" lon="-2.57211">
        <ele>101</ele>
        <time>2016-03-25T12:02:36Z</time>
      </trkpt>
      <trkpt lat="48.54257" lon="-2.57198">
        <ele>101.1</ele>
        <time>2016-03-25T12:02:38Z</time>
      </trkpt>
      <trkpt lat="48.54248" lon="-2.57185">
        <ele>101.1</ele>
        <time>2016-03-25T12:02:40Z</time>
      </trkpt>
      <trkpt lat="48.54239" lon="-2.57172">
        <ele>101.2</ele>
        <time>2016-03-25T12:02:42Z</time>
      </trkpt>
      <trkpt lat="48.5423" lon="-2.57158">
        <ele>101.3</ele>
        <time>2016-03-25T12:02:44Z</time>
      </trkpt>
      <trkpt lat="48.54222" lon="-2.57144">
        <ele>101.4</ele>
        <time>2016-03-25T12:02:46Z</time>
      </trkpt>
      <trkpt lat="48.54214" lon="-2.5713">
        <ele>101.5</ele>
        <time>2016-03-25T12:02:48Z</time>
      </trkpt>
      <trkpt lat="48.54205" lon="-2.57116">
        <ele>101.6</ele>
        <time>2016-03-25T12:02:50Z</time>
      </trkpt>
      <trkpt lat="48.54197" lon="-2.57101">
        <ele>101.6</ele>
        <time>2016-03-25T12:02:52Z</time>
      </trkpt>
      <trkpt lat="48.54188" lon="-2.57086">
        <ele>101.7</ele>
        <time>2016-03-25T12:02:54Z</time>
      </trkpt>
      <trkpt lat="48.5418" lon="-2.5707">
        <ele>101.8</ele>
        <time>2016-03-25T12:02:56Z</time>
      </trkpt>
      <trkpt lat="48.54172" lon="-2.57054">
        <ele>101.8</ele>
        <time>2016-03-25T12:02:58Z</time>
      </trkpt>
      <trkpt lat="48.54164" lon="-2.57035">
        <ele>101.8</ele>
        <time>2016-03-25T12:03:00Z</time>
      </trkpt>
      <trkpt lat="48.54158" lon="-2.57015">
        <ele>101.8</ele>
        <time>2016-03-25T12:03:02Z</time>
      </trkpt>
      <trkpt lat="48.54151" lon="-2.56995">
        <ele>101.6</ele>
        <time>2016-03-25T12:03:04Z</time>
      </trkpt>
      <trkpt lat="48.54144" lon="-2.56975">
        <ele>101.4</ele>
        <time>2016-03-25T12:03:06Z</time>
      </trkpt>
      <trkpt lat="48.54136" lon="-2.56965">
        <ele>101.3</ele>
        <time>2016-03-25T12:03:08Z</time>
      </trkpt>
      <trkpt lat="48.54126" lon="-2.56967">
        <ele>101</ele>
        <time>2016-03-25T12:03:10Z</time>
      </trkpt>
      <trkpt lat="48.54117" lon="-2.56976">
        <ele>100.8</ele>
        <time>2016-03-25T12:03:12Z</time>
      </trkpt>
      <trkpt lat="48.54108" lon="-2.56984">
        <ele>100.6</ele>
        <time>2016-03-25T12:03:14Z</time>
      </trkpt>
      <trkpt lat="48.54099" lon="-2.56994">
        <ele>100.3</ele>
        <time>2016-03-25T12:03:16Z</time>
      </trkpt>
      <trkpt lat="48.54089" lon="-2.57003">
        <ele>100</ele>
        <time>2016-03-25T12:03:18Z</time>
      </trkpt>
      <trkpt lat="48.54079" lon="-2.57013">
        <ele>99.8</ele>
        <time>2016-03-25T12:03:20Z</time>
      </trkpt>
      <trkpt lat="48.54068" lon="-2.57022">
        <ele>99.6</ele>
        <time>2016-03-25T12:03:22Z</time>
      </trkpt>
      <trkpt lat="48.54058" lon="-2.57032">
        <ele>99.4</ele>
        <time>2016-03-25T12:03:24Z</time>
      </trkpt>
      <trkpt lat="48.54046" lon="-2.5704">
        <ele>99.2</ele>
        <time>2016-03-25T12:03:26Z</time>
      </trkpt>
      <trkpt lat="48.54034" lon="-2.57047">
        <ele>99.1</ele>
        <time>2016-03-25T12:03:28Z</time>
      </trkpt>
      <trkpt lat="48.54022" lon="-2.57053">
        <ele>99</ele>
        <time>2016-03-25T12:03:30Z</time>
      </trkpt>
      <trkpt lat="48.54009" lon="-2.57057">
        <ele>98.8</ele>
        <time>2016-03-25T12:03:32Z</time>
      </trkpt>
      <trkpt lat="48.53997" lon="-2.57061">
        <ele>98.7</ele>
        <time>2016-03-25T12:03:34Z</time>
      </trkpt>
      <trkpt lat="48.53984" lon="-2.57065">
        <ele>98.7</ele>
        <time>2016-03-25T12:03:36Z</time>
      </trkpt>
      <trkpt lat="48.53972" lon="-2.57071">
        <ele>98.6</ele>
        <time>2016-03-25T12:03:38Z</time>
      </trkpt>
      <trkpt lat="48.5396" lon="-2.57077">
        <ele>98.5</ele>
        <time>2016-03-25T12:03:40Z</time>
      </trkpt>
      <trkpt lat="48.53948" lon="-2.57084">
        <ele>98.4</ele>
        <time>2016-03-25T12:03:42Z</time>
      </trkpt>
      <trkpt lat="48.53936" lon="-2.57092">
        <ele>98.4</ele>
        <time>2016-03-25T12:03:44Z</time>
      </trkpt>
      <trkpt lat="48.53925" lon="-2.57101">
        <ele>98.3</ele>
        <time>2016-03-25T12:03:46Z</time>
      </trkpt>
      <trkpt lat="48.53913" lon="-2.5711">
        <ele>98.2</ele>
        <time>2016-03-25T12:03:48Z</time>
      </trkpt>
      <trkpt lat="48.53902" lon="-2.5712">
        <ele>98</ele>
        <time>2016-03-25T12:03:50Z</time>
      </trkpt>
      <trkpt lat="48.53891" lon="-2.5713">
        <ele>97.9</ele>
        <time>2016-03-25T12:03:52Z</time>
      </trkpt>
      <trkpt lat="48.5388" lon="-2.57141">
        <ele>97.7</ele>
        <time>2016-03-25T12:03:54Z</time>
      </trkpt>
      <trkpt lat="48.53869" lon="-2.57151">
        <ele>97.6</ele>
        <time>2016-03-25T12:03:56Z</time>
      </trkpt>
      <trkpt lat="48.53858" lon="-2.57159">
        <ele>97.5</ele>
        <time>2016-03-25T12:03:58Z</time>
      </trkpt>
      <trkpt lat="48.53847" lon="-2.57165">
        <ele>97.3</ele>
        <time>2016-03-25T12:04:00Z</time>
      </trkpt>
      <trkpt lat="48.53837" lon="-2.57169">
        <ele>97.2</ele>
        <time>2016-03-25T12:04:02Z</time>
      </trkpt>
      <trkpt lat="48.53827" lon="-2.5717">
        <ele>97.2</ele>
        <time>2016-03-25T12:04:04Z</time>
      </trkpt>
      <trkpt lat="48.5382" lon="-2.57161">
        <ele>97.1</ele>
        <time>2016-03-25T12:04:06Z</time>
      </trkpt>
      <trkpt lat="48.53815" lon="-2.57147">
        <ele>97.1</ele>
        <time>2016-03-25T12:04:08Z</time>
      </trkpt>
      <trkpt lat="48.5381" lon="-2.57132">
        <ele>97</ele>
        <time>2016-03-25T12:04:10Z</time>
      </trkpt>
      <trkpt lat="48.53804" lon="-2.57117">
        <ele>97</ele>
        <time>2016-03-25T12:04:12Z</time>
      </trkpt>
      <trkpt lat="48.53798" lon="-2.57102">
        <ele>96.9</ele>
        <time>2016-03-25T12:04:14Z</time>
      </trkpt>
      <trkpt lat="48.53792" lon="-2.57088">
        <ele>96.9</ele>
        <time>2016-03-25T12:04:16Z</time>
      </trkpt>
      <trkpt lat="48.53785" lon="-2.57074">
        <ele>96.9</ele>
        <time>2016-03-25T12:04:18Z</time>
      </trkpt>
      <trkpt lat="48.53779" lon="-2.57059">
        <ele>96.8</ele>
        <time>2016-03-25T12:04:20Z</time>
      </trkpt>
      <trkpt lat="48.53773" lon="-2.57045">
        <ele>96.8</ele>
        <time>2016-03-25T12:04:22Z</time>
      </trkpt>
      <trkpt lat="48.53766" lon="-2.5703">
        <ele>96.7</ele>
        <time>2016-03-25T12:04:24Z</time>
      </trkpt>
      <trkpt lat="48.5376" lon="-2.57014">
        <ele>96.7</ele>
        <time>2016-03-25T12:04:26Z</time>
      </trkpt>
      <trkpt lat="48.53755" lon="-2.56997">
        <ele>96.7</ele>
        <time>2016-03-25T12:04:28Z</time>
      </trkpt>
      <trkpt lat="48.5375" lon="-2.56979">
        <ele>96.5</ele>
        <time>2016-03-25T12:04:30Z</time>
      </trkpt>
      <trkpt lat="48.53745" lon="-2.56961">
        <ele>96.4</ele>
        <time>2016-03-25T12:04:32Z</time>
      </trkpt>
      <trkpt lat="48.5374" lon="-2.56943">
        <ele>96.2</ele>
        <time>2016-03-25T12:04:34Z</time>
      </trkpt>
      <trkpt lat="48.53734" lon="-2.56925">
        <ele>96</ele>
        <time>2016-03-25T12:04:36Z</time>
      </trkpt>
      <trkpt lat="48.53729" lon="-2.56906">
        <ele>95.7</ele>
        <time>2016-03-25T12:04:38Z</time>
      </trkpt>
      <trkpt lat="48.53723" lon="-2.56889">
        <ele>95.5</ele>
        <time>2016-03-25T12:04:40Z</time>
      </trkpt>
      <trkpt lat="48.53717" lon="-2.56879">
        <ele>95.3</ele>
        <time>2016-03-25T12:04:42Z</time>
      </trkpt>
      <trkpt lat="48.53707" lon="-2.56886">
        <ele>94.9</ele>
        <time>2016-03-25T12:04:46Z</time>
      </trkpt>
      <trkpt lat="48.537" lon="-2.56901">
        <ele>94.7</ele>
        <time>2016-03-25T12:04:49Z</time>
      </trkpt>
      <trkpt lat="48.53691" lon="-2.56916">
        <ele>94.5</ele>
        <time>2016-03-25T12:04:52Z</time>
      </trkpt>
      <trkpt lat="48.53682" lon="-2.56929">
        <ele>94.3</ele>
        <time>2016-03-25T12:04:55Z</time>
      </trkpt>
      <trkpt lat="48.53673" lon="-2.56944">
        <ele>93.8</ele>
        <time>2016-03-25T12:04:58Z</time>
      </trkpt>
      <trkpt lat="48.53663" lon="-2.56958">
        <ele>93.9</ele>
        <time>2016-03-25T12:05:01Z</time>
      </trkpt>
      <trkpt lat="48.53656" lon="-2.56968">
        <ele>93.9</ele>
        <time>2016-03-25T12:05:03Z</time>
      </trkpt>
      <trkpt lat="48.53649" lon="-2.56978">
        <ele>93.9</ele>
        <time>2016-03-25T12:05:05Z</time>
      </trkpt>
      <trkpt lat="48.53641" lon="-2.56988">
        <ele>93.9</ele>
        <time>2016-03-25T12:05:07Z</time>
      </trkpt>
      <trkpt lat="48.53633" lon="-2.56998">
        <ele>93.9</ele>
        <time>2016-03-25T12:05:09Z</time>
      </trkpt>
      <trkpt lat="48.53625" lon="-2.57009">
        <ele>93.8</ele>
        <time>2016-03-25T12:05:11Z</time>
      </trkpt>
      <trkpt lat="48.53618" lon="-2.57019">
        <ele>93.8</ele>
        <time>2016-03-25T12:05:13Z</time>
      </trkpt>
      <trkpt lat="48.53611" lon="-2.5703">
        <ele>93.8</ele>
        <time>2016-03-25T12:05:15Z</time>
      </trkpt>
      <trkpt lat="48.53604" lon="-2.57042">
        <ele>93.7</ele>
        <time>2016-03-25T12:05:17Z</time>
      </trkpt>
      <trkpt lat="48.53597" lon="-2.57051">
        <ele>93.7</ele>
        <time>2016-03-25T12:05:19Z</time>
      </trkpt>
      <trkpt lat="48.53589" lon="-2.57059">
        <ele>93.7</ele>
        <time>2016-03-25T12:05:21Z</time>
      </trkpt>
      <trkpt lat="48.53581" lon="-2.5707">
        <ele>93.7</ele>
        <time>2016-03-25T12:05:23Z</time>
      </trkpt>
      <trkpt lat="48.53573" lon="-2.57081">
        <ele>93.6</ele>
        <time>2016-03-25T12:05:25Z</time>
      </trkpt>
      <trkpt lat="48.53565" lon="-2.57092">
        <ele>93.6</ele>
        <time>2016-03-25T12:05:27Z</time>
      </trkpt>
      <trkpt lat="48.53558" lon="-2.57104">
        <ele>93.6</ele>
        <time>2016-03-25T12:05:29Z</time>
      </trkpt>
      <trkpt lat="48.5355" lon="-2.57117">
        <ele>93.6</ele>
        <time>2016-03-25T12:05:31Z</time>
      </trkpt>
      <trkpt lat="48.53542" lon="-2.57128">
        <ele>93.6</ele>
        <time>2016-03-25T12:05:33Z</time>
      </trkpt>
      <trkpt lat="48.53534" lon="-2.57139">
        <ele>93.5</ele>
        <time>2016-03-25T12:05:35Z</time>
      </trkpt>
      <trkpt lat="48.53525" lon="-2.57151">
        <ele>93.4</ele>
        <time>2016-03-25T12:05:37Z</time>
      </trkpt>
      <trkpt lat="48.53518" lon="-2.57162">
        <ele>93.3</ele>
        <time>2016-03-25T12:05:39Z</time>
      </trkpt>
      <trkpt lat="48.53509" lon="-2.57174">
        <ele>93.2</ele>
        <time>2016-03-25T12:05:41Z</time>
      </trkpt>
      <trkpt lat="48.53501" lon="-2.57186">
        <ele>93</ele>
        <time>2016-03-25T12:05:43Z</time>
      </trkpt>
      <trkpt lat="48.53493" lon="-2.57198">
        <ele>92.9</ele>
        <time>2016-03-25T12:05:45Z</time>
      </trkpt>
      <trkpt lat="48.53485" lon="-2.5721">
        <ele>92.7</ele>
        <time>2016-03-25T12:05:47Z</time>
      </trkpt>
      <trkpt lat="48.53477" lon="-2.57223">
        <ele>92.5</ele>
        <time>2016-03-25T12:05:49Z</time>
      </trkpt>
      <trkpt lat="48.53468" lon="-2.57235">
        <ele>92.3</ele>
        <time>2016-03-25T12:05:51Z</time>
      </trkpt>
      <trkpt lat="48.53458" lon="-2.57246">
        <ele>92</ele>
        <time>2016-03-25T12:05:53Z</time>
      </trkpt>
      <trkpt lat="48.53447" lon="-2.57255">
        <ele>91.8</ele>
        <time>2016-03-25T12:05:55Z</time>
      </trkpt>
      <trkpt lat="48.53436" lon="-2.57254">
        <ele>91.5</ele>
        <time>2016-03-25T12:05:57Z</time>
      </trkpt>
      <trkpt lat="48.53426" lon="-2.57243">
        <ele>91.3</ele>
        <time>2016-03-25T12:05:59Z</time>
      </trkpt>
      <trkpt lat="48.53419" lon="-2.57227">
        <ele>91</ele>
        <time>2016-03-25T12:06:01Z</time>
      </trkpt>
      <trkpt lat="48.53415" lon="-2.57209">
        <ele>90.7</ele>
        <time>2016-03-25T12:06:03Z</time>
      </trkpt>
      <trkpt lat="48.53411" lon="-2.57191">
        <ele>90.4</ele>
        <time>2016-03-25T12:06:05Z</time>
      </trkpt>
      <trkpt lat="48.53407" lon="-2.57172">
        <ele>90.1</ele>
        <time>2016-03-25T12:06:07Z</time>
      </trkpt>
      <trkpt lat="48.53403" lon="-2.57154">
        <ele>89.8</ele>
        <time>2016-03-25T12:06:09Z</time>
      </trkpt>
      <trkpt lat="48.53399" lon="-2.57136">
        <ele>89.5</ele>
        <time>2016-03-25T12:06:11Z</time>
      </trkpt>
      <trkpt lat="48.53395" lon="-2.57117">
        <ele>89.2</ele>
        <time>2016-03-25T12:06:13Z</time>
      </trkpt>
      <trkpt lat="48.5339" lon="-2.57098">
        <ele>88.8</ele>
        <time>2016-03-25T12:06:15Z</time>
      </trkpt>
      <trkpt lat="48.53386" lon="-2.57079">
        <ele>88.5</ele>
        <time>2016-03-25T12:06:17Z</time>
      </trkpt>
      <trkpt lat="48.53383" lon="-2.57059">
        <ele>88.1</ele>
        <time>2016-03-25T12:06:19Z</time>
      </trkpt>
      <trkpt lat="48.53379" lon="-2.57039">
        <ele>87.8</ele>
        <time>2016-03-25T12:06:21Z</time>
      </trkpt>
      <trkpt lat="48.53374" lon="-2.57019">
        <ele>87.4</ele>
        <time>2016-03-25T12:06:23Z</time>
      </trkpt>
      <trkpt lat="48.53369" lon="-2.56998">
        <ele>87</ele>
        <time>2016-03-25T12:06:25Z</time>
      </trkpt>
      <trkpt lat="48.53364" lon="-2.56977">
        <ele>86.6</ele>
        <time>2016-03-25T12:06:27Z</time>
      </trkpt>
      <trkpt lat="48.53358" lon="-2.56956">
        <ele>86.1</ele>
        <time>2016-03-25T12:06:29Z</time>
      </trkpt>
      <trkpt lat="48.53351" lon="-2.56938">
        <ele>85.6</ele>
        <time>2016-03-25T12:06:31Z</time>
      </trkpt>
      <trkpt lat="48.53343" lon="-2.56921">
        <ele>85.2</ele>
        <time>2016-03-25T12:06:33Z</time>
      </trkpt>
      <trkpt lat="48.53336" lon="-2.56904">
        <ele>84.8</ele>
        <time>2016-03-25T12:06:35Z</time>
      </trkpt>
      <trkpt lat="48.53331" lon="-2.56885">
        <ele>84.5</ele>
        <time>2016-03-25T12:06:37Z</time>
      </trkpt>
      <trkpt lat="48.53327" lon="-2.56866">
        <ele>84.2</ele>
        <time>2016-03-25T12:06:39Z</time>
      </trkpt>
      <trkpt lat="48.53323" lon="-2.56848">
        <ele>84</ele>
        <time>2016-03-25T12:06:41Z</time>
      </trkpt>
      <trkpt lat="48.5332" lon="-2.56831">
        <ele>83.8</ele>
        <time>2016-03-25T12:06:43Z</time>
      </trkpt>
      <trkpt lat="48.53317" lon="-2.56814">
        <ele>83.6</ele>
        <time>2016-03-25T12:06:45Z</time>
      </trkpt>
      <trkpt lat="48.53314" lon="-2.56797">
        <ele>83.5</ele>
        <time>2016-03-25T12:06:47Z</time>
      </trkpt>
      <trkpt lat="48.53312" lon="-2.5678">
        <ele>83.4</ele>
        <time>2016-03-25T12:06:49Z</time>
      </trkpt>
      <trkpt lat="48.5331" lon="-2.56762">
        <ele>83.3</ele>
        <time>2016-03-25T12:06:51Z</time>
      </trkpt>
      <trkpt lat="48.53307" lon="-2.56745">
        <ele>83.3</ele>
        <time>2016-03-25T12:06:53Z</time>
      </trkpt>
      <trkpt lat="48.53305" lon="-2.56728">
        <ele>83.3</ele>
        <time>2016-03-25T12:06:55Z</time>
      </trkpt>
      <trkpt lat="48.53302" lon="-2.56711">
        <ele>83.4</ele>
        <time>2016-03-25T12:06:57Z</time>
      </trkpt>
      <trkpt lat="48.53298" lon="-2.56694">
        <ele>83.4</ele>
        <time>2016-03-25T12:06:59Z</time>
      </trkpt>
      <trkpt lat="48.53295" lon="-2.56678">
        <ele>83.4</ele>
        <time>2016-03-25T12:07:01Z</time>
      </trkpt>
      <trkpt lat="48.53293" lon="-2.56661">
        <ele>83.4</ele>
        <time>2016-03-25T12:07:03Z</time>
      </trkpt>
      <trkpt lat="48.5329" lon="-2.56645">
        <ele>83.4</ele>
        <time>2016-03-25T12:07:05Z</time>
      </trkpt>
      <trkpt lat="48.53288" lon="-2.56628">
        <ele>83.5</ele>
        <time>2016-03-25T12:07:07Z</time>
      </trkpt>
      <trkpt lat="48.53286" lon="-2.56611">
        <ele>83.6</ele>
        <time>2016-03-25T12:07:09Z</time>
      </trkpt>
      <trkpt lat="48.53284" lon="-2.56594">
        <ele>83.7</ele>
        <time>2016-03-25T12:07:11Z</time>
      </trkpt>
      <trkpt lat="48.53283" lon="-2.56578">
        <ele>83.9</ele>
        <time>2016-03-25T12:07:13Z</time>
      </trkpt>
      <trkpt lat="48.53282" lon="-2.56561">
        <ele>84</ele>
        <time>2016-03-25T12:07:15Z</time>
      </trkpt>
      <trkpt lat="48.5328" lon="-2.56544">
        <ele>84.2</ele>
        <time>2016-03-25T12:07:17Z</time>
      </trkpt>
      <trkpt lat="48.53276" lon="-2.5653">
        <ele>84.3</ele>
        <time>2016-03-25T12:07:19Z</time>
      </trkpt>
      <trkpt lat="48.53265" lon="-2.56525">
        <ele>84.5</ele>
        <time>2016-03-25T12:07:21Z</time>
      </trkpt>
      <trkpt lat="48.53254" lon="-2.56531">
        <ele>84.7</ele>
        <time>2016-03-25T12:07:23Z</time>
      </trkpt>
      <trkpt lat="48.53244" lon="-2.5654">
        <ele>84.9</ele>
        <time>2016-03-25T12:07:25Z</time>
      </trkpt>
      <trkpt lat="48.53233" lon="-2.56549">
        <ele>85</ele>
        <time>2016-03-25T12:07:27Z</time>
      </trkpt>
      <trkpt lat="48.53223" lon="-2.56558">
        <ele>85.2</ele>
        <time>2016-03-25T12:07:29Z</time>
      </trkpt>
      <trkpt lat="48.53212" lon="-2.56566">
        <ele>85.3</ele>
        <time>2016-03-25T12:07:31Z</time>
      </trkpt>
      <trkpt lat="48.53201" lon="-2.56575">
        <ele>85.4</ele>
        <time>2016-03-25T12:07:33Z</time>
      </trkpt>
      <trkpt lat="48.53191" lon="-2.56583">
        <ele>85.5</ele>
        <time>2016-03-25T12:07:35Z</time>
      </trkpt>
      <trkpt lat="48.5318" lon="-2.56592">
        <ele>85.6</ele>
        <time>2016-03-25T12:07:37Z</time>
      </trkpt>
      <trkpt lat="48.5317" lon="-2.566">
        <ele>85.6</ele>
        <time>2016-03-25T12:07:39Z</time>
      </trkpt>
      <trkpt lat="48.5316" lon="-2.56608">
        <ele>85.7</ele>
        <time>2016-03-25T12:07:41Z</time>
      </trkpt>
      <trkpt lat="48.53149" lon="-2.56617">
        <ele>85.7</ele>
        <time>2016-03-25T12:07:43Z</time>
      </trkpt>
      <trkpt lat="48.53139" lon="-2.56625">
        <ele>85.8</ele>
        <time>2016-03-25T12:07:45Z</time>
      </trkpt>
      <trkpt lat="48.53127" lon="-2.56634">
        <ele>85.8</ele>
        <time>2016-03-25T12:07:47Z</time>
      </trkpt>
      <trkpt lat="48.53116" lon="-2.56643">
        <ele>85.9</ele>
        <time>2016-03-25T12:07:49Z</time>
      </trkpt>
      <trkpt lat="48.53105" lon="-2.56652">
        <ele>85.9</ele>
        <time>2016-03-25T12:07:51Z</time>
      </trkpt>
      <trkpt lat="48.53092" lon="-2.56659">
        <ele>85.9</ele>
        <time>2016-03-25T12:07:53Z</time>
      </trkpt>
      <trkpt lat="48.53079" lon="-2.56662">
        <ele>86</ele>
        <time>2016-03-25T12:07:55Z</time>
      </trkpt>
      <trkpt lat="48.53066" lon="-2.56661">
        <ele>86</ele>
        <time>2016-03-25T12:07:57Z</time>
      </trkpt>
      <trkpt lat="48.53053" lon="-2.56658">
        <ele>86</ele>
        <time>2016-03-25T12:07:59Z</time>
      </trkpt>
      <trkpt lat="48.5304" lon="-2.56654">
        <ele>86</ele>
        <time>2016-03-25T12:08:01Z</time>
      </trkpt>
      <trkpt lat="48.53028" lon="-2.56647">
        <ele>86</ele>
        <time>2016-03-25T12:08:03Z</time>
      </trkpt>
      <trkpt lat="48.53016" lon="-2.56639">
        <ele>86</ele>
        <time>2016-03-25T12:08:05Z</time>
      </trkpt>
      <trkpt lat="48.53005" lon="-2.56628">
        <ele>86.1</ele>
        <time>2016-03-25T12:08:07Z</time>
      </trkpt>
      <trkpt lat="48.52995" lon="-2.56615">
        <ele>86.1</ele>
        <time>2016-03-25T12:08:09Z</time>
      </trkpt>
      <trkpt lat="48.52987" lon="-2.56601">
        <ele>86.2</ele>
        <time>2016-03-25T12:08:11Z</time>
      </trkpt>
      <trkpt lat="48.52979" lon="-2.56587">
        <ele>86.2</ele>
        <time>2016-03-25T12:08:13Z</time>
      </trkpt>
      <trkpt lat="48.52971" lon="-2.56574">
        <ele>86.2</ele>
        <time>2016-03-25T12:08:15Z</time>
      </trkpt>
      <trkpt lat="48.52963" lon="-2.56563">
        <ele>86.3</ele>
        <time>2016-03-25T12:08:17Z</time>
      </trkpt>
      <trkpt lat="48.52953" lon="-2.56553">
        <ele>86.3</ele>
        <time>2016-03-25T12:08:19Z</time>
      </trkpt>
      <trkpt lat="48.52942" lon="-2.56549">
        <ele>86.4</ele>
        <time>2016-03-25T12:08:21Z</time>
      </trkpt>
      <trkpt lat="48.52931" lon="-2.56552">
        <ele>86.4</ele>
        <time>2016-03-25T12:08:23Z</time>
      </trkpt>
      <trkpt lat="48.52922" lon="-2.56559">
        <ele>86.5</ele>
        <time>2016-03-25T12:08:25Z</time>
      </trkpt>
      <trkpt lat="48.52912" lon="-2.56551">
        <ele>86.6</ele>
        <time>2016-03-25T12:08:28Z</time>
      </trkpt>
      <trkpt lat="48.52905" lon="-2.56534">
        <ele>86.7</ele>
        <time>2016-03-25T12:08:31Z</time>
      </trkpt>
      <trkpt lat="48.529" lon="-2.56521">
        <ele>86.8</ele>
        <time>2016-03-25T12:08:33Z</time>
      </trkpt>
      <trkpt lat="48.52895" lon="-2.56508">
        <ele>86.9</ele>
        <time>2016-03-25T12:08:35Z</time>
      </trkpt>
      <trkpt lat="48.52888" lon="-2.56495">
        <ele>86.9</ele>
        <time>2016-03-25T12:08:37Z</time>
      </trkpt>
      <trkpt lat="48.52882" lon="-2.56481">
        <ele>87</ele>
        <time>2016-03-25T12:08:39Z</time>
      </trkpt>
      <trkpt lat="48.52875" lon="-2.56468">
        <ele>87</ele>
        <time>2016-03-25T12:08:41Z</time>
      </trkpt>
      <trkpt lat="48.52867" lon="-2.56455">
        <ele>87</ele>
        <time>2016-03-25T12:08:43Z</time>
      </trkpt>
      <trkpt lat="48.52857" lon="-2.56444">
        <ele>87</ele>
        <time>2016-03-25T12:08:45Z</time>
      </trkpt>
      <trkpt lat="48.52847" lon="-2.56431">
        <ele>86.9</ele>
        <time>2016-03-25T12:08:47Z</time>
      </trkpt>
      <trkpt lat="48.52839" lon="-2.56418">
        <ele>86.7</ele>
        <time>2016-03-25T12:08:49Z</time>
      </trkpt>
      <trkpt lat="48.52829" lon="-2.56405">
        <ele>86.5</ele>
        <time>2016-03-25T12:08:51Z</time>
      </trkpt>
      <trkpt lat="48.52818" lon="-2.56392">
        <ele>86.4</ele>
        <time>2016-03-25T12:08:53Z</time>
      </trkpt>
      <trkpt lat="48.52807" lon="-2.5638">
        <ele>86.3</ele>
        <time>2016-03-25T12:08:55Z</time>
      </trkpt>
      <trkpt lat="48.52796" lon="-2.56369">
        <ele>86.2</ele>
        <time>2016-03-25T12:08:57Z</time>
      </trkpt>
      <trkpt lat="48.52784" lon="-2.56358">
        <ele>86</ele>
        <time>2016-03-25T12:08:59Z</time>
      </trkpt>
      <trkpt lat="48.52773" lon="-2.56347">
        <ele>85.8</ele>
        <time>2016-03-25T12:09:01Z</time>
      </trkpt>
      <trkpt lat="48.52762" lon="-2.56335">
        <ele>85.6</ele>
        <time>2016-03-25T12:09:03Z</time>
      </trkpt>
      <trkpt lat="48.52751" lon="-2.56322">
        <ele>85.5</ele>
        <time>2016-03-25T12:09:05Z</time>
      </trkpt>
      <trkpt lat="48.5274" lon="-2.56309">
        <ele>85.3</ele>
        <time>2016-03-25T12:09:07Z</time>
      </trkpt>
      <trkpt lat="48.52729" lon="-2.56297">
        <ele>85.1</ele>
        <time>2016-03-25T12:09:09Z</time>
      </trkpt>
      <trkpt lat="48.52716" lon="-2.56287">
        <ele>85</ele>
        <time>2016-03-25T12:09:11Z</time>
      </trkpt>
      <trkpt lat="48.52703" lon="-2.56279">
        <ele>84.7</ele>
        <time>2016-03-25T12:09:13Z</time>
      </trkpt>
      <trkpt lat="48.52691" lon="-2.5627">
        <ele>84.5</ele>
        <time>2016-03-25T12:09:15Z</time>
      </trkpt>
      <trkpt lat="48.52678" lon="-2.56262">
        <ele>84.1</ele>
        <time>2016-03-25T12:09:17Z</time>
      </trkpt>
      <trkpt lat="48.52665" lon="-2.56252">
        <ele>83.8</ele>
        <time>2016-03-25T12:09:19Z</time>
      </trkpt>
      <trkpt lat="48.52652" lon="-2.56244">
        <ele>83.5</ele>
        <time>2016-03-25T12:09:21Z</time>
      </trkpt>
      <trkpt lat="48.52638" lon="-2.56237">
        <ele>83.2</ele>
        <time>2016-03-25T12:09:23Z</time>
      </trkpt>
      <trkpt lat="48.52624" lon="-2.56234">
        <ele>83</ele>
        <time>2016-03-25T12:09:25Z</time>
      </trkpt>
      <trkpt lat="48.52609" lon="-2.56233">
        <ele>82.8</ele>
        <time>2016-03-25T12:09:27Z</time>
      </trkpt>
      <trkpt lat="48.52594" lon="-2.56231">
        <ele>82.7</ele>
        <time>2016-03-25T12:09:29Z</time>
      </trkpt>
      <trkpt lat="48.52579" lon="-2.5623">
        <ele>82.5</ele>
        <time>2016-03-25T12:09:31Z</time>
      </trkpt>
      <trkpt lat="48.52564" lon="-2.56229">
        <ele>82.4</ele>
        <time>2016-03-25T12:09:33Z</time>
      </trkpt>
      <trkpt lat="48.5255" lon="-2.56228">
        <ele>82.3</ele>
        <time>2016-03-25T12:09:35Z</time>
      </trkpt>
      <trkpt lat="48.52536" lon="-2.56227">
        <ele>82.2</ele>
        <time>2016-03-25T12:09:37Z</time>
      </trkpt>
      <trkpt lat="48.52522" lon="-2.56228">
        <ele>82.1</ele>
        <time>2016-03-25T12:09:39Z</time>
      </trkpt>
      <trkpt lat="48.52508" lon="-2.56231">
        <ele>82</ele>
        <time>2016-03-25T12:09:41Z</time>
      </trkpt>
      <trkpt lat="48.52494" lon="-2.56238">
        <ele>82</ele>
        <time>2016-03-25T12:09:43Z</time>
      </trkpt>
      <trkpt lat="48.52482" lon="-2.56248">
        <ele>81.9</ele>
        <time>2016-03-25T12:09:45Z</time>
      </trkpt>
      <trkpt lat="48.5247" lon="-2.56258">
        <ele>81.8</ele>
        <time>2016-03-25T12:09:47Z</time>
      </trkpt>
      <trkpt lat="48.52458" lon="-2.56267">
        <ele>81.8</ele>
        <time>2016-03-25T12:09:49Z</time>
      </trkpt>
      <trkpt lat="48.52445" lon="-2.56275">
        <ele>81.8</ele>
        <time>2016-03-25T12:09:51Z</time>
      </trkpt>
      <trkpt lat="48.52433" lon="-2.56283">
        <ele>81.7</ele>
        <time>2016-03-25T12:09:53Z</time>
      </trkpt>
      <trkpt lat="48.52421" lon="-2.56291">
        <ele>81.7</ele>
        <time>2016-03-25T12:09:55Z</time>
      </trkpt>
      <trkpt lat="48.52408" lon="-2.56299">
        <ele>81.7</ele>
        <time>2016-03-25T12:09:57Z</time>
      </trkpt>
      <trkpt lat="48.52396" lon="-2.56306">
        <ele>81.6</ele>
        <time>2016-03-25T12:09:59Z</time>
      </trkpt>
      <trkpt lat="48.52383" lon="-2.56313">
        <ele>81.6</ele>
        <time>2016-03-25T12:10:01Z</time>
      </trkpt>
      <trkpt lat="48.52371" lon="-2.5632">
        <ele>81.6</ele>
        <time>2016-03-25T12:10:03Z</time>
      </trkpt>
      <trkpt lat="48.52359" lon="-2.56327">
        <ele>81.6</ele>
        <time>2016-03-25T12:10:05Z</time>
      </trkpt>
      <trkpt lat="48.52347" lon="-2.56335">
        <ele>81.6</ele>
        <time>2016-03-25T12:10:07Z</time>
      </trkpt>
      <trkpt lat="48.52334" lon="-2.56342">
        <ele>81.6</ele>
        <time>2016-03-25T12:10:09Z</time>
      </trkpt>
      <trkpt lat="48.52322" lon="-2.56349">
        <ele>81.5</ele>
        <time>2016-03-25T12:10:11Z</time>
      </trkpt>
      <trkpt lat="48.52309" lon="-2.56352">
        <ele>81.5</ele>
        <time>2016-03-25T12:10:13Z</time>
      </trkpt>
      <trkpt lat="48.52296" lon="-2.56354">
        <ele>81.5</ele>
        <time>2016-03-25T12:10:15Z</time>
      </trkpt>
      <trkpt lat="48.52283" lon="-2.56356">
        <ele>81.5</ele>
        <time>2016-03-25T12:10:17Z</time>
      </trkpt>
      <trkpt lat="48.5227" lon="-2.56356">
        <ele>81.5</ele>
        <time>2016-03-25T12:10:19Z</time>
      </trkpt>
      <trkpt lat="48.52255" lon="-2.56357">
        <ele>81.4</ele>
        <time>2016-03-25T12:10:21Z</time>
      </trkpt>
      <trkpt lat="48.52239" lon="-2.56358">
        <ele>81.2</ele>
        <time>2016-03-25T12:10:23Z</time>
      </trkpt>
      <trkpt lat="48.52223" lon="-2.56357">
        <ele>80.8</ele>
        <time>2016-03-25T12:10:25Z</time>
      </trkpt>
      <trkpt lat="48.52206" lon="-2.5635">
        <ele>80.4</ele>
        <time>2016-03-25T12:10:27Z</time>
      </trkpt>
      <trkpt lat="48.52191" lon="-2.56343">
        <ele>79.9</ele>
        <time>2016-03-25T12:10:29Z</time>
      </trkpt>
      <trkpt lat="48.52176" lon="-2.56336">
        <ele>79.5</ele>
        <time>2016-03-25T12:10:31Z</time>
      </trkpt>
      <trkpt lat="48.52162" lon="-2.56328">
        <ele>79.2</ele>
        <time>2016-03-25T12:10:33Z</time>
      </trkpt>
      <trkpt lat="48.52148" lon="-2.56321">
        <ele>78.9</ele>
        <time>2016-03-25T12:10:35Z</time>
      </trkpt>
      <trkpt lat="48.52135" lon="-2.56311">
        <ele>79</ele>
        <time>2016-03-25T12:10:37Z</time>
      </trkpt>
      <trkpt lat="48.52124" lon="-2.56301">
        <ele>79</ele>
        <time>2016-03-25T12:10:39Z</time>
      </trkpt>
      <trkpt lat="48.52114" lon="-2.5629">
        <ele>79.1</ele>
        <time>2016-03-25T12:10:41Z</time>
      </trkpt>
      <trkpt lat="48.52106" lon="-2.56281">
        <ele>79.1</ele>
        <time>2016-03-25T12:10:43Z</time>
      </trkpt>
      <trkpt lat="48.52095" lon="-2.56277">
        <ele>79.2</ele>
        <time>2016-03-25T12:10:45Z</time>
      </trkpt>
      <trkpt lat="48.52084" lon="-2.56272">
        <ele>79.2</ele>
        <time>2016-03-25T12:10:47Z</time>
      </trkpt>
      <trkpt lat="48.52074" lon="-2.56265">
        <ele>79.3</ele>
        <time>2016-03-25T12:10:49Z</time>
      </trkpt>
      <trkpt lat="48.52067" lon="-2.56254">
        <ele>79.4</ele>
        <time>2016-03-25T12:10:51Z</time>
      </trkpt>
      <trkpt lat="48.5206" lon="-2.56244">
        <ele>79.4</ele>
        <time>2016-03-25T12:10:53Z</time>
      </trkpt>
      <trkpt lat="48.52052" lon="-2.5623">
        <ele>79.5</ele>
        <time>2016-03-25T12:10:56Z</time>
      </trkpt>
      <trkpt lat="48.52045" lon="-2.56217">
        <ele>79.5</ele>
        <time>2016-03-25T12:10:59Z</time>
      </trkpt>
      <trkpt lat="48.52036" lon="-2.56202">
        <ele>79.6</ele>
        <time>2016-03-25T12:11:02Z</time>
      </trkpt>
      <trkpt lat="48.52029" lon="-2.56193">
        <ele>79.6</ele>
        <time>2016-03-25T12:11:04Z</time>
      </trkpt>
      <trkpt lat="48.5202" lon="-2.56191">
        <ele>79.6</ele>
        <time>2016-03-25T12:11:06Z</time>
      </trkpt>
      <trkpt lat="48.52008" lon="-2.56201">
        <ele>79.7</ele>
        <time>2016-03-25T12:11:09Z</time>
      </trkpt>
      <trkpt lat="48.52" lon="-2.56211">
        <ele>79.7</ele>
        <time>2016-03-25T12:11:11Z</time>
      </trkpt>
      <trkpt lat="48.51993" lon="-2.56222">
        <ele>79.7</ele>
        <time>2016-03-25T12:11:13Z</time>
      </trkpt>
      <trkpt lat="48.51985" lon="-2.56235">
        <ele>79.7</ele>
        <time>2016-03-25T12:11:15Z</time>
      </trkpt>
      <trkpt lat="48.51977" lon="-2.56248">
        <ele>79.7</ele>
        <time>2016-03-25T12:11:17Z</time>
      </trkpt>
      <trkpt lat="48.51969" lon="-2.5626">
        <ele>79.7</ele>
        <time>2016-03-25T12:11:19Z</time>
      </trkpt>
      <trkpt lat="48.5196" lon="-2.56273">
        <ele>79.7</ele>
        <time>2016-03-25T12:11:21Z</time>
      </trkpt>
      <trkpt lat="48.51952" lon="-2.56286">
        <ele>79.7</ele>
        <time>2016-03-25T12:11:23Z</time>
      </trkpt>
      <trkpt lat="48.51945" lon="-2.563">
        <ele>79.7</ele>
        <time>2016-03-25T12:11:25Z</time>
      </trkpt>
      <trkpt lat="48.51939" lon="-2.56315">
        <ele>79.8</ele>
        <time>2016-03-25T12:11:27Z</time>
      </trkpt>
      <trkpt lat="48.51932" lon="-2.5633">
        <ele>79.8</ele>
        <time>2016-03-25T12:11:29Z</time>
      </trkpt>
      <trkpt lat="48.51924" lon="-2.56343">
        <ele>79.8</ele>
        <time>2016-03-25T12:11:31Z</time>
      </trkpt>
      <trkpt lat="48.51913" lon="-2.56351">
        <ele>79.8</ele>
        <time>2016-03-25T12:11:33Z</time>
      </trkpt>
      <trkpt lat="48.51902" lon="-2.56354">
        <ele>79.8</ele>
        <time>2016-03-25T12:11:35Z</time>
      </trkpt>
      <trkpt lat="48.5189" lon="-2.56355">
        <ele>79.8</ele>
        <time>2016-03-25T12:11:37Z</time>
      </trkpt>
      <trkpt lat="48.51877" lon="-2.56357">
        <ele>79.8</ele>
        <time>2016-03-25T12:11:39Z</time>
      </trkpt>
      <trkpt lat="48.51865" lon="-2.56363">
        <ele>79.8</ele>
        <time>2016-03-25T12:11:41Z</time>
      </trkpt>
      <trkpt lat="48.51854" lon="-2.56372">
        <ele>79.8</ele>
        <time>2016-03-25T12:11:43Z</time>
      </trkpt>
      <trkpt lat="48.51845" lon="-2.56382">
        <ele>79.8</ele>
        <time>2016-03-25T12:11:45Z</time>
      </trkpt>
      <trkpt lat="48.51838" lon="-2.56391">
        <ele>79.9</ele>
        <time>2016-03-25T12:11:47Z</time>
      </trkpt>
      <trkpt lat="48.51847" lon="-2.56379">
        <ele>80.2</ele>
        <time>2016-03-25T12:11:59Z</time>
      </trkpt>
      <trkpt lat="48.51859" lon="-2.56368">
        <ele>80.3</ele>
        <time>2016-03-25T12:12:02Z</time>
      </trkpt>
      <trkpt lat="48.51868" lon="-2.56363">
        <ele>80.3</ele>
        <time>2016-03-25T12:12:04Z</time>
      </trkpt>
      <trkpt lat="48.51878" lon="-2.56358">
        <ele>80.3</ele>
        <time>2016-03-25T12:12:06Z</time>
      </trkpt>
      <trkpt lat="48.51887" lon="-2.56357">
        <ele>80.4</ele>
        <time>2016-03-25T12:12:08Z</time>
      </trkpt>
      <trkpt lat="48.51898" lon="-2.56366">
        <ele>80.4</ele>
        <time>2016-03-25T12:12:11Z</time>
      </trkpt>
      <trkpt lat="48.51902" lon="-2.56385">
        <ele>80.4</ele>
        <time>2016-03-25T12:12:14Z</time>
      </trkpt>
      <trkpt lat="48.51906" lon="-2.56402">
        <ele>80.4</ele>
        <time>2016-03-25T12:12:17Z</time>
      </trkpt>
      <trkpt lat="48.5191" lon="-2.56418">
        <ele>80.5</ele>
        <time>2016-03-25T12:12:20Z</time>
      </trkpt>
      <trkpt lat="48.51915" lon="-2.56436">
        <ele>80.5</ele>
        <time>2016-03-25T12:12:23Z</time>
      </trkpt>
      <trkpt lat="48.5192" lon="-2.56454">
        <ele>80.5</ele>
        <time>2016-03-25T12:12:26Z</time>
      </trkpt>
      <trkpt lat="48.51923" lon="-2.56468">
        <ele>80.5</ele>
        <time>2016-03-25T12:12:28Z</time>
      </trkpt>
      <trkpt lat="48.51926" lon="-2.56481">
        <ele>80.5</ele>
        <time>2016-03-25T12:12:30Z</time>
      </trkpt>
      <trkpt lat="48.5193" lon="-2.56495">
        <ele>80.5</ele>
        <time>2016-03-25T12:12:32Z</time>
      </trkpt>
      <trkpt lat="48.51934" lon="-2.56508">
        <ele>80.5</ele>
        <time>2016-03-25T12:12:34Z</time>
      </trkpt>
      <trkpt lat="48.51938" lon="-2.56522">
        <ele>80.5</ele>
        <time>2016-03-25T12:12:36Z</time>
      </trkpt>
      <trkpt lat="48.51942" lon="-2.56536">
        <ele>80.5</ele>
        <time>2016-03-25T12:12:38Z</time>
      </trkpt>
      <trkpt lat="48.51946" lon="-2.5655">
        <ele>80.5</ele>
        <time>2016-03-25T12:12:40Z</time>
      </trkpt>
      <trkpt lat="48.51951" lon="-2.56564">
        <ele>80.5</ele>
        <time>2016-03-25T12:12:42Z</time>
      </trkpt>
      <trkpt lat="48.51956" lon="-2.56578">
        <ele>80.5</ele>
        <time>2016-03-25T12:12:44Z</time>
      </trkpt>
      <trkpt lat="48.51961" lon="-2.56593">
        <ele>80.5</ele>
        <time>2016-03-25T12:12:46Z</time>
      </trkpt>
      <trkpt lat="48.51966" lon="-2.56607">
        <ele>80.6</ele>
        <time>2016-03-25T12:12:48Z</time>
      </trkpt>
      <trkpt lat="48.51971" lon="-2.56621">
        <ele>80.6</ele>
        <time>2016-03-25T12:12:50Z</time>
      </trkpt>
      <trkpt lat="48.51975" lon="-2.56635">
        <ele>80.7</ele>
        <time>2016-03-25T12:12:52Z</time>
      </trkpt>
      <trkpt lat="48.5198" lon="-2.56648">
        <ele>80.7</ele>
        <time>2016-03-25T12:12:54Z</time>
      </trkpt>
      <trkpt lat="48.51986" lon="-2.56661">
        <ele>80.8</ele>
        <time>2016-03-25T12:12:56Z</time>
      </trkpt>
      <trkpt lat="48.51991" lon="-2.56674">
        <ele>80.9</ele>
        <time>2016-03-25T12:12:58Z</time>
      </trkpt>
      <trkpt lat="48.51996" lon="-2.56687">
        <ele>81</ele>
        <time>2016-03-25T12:13:00Z</time>
      </trkpt>
      <trkpt lat="48.52001" lon="-2.56699">
        <ele>81.1</ele>
        <time>2016-03-25T12:13:02Z</time>
      </trkpt>
      <trkpt lat="48.52007" lon="-2.56711">
        <ele>81.2</ele>
        <time>2016-03-25T12:13:05Z</time>
      </trkpt>
      <trkpt lat="48.52011" lon="-2.56723">
        <ele>81.7</ele>
        <time>2016-03-25T12:13:21Z</time>
      </trkpt>
      <trkpt lat="48.52016" lon="-2.56737">
        <ele>82.3</ele>
        <time>2016-03-25T12:13:40Z</time>
      </trkpt>
      <trkpt lat="48.52019" lon="-2.56752">
        <ele>82.3</ele>
        <time>2016-03-25T12:13:45Z</time>
      </trkpt>
      <trkpt lat="48.52022" lon="-2.56766">
        <ele>82.3</ele>
        <time>2016-03-25T12:13:49Z</time>
      </trkpt>
      <trkpt lat="48.52023" lon="-2.5678">
        <ele>82.4</ele>
        <time>2016-03-25T12:13:53Z</time>
      </trkpt>
      <trkpt lat="48.52024" lon="-2.56797">
        <ele>82.4</ele>
        <time>2016-03-25T12:13:57Z</time>
      </trkpt>
      <trkpt lat="48.52024" lon="-2.56814">
        <ele>82.5</ele>
        <time>2016-03-25T12:14:01Z</time>
      </trkpt>
      <trkpt lat="48.52023" lon="-2.56828">
        <ele>82.6</ele>
        <time>2016-03-25T12:14:04Z</time>
      </trkpt>
      <trkpt lat="48.52022" lon="-2.56842">
        <ele>82.7</ele>
        <time>2016-03-25T12:14:07Z</time>
      </trkpt>
      <trkpt lat="48.5202" lon="-2.5686">
        <ele>82.7</ele>
        <time>2016-03-25T12:14:11Z</time>
      </trkpt>
      <trkpt lat="48.5202" lon="-2.56876">
        <ele>82.7</ele>
        <time>2016-03-25T12:14:14Z</time>
      </trkpt>
      <trkpt lat="48.52021" lon="-2.56893">
        <ele>82.8</ele>
        <time>2016-03-25T12:14:17Z</time>
      </trkpt>
      <trkpt lat="48.52022" lon="-2.5691">
        <ele>82.8</ele>
        <time>2016-03-25T12:14:20Z</time>
      </trkpt>
      <trkpt lat="48.52023" lon="-2.56928">
        <ele>82.8</ele>
        <time>2016-03-25T12:14:23Z</time>
      </trkpt>
      <trkpt lat="48.52024" lon="-2.56948">
        <ele>82.8</ele>
        <time>2016-03-25T12:14:26Z</time>
      </trkpt>
      <trkpt lat="48.52024" lon="-2.56963">
        <ele>82.7</ele>
        <time>2016-03-25T12:14:28Z</time>
      </trkpt>
      <trkpt lat="48.52025" lon="-2.56978">
        <ele>82.7</ele>
        <time>2016-03-25T12:14:30Z</time>
      </trkpt>
      <trkpt lat="48.52025" lon="-2.56994">
        <ele>82.7</ele>
        <time>2016-03-25T12:14:32Z</time>
      </trkpt>
      <trkpt lat="48.52024" lon="-2.57009">
        <ele>82.7</ele>
        <time>2016-03-25T12:14:34Z</time>
      </trkpt>
      <trkpt lat="48.52022" lon="-2.57025">
        <ele>82.6</ele>
        <time>2016-03-25T12:14:36Z</time>
      </trkpt>
      <trkpt lat="48.5202" lon="-2.57042">
        <ele>82.6</ele>
        <time>2016-03-25T12:14:38Z</time>
      </trkpt>
      <trkpt lat="48.52017" lon="-2.57058">
        <ele>82.6</ele>
        <time>2016-03-25T12:14:40Z</time>
      </trkpt>
      <trkpt lat="48.52015" lon="-2.57074">
        <ele>82.4</ele>
        <time>2016-03-25T12:14:42Z</time>
      </trkpt>
      <trkpt lat="48.52013" lon="-2.57091">
        <ele>82.3</ele>
        <time>2016-03-25T12:14:44Z</time>
      </trkpt>
      <trkpt lat="48.52012" lon="-2.57108">
        <ele>82.2</ele>
        <time>2016-03-25T12:14:46Z</time>
      </trkpt>
      <trkpt lat="48.52009" lon="-2.57123">
        <ele>82.1</ele>
        <time>2016-03-25T12:14:48Z</time>
      </trkpt>
      <trkpt lat="48.52006" lon="-2.57139">
        <ele>82</ele>
        <time>2016-03-25T12:14:50Z</time>
      </trkpt>
      <trkpt lat="48.52004" lon="-2.57153">
        <ele>81.9</ele>
        <time>2016-03-25T12:14:52Z</time>
      </trkpt>
      <trkpt lat="48.51999" lon="-2.57172">
        <ele>81.7</ele>
        <time>2016-03-25T12:14:55Z</time>
      </trkpt>
      <trkpt lat="48.51993" lon="-2.57183">
        <ele>81.6</ele>
        <time>2016-03-25T12:14:57Z</time>
      </trkpt>
      <trkpt lat="48.51983" lon="-2.57195">
        <ele>81.5</ele>
        <time>2016-03-25T12:15:00Z</time>
      </trkpt>
      <trkpt lat="48.51972" lon="-2.57204">
        <ele>81.2</ele>
        <time>2016-03-25T12:15:03Z</time>
      </trkpt>
      <trkpt lat="48.51961" lon="-2.57209">
        <ele>81.1</ele>
        <time>2016-03-25T12:15:06Z</time>
      </trkpt>
      <trkpt lat="48.51948" lon="-2.5721">
        <ele>80.9</ele>
        <time>2016-03-25T12:15:09Z</time>
      </trkpt>
      <trkpt lat="48.51936" lon="-2.57211">
        <ele>80.8</ele>
        <time>2016-03-25T12:15:12Z</time>
      </trkpt>
      <trkpt lat="48.51922" lon="-2.57211">
        <ele>80.6</ele>
        <time>2016-03-25T12:15:15Z</time>
      </trkpt>
      <trkpt lat="48.51913" lon="-2.57212">
        <ele>80.5</ele>
        <time>2016-03-25T12:15:17Z</time>
      </trkpt>
      <trkpt lat="48.51903" lon="-2.57212">
        <ele>80.4</ele>
        <time>2016-03-25T12:15:19Z</time>
      </trkpt>
      <trkpt lat="48.51894" lon="-2.57214">
        <ele>80.5</ele>
        <time>2016-03-25T12:15:21Z</time>
      </trkpt>
      <trkpt lat="48.51885" lon="-2.57215">
        <ele>80.4</ele>
        <time>2016-03-25T12:15:23Z</time>
      </trkpt>
      <trkpt lat="48.51875" lon="-2.57213">
        <ele>80.2</ele>
        <time>2016-03-25T12:15:25Z</time>
      </trkpt>
      <trkpt lat="48.51865" lon="-2.57211">
        <ele>80.1</ele>
        <time>2016-03-25T12:15:27Z</time>
      </trkpt>
      <trkpt lat="48.51855" lon="-2.57208">
        <ele>80</ele>
        <time>2016-03-25T12:15:29Z</time>
      </trkpt>
      <trkpt lat="48.51846" lon="-2.57203">
        <ele>79.9</ele>
        <time>2016-03-25T12:15:31Z</time>
      </trkpt>
      <trkpt lat="48.51837" lon="-2.57196">
        <ele>79.8</ele>
        <time>2016-03-25T12:15:33Z</time>
      </trkpt>
      <trkpt lat="48.51829" lon="-2.57186">
        <ele>79.6</ele>
        <time>2016-03-25T12:15:35Z</time>
      </trkpt>
      <trkpt lat="48.51822" lon="-2.57176">
        <ele>79.5</ele>
        <time>2016-03-25T12:15:37Z</time>
      </trkpt>
      <trkpt lat="48.51815" lon="-2.57163">
        <ele>79.4</ele>
        <time>2016-03-25T12:15:39Z</time>
      </trkpt>
      <trkpt lat="48.51809" lon="-2.5715">
        <ele>79.3</ele>
        <time>2016-03-25T12:15:41Z</time>
      </trkpt>
      <trkpt lat="48.51804" lon="-2.57136">
        <ele>79.3</ele>
        <time>2016-03-25T12:15:43Z</time>
      </trkpt>
      <trkpt lat="48.51799" lon="-2.57122">
        <ele>79.2</ele>
        <time>2016-03-25T12:15:45Z</time>
      </trkpt>
      <trkpt lat="48.51794" lon="-2.57108">
        <ele>79.1</ele>
        <time>2016-03-25T12:15:47Z</time>
      </trkpt>
      <trkpt lat="48.51789" lon="-2.57094">
        <ele>79.1</ele>
        <time>2016-03-25T12:15:49Z</time>
      </trkpt>
      <trkpt lat="48.51784" lon="-2.57081">
        <ele>79</ele>
        <time>2016-03-25T12:15:51Z</time>
      </trkpt>
      <trkpt lat="48.51778" lon="-2.57067">
        <ele>79</ele>
        <time>2016-03-25T12:15:53Z</time>
      </trkpt>
      <trkpt lat="48.51773" lon="-2.57053">
        <ele>79</ele>
        <time>2016-03-25T12:15:55Z</time>
      </trkpt>
      <trkpt lat="48.51768" lon="-2.5704">
        <ele>78.9</ele>
        <time>2016-03-25T12:15:57Z</time>
      </trkpt>
      <trkpt lat="48.51763" lon="-2.57023">
        <ele>78.9</ele>
        <time>2016-03-25T12:16:00Z</time>
      </trkpt>
      <trkpt lat="48.51761" lon="-2.57043">
        <ele>78.8</ele>
        <time>2016-03-25T12:16:09Z</time>
      </trkpt>
      <trkpt lat="48.51756" lon="-2.57055">
        <ele>78.8</ele>
        <time>2016-03-25T12:16:11Z</time>
      </trkpt>
      <trkpt lat="48.51747" lon="-2.57063">
        <ele>78.7</ele>
        <time>2016-03-25T12:16:13Z</time>
      </trkpt>
      <trkpt lat="48.51737" lon="-2.5707">
        <ele>78.7</ele>
        <time>2016-03-25T12:16:15Z</time>
      </trkpt>
      <trkpt lat="48.5173" lon="-2.57081">
        <ele>78.5</ele>
        <time>2016-03-25T12:16:17Z</time>
      </trkpt>
      <trkpt lat="48.51726" lon="-2.57096">
        <ele>78.4</ele>
        <time>2016-03-25T12:16:19Z</time>
      </trkpt>
      <trkpt lat="48.51724" lon="-2.57111">
        <ele>78.2</ele>
        <time>2016-03-25T12:16:21Z</time>
      </trkpt>
      <trkpt lat="48.51724" lon="-2.57126">
        <ele>78</ele>
        <time>2016-03-25T12:16:23Z</time>
      </trkpt>
      <trkpt lat="48.51722" lon="-2.57143">
        <ele>77.8</ele>
        <time>2016-03-25T12:16:25Z</time>
      </trkpt>
      <trkpt lat="48.51721" lon="-2.57159">
        <ele>77.7</ele>
        <time>2016-03-25T12:16:27Z</time>
      </trkpt>
      <trkpt lat="48.51719" lon="-2.57177">
        <ele>77.5</ele>
        <time>2016-03-25T12:16:29Z</time>
      </trkpt>
      <trkpt lat="48.51719" lon="-2.57195">
        <ele>77.4</ele>
        <time>2016-03-25T12:16:31Z</time>
      </trkpt>
      <trkpt lat="48.51722" lon="-2.57212">
        <ele>77.3</ele>
        <time>2016-03-25T12:16:33Z</time>
      </trkpt>
      <trkpt lat="48.51725" lon="-2.5723">
        <ele>77.1</ele>
        <time>2016-03-25T12:16:35Z</time>
      </trkpt>
      <trkpt lat="48.51725" lon="-2.57248">
        <ele>76.9</ele>
        <time>2016-03-25T12:16:37Z</time>
      </trkpt>
      <trkpt lat="48.51725" lon="-2.57266">
        <ele>76.7</ele>
        <time>2016-03-25T12:16:39Z</time>
      </trkpt>
      <trkpt lat="48.51723" lon="-2.57285">
        <ele>76.5</ele>
        <time>2016-03-25T12:16:41Z</time>
      </trkpt>
      <trkpt lat="48.51722" lon="-2.57303">
        <ele>76.3</ele>
        <time>2016-03-25T12:16:43Z</time>
      </trkpt>
      <trkpt lat="48.5172" lon="-2.57321">
        <ele>76.1</ele>
        <time>2016-03-25T12:16:45Z</time>
      </trkpt>
      <trkpt lat="48.51717" lon="-2.5734">
        <ele>75.9</ele>
        <time>2016-03-25T12:16:47Z</time>
      </trkpt>
      <trkpt lat="48.51715" lon="-2.57358">
        <ele>75.6</ele>
        <time>2016-03-25T12:16:49Z</time>
      </trkpt>
      <trkpt lat="48.51712" lon="-2.57377">
        <ele>75.4</ele>
        <time>2016-03-25T12:16:51Z</time>
      </trkpt>
      <trkpt lat="48.5171" lon="-2.57395">
        <ele>75.1</ele>
        <time>2016-03-25T12:16:53Z</time>
      </trkpt>
      <trkpt lat="48.51707" lon="-2.57414">
        <ele>75</ele>
        <time>2016-03-25T12:16:55Z</time>
      </trkpt>
      <trkpt lat="48.51704" lon="-2.57431">
        <ele>74.8</ele>
        <time>2016-03-25T12:16:57Z</time>
      </trkpt>
      <trkpt lat="48.51701" lon="-2.57449">
        <ele>74.7</ele>
        <time>2016-03-25T12:16:59Z</time>
      </trkpt>
      <trkpt lat="48.51697" lon="-2.57467">
        <ele>74.5</ele>
        <time>2016-03-25T12:17:01Z</time>
      </trkpt>
      <trkpt lat="48.51692" lon="-2.57484">
        <ele>74.3</ele>
        <time>2016-03-25T12:17:03Z</time>
      </trkpt>
      <trkpt lat="48.51688" lon="-2.57503">
        <ele>74.1</ele>
        <time>2016-03-25T12:17:05Z</time>
      </trkpt>
      <trkpt lat="48.51684" lon="-2.57521">
        <ele>74</ele>
        <time>2016-03-25T12:17:07Z</time>
      </trkpt>
      <trkpt lat="48.51681" lon="-2.5754">
        <ele>73.8</ele>
        <time>2016-03-25T12:17:09Z</time>
      </trkpt>
      <trkpt lat="48.5168" lon="-2.57561">
        <ele>73.6</ele>
        <time>2016-03-25T12:17:11Z</time>
      </trkpt>
      <trkpt lat="48.51679" lon="-2.57581">
        <ele>73.4</ele>
        <time>2016-03-25T12:17:13Z</time>
      </trkpt>
      <trkpt lat="48.51679" lon="-2.57602">
        <ele>73.2</ele>
        <time>2016-03-25T12:17:15Z</time>
      </trkpt>
      <trkpt lat="48.51679" lon="-2.57621">
        <ele>73</ele>
        <time>2016-03-25T12:17:17Z</time>
      </trkpt>
      <trkpt lat="48.51676" lon="-2.57638">
        <ele>72.8</ele>
        <time>2016-03-25T12:17:19Z</time>
      </trkpt>
      <trkpt lat="48.51667" lon="-2.57652">
        <ele>72.6</ele>
        <time>2016-03-25T12:17:21Z</time>
      </trkpt>
      <trkpt lat="48.51658" lon="-2.57667">
        <ele>72.5</ele>
        <time>2016-03-25T12:17:23Z</time>
      </trkpt>
      <trkpt lat="48.51649" lon="-2.57681">
        <ele>72.3</ele>
        <time>2016-03-25T12:17:25Z</time>
      </trkpt>
      <trkpt lat="48.51641" lon="-2.57696">
        <ele>72.2</ele>
        <time>2016-03-25T12:17:27Z</time>
      </trkpt>
      <trkpt lat="48.51631" lon="-2.57711">
        <ele>72.1</ele>
        <time>2016-03-25T12:17:29Z</time>
      </trkpt>
      <trkpt lat="48.51622" lon="-2.57725">
        <ele>72</ele>
        <time>2016-03-25T12:17:31Z</time>
      </trkpt>
      <trkpt lat="48.51612" lon="-2.5774">
        <ele>71.9</ele>
        <time>2016-03-25T12:17:33Z</time>
      </trkpt>
      <trkpt lat="48.51602" lon="-2.57753">
        <ele>71.8</ele>
        <time>2016-03-25T12:17:35Z</time>
      </trkpt>
      <trkpt lat="48.51592" lon="-2.57767">
        <ele>71.7</ele>
        <time>2016-03-25T12:17:37Z</time>
      </trkpt>
      <trkpt lat="48.51583" lon="-2.5778">
        <ele>71.6</ele>
        <time>2016-03-25T12:17:39Z</time>
      </trkpt>
      <trkpt lat="48.51573" lon="-2.57794">
        <ele>71.4</ele>
        <time>2016-03-25T12:17:41Z</time>
      </trkpt>
      <trkpt lat="48.51565" lon="-2.5781">
        <ele>71.3</ele>
        <time>2016-03-25T12:17:43Z</time>
      </trkpt>
      <trkpt lat="48.51558" lon="-2.57826">
        <ele>71.2</ele>
        <time>2016-03-25T12:17:45Z</time>
      </trkpt>
      <trkpt lat="48.5155" lon="-2.57843">
        <ele>71.1</ele>
        <time>2016-03-25T12:17:47Z</time>
      </trkpt>
      <trkpt lat="48.51543" lon="-2.57859">
        <ele>71</ele>
        <time>2016-03-25T12:17:49Z</time>
      </trkpt>
      <trkpt lat="48.51536" lon="-2.57876">
        <ele>70.9</ele>
        <time>2016-03-25T12:17:51Z</time>
      </trkpt>
      <trkpt lat="48.51529" lon="-2.57893">
        <ele>70.7</ele>
        <time>2016-03-25T12:17:53Z</time>
      </trkpt>
      <trkpt lat="48.51522" lon="-2.5791">
        <ele>70.6</ele>
        <time>2016-03-25T12:17:55Z</time>
      </trkpt>
      <trkpt lat="48.51516" lon="-2.57927">
        <ele>70.5</ele>
        <time>2016-03-25T12:17:57Z</time>
      </trkpt>
      <trkpt lat="48.51509" lon="-2.57944">
        <ele>70.3</ele>
        <time>2016-03-25T12:17:59Z</time>
      </trkpt>
      <trkpt lat="48.51504" lon="-2.57962">
        <ele>70.2</ele>
        <time>2016-03-25T12:18:01Z</time>
      </trkpt>
      <trkpt lat="48.51499" lon="-2.57981">
        <ele>70</ele>
        <time>2016-03-25T12:18:03Z</time>
      </trkpt>
      <trkpt lat="48.51494" lon="-2.58">
        <ele>69.9</ele>
        <time>2016-03-25T12:18:05Z</time>
      </trkpt>
      <trkpt lat="48.51488" lon="-2.58019">
        <ele>69.7</ele>
        <time>2016-03-25T12:18:07Z</time>
      </trkpt>
      <trkpt lat="48.51481" lon="-2.58037">
        <ele>69.6</ele>
        <time>2016-03-25T12:18:09Z</time>
      </trkpt>
      <trkpt lat="48.51474" lon="-2.58053">
        <ele>69.5</ele>
        <time>2016-03-25T12:18:11Z</time>
      </trkpt>
      <trkpt lat="48.51465" lon="-2.58069">
        <ele>69.3</ele>
        <time>2016-03-25T12:18:13Z</time>
      </trkpt>
      <trkpt lat="48.51456" lon="-2.58084">
        <ele>69.2</ele>
        <time>2016-03-25T12:18:15Z</time>
      </trkpt>
      <trkpt lat="48.51447" lon="-2.58099">
        <ele>69</ele>
        <time>2016-03-25T12:18:17Z</time>
      </trkpt>
      <trkpt lat="48.51438" lon="-2.58114">
        <ele>68.8</ele>
        <time>2016-03-25T12:18:19Z</time>
      </trkpt>
      <trkpt lat="48.51429" lon="-2.5813">
        <ele>68.6</ele>
        <time>2016-03-25T12:18:21Z</time>
      </trkpt>
      <trkpt lat="48.5142" lon="-2.58149">
        <ele>68.3</ele>
        <time>2016-03-25T12:18:23Z</time>
      </trkpt>
      <trkpt lat="48.51413" lon="-2.58168">
        <ele>67.9</ele>
        <time>2016-03-25T12:18:25Z</time>
      </trkpt>
      <trkpt lat="48.51408" lon="-2.58182">
        <ele>67.5</ele>
        <time>2016-03-25T12:18:27Z</time>
      </trkpt>
      <trkpt lat="48.514" lon="-2.58195">
        <ele>66.4</ele>
        <time>2016-03-25T12:18:32Z</time>
      </trkpt>
      <trkpt lat="48.51398" lon="-2.58216">
        <ele>65.6</ele>
        <time>2016-03-25T12:18:35Z</time>
      </trkpt>
      <trkpt lat="48.51397" lon="-2.58235">
        <ele>65</ele>
        <time>2016-03-25T12:18:37Z</time>
      </trkpt>
      <trkpt lat="48.51395" lon="-2.58248">
        <ele>64.2</ele>
        <time>2016-03-25T12:18:39Z</time>
      </trkpt>
      <trkpt lat="48.51391" lon="-2.58266">
        <ele>62.9</ele>
        <time>2016-03-25T12:18:42Z</time>
      </trkpt>
      <trkpt lat="48.51387" lon="-2.58281">
        <ele>61.8</ele>
        <time>2016-03-25T12:18:45Z</time>
      </trkpt>
      <trkpt lat="48.51378" lon="-2.58282">
        <ele>59</ele>
        <time>2016-03-25T12:18:54Z</time>
      </trkpt>
      <trkpt lat="48.51369" lon="-2.58277">
        <ele>54.5</ele>
        <time>2016-03-25T12:20:24Z</time>
      </trkpt>
      <trkpt lat="48.51367" lon="-2.58263">
        <ele>54.8</ele>
        <time>2016-03-25T12:20:43Z</time>
      </trkpt>
      <trkpt lat="48.51368" lon="-2.58261">
        <ele>55.2</ele>
        <time>2016-03-25T12:21:42Z</time>
      </trkpt>
      <trkpt lat="48.5136" lon="-2.58253">
        <ele>52.9</ele>
        <time>2016-03-25T12:46:23Z</time>
      </trkpt>
      <trkpt lat="48.51351" lon="-2.58244">
        <ele>53</ele>
        <time>2016-03-25T12:46:32Z</time>
      </trkpt>
      <trkpt lat="48.51341" lon="-2.58239">
        <ele>53.2</ele>
        <time>2016-03-25T12:46:38Z</time>
      </trkpt>
      <trkpt lat="48.51332" lon="-2.58239">
        <ele>54</ele>
        <time>2016-03-25T12:46:45Z</time>
      </trkpt>
      <trkpt lat="48.51322" lon="-2.58237">
        <ele>53.5</ele>
        <time>2016-03-25T12:46:52Z</time>
      </trkpt>
      <trkpt lat="48.51311" lon="-2.58236">
        <ele>54.4</ele>
        <time>2016-03-25T12:46:57Z</time>
      </trkpt>
      <trkpt lat="48.51301" lon="-2.58233">
        <ele>55.3</ele>
        <time>2016-03-25T12:47:01Z</time>
      </trkpt>
      <trkpt lat="48.51292" lon="-2.58227">
        <ele>56.4</ele>
        <time>2016-03-25T12:47:06Z</time>
      </trkpt>
      <trkpt lat="48.51283" lon="-2.58219">
        <ele>57.7</ele>
        <time>2016-03-25T12:47:11Z</time>
      </trkpt>
      <trkpt lat="48.51274" lon="-2.58209">
        <ele>58.6</ele>
        <time>2016-03-25T12:47:15Z</time>
      </trkpt>
      <trkpt lat="48.51267" lon="-2.58199">
        <ele>59.6</ele>
        <time>2016-03-25T12:47:19Z</time>
      </trkpt>
      <trkpt lat="48.51257" lon="-2.58193">
        <ele>60.2</ele>
        <time>2016-03-25T12:47:22Z</time>
      </trkpt>
      <trkpt lat="48.51247" lon="-2.58197">
        <ele>60.8</ele>
        <time>2016-03-25T12:47:26Z</time>
      </trkpt>
      <trkpt lat="48.51236" lon="-2.58204">
        <ele>61.4</ele>
        <time>2016-03-25T12:47:30Z</time>
      </trkpt>
      <trkpt lat="48.51227" lon="-2.58208">
        <ele>61.8</ele>
        <time>2016-03-25T12:47:33Z</time>
      </trkpt>
      <trkpt lat="48.51216" lon="-2.58214">
        <ele>62.2</ele>
        <time>2016-03-25T12:47:37Z</time>
      </trkpt>
      <trkpt lat="48.51207" lon="-2.58223">
        <ele>62.5</ele>
        <time>2016-03-25T12:47:40Z</time>
      </trkpt>
      <trkpt lat="48.51201" lon="-2.58234">
        <ele>62.7</ele>
        <time>2016-03-25T12:47:43Z</time>
      </trkpt>
      <trkpt lat="48.51193" lon="-2.58245">
        <ele>62.9</ele>
        <time>2016-03-25T12:47:46Z</time>
      </trkpt>
      <trkpt lat="48.51186" lon="-2.58255">
        <ele>63.1</ele>
        <time>2016-03-25T12:47:49Z</time>
      </trkpt>
      <trkpt lat="48.51177" lon="-2.58264">
        <ele>63.3</ele>
        <time>2016-03-25T12:47:52Z</time>
      </trkpt>
      <trkpt lat="48.51168" lon="-2.58274">
        <ele>63.5</ele>
        <time>2016-03-25T12:47:55Z</time>
      </trkpt>
      <trkpt lat="48.51158" lon="-2.58283">
        <ele>63.6</ele>
        <time>2016-03-25T12:47:58Z</time>
      </trkpt>
      <trkpt lat="48.51149" lon="-2.58291">
        <ele>63.7</ele>
        <time>2016-03-25T12:48:01Z</time>
      </trkpt>
      <trkpt lat="48.51138" lon="-2.58299">
        <ele>63.8</ele>
        <time>2016-03-25T12:48:04Z</time>
      </trkpt>
      <trkpt lat="48.51128" lon="-2.58308">
        <ele>63.9</ele>
        <time>2016-03-25T12:48:07Z</time>
      </trkpt>
      <trkpt lat="48.51118" lon="-2.58317">
        <ele>64</ele>
        <time>2016-03-25T12:48:10Z</time>
      </trkpt>
      <trkpt lat="48.51107" lon="-2.58327">
        <ele>64</ele>
        <time>2016-03-25T12:48:13Z</time>
      </trkpt>
      <trkpt lat="48.51096" lon="-2.58337">
        <ele>64.1</ele>
        <time>2016-03-25T12:48:16Z</time>
      </trkpt>
      <trkpt lat="48.51086" lon="-2.58348">
        <ele>64.1</ele>
        <time>2016-03-25T12:48:19Z</time>
      </trkpt>
      <trkpt lat="48.51076" lon="-2.58359">
        <ele>64.1</ele>
        <time>2016-03-25T12:48:22Z</time>
      </trkpt>
      <trkpt lat="48.51066" lon="-2.5837">
        <ele>64.1</ele>
        <time>2016-03-25T12:48:25Z</time>
      </trkpt>
      <trkpt lat="48.51056" lon="-2.58382">
        <ele>64</ele>
        <time>2016-03-25T12:48:28Z</time>
      </trkpt>
      <trkpt lat="48.51046" lon="-2.58394">
        <ele>64</ele>
        <time>2016-03-25T12:48:31Z</time>
      </trkpt>
      <trkpt lat="48.51036" lon="-2.58406">
        <ele>63.9</ele>
        <time>2016-03-25T12:48:34Z</time>
      </trkpt>
      <trkpt lat="48.51026" lon="-2.58418">
        <ele>63.8</ele>
        <time>2016-03-25T12:48:37Z</time>
      </trkpt>
      <trkpt lat="48.51016" lon="-2.5843">
        <ele>63.6</ele>
        <time>2016-03-25T12:48:40Z</time>
      </trkpt>
      <trkpt lat="48.51006" lon="-2.58442">
        <ele>63.5</ele>
        <time>2016-03-25T12:48:43Z</time>
      </trkpt>
      <trkpt lat="48.50997" lon="-2.58454">
        <ele>63.4</ele>
        <time>2016-03-25T12:48:46Z</time>
      </trkpt>
      <trkpt lat="48.50987" lon="-2.58464">
        <ele>63.4</ele>
        <time>2016-03-25T12:48:49Z</time>
      </trkpt>
      <trkpt lat="48.5098" lon="-2.58472">
        <ele>63.3</ele>
        <time>2016-03-25T12:48:52Z</time>
      </trkpt>
      <trkpt lat="48.5097" lon="-2.58481">
        <ele>63.2</ele>
        <time>2016-03-25T12:48:55Z</time>
      </trkpt>
      <trkpt lat="48.50961" lon="-2.58492">
        <ele>63.1</ele>
        <time>2016-03-25T12:48:58Z</time>
      </trkpt>
      <trkpt lat="48.5095" lon="-2.58501">
        <ele>63</ele>
        <time>2016-03-25T12:49:01Z</time>
      </trkpt>
      <trkpt lat="48.5094" lon="-2.58511">
        <ele>63</ele>
        <time>2016-03-25T12:49:04Z</time>
      </trkpt>
      <trkpt lat="48.50931" lon="-2.58519">
        <ele>63</ele>
        <time>2016-03-25T12:49:07Z</time>
      </trkpt>
      <trkpt lat="48.50921" lon="-2.58528">
        <ele>62.9</ele>
        <time>2016-03-25T12:49:10Z</time>
      </trkpt>
      <trkpt lat="48.50911" lon="-2.58537">
        <ele>62.9</ele>
        <time>2016-03-25T12:49:13Z</time>
      </trkpt>
      <trkpt lat="48.50902" lon="-2.58548">
        <ele>62.9</ele>
        <time>2016-03-25T12:49:16Z</time>
      </trkpt>
      <trkpt lat="48.50893" lon="-2.5856">
        <ele>62.9</ele>
        <time>2016-03-25T12:49:19Z</time>
      </trkpt>
      <trkpt lat="48.50883" lon="-2.58571">
        <ele>62.9</ele>
        <time>2016-03-25T12:49:22Z</time>
      </trkpt>
      <trkpt lat="48.50874" lon="-2.58582">
        <ele>62.9</ele>
        <time>2016-03-25T12:49:25Z</time>
      </trkpt>
      <trkpt lat="48.50866" lon="-2.58595">
        <ele>62.9</ele>
        <time>2016-03-25T12:49:28Z</time>
      </trkpt>
      <trkpt lat="48.50858" lon="-2.58608">
        <ele>62.9</ele>
        <time>2016-03-25T12:49:31Z</time>
      </trkpt>
      <trkpt lat="48.5085" lon="-2.58623">
        <ele>63</ele>
        <time>2016-03-25T12:49:34Z</time>
      </trkpt>
      <trkpt lat="48.50841" lon="-2.58639">
        <ele>63</ele>
        <time>2016-03-25T12:49:37Z</time>
      </trkpt>
      <trkpt lat="48.50833" lon="-2.58654">
        <ele>63</ele>
        <time>2016-03-25T12:49:40Z</time>
      </trkpt>
      <trkpt lat="48.50827" lon="-2.58665">
        <ele>63</ele>
        <time>2016-03-25T12:49:42Z</time>
      </trkpt>
      <trkpt lat="48.50821" lon="-2.58676">
        <ele>63</ele>
        <time>2016-03-25T12:49:44Z</time>
      </trkpt>
      <trkpt lat="48.50814" lon="-2.58687">
        <ele>63</ele>
        <time>2016-03-25T12:49:46Z</time>
      </trkpt>
      <trkpt lat="48.50807" lon="-2.58698">
        <ele>63</ele>
        <time>2016-03-25T12:49:48Z</time>
      </trkpt>
      <trkpt lat="48.50801" lon="-2.58708">
        <ele>63</ele>
        <time>2016-03-25T12:49:50Z</time>
      </trkpt>
      <trkpt lat="48.50795" lon="-2.58718">
        <ele>62.9</ele>
        <time>2016-03-25T12:49:52Z</time>
      </trkpt>
      <trkpt lat="48.50785" lon="-2.58729">
        <ele>62.8</ele>
        <time>2016-03-25T12:49:55Z</time>
      </trkpt>
      <trkpt lat="48.50774" lon="-2.58736">
        <ele>62.7</ele>
        <time>2016-03-25T12:49:58Z</time>
      </trkpt>
      <trkpt lat="48.5076" lon="-2.58737">
        <ele>62.5</ele>
        <time>2016-03-25T12:50:01Z</time>
      </trkpt>
      <trkpt lat="48.50751" lon="-2.5874">
        <ele>62.4</ele>
        <time>2016-03-25T12:50:03Z</time>
      </trkpt>
      <trkpt lat="48.50741" lon="-2.58741">
        <ele>62.2</ele>
        <time>2016-03-25T12:50:05Z</time>
      </trkpt>
      <trkpt lat="48.50731" lon="-2.58742">
        <ele>62</ele>
        <time>2016-03-25T12:50:07Z</time>
      </trkpt>
      <trkpt lat="48.50721" lon="-2.58742">
        <ele>61.8</ele>
        <time>2016-03-25T12:50:09Z</time>
      </trkpt>
      <trkpt lat="48.5071" lon="-2.58742">
        <ele>61.6</ele>
        <time>2016-03-25T12:50:11Z</time>
      </trkpt>
      <trkpt lat="48.50699" lon="-2.58741">
        <ele>61.5</ele>
        <time>2016-03-25T12:50:13Z</time>
      </trkpt>
      <trkpt lat="48.50688" lon="-2.58741">
        <ele>61.3</ele>
        <time>2016-03-25T12:50:15Z</time>
      </trkpt>
      <trkpt lat="48.50677" lon="-2.58743">
        <ele>61.2</ele>
        <time>2016-03-25T12:50:17Z</time>
      </trkpt>
      <trkpt lat="48.50667" lon="-2.58749">
        <ele>61.1</ele>
        <time>2016-03-25T12:50:19Z</time>
      </trkpt>
      <trkpt lat="48.50659" lon="-2.58761">
        <ele>61</ele>
        <time>2016-03-25T12:50:21Z</time>
      </trkpt>
      <trkpt lat="48.50653" lon="-2.58776">
        <ele>60.9</ele>
        <time>2016-03-25T12:50:23Z</time>
      </trkpt>
      <trkpt lat="48.50647" lon="-2.58791">
        <ele>60.9</ele>
        <time>2016-03-25T12:50:25Z</time>
      </trkpt>
      <trkpt lat="48.50641" lon="-2.58807">
        <ele>60.8</ele>
        <time>2016-03-25T12:50:27Z</time>
      </trkpt>
      <trkpt lat="48.50636" lon="-2.58824">
        <ele>60.7</ele>
        <time>2016-03-25T12:50:29Z</time>
      </trkpt>
      <trkpt lat="48.5063" lon="-2.5884">
        <ele>60.6</ele>
        <time>2016-03-25T12:50:31Z</time>
      </trkpt>
      <trkpt lat="48.50624" lon="-2.58856">
        <ele>60.5</ele>
        <time>2016-03-25T12:50:33Z</time>
      </trkpt>
      <trkpt lat="48.50617" lon="-2.58871">
        <ele>60.4</ele>
        <time>2016-03-25T12:50:35Z</time>
      </trkpt>
      <trkpt lat="48.5061" lon="-2.5888">
        <ele>60.1</ele>
        <time>2016-03-25T12:50:37Z</time>
      </trkpt>
      <trkpt lat="48.50599" lon="-2.58884">
        <ele>59.8</ele>
        <time>2016-03-25T12:50:39Z</time>
      </trkpt>
      <trkpt lat="48.50587" lon="-2.58883">
        <ele>59.5</ele>
        <time>2016-03-25T12:50:41Z</time>
      </trkpt>
      <trkpt lat="48.50575" lon="-2.58883">
        <ele>59.1</ele>
        <time>2016-03-25T12:50:43Z</time>
      </trkpt>
      <trkpt lat="48.50563" lon="-2.58883">
        <ele>58.8</ele>
        <time>2016-03-25T12:50:45Z</time>
      </trkpt>
      <trkpt lat="48.50552" lon="-2.58884">
        <ele>58.5</ele>
        <time>2016-03-25T12:50:47Z</time>
      </trkpt>
      <trkpt lat="48.50541" lon="-2.58885">
        <ele>58.3</ele>
        <time>2016-03-25T12:50:49Z</time>
      </trkpt>
      <trkpt lat="48.50529" lon="-2.58884">
        <ele>58.1</ele>
        <time>2016-03-25T12:50:51Z</time>
      </trkpt>
      <trkpt lat="48.50519" lon="-2.58882">
        <ele>57.9</ele>
        <time>2016-03-25T12:50:53Z</time>
      </trkpt>
      <trkpt lat="48.50508" lon="-2.58877">
        <ele>57.8</ele>
        <time>2016-03-25T12:50:55Z</time>
      </trkpt>
      <trkpt lat="48.505" lon="-2.58873">
        <ele>57.7</ele>
        <time>2016-03-25T12:50:57Z</time>
      </trkpt>
      <trkpt lat="48.50489" lon="-2.58867">
        <ele>57.7</ele>
        <time>2016-03-25T12:51:00Z</time>
      </trkpt>
      <trkpt lat="48.50479" lon="-2.5886">
        <ele>57.6</ele>
        <time>2016-03-25T12:51:05Z</time>
      </trkpt>
      <trkpt lat="48.50471" lon="-2.58851">
        <ele>57.6</ele>
        <time>2016-03-25T12:51:08Z</time>
      </trkpt>
      <trkpt lat="48.5046" lon="-2.58841">
        <ele>57.6</ele>
        <time>2016-03-25T12:51:11Z</time>
      </trkpt>
      <trkpt lat="48.50452" lon="-2.58835">
        <ele>57.6</ele>
        <time>2016-03-25T12:51:13Z</time>
      </trkpt>
      <trkpt lat="48.5044" lon="-2.58824">
        <ele>57.6</ele>
        <time>2016-03-25T12:51:16Z</time>
      </trkpt>
      <trkpt lat="48.50431" lon="-2.58816">
        <ele>57.6</ele>
        <time>2016-03-25T12:51:18Z</time>
      </trkpt>
      <trkpt lat="48.50423" lon="-2.58807">
        <ele>57.6</ele>
        <time>2016-03-25T12:51:20Z</time>
      </trkpt>
      <trkpt lat="48.50415" lon="-2.58796">
        <ele>57.6</ele>
        <time>2016-03-25T12:51:22Z</time>
      </trkpt>
      <trkpt lat="48.50407" lon="-2.58786">
        <ele>57.6</ele>
        <time>2016-03-25T12:51:24Z</time>
      </trkpt>
      <trkpt lat="48.50399" lon="-2.58776">
        <ele>57.7</ele>
        <time>2016-03-25T12:51:26Z</time>
      </trkpt>
      <trkpt lat="48.5039" lon="-2.58765">
        <ele>57.7</ele>
        <time>2016-03-25T12:51:28Z</time>
      </trkpt>
      <trkpt lat="48.50381" lon="-2.58754">
        <ele>57.8</ele>
        <time>2016-03-25T12:51:30Z</time>
      </trkpt>
      <trkpt lat="48.50373" lon="-2.58743">
        <ele>57.9</ele>
        <time>2016-03-25T12:51:32Z</time>
      </trkpt>
      <trkpt lat="48.50366" lon="-2.58732">
        <ele>58</ele>
        <time>2016-03-25T12:51:34Z</time>
      </trkpt>
      <trkpt lat="48.50357" lon="-2.58724">
        <ele>58.2</ele>
        <time>2016-03-25T12:51:36Z</time>
      </trkpt>
      <trkpt lat="48.50348" lon="-2.58728">
        <ele>58.3</ele>
        <time>2016-03-25T12:51:38Z</time>
      </trkpt>
      <trkpt lat="48.50344" lon="-2.58741">
        <ele>58.4</ele>
        <time>2016-03-25T12:51:40Z</time>
      </trkpt>
      <trkpt lat="48.50343" lon="-2.58757">
        <ele>58.5</ele>
        <time>2016-03-25T12:51:42Z</time>
      </trkpt>
      <trkpt lat="48.50342" lon="-2.58774">
        <ele>58.6</ele>
        <time>2016-03-25T12:51:44Z</time>
      </trkpt>
      <trkpt lat="48.50344" lon="-2.58792">
        <ele>58.6</ele>
        <time>2016-03-25T12:51:46Z</time>
      </trkpt>
      <trkpt lat="48.50348" lon="-2.5881">
        <ele>58.7</ele>
        <time>2016-03-25T12:51:48Z</time>
      </trkpt>
      <trkpt lat="48.50353" lon="-2.58828">
        <ele>58.6</ele>
        <time>2016-03-25T12:51:50Z</time>
      </trkpt>
      <trkpt lat="48.50357" lon="-2.58846">
        <ele>58.5</ele>
        <time>2016-03-25T12:51:52Z</time>
      </trkpt>
      <trkpt lat="48.50362" lon="-2.58864">
        <ele>58.3</ele>
        <time>2016-03-25T12:51:54Z</time>
      </trkpt>
      <trkpt lat="48.50367" lon="-2.58882">
        <ele>58.2</ele>
        <time>2016-03-25T12:51:56Z</time>
      </trkpt>
      <trkpt lat="48.50372" lon="-2.589">
        <ele>58</ele>
        <time>2016-03-25T12:51:58Z</time>
      </trkpt>
      <trkpt lat="48.50376" lon="-2.58918">
        <ele>57.8</ele>
        <time>2016-03-25T12:52:00Z</time>
      </trkpt>
      <trkpt lat="48.50382" lon="-2.58936">
        <ele>57.6</ele>
        <time>2016-03-25T12:52:02Z</time>
      </trkpt>
      <trkpt lat="48.50387" lon="-2.58953">
        <ele>57.4</ele>
        <time>2016-03-25T12:52:04Z</time>
      </trkpt>
      <trkpt lat="48.50393" lon="-2.5897">
        <ele>57.2</ele>
        <time>2016-03-25T12:52:06Z</time>
      </trkpt>
      <trkpt lat="48.504" lon="-2.58985">
        <ele>57.1</ele>
        <time>2016-03-25T12:52:08Z</time>
      </trkpt>
      <trkpt lat="48.50408" lon="-2.58998">
        <ele>56.9</ele>
        <time>2016-03-25T12:52:10Z</time>
      </trkpt>
      <trkpt lat="48.50417" lon="-2.5901">
        <ele>56.7</ele>
        <time>2016-03-25T12:52:12Z</time>
      </trkpt>
      <trkpt lat="48.50425" lon="-2.59022">
        <ele>56.5</ele>
        <time>2016-03-25T12:52:14Z</time>
      </trkpt>
      <trkpt lat="48.50434" lon="-2.59034">
        <ele>56.3</ele>
        <time>2016-03-25T12:52:16Z</time>
      </trkpt>
      <trkpt lat="48.50441" lon="-2.59047">
        <ele>56.1</ele>
        <time>2016-03-25T12:52:18Z</time>
      </trkpt>
      <trkpt lat="48.50449" lon="-2.5906">
        <ele>55.9</ele>
        <time>2016-03-25T12:52:20Z</time>
      </trkpt>
      <trkpt lat="48.50457" lon="-2.59073">
        <ele>55.7</ele>
        <time>2016-03-25T12:52:22Z</time>
      </trkpt>
      <trkpt lat="48.50464" lon="-2.59088">
        <ele>55.5</ele>
        <time>2016-03-25T12:52:24Z</time>
      </trkpt>
      <trkpt lat="48.50472" lon="-2.59102">
        <ele>55.4</ele>
        <time>2016-03-25T12:52:26Z</time>
      </trkpt>
      <trkpt lat="48.50481" lon="-2.59118">
        <ele>55.1</ele>
        <time>2016-03-25T12:52:28Z</time>
      </trkpt>
      <trkpt lat="48.50489" lon="-2.59136">
        <ele>54.8</ele>
        <time>2016-03-25T12:52:30Z</time>
      </trkpt>
      <trkpt lat="48.50497" lon="-2.59156">
        <ele>54.4</ele>
        <time>2016-03-25T12:52:32Z</time>
      </trkpt>
      <trkpt lat="48.50505" lon="-2.59176">
        <ele>53.9</ele>
        <time>2016-03-25T12:52:34Z</time>
      </trkpt>
      <trkpt lat="48.50515" lon="-2.59195">
        <ele>53.4</ele>
        <time>2016-03-25T12:52:36Z</time>
      </trkpt>
      <trkpt lat="48.50522" lon="-2.59216">
        <ele>53</ele>
        <time>2016-03-25T12:52:38Z</time>
      </trkpt>
      <trkpt lat="48.50525" lon="-2.59237">
        <ele>52.6</ele>
        <time>2016-03-25T12:52:40Z</time>
      </trkpt>
      <trkpt lat="48.50524" lon="-2.59256">
        <ele>52.3</ele>
        <time>2016-03-25T12:52:42Z</time>
      </trkpt>
      <trkpt lat="48.50522" lon="-2.59275">
        <ele>52</ele>
        <time>2016-03-25T12:52:44Z</time>
      </trkpt>
      <trkpt lat="48.50519" lon="-2.59293">
        <ele>51.8</ele>
        <time>2016-03-25T12:52:46Z</time>
      </trkpt>
      <trkpt lat="48.50516" lon="-2.59311">
        <ele>51.7</ele>
        <time>2016-03-25T12:52:48Z</time>
      </trkpt>
      <trkpt lat="48.50514" lon="-2.59329">
        <ele>51.7</ele>
        <time>2016-03-25T12:52:50Z</time>
      </trkpt>
      <trkpt lat="48.50512" lon="-2.59346">
        <ele>51.7</ele>
        <time>2016-03-25T12:52:52Z</time>
      </trkpt>
      <trkpt lat="48.5051" lon="-2.59363">
        <ele>51.8</ele>
        <time>2016-03-25T12:52:54Z</time>
      </trkpt>
      <trkpt lat="48.50506" lon="-2.59379">
        <ele>51.9</ele>
        <time>2016-03-25T12:52:56Z</time>
      </trkpt>
      <trkpt lat="48.50501" lon="-2.59395">
        <ele>52</ele>
        <time>2016-03-25T12:52:58Z</time>
      </trkpt>
      <trkpt lat="48.50498" lon="-2.59412">
        <ele>52.1</ele>
        <time>2016-03-25T12:53:00Z</time>
      </trkpt>
      <trkpt lat="48.50496" lon="-2.5943">
        <ele>52.2</ele>
        <time>2016-03-25T12:53:02Z</time>
      </trkpt>
      <trkpt lat="48.5049" lon="-2.59446">
        <ele>52.3</ele>
        <time>2016-03-25T12:53:04Z</time>
      </trkpt>
      <trkpt lat="48.50483" lon="-2.59461">
        <ele>52.4</ele>
        <time>2016-03-25T12:53:06Z</time>
      </trkpt>
      <trkpt lat="48.50475" lon="-2.59475">
        <ele>52.5</ele>
        <time>2016-03-25T12:53:08Z</time>
      </trkpt>
      <trkpt lat="48.50467" lon="-2.59489">
        <ele>52.5</ele>
        <time>2016-03-25T12:53:10Z</time>
      </trkpt>
      <trkpt lat="48.50458" lon="-2.59503">
        <ele>52.6</ele>
        <time>2016-03-25T12:53:12Z</time>
      </trkpt>
      <trkpt lat="48.50449" lon="-2.59517">
        <ele>52.6</ele>
        <time>2016-03-25T12:53:14Z</time>
      </trkpt>
      <trkpt lat="48.5044" lon="-2.5953">
        <ele>52.6</ele>
        <time>2016-03-25T12:53:16Z</time>
      </trkpt>
      <trkpt lat="48.50431" lon="-2.59544">
        <ele>52.6</ele>
        <time>2016-03-25T12:53:18Z</time>
      </trkpt>
      <trkpt lat="48.50422" lon="-2.59558">
        <ele>52.5</ele>
        <time>2016-03-25T12:53:20Z</time>
      </trkpt>
      <trkpt lat="48.50412" lon="-2.59573">
        <ele>52.4</ele>
        <time>2016-03-25T12:53:22Z</time>
      </trkpt>
      <trkpt lat="48.50403" lon="-2.59588">
        <ele>52.2</ele>
        <time>2016-03-25T12:53:24Z</time>
      </trkpt>
      <trkpt lat="48.50395" lon="-2.59604">
        <ele>52</ele>
        <time>2016-03-25T12:53:26Z</time>
      </trkpt>
      <trkpt lat="48.50386" lon="-2.59621">
        <ele>51.7</ele>
        <time>2016-03-25T12:53:28Z</time>
      </trkpt>
      <trkpt lat="48.50378" lon="-2.59639">
        <ele>51.4</ele>
        <time>2016-03-25T12:53:30Z</time>
      </trkpt>
      <trkpt lat="48.5037" lon="-2.59656">
        <ele>51.1</ele>
        <time>2016-03-25T12:53:32Z</time>
      </trkpt>
      <trkpt lat="48.50362" lon="-2.59673">
        <ele>50.8</ele>
        <time>2016-03-25T12:53:34Z</time>
      </trkpt>
      <trkpt lat="48.50357" lon="-2.5969">
        <ele>50.5</ele>
        <time>2016-03-25T12:53:36Z</time>
      </trkpt>
      <trkpt lat="48.50353" lon="-2.59706">
        <ele>50.2</ele>
        <time>2016-03-25T12:53:38Z</time>
      </trkpt>
      <trkpt lat="48.50349" lon="-2.5972">
        <ele>49.9</ele>
        <time>2016-03-25T12:53:40Z</time>
      </trkpt>
      <trkpt lat="48.5035" lon="-2.59738">
        <ele>49.3</ele>
        <time>2016-03-25T12:53:43Z</time>
      </trkpt>
      <trkpt lat="48.50359" lon="-2.5975">
        <ele>48.7</ele>
        <time>2016-03-25T12:53:46Z</time>
      </trkpt>
      <trkpt lat="48.50366" lon="-2.59761">
        <ele>48.2</ele>
        <time>2016-03-25T12:53:49Z</time>
      </trkpt>
      <trkpt lat="48.50374" lon="-2.59777">
        <ele>47.7</ele>
        <time>2016-03-25T12:53:52Z</time>
      </trkpt>
      <trkpt lat="48.50381" lon="-2.59792">
        <ele>47.4</ele>
        <time>2016-03-25T12:53:55Z</time>
      </trkpt>
      <trkpt lat="48.50388" lon="-2.59811">
        <ele>47.1</ele>
        <time>2016-03-25T12:53:58Z</time>
      </trkpt>
      <trkpt lat="48.50392" lon="-2.59824">
        <ele>46.9</ele>
        <time>2016-03-25T12:54:00Z</time>
      </trkpt>
      <trkpt lat="48.50394" lon="-2.5984">
        <ele>46.9</ele>
        <time>2016-03-25T12:54:02Z</time>
      </trkpt>
      <trkpt lat="48.50397" lon="-2.59855">
        <ele>46.8</ele>
        <time>2016-03-25T12:54:04Z</time>
      </trkpt>
      <trkpt lat="48.504" lon="-2.59872">
        <ele>46.8</ele>
        <time>2016-03-25T12:54:06Z</time>
      </trkpt>
      <trkpt lat="48.50403" lon="-2.59886">
        <ele>46.8</ele>
        <time>2016-03-25T12:54:08Z</time>
      </trkpt>
      <trkpt lat="48.50405" lon="-2.599">
        <ele>46.8</ele>
        <time>2016-03-25T12:54:10Z</time>
      </trkpt>
      <trkpt lat="48.50409" lon="-2.59914">
        <ele>46.9</ele>
        <time>2016-03-25T12:54:12Z</time>
      </trkpt>
      <trkpt lat="48.50413" lon="-2.59933">
        <ele>47</ele>
        <time>2016-03-25T12:54:15Z</time>
      </trkpt>
      <trkpt lat="48.50417" lon="-2.59952">
        <ele>47.3</ele>
        <time>2016-03-25T12:54:18Z</time>
      </trkpt>
      <trkpt lat="48.5042" lon="-2.59966">
        <ele>47.4</ele>
        <time>2016-03-25T12:54:20Z</time>
      </trkpt>
      <trkpt lat="48.50423" lon="-2.59979">
        <ele>47.5</ele>
        <time>2016-03-25T12:54:22Z</time>
      </trkpt>
      <trkpt lat="48.50426" lon="-2.59996">
        <ele>47.6</ele>
        <time>2016-03-25T12:54:24Z</time>
      </trkpt>
      <trkpt lat="48.50431" lon="-2.60015">
        <ele>47.7</ele>
        <time>2016-03-25T12:54:27Z</time>
      </trkpt>
      <trkpt lat="48.50435" lon="-2.60029">
        <ele>47.7</ele>
        <time>2016-03-25T12:54:29Z</time>
      </trkpt>
      <trkpt lat="48.5044" lon="-2.60043">
        <ele>47.6</ele>
        <time>2016-03-25T12:54:32Z</time>
      </trkpt>
      <trkpt lat="48.50443" lon="-2.60056">
        <ele>47.4</ele>
        <time>2016-03-25T12:54:35Z</time>
      </trkpt>
      <trkpt lat="48.50439" lon="-2.6007">
        <ele>47</ele>
        <time>2016-03-25T12:54:39Z</time>
      </trkpt>
      <trkpt lat="48.50428" lon="-2.60079">
        <ele>46.7</ele>
        <time>2016-03-25T12:54:43Z</time>
      </trkpt>
      <trkpt lat="48.50419" lon="-2.60084">
        <ele>46.4</ele>
        <time>2016-03-25T12:54:46Z</time>
      </trkpt>
      <trkpt lat="48.50407" lon="-2.60091">
        <ele>46.1</ele>
        <time>2016-03-25T12:54:49Z</time>
      </trkpt>
      <trkpt lat="48.50398" lon="-2.60098">
        <ele>45.9</ele>
        <time>2016-03-25T12:54:52Z</time>
      </trkpt>
      <trkpt lat="48.50388" lon="-2.60103">
        <ele>45.8</ele>
        <time>2016-03-25T12:54:55Z</time>
      </trkpt>
      <trkpt lat="48.50379" lon="-2.60104">
        <ele>45.6</ele>
        <time>2016-03-25T12:54:58Z</time>
      </trkpt>
      <trkpt lat="48.50367" lon="-2.601">
        <ele>45.5</ele>
        <time>2016-03-25T12:55:01Z</time>
      </trkpt>
      <trkpt lat="48.50356" lon="-2.60099">
        <ele>45.4</ele>
        <time>2016-03-25T12:55:03Z</time>
      </trkpt>
      <trkpt lat="48.50346" lon="-2.60099">
        <ele>45.2</ele>
        <time>2016-03-25T12:55:05Z</time>
      </trkpt>
      <trkpt lat="48.50338" lon="-2.60105">
        <ele>44.3</ele>
        <time>2016-03-25T12:55:09Z</time>
      </trkpt>
      <trkpt lat="48.50338" lon="-2.60121">
        <ele>43.5</ele>
        <time>2016-03-25T12:55:13Z</time>
      </trkpt>
      <trkpt lat="48.5034" lon="-2.60134">
        <ele>42.2</ele>
        <time>2016-03-25T12:55:22Z</time>
      </trkpt>
      <trkpt lat="48.50349" lon="-2.60134">
        <ele>40.6</ele>
        <time>2016-03-25T12:56:31Z</time>
      </trkpt>
      <trkpt lat="48.5036" lon="-2.60129">
        <ele>41.3</ele>
        <time>2016-03-25T12:56:40Z</time>
      </trkpt>
      <trkpt lat="48.50369" lon="-2.6013">
        <ele>42.2</ele>
        <time>2016-03-25T12:56:51Z</time>
      </trkpt>
      <trkpt lat="48.50378" lon="-2.60127">
        <ele>42.7</ele>
        <time>2016-03-25T12:56:59Z</time>
      </trkpt>
      <trkpt lat="48.50388" lon="-2.60124">
        <ele>42.9</ele>
        <time>2016-03-25T12:57:05Z</time>
      </trkpt>
      <trkpt lat="48.50397" lon="-2.60128">
        <ele>42.5</ele>
        <time>2016-03-25T12:57:08Z</time>
      </trkpt>
      <trkpt lat="48.50399" lon="-2.60143">
        <ele>41.7</ele>
        <time>2016-03-25T12:57:11Z</time>
      </trkpt>
      <trkpt lat="48.50398" lon="-2.60157">
        <ele>41</ele>
        <time>2016-03-25T12:57:13Z</time>
      </trkpt>
      <trkpt lat="48.50395" lon="-2.60172">
        <ele>40</ele>
        <time>2016-03-25T12:57:16Z</time>
      </trkpt>
      <trkpt lat="48.50388" lon="-2.60184">
        <ele>39</ele>
        <time>2016-03-25T12:57:20Z</time>
      </trkpt>
      <trkpt lat="48.50383" lon="-2.60195">
        <ele>38.4</ele>
        <time>2016-03-25T12:57:23Z</time>
      </trkpt>
      <trkpt lat="48.50375" lon="-2.6021">
        <ele>37.7</ele>
        <time>2016-03-25T12:57:27Z</time>
      </trkpt>
      <trkpt lat="48.50368" lon="-2.60223">
        <ele>37.4</ele>
        <time>2016-03-25T12:57:30Z</time>
      </trkpt>
      <trkpt lat="48.5036" lon="-2.60236">
        <ele>37</ele>
        <time>2016-03-25T12:57:33Z</time>
      </trkpt>
      <trkpt lat="48.50354" lon="-2.60251">
        <ele>36.8</ele>
        <time>2016-03-25T12:57:36Z</time>
      </trkpt>
      <trkpt lat="48.50349" lon="-2.60268">
        <ele>36.6</ele>
        <time>2016-03-25T12:57:39Z</time>
      </trkpt>
      <trkpt lat="48.50345" lon="-2.60283">
        <ele>36.4</ele>
        <time>2016-03-25T12:57:42Z</time>
      </trkpt>
      <trkpt lat="48.50343" lon="-2.60299">
        <ele>36.2</ele>
        <time>2016-03-25T12:57:45Z</time>
      </trkpt>
      <trkpt lat="48.5034" lon="-2.60315">
        <ele>36.1</ele>
        <time>2016-03-25T12:57:48Z</time>
      </trkpt>
      <trkpt lat="48.50334" lon="-2.60328">
        <ele>36</ele>
        <time>2016-03-25T12:57:51Z</time>
      </trkpt>
      <trkpt lat="48.50327" lon="-2.60344">
        <ele>35.9</ele>
        <time>2016-03-25T12:57:54Z</time>
      </trkpt>
      <trkpt lat="48.50318" lon="-2.60356">
        <ele>35.8</ele>
        <time>2016-03-25T12:57:57Z</time>
      </trkpt>
      <trkpt lat="48.50311" lon="-2.60364">
        <ele>35.9</ele>
        <time>2016-03-25T12:58:00Z</time>
      </trkpt>
      <trkpt lat="48.50304" lon="-2.60375">
        <ele>36.1</ele>
        <time>2016-03-25T12:58:03Z</time>
      </trkpt>
      <trkpt lat="48.50298" lon="-2.60386">
        <ele>36.3</ele>
        <time>2016-03-25T12:58:06Z</time>
      </trkpt>
      <trkpt lat="48.50295" lon="-2.604">
        <ele>36.7</ele>
        <time>2016-03-25T12:58:10Z</time>
      </trkpt>
      <trkpt lat="48.50294" lon="-2.60414">
        <ele>37</ele>
        <time>2016-03-25T12:58:14Z</time>
      </trkpt>
      <trkpt lat="48.50296" lon="-2.60431">
        <ele>37.3</ele>
        <time>2016-03-25T12:58:17Z</time>
      </trkpt>
      <trkpt lat="48.50296" lon="-2.60447">
        <ele>37.4</ele>
        <time>2016-03-25T12:58:20Z</time>
      </trkpt>
      <trkpt lat="48.50296" lon="-2.60465">
        <ele>37.7</ele>
        <time>2016-03-25T12:58:24Z</time>
      </trkpt>
      <trkpt lat="48.50296" lon="-2.60483">
        <ele>38</ele>
        <time>2016-03-25T12:58:27Z</time>
      </trkpt>
      <trkpt lat="48.50299" lon="-2.60502">
        <ele>38.5</ele>
        <time>2016-03-25T12:58:30Z</time>
      </trkpt>
      <trkpt lat="48.50301" lon="-2.60516">
        <ele>39</ele>
        <time>2016-03-25T12:58:32Z</time>
      </trkpt>
      <trkpt lat="48.50303" lon="-2.60531">
        <ele>40</ele>
        <time>2016-03-25T12:58:35Z</time>
      </trkpt>
      <trkpt lat="48.50304" lon="-2.60545">
        <ele>41.5</ele>
        <time>2016-03-25T12:58:39Z</time>
      </trkpt>
      <trkpt lat="48.50306" lon="-2.60559">
        <ele>43</ele>
        <time>2016-03-25T12:58:43Z</time>
      </trkpt>
      <trkpt lat="48.5031" lon="-2.60573">
        <ele>44.7</ele>
        <time>2016-03-25T12:58:48Z</time>
      </trkpt>
      <trkpt lat="48.50315" lon="-2.60585">
        <ele>45.9</ele>
        <time>2016-03-25T12:58:52Z</time>
      </trkpt>
      <trkpt lat="48.50318" lon="-2.60599">
        <ele>47.2</ele>
        <time>2016-03-25T12:58:57Z</time>
      </trkpt>
      <trkpt lat="48.50319" lon="-2.60613">
        <ele>49.2</ele>
        <time>2016-03-25T12:59:03Z</time>
      </trkpt>
      <trkpt lat="48.50315" lon="-2.60628">
        <ele>50</ele>
        <time>2016-03-25T12:59:10Z</time>
      </trkpt>
      <trkpt lat="48.50317" lon="-2.60642">
        <ele>50.9</ele>
        <time>2016-03-25T12:59:17Z</time>
      </trkpt>
      <trkpt lat="48.50328" lon="-2.60647">
        <ele>51.2</ele>
        <time>2016-03-25T12:59:21Z</time>
      </trkpt>
      <trkpt lat="48.50337" lon="-2.60651">
        <ele>51.5</ele>
        <time>2016-03-25T12:59:24Z</time>
      </trkpt>
      <trkpt lat="48.50347" lon="-2.60655">
        <ele>51.6</ele>
        <time>2016-03-25T12:59:27Z</time>
      </trkpt>
      <trkpt lat="48.50358" lon="-2.60661">
        <ele>51.8</ele>
        <time>2016-03-25T12:59:30Z</time>
      </trkpt>
      <trkpt lat="48.50371" lon="-2.60667">
        <ele>51.8</ele>
        <time>2016-03-25T12:59:33Z</time>
      </trkpt>
      <trkpt lat="48.50379" lon="-2.60672">
        <ele>51.7</ele>
        <time>2016-03-25T12:59:35Z</time>
      </trkpt>
      <trkpt lat="48.50389" lon="-2.60676">
        <ele>51.5</ele>
        <time>2016-03-25T12:59:37Z</time>
      </trkpt>
      <trkpt lat="48.50399" lon="-2.60681">
        <ele>51.4</ele>
        <time>2016-03-25T12:59:39Z</time>
      </trkpt>
      <trkpt lat="48.5041" lon="-2.60687">
        <ele>51.1</ele>
        <time>2016-03-25T12:59:41Z</time>
      </trkpt>
      <trkpt lat="48.50421" lon="-2.60693">
        <ele>50.7</ele>
        <time>2016-03-25T12:59:43Z</time>
      </trkpt>
      <trkpt lat="48.50431" lon="-2.60702">
        <ele>50.4</ele>
        <time>2016-03-25T12:59:45Z</time>
      </trkpt>
      <trkpt lat="48.50441" lon="-2.60711">
        <ele>50</ele>
        <time>2016-03-25T12:59:47Z</time>
      </trkpt>
      <trkpt lat="48.50449" lon="-2.60723">
        <ele>49.5</ele>
        <time>2016-03-25T12:59:49Z</time>
      </trkpt>
      <trkpt lat="48.50458" lon="-2.60737">
        <ele>49</ele>
        <time>2016-03-25T12:59:51Z</time>
      </trkpt>
      <trkpt lat="48.50467" lon="-2.60751">
        <ele>48.4</ele>
        <time>2016-03-25T12:59:53Z</time>
      </trkpt>
      <trkpt lat="48.50474" lon="-2.60768">
        <ele>47.7</ele>
        <time>2016-03-25T12:59:55Z</time>
      </trkpt>
      <trkpt lat="48.50483" lon="-2.60782">
        <ele>47</ele>
        <time>2016-03-25T12:59:57Z</time>
      </trkpt>
      <trkpt lat="48.50491" lon="-2.60799">
        <ele>46.4</ele>
        <time>2016-03-25T12:59:59Z</time>
      </trkpt>
      <trkpt lat="48.50497" lon="-2.60817">
        <ele>45.8</ele>
        <time>2016-03-25T13:00:01Z</time>
      </trkpt>
      <trkpt lat="48.50499" lon="-2.60836">
        <ele>45.3</ele>
        <time>2016-03-25T13:00:03Z</time>
      </trkpt>
      <trkpt lat="48.50498" lon="-2.60853">
        <ele>44.8</ele>
        <time>2016-03-25T13:00:05Z</time>
      </trkpt>
      <trkpt lat="48.50497" lon="-2.60868">
        <ele>44.4</ele>
        <time>2016-03-25T13:00:07Z</time>
      </trkpt>
      <trkpt lat="48.50496" lon="-2.60886">
        <ele>44</ele>
        <time>2016-03-25T13:00:09Z</time>
      </trkpt>
      <trkpt lat="48.50493" lon="-2.60904">
        <ele>43.8</ele>
        <time>2016-03-25T13:00:11Z</time>
      </trkpt>
      <trkpt lat="48.5049" lon="-2.60919">
        <ele>43.7</ele>
        <time>2016-03-25T13:00:13Z</time>
      </trkpt>
      <trkpt lat="48.50487" lon="-2.60935">
        <ele>43.8</ele>
        <time>2016-03-25T13:00:15Z</time>
      </trkpt>
      <trkpt lat="48.50483" lon="-2.60957">
        <ele>43.9</ele>
        <time>2016-03-25T13:00:17Z</time>
      </trkpt>
      <trkpt lat="48.5048" lon="-2.6098">
        <ele>44</ele>
        <time>2016-03-25T13:00:19Z</time>
      </trkpt>
      <trkpt lat="48.50479" lon="-2.60999">
        <ele>44.1</ele>
        <time>2016-03-25T13:00:21Z</time>
      </trkpt>
      <trkpt lat="48.50477" lon="-2.61015">
        <ele>44.2</ele>
        <time>2016-03-25T13:00:23Z</time>
      </trkpt>
      <trkpt lat="48.50475" lon="-2.61029">
        <ele>44.4</ele>
        <time>2016-03-25T13:00:25Z</time>
      </trkpt>
      <trkpt lat="48.50474" lon="-2.61043">
        <ele>44.5</ele>
        <time>2016-03-25T13:00:27Z</time>
      </trkpt>
      <trkpt lat="48.50473" lon="-2.61057">
        <ele>44.6</ele>
        <time>2016-03-25T13:00:29Z</time>
      </trkpt>
      <trkpt lat="48.50472" lon="-2.61072">
        <ele>44.8</ele>
        <time>2016-03-25T13:00:31Z</time>
      </trkpt>
      <trkpt lat="48.50471" lon="-2.61086">
        <ele>44.9</ele>
        <time>2016-03-25T13:00:33Z</time>
      </trkpt>
      <trkpt lat="48.50471" lon="-2.611">
        <ele>45</ele>
        <time>2016-03-25T13:00:35Z</time>
      </trkpt>
      <trkpt lat="48.5047" lon="-2.6112">
        <ele>45.1</ele>
        <time>2016-03-25T13:00:38Z</time>
      </trkpt>
      <trkpt lat="48.5047" lon="-2.61133">
        <ele>45.2</ele>
        <time>2016-03-25T13:00:40Z</time>
      </trkpt>
      <trkpt lat="48.50469" lon="-2.61153">
        <ele>45.3</ele>
        <time>2016-03-25T13:00:43Z</time>
      </trkpt>
      <trkpt lat="48.50468" lon="-2.61167">
        <ele>45.3</ele>
        <time>2016-03-25T13:00:45Z</time>
      </trkpt>
      <trkpt lat="48.50467" lon="-2.61187">
        <ele>45.4</ele>
        <time>2016-03-25T13:00:48Z</time>
      </trkpt>
      <trkpt lat="48.50465" lon="-2.61201">
        <ele>45.3</ele>
        <time>2016-03-25T13:00:50Z</time>
      </trkpt>
      <trkpt lat="48.50465" lon="-2.6122">
        <ele>45</ele>
        <time>2016-03-25T13:00:53Z</time>
      </trkpt>
      <trkpt lat="48.50465" lon="-2.61234">
        <ele>44.8</ele>
        <time>2016-03-25T13:00:55Z</time>
      </trkpt>
      <trkpt lat="48.50467" lon="-2.61254">
        <ele>44.6</ele>
        <time>2016-03-25T13:00:58Z</time>
      </trkpt>
      <trkpt lat="48.50472" lon="-2.61265">
        <ele>44.3</ele>
        <time>2016-03-25T13:01:00Z</time>
      </trkpt>
      <trkpt lat="48.50479" lon="-2.6128">
        <ele>44.1</ele>
        <time>2016-03-25T13:01:02Z</time>
      </trkpt>
      <trkpt lat="48.50491" lon="-2.61295">
        <ele>43.7</ele>
        <time>2016-03-25T13:01:04Z</time>
      </trkpt>
      <trkpt lat="48.50498" lon="-2.61312">
        <ele>43.2</ele>
        <time>2016-03-25T13:01:06Z</time>
      </trkpt>
      <trkpt lat="48.50498" lon="-2.61333">
        <ele>42.7</ele>
        <time>2016-03-25T13:01:08Z</time>
      </trkpt>
      <trkpt lat="48.50491" lon="-2.61352">
        <ele>42.1</ele>
        <time>2016-03-25T13:01:10Z</time>
      </trkpt>
      <trkpt lat="48.50488" lon="-2.6137">
        <ele>41.5</ele>
        <time>2016-03-25T13:01:12Z</time>
      </trkpt>
      <trkpt lat="48.50494" lon="-2.61383">
        <ele>41</ele>
        <time>2016-03-25T13:01:14Z</time>
      </trkpt>
      <trkpt lat="48.50504" lon="-2.61394">
        <ele>40.6</ele>
        <time>2016-03-25T13:01:16Z</time>
      </trkpt>
      <trkpt lat="48.50513" lon="-2.61405">
        <ele>40.1</ele>
        <time>2016-03-25T13:01:18Z</time>
      </trkpt>
      <trkpt lat="48.50523" lon="-2.61409">
        <ele>39.6</ele>
        <time>2016-03-25T13:01:20Z</time>
      </trkpt>
      <trkpt lat="48.50532" lon="-2.61409">
        <ele>38.8</ele>
        <time>2016-03-25T13:01:24Z</time>
      </trkpt>
      <trkpt lat="48.50534" lon="-2.61427">
        <ele>37.5</ele>
        <time>2016-03-25T13:01:35Z</time>
      </trkpt>
      <trkpt lat="48.50535" lon="-2.61443">
        <ele>37.2</ele>
        <time>2016-03-25T13:01:42Z</time>
      </trkpt>
      <trkpt lat="48.50539" lon="-2.61459">
        <ele>37.2</ele>
        <time>2016-03-25T13:01:49Z</time>
      </trkpt>
      <trkpt lat="48.50544" lon="-2.6147">
        <ele>37.5</ele>
        <time>2016-03-25T13:01:54Z</time>
      </trkpt>
      <trkpt lat="48.50545" lon="-2.61484">
        <ele>37.9</ele>
        <time>2016-03-25T13:01:58Z</time>
      </trkpt>
      <trkpt lat="48.50543" lon="-2.61498">
        <ele>38.5</ele>
        <time>2016-03-25T13:02:03Z</time>
      </trkpt>
      <trkpt lat="48.50536" lon="-2.61511">
        <ele>39</ele>
        <time>2016-03-25T13:02:08Z</time>
      </trkpt>
      <trkpt lat="48.5053" lon="-2.61521">
        <ele>39.4</ele>
        <time>2016-03-25T13:02:12Z</time>
      </trkpt>
      <trkpt lat="48.50522" lon="-2.61533">
        <ele>39.8</ele>
        <time>2016-03-25T13:02:16Z</time>
      </trkpt>
      <trkpt lat="48.50514" lon="-2.61543">
        <ele>40</ele>
        <time>2016-03-25T13:02:19Z</time>
      </trkpt>
      <trkpt lat="48.50503" lon="-2.61547">
        <ele>40.1</ele>
        <time>2016-03-25T13:02:22Z</time>
      </trkpt>
      <trkpt lat="48.50493" lon="-2.61546">
        <ele>40</ele>
        <time>2016-03-25T13:02:24Z</time>
      </trkpt>
      <trkpt lat="48.50484" lon="-2.61545">
        <ele>39.8</ele>
        <time>2016-03-25T13:02:26Z</time>
      </trkpt>
      <trkpt lat="48.50475" lon="-2.6154">
        <ele>39.6</ele>
        <time>2016-03-25T13:02:29Z</time>
      </trkpt>
      <trkpt lat="48.50465" lon="-2.6154">
        <ele>39.5</ele>
        <time>2016-03-25T13:02:31Z</time>
      </trkpt>
      <trkpt lat="48.50454" lon="-2.61546">
        <ele>39.3</ele>
        <time>2016-03-25T13:02:34Z</time>
      </trkpt>
      <trkpt lat="48.50443" lon="-2.61555">
        <ele>39.1</ele>
        <time>2016-03-25T13:02:37Z</time>
      </trkpt>
      <trkpt lat="48.50434" lon="-2.61561">
        <ele>38.9</ele>
        <time>2016-03-25T13:02:40Z</time>
      </trkpt>
      <trkpt lat="48.50425" lon="-2.61572">
        <ele>38.9</ele>
        <time>2016-03-25T13:02:44Z</time>
      </trkpt>
      <trkpt lat="48.50417" lon="-2.61582">
        <ele>39.3</ele>
        <time>2016-03-25T13:02:53Z</time>
      </trkpt>
      <trkpt lat="48.50412" lon="-2.61596">
        <ele>39.5</ele>
        <time>2016-03-25T13:02:59Z</time>
      </trkpt>
      <trkpt lat="48.50403" lon="-2.616">
        <ele>39.2</ele>
        <time>2016-03-25T13:03:04Z</time>
      </trkpt>
      <trkpt lat="48.50394" lon="-2.61603">
        <ele>39</ele>
        <time>2016-03-25T13:03:08Z</time>
      </trkpt>
      <trkpt lat="48.50383" lon="-2.616">
        <ele>38.8</ele>
        <time>2016-03-25T13:03:13Z</time>
      </trkpt>
      <trkpt lat="48.50374" lon="-2.61608">
        <ele>38.8</ele>
        <time>2016-03-25T13:03:17Z</time>
      </trkpt>
      <trkpt lat="48.50368" lon="-2.61619">
        <ele>38.9</ele>
        <time>2016-03-25T13:03:20Z</time>
      </trkpt>
      <trkpt lat="48.5036" lon="-2.6163">
        <ele>39.3</ele>
        <time>2016-03-25T13:03:24Z</time>
      </trkpt>
      <trkpt lat="48.5035" lon="-2.61639">
        <ele>40</ele>
        <time>2016-03-25T13:03:28Z</time>
      </trkpt>
      <trkpt lat="48.5034" lon="-2.61648">
        <ele>40.9</ele>
        <time>2016-03-25T13:03:32Z</time>
      </trkpt>
      <trkpt lat="48.50333" lon="-2.61659">
        <ele>41.9</ele>
        <time>2016-03-25T13:03:36Z</time>
      </trkpt>
      <trkpt lat="48.5034" lon="-2.6167">
        <ele>43.7</ele>
        <time>2016-03-25T13:03:43Z</time>
      </trkpt>
      <trkpt lat="48.50349" lon="-2.61674">
        <ele>44.5</ele>
        <time>2016-03-25T13:03:47Z</time>
      </trkpt>
      <trkpt lat="48.50358" lon="-2.61677">
        <ele>44.9</ele>
        <time>2016-03-25T13:03:50Z</time>
      </trkpt>
      <trkpt lat="48.50368" lon="-2.6168">
        <ele>45.3</ele>
        <time>2016-03-25T13:03:53Z</time>
      </trkpt>
      <trkpt lat="48.50378" lon="-2.61684">
        <ele>45.6</ele>
        <time>2016-03-25T13:03:56Z</time>
      </trkpt>
      <trkpt lat="48.50389" lon="-2.61688">
        <ele>45.9</ele>
        <time>2016-03-25T13:03:59Z</time>
      </trkpt>
      <trkpt lat="48.504" lon="-2.61693">
        <ele>46.1</ele>
        <time>2016-03-25T13:04:02Z</time>
      </trkpt>
      <trkpt lat="48.5041" lon="-2.61699">
        <ele>46.2</ele>
        <time>2016-03-25T13:04:05Z</time>
      </trkpt>
      <trkpt lat="48.50419" lon="-2.61709">
        <ele>46.4</ele>
        <time>2016-03-25T13:04:08Z</time>
      </trkpt>
      <trkpt lat="48.50426" lon="-2.61719">
        <ele>46.5</ele>
        <time>2016-03-25T13:04:11Z</time>
      </trkpt>
      <trkpt lat="48.50435" lon="-2.61724">
        <ele>46.6</ele>
        <time>2016-03-25T13:04:14Z</time>
      </trkpt>
      <trkpt lat="48.50444" lon="-2.61719">
        <ele>46.7</ele>
        <time>2016-03-25T13:04:17Z</time>
      </trkpt>
      <trkpt lat="48.50455" lon="-2.61715">
        <ele>46.9</ele>
        <time>2016-03-25T13:04:21Z</time>
      </trkpt>
      <trkpt lat="48.50467" lon="-2.61711">
        <ele>47.2</ele>
        <time>2016-03-25T13:04:25Z</time>
      </trkpt>
      <trkpt lat="48.50476" lon="-2.61706">
        <ele>47.6</ele>
        <time>2016-03-25T13:04:28Z</time>
      </trkpt>
      <trkpt lat="48.50486" lon="-2.61702">
        <ele>48</ele>
        <time>2016-03-25T13:04:31Z</time>
      </trkpt>
      <trkpt lat="48.50495" lon="-2.61695">
        <ele>48.6</ele>
        <time>2016-03-25T13:04:36Z</time>
      </trkpt>
      <trkpt lat="48.50501" lon="-2.61684">
        <ele>49</ele>
        <time>2016-03-25T13:04:40Z</time>
      </trkpt>
      <trkpt lat="48.50506" lon="-2.61673">
        <ele>49.3</ele>
        <time>2016-03-25T13:04:45Z</time>
      </trkpt>
      <trkpt lat="48.50512" lon="-2.6166">
        <ele>49.6</ele>
        <time>2016-03-25T13:04:50Z</time>
      </trkpt>
      <trkpt lat="48.50517" lon="-2.61646">
        <ele>49.7</ele>
        <time>2016-03-25T13:04:54Z</time>
      </trkpt>
      <trkpt lat="48.50524" lon="-2.61637">
        <ele>50</ele>
        <time>2016-03-25T13:05:06Z</time>
      </trkpt>
      <trkpt lat="48.50534" lon="-2.61634">
        <ele>50.1</ele>
        <time>2016-03-25T13:05:17Z</time>
      </trkpt>
      <trkpt lat="48.50545" lon="-2.61634">
        <ele>50.1</ele>
        <time>2016-03-25T13:05:22Z</time>
      </trkpt>
      <trkpt lat="48.50555" lon="-2.61628">
        <ele>50.1</ele>
        <time>2016-03-25T13:05:26Z</time>
      </trkpt>
      <trkpt lat="48.50563" lon="-2.6162">
        <ele>50.2</ele>
        <time>2016-03-25T13:05:29Z</time>
      </trkpt>
      <trkpt lat="48.50571" lon="-2.6161">
        <ele>50.3</ele>
        <time>2016-03-25T13:05:32Z</time>
      </trkpt>
      <trkpt lat="48.5058" lon="-2.61599">
        <ele>50.4</ele>
        <time>2016-03-25T13:05:35Z</time>
      </trkpt>
      <trkpt lat="48.5059" lon="-2.61587">
        <ele>50.4</ele>
        <time>2016-03-25T13:05:38Z</time>
      </trkpt>
      <trkpt lat="48.50599" lon="-2.61576">
        <ele>50.5</ele>
        <time>2016-03-25T13:05:41Z</time>
      </trkpt>
      <trkpt lat="48.50608" lon="-2.61564">
        <ele>50.5</ele>
        <time>2016-03-25T13:05:44Z</time>
      </trkpt>
      <trkpt lat="48.50618" lon="-2.61551">
        <ele>50.6</ele>
        <time>2016-03-25T13:05:47Z</time>
      </trkpt>
      <trkpt lat="48.50625" lon="-2.61541">
        <ele>50.6</ele>
        <time>2016-03-25T13:05:49Z</time>
      </trkpt>
      <trkpt lat="48.50632" lon="-2.61532">
        <ele>50.6</ele>
        <time>2016-03-25T13:05:51Z</time>
      </trkpt>
      <trkpt lat="48.50639" lon="-2.61522">
        <ele>50.6</ele>
        <time>2016-03-25T13:05:53Z</time>
      </trkpt>
      <trkpt lat="48.50647" lon="-2.61511">
        <ele>50.4</ele>
        <time>2016-03-25T13:05:55Z</time>
      </trkpt>
      <trkpt lat="48.50656" lon="-2.61502">
        <ele>50.3</ele>
        <time>2016-03-25T13:05:57Z</time>
      </trkpt>
      <trkpt lat="48.50666" lon="-2.61495">
        <ele>50.1</ele>
        <time>2016-03-25T13:05:59Z</time>
      </trkpt>
      <trkpt lat="48.50676" lon="-2.61491">
        <ele>49.9</ele>
        <time>2016-03-25T13:06:01Z</time>
      </trkpt>
      <trkpt lat="48.50684" lon="-2.61479">
        <ele>49.6</ele>
        <time>2016-03-25T13:06:03Z</time>
      </trkpt>
      <trkpt lat="48.5069" lon="-2.61468">
        <ele>49.3</ele>
        <time>2016-03-25T13:06:05Z</time>
      </trkpt>
      <trkpt lat="48.50699" lon="-2.61471">
        <ele>48.5</ele>
        <time>2016-03-25T13:06:09Z</time>
      </trkpt>
      <trkpt lat="48.50699" lon="-2.61471">
        <ele>48.1</ele>
        <time>2016-03-25T13:06:11Z</time>
      </trkpt>
    </trkseg>
  </trk>
</gpx>